<?xml version="1.0" encoding="UTF-8" standalone="no" ?>
<gpx xmlns="http://www.topografix.com/GPX/1/1" xmlns:xsi="http://www.w3.org/2001/XMLSchema-instance" xsi:schemaLocation="http://www.topografix.com/GPX/1/1 http://www.topografix.com/GPX/1/1/gpx.xsd" version="1.1" creator="VisuGPX - https://www.visugpx.com">
  <metadata>
    <name>Parcours-Lagrasse-2022</name>
  </metadata>
  <trk>
    <name><![CDATA[Lagrasse-87km]]></name>
    <extensions>
      <line xmlns="http://www.topografix.com/GPX/gpx_style/0/2">
        <color>FF0000</color>
        <width>8</width>
          <extensions>
            <sens>1</sens>
          </extensions>
      </line>
    </extensions>
    <trkseg>
      <trkpt lat="43.08971" lon="2.62148">
        <ele>135</ele>
        <time>2022-05-02T17:51:58Z</time>
      </trkpt>
      <trkpt lat="43.08969" lon="2.62125">
        <ele>135</ele>
        <time>2022-05-02T17:52:01Z</time>
      </trkpt>
      <trkpt lat="43.08969" lon="2.62093">
        <ele>136</ele>
        <time>2022-05-02T17:52:05Z</time>
      </trkpt>
      <trkpt lat="43.08971" lon="2.62062">
        <ele>136</ele>
        <time>2022-05-02T17:52:09Z</time>
      </trkpt>
      <trkpt lat="43.08975" lon="2.62042">
        <ele>136</ele>
        <time>2022-05-02T17:52:12Z</time>
      </trkpt>
      <trkpt lat="43.08919" lon="2.61996">
        <ele>139</ele>
        <time>2022-05-02T17:52:24Z</time>
      </trkpt>
      <trkpt lat="43.08877" lon="2.61965">
        <ele>140</ele>
        <time>2022-05-02T17:52:32Z</time>
      </trkpt>
      <trkpt lat="43.08826" lon="2.61923">
        <ele>139</ele>
        <time>2022-05-02T17:52:43Z</time>
      </trkpt>
      <trkpt lat="43.08794" lon="2.61905">
        <ele>137</ele>
        <time>2022-05-02T17:52:49Z</time>
      </trkpt>
      <trkpt lat="43.08713" lon="2.61885">
        <ele>139</ele>
        <time>2022-05-02T17:53:03Z</time>
      </trkpt>
      <trkpt lat="43.08684" lon="2.61872">
        <ele>140</ele>
        <time>2022-05-02T17:53:09Z</time>
      </trkpt>
      <trkpt lat="43.08656" lon="2.61856">
        <ele>139</ele>
        <time>2022-05-02T17:53:14Z</time>
      </trkpt>
      <trkpt lat="43.08515" lon="2.61764">
        <ele>139</ele>
        <time>2022-05-02T17:53:42Z</time>
      </trkpt>
      <trkpt lat="43.08491" lon="2.61741">
        <ele>139</ele>
        <time>2022-05-02T17:53:47Z</time>
      </trkpt>
      <trkpt lat="43.08418" lon="2.61644">
        <ele>137</ele>
        <time>2022-05-02T17:54:05Z</time>
      </trkpt>
      <trkpt lat="43.08378" lon="2.61593">
        <ele>137</ele>
        <time>2022-05-02T17:54:15Z</time>
      </trkpt>
      <trkpt lat="43.08349" lon="2.61568">
        <ele>137</ele>
        <time>2022-05-02T17:54:21Z</time>
      </trkpt>
      <trkpt lat="43.08265" lon="2.61512">
        <ele>137</ele>
        <time>2022-05-02T17:54:38Z</time>
      </trkpt>
      <trkpt lat="43.08169" lon="2.61429">
        <ele>139</ele>
        <time>2022-05-02T17:54:58Z</time>
      </trkpt>
      <trkpt lat="43.08147" lon="2.61406">
        <ele>140</ele>
        <time>2022-05-02T17:55:03Z</time>
      </trkpt>
      <trkpt lat="43.08134" lon="2.61384">
        <ele>140</ele>
        <time>2022-05-02T17:55:07Z</time>
      </trkpt>
      <trkpt lat="43.08114" lon="2.61321">
        <ele>138</ele>
        <time>2022-05-02T17:55:16Z</time>
      </trkpt>
      <trkpt lat="43.08105" lon="2.61302">
        <ele>136</ele>
        <time>2022-05-02T17:55:18Z</time>
      </trkpt>
      <trkpt lat="43.08098" lon="2.61295">
        <ele>136</ele>
        <time>2022-05-02T17:55:20Z</time>
      </trkpt>
      <trkpt lat="43.08091" lon="2.61289">
        <ele>136</ele>
        <time>2022-05-02T17:55:21Z</time>
      </trkpt>
      <trkpt lat="43.08073" lon="2.61278">
        <ele>137</ele>
        <time>2022-05-02T17:55:25Z</time>
      </trkpt>
      <trkpt lat="43.07995" lon="2.61247">
        <ele>140</ele>
        <time>2022-05-02T17:55:39Z</time>
      </trkpt>
      <trkpt lat="43.07976" lon="2.61228">
        <ele>139</ele>
        <time>2022-05-02T17:55:44Z</time>
      </trkpt>
      <trkpt lat="43.07969" lon="2.61215">
        <ele>139</ele>
        <time>2022-05-02T17:55:46Z</time>
      </trkpt>
      <trkpt lat="43.07965" lon="2.61203">
        <ele>139</ele>
        <time>2022-05-02T17:55:47Z</time>
      </trkpt>
      <trkpt lat="43.07958" lon="2.61168">
        <ele>137</ele>
        <time>2022-05-02T17:55:52Z</time>
      </trkpt>
      <trkpt lat="43.07951" lon="2.61138">
        <ele>137</ele>
        <time>2022-05-02T17:55:56Z</time>
      </trkpt>
      <trkpt lat="43.07945" lon="2.61123">
        <ele>137</ele>
        <time>2022-05-02T17:55:58Z</time>
      </trkpt>
      <trkpt lat="43.07899" lon="2.61037">
        <ele>139</ele>
        <time>2022-05-02T17:56:12Z</time>
      </trkpt>
      <trkpt lat="43.07884" lon="2.61002">
        <ele>141</ele>
        <time>2022-05-02T17:56:18Z</time>
      </trkpt>
      <trkpt lat="43.07879" lon="2.60986">
        <ele>142</ele>
        <time>2022-05-02T17:56:20Z</time>
      </trkpt>
      <trkpt lat="43.07869" lon="2.60937">
        <ele>143</ele>
        <time>2022-05-02T17:56:26Z</time>
      </trkpt>
      <trkpt lat="43.07837" lon="2.60729">
        <ele>138</ele>
        <time>2022-05-02T17:56:54Z</time>
      </trkpt>
      <trkpt lat="43.07825" lon="2.60687">
        <ele>138</ele>
        <time>2022-05-02T17:57:00Z</time>
      </trkpt>
      <trkpt lat="43.07713" lon="2.60459">
        <ele>137</ele>
        <time>2022-05-02T17:57:36Z</time>
      </trkpt>
      <trkpt lat="43.07695" lon="2.60436">
        <ele>137</ele>
        <time>2022-05-02T17:57:40Z</time>
      </trkpt>
      <trkpt lat="43.07674" lon="2.60419">
        <ele>137</ele>
        <time>2022-05-02T17:57:44Z</time>
      </trkpt>
      <trkpt lat="43.07654" lon="2.60415">
        <ele>136</ele>
        <time>2022-05-02T17:57:48Z</time>
      </trkpt>
      <trkpt lat="43.0764" lon="2.60416">
        <ele>135</ele>
        <time>2022-05-02T17:57:50Z</time>
      </trkpt>
      <trkpt lat="43.07626" lon="2.60421">
        <ele>135</ele>
        <time>2022-05-02T17:57:53Z</time>
      </trkpt>
      <trkpt lat="43.07465" lon="2.60559">
        <ele>142</ele>
        <time>2022-05-02T17:58:27Z</time>
      </trkpt>
      <trkpt lat="43.0738" lon="2.60647">
        <ele>145</ele>
        <time>2022-05-02T17:58:46Z</time>
      </trkpt>
      <trkpt lat="43.0737" lon="2.60659">
        <ele>145</ele>
        <time>2022-05-02T17:58:48Z</time>
      </trkpt>
      <trkpt lat="43.0736" lon="2.60682">
        <ele>145</ele>
        <time>2022-05-02T17:58:52Z</time>
      </trkpt>
      <trkpt lat="43.07355" lon="2.60711">
        <ele>147</ele>
        <time>2022-05-02T17:58:56Z</time>
      </trkpt>
      <trkpt lat="43.07341" lon="2.60902">
        <ele>146</ele>
        <time>2022-05-02T17:59:20Z</time>
      </trkpt>
      <trkpt lat="43.07336" lon="2.60928">
        <ele>146</ele>
        <time>2022-05-02T17:59:24Z</time>
      </trkpt>
      <trkpt lat="43.07327" lon="2.60953">
        <ele>145</ele>
        <time>2022-05-02T17:59:28Z</time>
      </trkpt>
      <trkpt lat="43.07304" lon="2.60992">
        <ele>144</ele>
        <time>2022-05-02T17:59:34Z</time>
      </trkpt>
      <trkpt lat="43.07291" lon="2.61008">
        <ele>143</ele>
        <time>2022-05-02T17:59:37Z</time>
      </trkpt>
      <trkpt lat="43.07276" lon="2.61023">
        <ele>143</ele>
        <time>2022-05-02T17:59:41Z</time>
      </trkpt>
      <trkpt lat="43.07263" lon="2.61033">
        <ele>142</ele>
        <time>2022-05-02T17:59:43Z</time>
      </trkpt>
      <trkpt lat="43.07249" lon="2.61039">
        <ele>141</ele>
        <time>2022-05-02T17:59:46Z</time>
      </trkpt>
      <trkpt lat="43.0717" lon="2.61057">
        <ele>142</ele>
        <time>2022-05-02T18:00:00Z</time>
      </trkpt>
      <trkpt lat="43.07157" lon="2.61059">
        <ele>143</ele>
        <time>2022-05-02T18:00:02Z</time>
      </trkpt>
      <trkpt lat="43.07137" lon="2.61063">
        <ele>145</ele>
        <time>2022-05-02T18:00:06Z</time>
      </trkpt>
      <trkpt lat="43.07126" lon="2.61062">
        <ele>146</ele>
        <time>2022-05-02T18:00:08Z</time>
      </trkpt>
      <trkpt lat="43.07112" lon="2.61058">
        <ele>148</ele>
        <time>2022-05-02T18:00:10Z</time>
      </trkpt>
      <trkpt lat="43.07005" lon="2.60956">
        <ele>146</ele>
        <time>2022-05-02T18:00:34Z</time>
      </trkpt>
      <trkpt lat="43.06995" lon="2.60947">
        <ele>146</ele>
        <time>2022-05-02T18:00:36Z</time>
      </trkpt>
      <trkpt lat="43.06937" lon="2.60889">
        <ele>150</ele>
        <time>2022-05-02T18:00:49Z</time>
      </trkpt>
      <trkpt lat="43.06926" lon="2.60874">
        <ele>150</ele>
        <time>2022-05-02T18:00:51Z</time>
      </trkpt>
      <trkpt lat="43.06902" lon="2.60824">
        <ele>146</ele>
        <time>2022-05-02T18:00:59Z</time>
      </trkpt>
      <trkpt lat="43.06895" lon="2.60813">
        <ele>145</ele>
        <time>2022-05-02T18:01:01Z</time>
      </trkpt>
      <trkpt lat="43.06887" lon="2.60805">
        <ele>145</ele>
        <time>2022-05-02T18:01:03Z</time>
      </trkpt>
      <trkpt lat="43.06878" lon="2.60799">
        <ele>145</ele>
        <time>2022-05-02T18:01:05Z</time>
      </trkpt>
      <trkpt lat="43.06869" lon="2.60797">
        <ele>145</ele>
        <time>2022-05-02T18:01:06Z</time>
      </trkpt>
      <trkpt lat="43.06857" lon="2.60797">
        <ele>146</ele>
        <time>2022-05-02T18:01:08Z</time>
      </trkpt>
      <trkpt lat="43.06848" lon="2.60799">
        <ele>146</ele>
        <time>2022-05-02T18:01:10Z</time>
      </trkpt>
      <trkpt lat="43.06839" lon="2.60804">
        <ele>147</ele>
        <time>2022-05-02T18:01:12Z</time>
      </trkpt>
      <trkpt lat="43.06812" lon="2.60827">
        <ele>151</ele>
        <time>2022-05-02T18:01:17Z</time>
      </trkpt>
      <trkpt lat="43.06796" lon="2.60834">
        <ele>151</ele>
        <time>2022-05-02T18:01:20Z</time>
      </trkpt>
      <trkpt lat="43.06785" lon="2.60835">
        <ele>151</ele>
        <time>2022-05-02T18:01:22Z</time>
      </trkpt>
      <trkpt lat="43.06748" lon="2.60829">
        <ele>150</ele>
        <time>2022-05-02T18:01:29Z</time>
      </trkpt>
      <trkpt lat="43.06733" lon="2.60832">
        <ele>150</ele>
        <time>2022-05-02T18:01:32Z</time>
      </trkpt>
      <trkpt lat="43.06693" lon="2.6085">
        <ele>150</ele>
        <time>2022-05-02T18:01:39Z</time>
      </trkpt>
      <trkpt lat="43.06673" lon="2.6085">
        <ele>149</ele>
        <time>2022-05-02T18:01:43Z</time>
      </trkpt>
      <trkpt lat="43.06662" lon="2.60846">
        <ele>149</ele>
        <time>2022-05-02T18:01:45Z</time>
      </trkpt>
      <trkpt lat="43.06642" lon="2.60833">
        <ele>151</ele>
        <time>2022-05-02T18:01:49Z</time>
      </trkpt>
      <trkpt lat="43.06624" lon="2.60821">
        <ele>153</ele>
        <time>2022-05-02T18:01:52Z</time>
      </trkpt>
      <trkpt lat="43.06617" lon="2.6081">
        <ele>154</ele>
        <time>2022-05-02T18:01:54Z</time>
      </trkpt>
      <trkpt lat="43.06612" lon="2.60799">
        <ele>154</ele>
        <time>2022-05-02T18:01:56Z</time>
      </trkpt>
      <trkpt lat="43.06593" lon="2.6073">
        <ele>156</ele>
        <time>2022-05-02T18:02:05Z</time>
      </trkpt>
      <trkpt lat="43.06584" lon="2.60708">
        <ele>157</ele>
        <time>2022-05-02T18:02:09Z</time>
      </trkpt>
      <trkpt lat="43.06577" lon="2.60696">
        <ele>157</ele>
        <time>2022-05-02T18:02:11Z</time>
      </trkpt>
      <trkpt lat="43.06519" lon="2.60634">
        <ele>159</ele>
        <time>2022-05-02T18:02:24Z</time>
      </trkpt>
      <trkpt lat="43.06511" lon="2.60619">
        <ele>160</ele>
        <time>2022-05-02T18:02:26Z</time>
      </trkpt>
      <trkpt lat="43.06499" lon="2.60582">
        <ele>160</ele>
        <time>2022-05-02T18:02:31Z</time>
      </trkpt>
      <trkpt lat="43.06487" lon="2.60528">
        <ele>161</ele>
        <time>2022-05-02T18:02:39Z</time>
      </trkpt>
      <trkpt lat="43.06477" lon="2.60499">
        <ele>162</ele>
        <time>2022-05-02T18:02:43Z</time>
      </trkpt>
      <trkpt lat="43.06405" lon="2.60383">
        <ele>164</ele>
        <time>2022-05-02T18:03:03Z</time>
      </trkpt>
      <trkpt lat="43.06327" lon="2.6025">
        <ele>162</ele>
        <time>2022-05-02T18:03:25Z</time>
      </trkpt>
      <trkpt lat="43.06314" lon="2.60245">
        <ele>160</ele>
        <time>2022-05-02T18:03:27Z</time>
      </trkpt>
      <trkpt lat="43.06293" lon="2.60248">
        <ele>160</ele>
        <time>2022-05-02T18:03:31Z</time>
      </trkpt>
      <trkpt lat="43.06267" lon="2.60261">
        <ele>161</ele>
        <time>2022-05-02T18:03:36Z</time>
      </trkpt>
      <trkpt lat="43.06248" lon="2.60258">
        <ele>160</ele>
        <time>2022-05-02T18:03:39Z</time>
      </trkpt>
      <trkpt lat="43.0621" lon="2.6024">
        <ele>154</ele>
        <time>2022-05-02T18:03:46Z</time>
      </trkpt>
      <trkpt lat="43.0619" lon="2.60241">
        <ele>153</ele>
        <time>2022-05-02T18:03:50Z</time>
      </trkpt>
      <trkpt lat="43.06164" lon="2.60257">
        <ele>154</ele>
        <time>2022-05-02T18:03:55Z</time>
      </trkpt>
      <trkpt lat="43.06141" lon="2.6029">
        <ele>156</ele>
        <time>2022-05-02T18:04:01Z</time>
      </trkpt>
      <trkpt lat="43.0604" lon="2.60404">
        <ele>153</ele>
        <time>2022-05-02T18:04:24Z</time>
      </trkpt>
      <trkpt lat="43.06003" lon="2.60443">
        <ele>151</ele>
        <time>2022-05-02T18:04:33Z</time>
      </trkpt>
      <trkpt lat="43.05967" lon="2.60472">
        <ele>151</ele>
        <time>2022-05-02T18:04:40Z</time>
      </trkpt>
      <trkpt lat="43.05942" lon="2.60476">
        <ele>149</ele>
        <time>2022-05-02T18:04:45Z</time>
      </trkpt>
      <trkpt lat="43.05927" lon="2.60482">
        <ele>148</ele>
        <time>2022-05-02T18:04:47Z</time>
      </trkpt>
      <trkpt lat="43.05893" lon="2.60513">
        <ele>149</ele>
        <time>2022-05-02T18:04:55Z</time>
      </trkpt>
      <trkpt lat="43.05881" lon="2.60503">
        <ele>149</ele>
        <time>2022-05-02T18:04:57Z</time>
      </trkpt>
      <trkpt lat="43.05873" lon="2.60496">
        <ele>149</ele>
        <time>2022-05-02T18:04:59Z</time>
      </trkpt>
      <trkpt lat="43.05837" lon="2.60471">
        <ele>151</ele>
        <time>2022-05-02T18:05:06Z</time>
      </trkpt>
      <trkpt lat="43.05846" lon="2.60412">
        <ele>153</ele>
        <time>2022-05-02T18:05:14Z</time>
      </trkpt>
      <trkpt lat="43.05851" lon="2.6039">
        <ele>152</ele>
        <time>2022-05-02T18:05:17Z</time>
      </trkpt>
      <trkpt lat="43.05852" lon="2.60371">
        <ele>152</ele>
        <time>2022-05-02T18:05:19Z</time>
      </trkpt>
      <trkpt lat="43.0585" lon="2.60348">
        <ele>152</ele>
        <time>2022-05-02T18:05:22Z</time>
      </trkpt>
      <trkpt lat="43.05839" lon="2.60303">
        <ele>150</ele>
        <time>2022-05-02T18:05:28Z</time>
      </trkpt>
      <trkpt lat="43.05814" lon="2.60278">
        <ele>151</ele>
        <time>2022-05-02T18:05:34Z</time>
      </trkpt>
      <trkpt lat="43.05793" lon="2.6026">
        <ele>152</ele>
        <time>2022-05-02T18:05:38Z</time>
      </trkpt>
      <trkpt lat="43.05778" lon="2.6025">
        <ele>153</ele>
        <time>2022-05-02T18:05:41Z</time>
      </trkpt>
      <trkpt lat="43.05725" lon="2.60224">
        <ele>158</ele>
        <time>2022-05-02T18:05:51Z</time>
      </trkpt>
      <trkpt lat="43.05714" lon="2.6021">
        <ele>158</ele>
        <time>2022-05-02T18:05:54Z</time>
      </trkpt>
      <trkpt lat="43.05682" lon="2.60145">
        <ele>157</ele>
        <time>2022-05-02T18:06:04Z</time>
      </trkpt>
      <trkpt lat="43.05668" lon="2.601">
        <ele>156</ele>
        <time>2022-05-02T18:06:11Z</time>
      </trkpt>
      <trkpt lat="43.0566" lon="2.60082">
        <ele>155</ele>
        <time>2022-05-02T18:06:13Z</time>
      </trkpt>
      <trkpt lat="43.05654" lon="2.60075">
        <ele>156</ele>
        <time>2022-05-02T18:06:15Z</time>
      </trkpt>
      <trkpt lat="43.05627" lon="2.60059">
        <ele>161</ele>
        <time>2022-05-02T18:06:20Z</time>
      </trkpt>
      <trkpt lat="43.05619" lon="2.60052">
        <ele>162</ele>
        <time>2022-05-02T18:06:22Z</time>
      </trkpt>
      <trkpt lat="43.05614" lon="2.60044">
        <ele>163</ele>
        <time>2022-05-02T18:06:23Z</time>
      </trkpt>
      <trkpt lat="43.0561" lon="2.60024">
        <ele>163</ele>
        <time>2022-05-02T18:06:26Z</time>
      </trkpt>
      <trkpt lat="43.05611" lon="2.60004">
        <ele>162</ele>
        <time>2022-05-02T18:06:28Z</time>
      </trkpt>
      <trkpt lat="43.05613" lon="2.59975">
        <ele>161</ele>
        <time>2022-05-02T18:06:32Z</time>
      </trkpt>
      <trkpt lat="43.05619" lon="2.59947">
        <ele>159</ele>
        <time>2022-05-02T18:06:36Z</time>
      </trkpt>
      <trkpt lat="43.05619" lon="2.59925">
        <ele>159</ele>
        <time>2022-05-02T18:06:39Z</time>
      </trkpt>
      <trkpt lat="43.05614" lon="2.59901">
        <ele>161</ele>
        <time>2022-05-02T18:06:42Z</time>
      </trkpt>
      <trkpt lat="43.05611" lon="2.59891">
        <ele>162</ele>
        <time>2022-05-02T18:06:43Z</time>
      </trkpt>
      <trkpt lat="43.05601" lon="2.59871">
        <ele>165</ele>
        <time>2022-05-02T18:06:47Z</time>
      </trkpt>
      <trkpt lat="43.05597" lon="2.59851">
        <ele>167</ele>
        <time>2022-05-02T18:06:49Z</time>
      </trkpt>
      <trkpt lat="43.05605" lon="2.5974">
        <ele>167</ele>
        <time>2022-05-02T18:07:04Z</time>
      </trkpt>
      <trkpt lat="43.05605" lon="2.59729">
        <ele>167</ele>
        <time>2022-05-02T18:07:05Z</time>
      </trkpt>
      <trkpt lat="43.05598" lon="2.59668">
        <ele>170</ele>
        <time>2022-05-02T18:07:13Z</time>
      </trkpt>
      <trkpt lat="43.05597" lon="2.59657">
        <ele>171</ele>
        <time>2022-05-02T18:07:15Z</time>
      </trkpt>
      <trkpt lat="43.05604" lon="2.59595">
        <ele>170</ele>
        <time>2022-05-02T18:07:23Z</time>
      </trkpt>
      <trkpt lat="43.05604" lon="2.5953">
        <ele>173</ele>
        <time>2022-05-02T18:07:31Z</time>
      </trkpt>
      <trkpt lat="43.05617" lon="2.5946">
        <ele>174</ele>
        <time>2022-05-02T18:07:41Z</time>
      </trkpt>
      <trkpt lat="43.05621" lon="2.59425">
        <ele>175</ele>
        <time>2022-05-02T18:07:45Z</time>
      </trkpt>
      <trkpt lat="43.05632" lon="2.59382">
        <ele>172</ele>
        <time>2022-05-02T18:07:51Z</time>
      </trkpt>
      <trkpt lat="43.05635" lon="2.59347">
        <ele>172</ele>
        <time>2022-05-02T18:07:56Z</time>
      </trkpt>
      <trkpt lat="43.05631" lon="2.59206">
        <ele>169</ele>
        <time>2022-05-02T18:08:14Z</time>
      </trkpt>
      <trkpt lat="43.05629" lon="2.59195">
        <ele>169</ele>
        <time>2022-05-02T18:08:16Z</time>
      </trkpt>
      <trkpt lat="43.05623" lon="2.59188">
        <ele>169</ele>
        <time>2022-05-02T18:08:17Z</time>
      </trkpt>
      <trkpt lat="43.05615" lon="2.59186">
        <ele>171</ele>
        <time>2022-05-02T18:08:18Z</time>
      </trkpt>
      <trkpt lat="43.05578" lon="2.59187">
        <ele>177</ele>
        <time>2022-05-02T18:08:25Z</time>
      </trkpt>
      <trkpt lat="43.05556" lon="2.59176">
        <ele>177</ele>
        <time>2022-05-02T18:08:29Z</time>
      </trkpt>
      <trkpt lat="43.05531" lon="2.59156">
        <ele>175</ele>
        <time>2022-05-02T18:08:34Z</time>
      </trkpt>
      <trkpt lat="43.05494" lon="2.59141">
        <ele>176</ele>
        <time>2022-05-02T18:08:41Z</time>
      </trkpt>
      <trkpt lat="43.05461" lon="2.59134">
        <ele>183</ele>
        <time>2022-05-02T18:08:47Z</time>
      </trkpt>
      <trkpt lat="43.05455" lon="2.59128">
        <ele>183</ele>
        <time>2022-05-02T18:08:48Z</time>
      </trkpt>
      <trkpt lat="43.05422" lon="2.59062">
        <ele>179</ele>
        <time>2022-05-02T18:08:59Z</time>
      </trkpt>
      <trkpt lat="43.05416" lon="2.59047">
        <ele>177</ele>
        <time>2022-05-02T18:09:01Z</time>
      </trkpt>
      <trkpt lat="43.05409" lon="2.58993">
        <ele>170</ele>
        <time>2022-05-02T18:09:08Z</time>
      </trkpt>
      <trkpt lat="43.05395" lon="2.5895">
        <ele>172</ele>
        <time>2022-05-02T18:09:14Z</time>
      </trkpt>
      <trkpt lat="43.05393" lon="2.58938">
        <ele>172</ele>
        <time>2022-05-02T18:09:16Z</time>
      </trkpt>
      <trkpt lat="43.05393" lon="2.5888">
        <ele>170</ele>
        <time>2022-05-02T18:09:23Z</time>
      </trkpt>
      <trkpt lat="43.05392" lon="2.5886">
        <ele>171</ele>
        <time>2022-05-02T18:09:26Z</time>
      </trkpt>
      <trkpt lat="43.0538" lon="2.58792">
        <ele>173</ele>
        <time>2022-05-02T18:09:35Z</time>
      </trkpt>
      <trkpt lat="43.05357" lon="2.5873">
        <ele>173</ele>
        <time>2022-05-02T18:09:44Z</time>
      </trkpt>
      <trkpt lat="43.05351" lon="2.58717">
        <ele>172</ele>
        <time>2022-05-02T18:09:46Z</time>
      </trkpt>
      <trkpt lat="43.05329" lon="2.58688">
        <ele>169</ele>
        <time>2022-05-02T18:09:52Z</time>
      </trkpt>
      <trkpt lat="43.05307" lon="2.58666">
        <ele>166</ele>
        <time>2022-05-02T18:09:57Z</time>
      </trkpt>
      <trkpt lat="43.05296" lon="2.58658">
        <ele>167</ele>
        <time>2022-05-02T18:09:59Z</time>
      </trkpt>
      <trkpt lat="43.05279" lon="2.58653">
        <ele>167</ele>
        <time>2022-05-02T18:10:02Z</time>
      </trkpt>
      <trkpt lat="43.05265" lon="2.58656">
        <ele>167</ele>
        <time>2022-05-02T18:10:04Z</time>
      </trkpt>
      <trkpt lat="43.0521" lon="2.58684">
        <ele>168</ele>
        <time>2022-05-02T18:10:15Z</time>
      </trkpt>
      <trkpt lat="43.05154" lon="2.58715">
        <ele>170</ele>
        <time>2022-05-02T18:10:26Z</time>
      </trkpt>
      <trkpt lat="43.05034" lon="2.58789">
        <ele>169</ele>
        <time>2022-05-02T18:10:49Z</time>
      </trkpt>
      <trkpt lat="43.05004" lon="2.58809">
        <ele>167</ele>
        <time>2022-05-02T18:10:55Z</time>
      </trkpt>
      <trkpt lat="43.04961" lon="2.58837">
        <ele>168</ele>
        <time>2022-05-02T18:11:03Z</time>
      </trkpt>
      <trkpt lat="43.04952" lon="2.58846">
        <ele>169</ele>
        <time>2022-05-02T18:11:05Z</time>
      </trkpt>
      <trkpt lat="43.04937" lon="2.58871">
        <ele>172</ele>
        <time>2022-05-02T18:11:10Z</time>
      </trkpt>
      <trkpt lat="43.04891" lon="2.5892">
        <ele>172</ele>
        <time>2022-05-02T18:11:20Z</time>
      </trkpt>
      <trkpt lat="43.04826" lon="2.58979">
        <ele>178</ele>
        <time>2022-05-02T18:11:34Z</time>
      </trkpt>
      <trkpt lat="43.04802" lon="2.58991">
        <ele>180</ele>
        <time>2022-05-02T18:11:38Z</time>
      </trkpt>
      <trkpt lat="43.04788" lon="2.58994">
        <ele>180</ele>
        <time>2022-05-02T18:11:41Z</time>
      </trkpt>
      <trkpt lat="43.04759" lon="2.58992">
        <ele>177</ele>
        <time>2022-05-02T18:11:46Z</time>
      </trkpt>
      <trkpt lat="43.04734" lon="2.58982">
        <ele>180</ele>
        <time>2022-05-02T18:11:51Z</time>
      </trkpt>
      <trkpt lat="43.04727" lon="2.58977">
        <ele>182</ele>
        <time>2022-05-02T18:11:52Z</time>
      </trkpt>
      <trkpt lat="43.04701" lon="2.58951">
        <ele>184</ele>
        <time>2022-05-02T18:11:58Z</time>
      </trkpt>
      <trkpt lat="43.04691" lon="2.58933">
        <ele>183</ele>
        <time>2022-05-02T18:12:01Z</time>
      </trkpt>
      <trkpt lat="43.04686" lon="2.58909">
        <ele>180</ele>
        <time>2022-05-02T18:12:04Z</time>
      </trkpt>
      <trkpt lat="43.0468" lon="2.58843">
        <ele>180</ele>
        <time>2022-05-02T18:12:13Z</time>
      </trkpt>
      <trkpt lat="43.0468" lon="2.58816">
        <ele>182</ele>
        <time>2022-05-02T18:12:16Z</time>
      </trkpt>
      <trkpt lat="43.04686" lon="2.58777">
        <ele>185</ele>
        <time>2022-05-02T18:12:21Z</time>
      </trkpt>
      <trkpt lat="43.04692" lon="2.58759">
        <ele>186</ele>
        <time>2022-05-02T18:12:24Z</time>
      </trkpt>
      <trkpt lat="43.04707" lon="2.5873">
        <ele>186</ele>
        <time>2022-05-02T18:12:29Z</time>
      </trkpt>
      <trkpt lat="43.04735" lon="2.58694">
        <ele>182</ele>
        <time>2022-05-02T18:12:35Z</time>
      </trkpt>
      <trkpt lat="43.04837" lon="2.58579">
        <ele>178</ele>
        <time>2022-05-02T18:12:59Z</time>
      </trkpt>
      <trkpt lat="43.04845" lon="2.58565">
        <ele>180</ele>
        <time>2022-05-02T18:13:01Z</time>
      </trkpt>
      <trkpt lat="43.04855" lon="2.58541">
        <ele>183</ele>
        <time>2022-05-02T18:13:05Z</time>
      </trkpt>
      <trkpt lat="43.04869" lon="2.58443">
        <ele>184</ele>
        <time>2022-05-02T18:13:18Z</time>
      </trkpt>
      <trkpt lat="43.0487" lon="2.58413">
        <ele>183</ele>
        <time>2022-05-02T18:13:22Z</time>
      </trkpt>
      <trkpt lat="43.04867" lon="2.58399">
        <ele>182</ele>
        <time>2022-05-02T18:13:24Z</time>
      </trkpt>
      <trkpt lat="43.04859" lon="2.58382">
        <ele>180</ele>
        <time>2022-05-02T18:13:26Z</time>
      </trkpt>
      <trkpt lat="43.0485" lon="2.58365">
        <ele>178</ele>
        <time>2022-05-02T18:13:29Z</time>
      </trkpt>
      <trkpt lat="43.04839" lon="2.5835">
        <ele>176</ele>
        <time>2022-05-02T18:13:32Z</time>
      </trkpt>
      <trkpt lat="43.04825" lon="2.58337">
        <ele>174</ele>
        <time>2022-05-02T18:13:35Z</time>
      </trkpt>
      <trkpt lat="43.04797" lon="2.5832">
        <ele>176</ele>
        <time>2022-05-02T18:13:40Z</time>
      </trkpt>
      <trkpt lat="43.04688" lon="2.58284">
        <ele>177</ele>
        <time>2022-05-02T18:14:00Z</time>
      </trkpt>
      <trkpt lat="43.04605" lon="2.58261">
        <ele>175</ele>
        <time>2022-05-02T18:14:15Z</time>
      </trkpt>
      <trkpt lat="43.04566" lon="2.58259">
        <ele>174</ele>
        <time>2022-05-02T18:14:22Z</time>
      </trkpt>
      <trkpt lat="43.04506" lon="2.58282">
        <ele>179</ele>
        <time>2022-05-02T18:14:33Z</time>
      </trkpt>
      <trkpt lat="43.04461" lon="2.5831">
        <ele>185</ele>
        <time>2022-05-02T18:14:42Z</time>
      </trkpt>
      <trkpt lat="43.04432" lon="2.58315">
        <ele>186</ele>
        <time>2022-05-02T18:14:47Z</time>
      </trkpt>
      <trkpt lat="43.04402" lon="2.58311">
        <ele>186</ele>
        <time>2022-05-02T18:14:53Z</time>
      </trkpt>
      <trkpt lat="43.04379" lon="2.58303">
        <ele>186</ele>
        <time>2022-05-02T18:14:57Z</time>
      </trkpt>
      <trkpt lat="43.04362" lon="2.58295">
        <ele>187</ele>
        <time>2022-05-02T18:15:00Z</time>
      </trkpt>
      <trkpt lat="43.04355" lon="2.58289">
        <ele>186</ele>
        <time>2022-05-02T18:15:01Z</time>
      </trkpt>
      <trkpt lat="43.04349" lon="2.5828">
        <ele>186</ele>
        <time>2022-05-02T18:15:03Z</time>
      </trkpt>
      <trkpt lat="43.04343" lon="2.58259">
        <ele>183</ele>
        <time>2022-05-02T18:15:06Z</time>
      </trkpt>
      <trkpt lat="43.04338" lon="2.58205">
        <ele>181</ele>
        <time>2022-05-02T18:15:13Z</time>
      </trkpt>
      <trkpt lat="43.04331" lon="2.58154">
        <ele>181</ele>
        <time>2022-05-02T18:15:20Z</time>
      </trkpt>
      <trkpt lat="43.04331" lon="2.58127">
        <ele>180</ele>
        <time>2022-05-02T18:15:23Z</time>
      </trkpt>
      <trkpt lat="43.04336" lon="2.58081">
        <ele>178</ele>
        <time>2022-05-02T18:15:29Z</time>
      </trkpt>
      <trkpt lat="43.04334" lon="2.58034">
        <ele>180</ele>
        <time>2022-05-02T18:15:35Z</time>
      </trkpt>
      <trkpt lat="43.04337" lon="2.57955">
        <ele>182</ele>
        <time>2022-05-02T18:15:46Z</time>
      </trkpt>
      <trkpt lat="43.04325" lon="2.57859">
        <ele>181</ele>
        <time>2022-05-02T18:15:58Z</time>
      </trkpt>
      <trkpt lat="43.04313" lon="2.57812">
        <ele>183</ele>
        <time>2022-05-02T18:16:05Z</time>
      </trkpt>
      <trkpt lat="43.04279" lon="2.57724">
        <ele>186</ele>
        <time>2022-05-02T18:16:18Z</time>
      </trkpt>
      <trkpt lat="43.04259" lon="2.57663">
        <ele>183</ele>
        <time>2022-05-02T18:16:27Z</time>
      </trkpt>
      <trkpt lat="43.04253" lon="2.57651">
        <ele>182</ele>
        <time>2022-05-02T18:16:28Z</time>
      </trkpt>
      <trkpt lat="43.04194" lon="2.57556">
        <ele>185</ele>
        <time>2022-05-02T18:16:45Z</time>
      </trkpt>
      <trkpt lat="43.0417" lon="2.57528">
        <ele>182</ele>
        <time>2022-05-02T18:16:50Z</time>
      </trkpt>
      <trkpt lat="43.04145" lon="2.57502">
        <ele>178</ele>
        <time>2022-05-02T18:16:56Z</time>
      </trkpt>
      <trkpt lat="43.04135" lon="2.57494">
        <ele>178</ele>
        <time>2022-05-02T18:16:58Z</time>
      </trkpt>
      <trkpt lat="43.04113" lon="2.57482">
        <ele>178</ele>
        <time>2022-05-02T18:17:02Z</time>
      </trkpt>
      <trkpt lat="43.04093" lon="2.5744">
        <ele>176</ele>
        <time>2022-05-02T18:17:09Z</time>
      </trkpt>
      <trkpt lat="43.04062" lon="2.57363">
        <ele>179</ele>
        <time>2022-05-02T18:17:20Z</time>
      </trkpt>
      <trkpt lat="43.03974" lon="2.57192">
        <ele>189</ele>
        <time>2022-05-02T18:17:47Z</time>
      </trkpt>
      <trkpt lat="43.03964" lon="2.57166">
        <ele>189</ele>
        <time>2022-05-02T18:17:51Z</time>
      </trkpt>
      <trkpt lat="43.03952" lon="2.57127">
        <ele>192</ele>
        <time>2022-05-02T18:17:57Z</time>
      </trkpt>
      <trkpt lat="43.03937" lon="2.57037">
        <ele>192</ele>
        <time>2022-05-02T18:18:09Z</time>
      </trkpt>
      <trkpt lat="43.03936" lon="2.57004">
        <ele>191</ele>
        <time>2022-05-02T18:18:13Z</time>
      </trkpt>
      <trkpt lat="43.03942" lon="2.56951">
        <ele>191</ele>
        <time>2022-05-02T18:18:20Z</time>
      </trkpt>
      <trkpt lat="43.03948" lon="2.56927">
        <ele>191</ele>
        <time>2022-05-02T18:18:23Z</time>
      </trkpt>
      <trkpt lat="43.03955" lon="2.56911">
        <ele>190</ele>
        <time>2022-05-02T18:18:26Z</time>
      </trkpt>
      <trkpt lat="43.03963" lon="2.569">
        <ele>190</ele>
        <time>2022-05-02T18:18:28Z</time>
      </trkpt>
      <trkpt lat="43.03989" lon="2.56871">
        <ele>187</ele>
        <time>2022-05-02T18:18:34Z</time>
      </trkpt>
      <trkpt lat="43.03996" lon="2.5686">
        <ele>186</ele>
        <time>2022-05-02T18:18:35Z</time>
      </trkpt>
      <trkpt lat="43.04005" lon="2.56837">
        <ele>187</ele>
        <time>2022-05-02T18:18:39Z</time>
      </trkpt>
      <trkpt lat="43.0401" lon="2.56828">
        <ele>188</ele>
        <time>2022-05-02T18:18:40Z</time>
      </trkpt>
      <trkpt lat="43.04017" lon="2.56821">
        <ele>188</ele>
        <time>2022-05-02T18:18:42Z</time>
      </trkpt>
      <trkpt lat="43.0409" lon="2.56778">
        <ele>187</ele>
        <time>2022-05-02T18:18:56Z</time>
      </trkpt>
      <trkpt lat="43.04126" lon="2.56764">
        <ele>186</ele>
        <time>2022-05-02T18:19:03Z</time>
      </trkpt>
      <trkpt lat="43.04155" lon="2.56744">
        <ele>184</ele>
        <time>2022-05-02T18:19:08Z</time>
      </trkpt>
      <trkpt lat="43.04176" lon="2.56719">
        <ele>185</ele>
        <time>2022-05-02T18:19:13Z</time>
      </trkpt>
      <trkpt lat="43.04194" lon="2.56692">
        <ele>187</ele>
        <time>2022-05-02T18:19:18Z</time>
      </trkpt>
      <trkpt lat="43.04223" lon="2.56659">
        <ele>186</ele>
        <time>2022-05-02T18:19:25Z</time>
      </trkpt>
      <trkpt lat="43.04253" lon="2.56632">
        <ele>184</ele>
        <time>2022-05-02T18:19:31Z</time>
      </trkpt>
      <trkpt lat="43.04263" lon="2.5662">
        <ele>184</ele>
        <time>2022-05-02T18:19:34Z</time>
      </trkpt>
      <trkpt lat="43.0428" lon="2.56585">
        <ele>184</ele>
        <time>2022-05-02T18:19:39Z</time>
      </trkpt>
      <trkpt lat="43.04282" lon="2.56574">
        <ele>184</ele>
        <time>2022-05-02T18:19:41Z</time>
      </trkpt>
      <trkpt lat="43.04283" lon="2.56561">
        <ele>184</ele>
        <time>2022-05-02T18:19:42Z</time>
      </trkpt>
      <trkpt lat="43.04282" lon="2.56548">
        <ele>184</ele>
        <time>2022-05-02T18:19:44Z</time>
      </trkpt>
      <trkpt lat="43.04278" lon="2.56537">
        <ele>184</ele>
        <time>2022-05-02T18:19:46Z</time>
      </trkpt>
      <trkpt lat="43.04266" lon="2.56515">
        <ele>184</ele>
        <time>2022-05-02T18:19:49Z</time>
      </trkpt>
      <trkpt lat="43.04257" lon="2.56505">
        <ele>184</ele>
        <time>2022-05-02T18:19:51Z</time>
      </trkpt>
      <trkpt lat="43.04241" lon="2.56492">
        <ele>184</ele>
        <time>2022-05-02T18:19:55Z</time>
      </trkpt>
      <trkpt lat="43.04207" lon="2.56474">
        <ele>184</ele>
        <time>2022-05-02T18:20:01Z</time>
      </trkpt>
      <trkpt lat="43.04175" lon="2.56466">
        <ele>183</ele>
        <time>2022-05-02T18:20:07Z</time>
      </trkpt>
      <trkpt lat="43.04128" lon="2.56465">
        <ele>183</ele>
        <time>2022-05-02T18:20:15Z</time>
      </trkpt>
      <trkpt lat="43.04094" lon="2.56466">
        <ele>184</ele>
        <time>2022-05-02T18:20:21Z</time>
      </trkpt>
      <trkpt lat="43.0408" lon="2.5647">
        <ele>184</ele>
        <time>2022-05-02T18:20:24Z</time>
      </trkpt>
      <trkpt lat="43.0406" lon="2.56483">
        <ele>185</ele>
        <time>2022-05-02T18:20:28Z</time>
      </trkpt>
      <trkpt lat="43.04051" lon="2.56494">
        <ele>184</ele>
        <time>2022-05-02T18:20:30Z</time>
      </trkpt>
      <trkpt lat="43.04024" lon="2.56561">
        <ele>187</ele>
        <time>2022-05-02T18:20:40Z</time>
      </trkpt>
      <trkpt lat="43.04003" lon="2.56596">
        <ele>187</ele>
        <time>2022-05-02T18:20:46Z</time>
      </trkpt>
      <trkpt lat="43.03993" lon="2.56609">
        <ele>188</ele>
        <time>2022-05-02T18:20:48Z</time>
      </trkpt>
      <trkpt lat="43.03962" lon="2.56638">
        <ele>188</ele>
        <time>2022-05-02T18:20:55Z</time>
      </trkpt>
      <trkpt lat="43.03948" lon="2.56657">
        <ele>188</ele>
        <time>2022-05-02T18:20:58Z</time>
      </trkpt>
      <trkpt lat="43.03918" lon="2.56692">
        <ele>189</ele>
        <time>2022-05-02T18:21:05Z</time>
      </trkpt>
      <trkpt lat="43.03906" lon="2.56704">
        <ele>191</ele>
        <time>2022-05-02T18:21:08Z</time>
      </trkpt>
      <trkpt lat="43.03895" lon="2.5671">
        <ele>191</ele>
        <time>2022-05-02T18:21:10Z</time>
      </trkpt>
      <trkpt lat="43.03883" lon="2.56714">
        <ele>191</ele>
        <time>2022-05-02T18:21:12Z</time>
      </trkpt>
      <trkpt lat="43.03803" lon="2.56719">
        <ele>191</ele>
        <time>2022-05-02T18:21:27Z</time>
      </trkpt>
      <trkpt lat="43.03785" lon="2.56714">
        <ele>191</ele>
        <time>2022-05-02T18:21:30Z</time>
      </trkpt>
      <trkpt lat="43.03731" lon="2.56686">
        <ele>190</ele>
        <time>2022-05-02T18:21:40Z</time>
      </trkpt>
      <trkpt lat="43.03723" lon="2.56678">
        <ele>189</ele>
        <time>2022-05-02T18:21:42Z</time>
      </trkpt>
      <trkpt lat="43.03684" lon="2.56609">
        <ele>187</ele>
        <time>2022-05-02T18:21:53Z</time>
      </trkpt>
      <trkpt lat="43.03678" lon="2.56594">
        <ele>187</ele>
        <time>2022-05-02T18:21:55Z</time>
      </trkpt>
      <trkpt lat="43.03668" lon="2.56542">
        <ele>185</ele>
        <time>2022-05-02T18:22:02Z</time>
      </trkpt>
      <trkpt lat="43.03635" lon="2.56475">
        <ele>189</ele>
        <time>2022-05-02T18:22:13Z</time>
      </trkpt>
      <trkpt lat="43.03625" lon="2.5646">
        <ele>190</ele>
        <time>2022-05-02T18:22:16Z</time>
      </trkpt>
      <trkpt lat="43.0357" lon="2.56385">
        <ele>194</ele>
        <time>2022-05-02T18:22:29Z</time>
      </trkpt>
      <trkpt lat="43.03552" lon="2.56356">
        <ele>199</ele>
        <time>2022-05-02T18:22:34Z</time>
      </trkpt>
      <trkpt lat="43.03546" lon="2.56341">
        <ele>200</ele>
        <time>2022-05-02T18:22:37Z</time>
      </trkpt>
      <trkpt lat="43.03541" lon="2.56322">
        <ele>202</ele>
        <time>2022-05-02T18:22:39Z</time>
      </trkpt>
      <trkpt lat="43.03535" lon="2.56283">
        <ele>204</ele>
        <time>2022-05-02T18:22:44Z</time>
      </trkpt>
      <trkpt lat="43.03533" lon="2.5624">
        <ele>204</ele>
        <time>2022-05-02T18:22:50Z</time>
      </trkpt>
      <trkpt lat="43.03534" lon="2.56223">
        <ele>204</ele>
        <time>2022-05-02T18:22:52Z</time>
      </trkpt>
      <trkpt lat="43.03545" lon="2.56152">
        <ele>202</ele>
        <time>2022-05-02T18:23:02Z</time>
      </trkpt>
      <trkpt lat="43.03553" lon="2.56123">
        <ele>201</ele>
        <time>2022-05-02T18:23:06Z</time>
      </trkpt>
      <trkpt lat="43.03558" lon="2.5611">
        <ele>201</ele>
        <time>2022-05-02T18:23:08Z</time>
      </trkpt>
      <trkpt lat="43.03564" lon="2.56099">
        <ele>199</ele>
        <time>2022-05-02T18:23:09Z</time>
      </trkpt>
      <trkpt lat="43.03595" lon="2.56061">
        <ele>197</ele>
        <time>2022-05-02T18:23:17Z</time>
      </trkpt>
      <trkpt lat="43.03612" lon="2.56045">
        <ele>198</ele>
        <time>2022-05-02T18:23:20Z</time>
      </trkpt>
      <trkpt lat="43.03626" lon="2.56034">
        <ele>198</ele>
        <time>2022-05-02T18:23:23Z</time>
      </trkpt>
      <trkpt lat="43.03671" lon="2.56016">
        <ele>193</ele>
        <time>2022-05-02T18:23:32Z</time>
      </trkpt>
      <trkpt lat="43.03681" lon="2.5601">
        <ele>193</ele>
        <time>2022-05-02T18:23:34Z</time>
      </trkpt>
      <trkpt lat="43.03691" lon="2.55998">
        <ele>193</ele>
        <time>2022-05-02T18:23:36Z</time>
      </trkpt>
      <trkpt lat="43.03708" lon="2.55971">
        <ele>193</ele>
        <time>2022-05-02T18:23:41Z</time>
      </trkpt>
      <trkpt lat="43.03718" lon="2.55945">
        <ele>192</ele>
        <time>2022-05-02T18:23:44Z</time>
      </trkpt>
      <trkpt lat="43.03719" lon="2.55932">
        <ele>191</ele>
        <time>2022-05-02T18:23:46Z</time>
      </trkpt>
      <trkpt lat="43.03718" lon="2.55919">
        <ele>191</ele>
        <time>2022-05-02T18:23:48Z</time>
      </trkpt>
      <trkpt lat="43.03715" lon="2.55909">
        <ele>191</ele>
        <time>2022-05-02T18:23:49Z</time>
      </trkpt>
      <trkpt lat="43.0371" lon="2.55899">
        <ele>192</ele>
        <time>2022-05-02T18:23:51Z</time>
      </trkpt>
      <trkpt lat="43.03699" lon="2.55887">
        <ele>192</ele>
        <time>2022-05-02T18:23:53Z</time>
      </trkpt>
      <trkpt lat="43.0368" lon="2.55871">
        <ele>193</ele>
        <time>2022-05-02T18:23:57Z</time>
      </trkpt>
      <trkpt lat="43.03626" lon="2.55836">
        <ele>198</ele>
        <time>2022-05-02T18:24:08Z</time>
      </trkpt>
      <trkpt lat="43.03614" lon="2.55825">
        <ele>199</ele>
        <time>2022-05-02T18:24:10Z</time>
      </trkpt>
      <trkpt lat="43.03574" lon="2.55771">
        <ele>197</ele>
        <time>2022-05-02T18:24:20Z</time>
      </trkpt>
      <trkpt lat="43.03569" lon="2.55759">
        <ele>196</ele>
        <time>2022-05-02T18:24:22Z</time>
      </trkpt>
      <trkpt lat="43.03564" lon="2.55744">
        <ele>194</ele>
        <time>2022-05-02T18:24:24Z</time>
      </trkpt>
      <trkpt lat="43.03544" lon="2.55636">
        <ele>193</ele>
        <time>2022-05-02T18:24:39Z</time>
      </trkpt>
      <trkpt lat="43.03535" lon="2.55503">
        <ele>195</ele>
        <time>2022-05-02T18:24:56Z</time>
      </trkpt>
      <trkpt lat="43.0353" lon="2.55481">
        <ele>195</ele>
        <time>2022-05-02T18:24:59Z</time>
      </trkpt>
      <trkpt lat="43.03523" lon="2.55463">
        <ele>194</ele>
        <time>2022-05-02T18:25:02Z</time>
      </trkpt>
      <trkpt lat="43.03513" lon="2.55445">
        <ele>193</ele>
        <time>2022-05-02T18:25:05Z</time>
      </trkpt>
      <trkpt lat="43.03503" lon="2.55432">
        <ele>192</ele>
        <time>2022-05-02T18:25:07Z</time>
      </trkpt>
      <trkpt lat="43.03488" lon="2.55422">
        <ele>192</ele>
        <time>2022-05-02T18:25:10Z</time>
      </trkpt>
      <trkpt lat="43.03474" lon="2.55415">
        <ele>192</ele>
        <time>2022-05-02T18:25:13Z</time>
      </trkpt>
      <trkpt lat="43.0345" lon="2.55412">
        <ele>192</ele>
        <time>2022-05-02T18:25:17Z</time>
      </trkpt>
      <trkpt lat="43.03429" lon="2.55416">
        <ele>193</ele>
        <time>2022-05-02T18:25:21Z</time>
      </trkpt>
      <trkpt lat="43.03413" lon="2.55422">
        <ele>194</ele>
        <time>2022-05-02T18:25:24Z</time>
      </trkpt>
      <trkpt lat="43.03384" lon="2.55444">
        <ele>199</ele>
        <time>2022-05-02T18:25:30Z</time>
      </trkpt>
      <trkpt lat="43.03376" lon="2.55449">
        <ele>201</ele>
        <time>2022-05-02T18:25:31Z</time>
      </trkpt>
      <trkpt lat="43.03369" lon="2.5545">
        <ele>201</ele>
        <time>2022-05-02T18:25:33Z</time>
      </trkpt>
      <trkpt lat="43.03352" lon="2.55446">
        <ele>202</ele>
        <time>2022-05-02T18:25:36Z</time>
      </trkpt>
      <trkpt lat="43.03337" lon="2.55436">
        <ele>201</ele>
        <time>2022-05-02T18:25:39Z</time>
      </trkpt>
      <trkpt lat="43.03293" lon="2.55399">
        <ele>203</ele>
        <time>2022-05-02T18:25:48Z</time>
      </trkpt>
      <trkpt lat="43.03286" lon="2.55387">
        <ele>202</ele>
        <time>2022-05-02T18:25:50Z</time>
      </trkpt>
      <trkpt lat="43.03273" lon="2.55335">
        <ele>197</ele>
        <time>2022-05-02T18:25:57Z</time>
      </trkpt>
      <trkpt lat="43.03266" lon="2.55319">
        <ele>197</ele>
        <time>2022-05-02T18:25:59Z</time>
      </trkpt>
      <trkpt lat="43.03248" lon="2.55286">
        <ele>195</ele>
        <time>2022-05-02T18:26:05Z</time>
      </trkpt>
      <trkpt lat="43.03238" lon="2.55275">
        <ele>196</ele>
        <time>2022-05-02T18:26:07Z</time>
      </trkpt>
      <trkpt lat="43.03224" lon="2.55266">
        <ele>197</ele>
        <time>2022-05-02T18:26:10Z</time>
      </trkpt>
      <trkpt lat="43.03199" lon="2.55258">
        <ele>198</ele>
        <time>2022-05-02T18:26:14Z</time>
      </trkpt>
      <trkpt lat="43.03181" lon="2.55249">
        <ele>199</ele>
        <time>2022-05-02T18:26:18Z</time>
      </trkpt>
      <trkpt lat="43.03148" lon="2.5521">
        <ele>202</ele>
        <time>2022-05-02T18:26:26Z</time>
      </trkpt>
      <trkpt lat="43.03122" lon="2.55171">
        <ele>204</ele>
        <time>2022-05-02T18:26:32Z</time>
      </trkpt>
      <trkpt lat="43.03109" lon="2.55154">
        <ele>206</ele>
        <time>2022-05-02T18:26:36Z</time>
      </trkpt>
      <trkpt lat="43.03091" lon="2.55136">
        <ele>207</ele>
        <time>2022-05-02T18:26:40Z</time>
      </trkpt>
      <trkpt lat="43.03078" lon="2.55117">
        <ele>207</ele>
        <time>2022-05-02T18:26:43Z</time>
      </trkpt>
      <trkpt lat="43.03069" lon="2.551">
        <ele>209</ele>
        <time>2022-05-02T18:26:46Z</time>
      </trkpt>
      <trkpt lat="43.03054" lon="2.55039">
        <ele>209</ele>
        <time>2022-05-02T18:26:54Z</time>
      </trkpt>
      <trkpt lat="43.03048" lon="2.55022">
        <ele>209</ele>
        <time>2022-05-02T18:26:57Z</time>
      </trkpt>
      <trkpt lat="43.0302" lon="2.54976">
        <ele>209</ele>
        <time>2022-05-02T18:27:04Z</time>
      </trkpt>
      <trkpt lat="43.0301" lon="2.54963">
        <ele>208</ele>
        <time>2022-05-02T18:27:07Z</time>
      </trkpt>
      <trkpt lat="43.0298" lon="2.54941">
        <ele>212</ele>
        <time>2022-05-02T18:27:13Z</time>
      </trkpt>
      <trkpt lat="43.0297" lon="2.54932">
        <ele>213</ele>
        <time>2022-05-02T18:27:15Z</time>
      </trkpt>
      <trkpt lat="43.02943" lon="2.54897">
        <ele>216</ele>
        <time>2022-05-02T18:27:22Z</time>
      </trkpt>
      <trkpt lat="43.02933" lon="2.54881">
        <ele>215</ele>
        <time>2022-05-02T18:27:24Z</time>
      </trkpt>
      <trkpt lat="43.0291" lon="2.54817">
        <ele>207</ele>
        <time>2022-05-02T18:27:34Z</time>
      </trkpt>
      <trkpt lat="43.02894" lon="2.54796">
        <ele>211</ele>
        <time>2022-05-02T18:27:38Z</time>
      </trkpt>
      <trkpt lat="43.02838" lon="2.54744">
        <ele>207</ele>
        <time>2022-05-02T18:27:50Z</time>
      </trkpt>
      <trkpt lat="43.02768" lon="2.54697">
        <ele>206</ele>
        <time>2022-05-02T18:28:03Z</time>
      </trkpt>
      <trkpt lat="43.02747" lon="2.54687">
        <ele>204</ele>
        <time>2022-05-02T18:28:07Z</time>
      </trkpt>
      <trkpt lat="43.02701" lon="2.54678">
        <ele>204</ele>
        <time>2022-05-02T18:28:16Z</time>
      </trkpt>
      <trkpt lat="43.02694" lon="2.54674">
        <ele>203</ele>
        <time>2022-05-02T18:28:17Z</time>
      </trkpt>
      <trkpt lat="43.02686" lon="2.54659">
        <ele>202</ele>
        <time>2022-05-02T18:28:19Z</time>
      </trkpt>
      <trkpt lat="43.02672" lon="2.546">
        <ele>205</ele>
        <time>2022-05-02T18:28:28Z</time>
      </trkpt>
      <trkpt lat="43.02667" lon="2.54591">
        <ele>205</ele>
        <time>2022-05-02T18:28:29Z</time>
      </trkpt>
      <trkpt lat="43.02654" lon="2.54584">
        <ele>206</ele>
        <time>2022-05-02T18:28:31Z</time>
      </trkpt>
      <trkpt lat="43.02644" lon="2.54585">
        <ele>207</ele>
        <time>2022-05-02T18:28:33Z</time>
      </trkpt>
      <trkpt lat="43.0259" lon="2.54602">
        <ele>210</ele>
        <time>2022-05-02T18:28:43Z</time>
      </trkpt>
      <trkpt lat="43.02469" lon="2.54624">
        <ele>213</ele>
        <time>2022-05-02T18:29:05Z</time>
      </trkpt>
      <trkpt lat="43.02453" lon="2.54633">
        <ele>213</ele>
        <time>2022-05-02T18:29:08Z</time>
      </trkpt>
      <trkpt lat="43.0243" lon="2.5464">
        <ele>213</ele>
        <time>2022-05-02T18:29:12Z</time>
      </trkpt>
      <trkpt lat="43.02399" lon="2.54656">
        <ele>216</ele>
        <time>2022-05-02T18:29:18Z</time>
      </trkpt>
      <trkpt lat="43.02385" lon="2.5467">
        <ele>217</ele>
        <time>2022-05-02T18:29:21Z</time>
      </trkpt>
      <trkpt lat="43.02361" lon="2.54701">
        <ele>219</ele>
        <time>2022-05-02T18:29:27Z</time>
      </trkpt>
      <trkpt lat="43.02344" lon="2.5472">
        <ele>219</ele>
        <time>2022-05-02T18:29:31Z</time>
      </trkpt>
      <trkpt lat="43.02334" lon="2.54736">
        <ele>218</ele>
        <time>2022-05-02T18:29:34Z</time>
      </trkpt>
      <trkpt lat="43.02315" lon="2.54777">
        <ele>217</ele>
        <time>2022-05-02T18:29:40Z</time>
      </trkpt>
      <trkpt lat="43.02295" lon="2.54833">
        <ele>212</ele>
        <time>2022-05-02T18:29:48Z</time>
      </trkpt>
      <trkpt lat="43.02289" lon="2.54848">
        <ele>212</ele>
        <time>2022-05-02T18:29:50Z</time>
      </trkpt>
      <trkpt lat="43.02278" lon="2.54859">
        <ele>212</ele>
        <time>2022-05-02T18:29:53Z</time>
      </trkpt>
      <trkpt lat="43.02263" lon="2.54863">
        <ele>213</ele>
        <time>2022-05-02T18:29:55Z</time>
      </trkpt>
      <trkpt lat="43.0224" lon="2.54866">
        <ele>215</ele>
        <time>2022-05-02T18:29:59Z</time>
      </trkpt>
      <trkpt lat="43.02184" lon="2.54867">
        <ele>219</ele>
        <time>2022-05-02T18:30:09Z</time>
      </trkpt>
      <trkpt lat="43.02122" lon="2.5488">
        <ele>220</ele>
        <time>2022-05-02T18:30:21Z</time>
      </trkpt>
      <trkpt lat="43.02107" lon="2.54878">
        <ele>222</ele>
        <time>2022-05-02T18:30:23Z</time>
      </trkpt>
      <trkpt lat="43.02081" lon="2.54869">
        <ele>227</ele>
        <time>2022-05-02T18:30:28Z</time>
      </trkpt>
      <trkpt lat="43.02067" lon="2.54868">
        <ele>228</ele>
        <time>2022-05-02T18:30:31Z</time>
      </trkpt>
      <trkpt lat="43.02035" lon="2.54899">
        <ele>222</ele>
        <time>2022-05-02T18:30:38Z</time>
      </trkpt>
      <trkpt lat="43.02016" lon="2.54907">
        <ele>223</ele>
        <time>2022-05-02T18:30:41Z</time>
      </trkpt>
      <trkpt lat="43.01982" lon="2.54938">
        <ele>218</ele>
        <time>2022-05-02T18:30:48Z</time>
      </trkpt>
      <trkpt lat="43.0197" lon="2.5494">
        <ele>217</ele>
        <time>2022-05-02T18:30:50Z</time>
      </trkpt>
      <trkpt lat="43.01956" lon="2.54936">
        <ele>217</ele>
        <time>2022-05-02T18:30:53Z</time>
      </trkpt>
      <trkpt lat="43.01948" lon="2.5493">
        <ele>217</ele>
        <time>2022-05-02T18:30:55Z</time>
      </trkpt>
      <trkpt lat="43.01939" lon="2.5492">
        <ele>218</ele>
        <time>2022-05-02T18:30:57Z</time>
      </trkpt>
      <trkpt lat="43.01928" lon="2.54891">
        <ele>221</ele>
        <time>2022-05-02T18:31:01Z</time>
      </trkpt>
      <trkpt lat="43.0191" lon="2.54833">
        <ele>228</ele>
        <time>2022-05-02T18:31:09Z</time>
      </trkpt>
      <trkpt lat="43.01907" lon="2.54814">
        <ele>227</ele>
        <time>2022-05-02T18:31:12Z</time>
      </trkpt>
      <trkpt lat="43.01907" lon="2.54802">
        <ele>226</ele>
        <time>2022-05-02T18:31:13Z</time>
      </trkpt>
      <trkpt lat="43.0191" lon="2.54787">
        <ele>226</ele>
        <time>2022-05-02T18:31:15Z</time>
      </trkpt>
      <trkpt lat="43.01963" lon="2.54674">
        <ele>223</ele>
        <time>2022-05-02T18:31:33Z</time>
      </trkpt>
      <trkpt lat="43.01971" lon="2.54644">
        <ele>222</ele>
        <time>2022-05-02T18:31:37Z</time>
      </trkpt>
      <trkpt lat="43.01972" lon="2.54618">
        <ele>222</ele>
        <time>2022-05-02T18:31:40Z</time>
      </trkpt>
      <trkpt lat="43.01969" lon="2.5455">
        <ele>220</ele>
        <time>2022-05-02T18:31:49Z</time>
      </trkpt>
      <trkpt lat="43.01969" lon="2.5454">
        <ele>220</ele>
        <time>2022-05-02T18:31:50Z</time>
      </trkpt>
      <trkpt lat="43.01972" lon="2.5453">
        <ele>220</ele>
        <time>2022-05-02T18:31:52Z</time>
      </trkpt>
      <trkpt lat="43.01977" lon="2.54521">
        <ele>220</ele>
        <time>2022-05-02T18:31:53Z</time>
      </trkpt>
      <trkpt lat="43.0199" lon="2.54506">
        <ele>221</ele>
        <time>2022-05-02T18:31:56Z</time>
      </trkpt>
      <trkpt lat="43.02001" lon="2.545">
        <ele>221</ele>
        <time>2022-05-02T18:31:58Z</time>
      </trkpt>
      <trkpt lat="43.02051" lon="2.54488">
        <ele>225</ele>
        <time>2022-05-02T18:32:08Z</time>
      </trkpt>
      <trkpt lat="43.02067" lon="2.5448">
        <ele>226</ele>
        <time>2022-05-02T18:32:11Z</time>
      </trkpt>
      <trkpt lat="43.02079" lon="2.54464">
        <ele>227</ele>
        <time>2022-05-02T18:32:14Z</time>
      </trkpt>
      <trkpt lat="43.02083" lon="2.54449">
        <ele>227</ele>
        <time>2022-05-02T18:32:16Z</time>
      </trkpt>
      <trkpt lat="43.02084" lon="2.54438">
        <ele>227</ele>
        <time>2022-05-02T18:32:17Z</time>
      </trkpt>
      <trkpt lat="43.02083" lon="2.54428">
        <ele>226</ele>
        <time>2022-05-02T18:32:18Z</time>
      </trkpt>
      <trkpt lat="43.02076" lon="2.54411">
        <ele>226</ele>
        <time>2022-05-02T18:32:21Z</time>
      </trkpt>
      <trkpt lat="43.02064" lon="2.54396">
        <ele>227</ele>
        <time>2022-05-02T18:32:24Z</time>
      </trkpt>
      <trkpt lat="43.02057" lon="2.54392">
        <ele>228</ele>
        <time>2022-05-02T18:32:25Z</time>
      </trkpt>
      <trkpt lat="43.02051" lon="2.5439">
        <ele>228</ele>
        <time>2022-05-02T18:32:26Z</time>
      </trkpt>
      <trkpt lat="43.01926" lon="2.54408">
        <ele>227</ele>
        <time>2022-05-02T18:32:49Z</time>
      </trkpt>
      <trkpt lat="43.01906" lon="2.54405">
        <ele>227</ele>
        <time>2022-05-02T18:32:52Z</time>
      </trkpt>
      <trkpt lat="43.0189" lon="2.54401">
        <ele>227</ele>
        <time>2022-05-02T18:32:55Z</time>
      </trkpt>
      <trkpt lat="43.01759" lon="2.54326">
        <ele>229</ele>
        <time>2022-05-02T18:33:20Z</time>
      </trkpt>
      <trkpt lat="43.01748" lon="2.54318">
        <ele>229</ele>
        <time>2022-05-02T18:33:23Z</time>
      </trkpt>
      <trkpt lat="43.01741" lon="2.54309">
        <ele>229</ele>
        <time>2022-05-02T18:33:24Z</time>
      </trkpt>
      <trkpt lat="43.01735" lon="2.54296">
        <ele>229</ele>
        <time>2022-05-02T18:33:26Z</time>
      </trkpt>
      <trkpt lat="43.01732" lon="2.54284">
        <ele>230</ele>
        <time>2022-05-02T18:33:28Z</time>
      </trkpt>
      <trkpt lat="43.01735" lon="2.5399">
        <ele>238</ele>
        <time>2022-05-02T18:34:06Z</time>
      </trkpt>
      <trkpt lat="43.01742" lon="2.53964">
        <ele>236</ele>
        <time>2022-05-02T18:34:10Z</time>
      </trkpt>
      <trkpt lat="43.01758" lon="2.53925">
        <ele>237</ele>
        <time>2022-05-02T18:34:16Z</time>
      </trkpt>
      <trkpt lat="43.01774" lon="2.53874">
        <ele>241</ele>
        <time>2022-05-02T18:34:23Z</time>
      </trkpt>
      <trkpt lat="43.01777" lon="2.53853">
        <ele>242</ele>
        <time>2022-05-02T18:34:26Z</time>
      </trkpt>
      <trkpt lat="43.01777" lon="2.53831">
        <ele>241</ele>
        <time>2022-05-02T18:34:28Z</time>
      </trkpt>
      <trkpt lat="43.01769" lon="2.53791">
        <ele>241</ele>
        <time>2022-05-02T18:34:34Z</time>
      </trkpt>
      <trkpt lat="43.01756" lon="2.53761">
        <ele>238</ele>
        <time>2022-05-02T18:34:38Z</time>
      </trkpt>
      <trkpt lat="43.01733" lon="2.53728">
        <ele>237</ele>
        <time>2022-05-02T18:34:44Z</time>
      </trkpt>
      <trkpt lat="43.01675" lon="2.53656">
        <ele>237</ele>
        <time>2022-05-02T18:34:58Z</time>
      </trkpt>
      <trkpt lat="43.01663" lon="2.53647">
        <ele>238</ele>
        <time>2022-05-02T18:35:01Z</time>
      </trkpt>
      <trkpt lat="43.01653" lon="2.53646">
        <ele>239</ele>
        <time>2022-05-02T18:35:02Z</time>
      </trkpt>
      <trkpt lat="43.01643" lon="2.53649">
        <ele>239</ele>
        <time>2022-05-02T18:35:04Z</time>
      </trkpt>
      <trkpt lat="43.01566" lon="2.53713">
        <ele>234</ele>
        <time>2022-05-02T18:35:20Z</time>
      </trkpt>
      <trkpt lat="43.01488" lon="2.53783">
        <ele>231</ele>
        <time>2022-05-02T18:35:37Z</time>
      </trkpt>
      <trkpt lat="43.01485" lon="2.5379">
        <ele>230</ele>
        <time>2022-05-02T18:35:38Z</time>
      </trkpt>
      <trkpt lat="43.01484" lon="2.53805">
        <ele>227</ele>
        <time>2022-05-02T18:35:40Z</time>
      </trkpt>
      <trkpt lat="43.01484" lon="2.53819">
        <ele>225</ele>
        <time>2022-05-02T18:35:42Z</time>
      </trkpt>
      <trkpt lat="43.01489" lon="2.5385">
        <ele>226</ele>
        <time>2022-05-02T18:35:46Z</time>
      </trkpt>
      <trkpt lat="43.01491" lon="2.53859">
        <ele>229</ele>
        <time>2022-05-02T18:35:47Z</time>
      </trkpt>
      <trkpt lat="43.01491" lon="2.53869">
        <ele>232</ele>
        <time>2022-05-02T18:35:48Z</time>
      </trkpt>
      <trkpt lat="43.01502" lon="2.53866">
        <ele>231</ele>
        <time>2022-05-02T18:35:50Z</time>
      </trkpt>
      <trkpt lat="43.01514" lon="2.53866">
        <ele>230</ele>
        <time>2022-05-02T18:35:53Z</time>
      </trkpt>
      <trkpt lat="43.0156" lon="2.53879">
        <ele>231</ele>
        <time>2022-05-02T18:36:01Z</time>
      </trkpt>
      <trkpt lat="43.01592" lon="2.53891">
        <ele>230</ele>
        <time>2022-05-02T18:36:07Z</time>
      </trkpt>
      <trkpt lat="43.016" lon="2.539">
        <ele>230</ele>
        <time>2022-05-02T18:36:09Z</time>
      </trkpt>
      <trkpt lat="43.01604" lon="2.53911">
        <ele>231</ele>
        <time>2022-05-02T18:36:10Z</time>
      </trkpt>
      <trkpt lat="43.01607" lon="2.53958">
        <ele>235</ele>
        <time>2022-05-02T18:36:16Z</time>
      </trkpt>
      <trkpt lat="43.01605" lon="2.53974">
        <ele>237</ele>
        <time>2022-05-02T18:36:18Z</time>
      </trkpt>
      <trkpt lat="43.01595" lon="2.54022">
        <ele>241</ele>
        <time>2022-05-02T18:36:25Z</time>
      </trkpt>
      <trkpt lat="43.01577" lon="2.54085">
        <ele>242</ele>
        <time>2022-05-02T18:36:34Z</time>
      </trkpt>
      <trkpt lat="43.01565" lon="2.54145">
        <ele>243</ele>
        <time>2022-05-02T18:36:42Z</time>
      </trkpt>
      <trkpt lat="43.01548" lon="2.54263">
        <ele>246</ele>
        <time>2022-05-02T18:36:58Z</time>
      </trkpt>
      <trkpt lat="43.01547" lon="2.54277">
        <ele>246</ele>
        <time>2022-05-02T18:36:59Z</time>
      </trkpt>
      <trkpt lat="43.01555" lon="2.54332">
        <ele>239</ele>
        <time>2022-05-02T18:37:07Z</time>
      </trkpt>
      <trkpt lat="43.01556" lon="2.54348">
        <ele>236</ele>
        <time>2022-05-02T18:37:09Z</time>
      </trkpt>
      <trkpt lat="43.01551" lon="2.54363">
        <ele>235</ele>
        <time>2022-05-02T18:37:11Z</time>
      </trkpt>
      <trkpt lat="43.01543" lon="2.54372">
        <ele>237</ele>
        <time>2022-05-02T18:37:13Z</time>
      </trkpt>
      <trkpt lat="43.01487" lon="2.54409">
        <ele>245</ele>
        <time>2022-05-02T18:37:24Z</time>
      </trkpt>
      <trkpt lat="43.01437" lon="2.54454">
        <ele>244</ele>
        <time>2022-05-02T18:37:34Z</time>
      </trkpt>
      <trkpt lat="43.01425" lon="2.54462">
        <ele>245</ele>
        <time>2022-05-02T18:37:37Z</time>
      </trkpt>
      <trkpt lat="43.01412" lon="2.54465">
        <ele>246</ele>
        <time>2022-05-02T18:37:39Z</time>
      </trkpt>
      <trkpt lat="43.01353" lon="2.54481">
        <ele>244</ele>
        <time>2022-05-02T18:37:50Z</time>
      </trkpt>
      <trkpt lat="43.01343" lon="2.5448">
        <ele>244</ele>
        <time>2022-05-02T18:37:52Z</time>
      </trkpt>
      <trkpt lat="43.01336" lon="2.54478">
        <ele>244</ele>
        <time>2022-05-02T18:37:53Z</time>
      </trkpt>
      <trkpt lat="43.01326" lon="2.54471">
        <ele>245</ele>
        <time>2022-05-02T18:37:55Z</time>
      </trkpt>
      <trkpt lat="43.01306" lon="2.54438">
        <ele>248</ele>
        <time>2022-05-02T18:38:00Z</time>
      </trkpt>
      <trkpt lat="43.01298" lon="2.54431">
        <ele>249</ele>
        <time>2022-05-02T18:38:02Z</time>
      </trkpt>
      <trkpt lat="43.01288" lon="2.54426">
        <ele>250</ele>
        <time>2022-05-02T18:38:04Z</time>
      </trkpt>
      <trkpt lat="43.01267" lon="2.54424">
        <ele>251</ele>
        <time>2022-05-02T18:38:08Z</time>
      </trkpt>
      <trkpt lat="43.01254" lon="2.54427">
        <ele>251</ele>
        <time>2022-05-02T18:38:10Z</time>
      </trkpt>
      <trkpt lat="43.01216" lon="2.5444">
        <ele>252</ele>
        <time>2022-05-02T18:38:17Z</time>
      </trkpt>
      <trkpt lat="43.01209" lon="2.54446">
        <ele>252</ele>
        <time>2022-05-02T18:38:19Z</time>
      </trkpt>
      <trkpt lat="43.01202" lon="2.54456">
        <ele>251</ele>
        <time>2022-05-02T18:38:20Z</time>
      </trkpt>
      <trkpt lat="43.01175" lon="2.54524">
        <ele>243</ele>
        <time>2022-05-02T18:38:30Z</time>
      </trkpt>
      <trkpt lat="43.0117" lon="2.54533">
        <ele>242</ele>
        <time>2022-05-02T18:38:32Z</time>
      </trkpt>
      <trkpt lat="43.01159" lon="2.54543">
        <ele>241</ele>
        <time>2022-05-02T18:38:34Z</time>
      </trkpt>
      <trkpt lat="43.0113" lon="2.54553">
        <ele>241</ele>
        <time>2022-05-02T18:38:40Z</time>
      </trkpt>
      <trkpt lat="43.01114" lon="2.54563">
        <ele>240</ele>
        <time>2022-05-02T18:38:43Z</time>
      </trkpt>
      <trkpt lat="43.01094" lon="2.54584">
        <ele>238</ele>
        <time>2022-05-02T18:38:47Z</time>
      </trkpt>
      <trkpt lat="43.01083" lon="2.54588">
        <ele>239</ele>
        <time>2022-05-02T18:38:49Z</time>
      </trkpt>
      <trkpt lat="43.01076" lon="2.54585">
        <ele>238</ele>
        <time>2022-05-02T18:38:51Z</time>
      </trkpt>
      <trkpt lat="43.0107" lon="2.54579">
        <ele>239</ele>
        <time>2022-05-02T18:38:52Z</time>
      </trkpt>
      <trkpt lat="43.0105" lon="2.54544">
        <ele>244</ele>
        <time>2022-05-02T18:38:58Z</time>
      </trkpt>
      <trkpt lat="43.01039" lon="2.54532">
        <ele>245</ele>
        <time>2022-05-02T18:39:00Z</time>
      </trkpt>
      <trkpt lat="43.01019" lon="2.5452">
        <ele>248</ele>
        <time>2022-05-02T18:39:04Z</time>
      </trkpt>
      <trkpt lat="43.01001" lon="2.54517">
        <ele>248</ele>
        <time>2022-05-02T18:39:07Z</time>
      </trkpt>
      <trkpt lat="43.00987" lon="2.54517">
        <ele>251</ele>
        <time>2022-05-02T18:39:10Z</time>
      </trkpt>
      <trkpt lat="43.00968" lon="2.54524">
        <ele>254</ele>
        <time>2022-05-02T18:39:13Z</time>
      </trkpt>
      <trkpt lat="43.00955" lon="2.54538">
        <ele>255</ele>
        <time>2022-05-02T18:39:16Z</time>
      </trkpt>
      <trkpt lat="43.00944" lon="2.54563">
        <ele>252</ele>
        <time>2022-05-02T18:39:20Z</time>
      </trkpt>
      <trkpt lat="43.00931" lon="2.54622">
        <ele>247</ele>
        <time>2022-05-02T18:39:28Z</time>
      </trkpt>
      <trkpt lat="43.00932" lon="2.54654">
        <ele>244</ele>
        <time>2022-05-02T18:39:32Z</time>
      </trkpt>
      <trkpt lat="43.00936" lon="2.54687">
        <ele>245</ele>
        <time>2022-05-02T18:39:37Z</time>
      </trkpt>
      <trkpt lat="43.00966" lon="2.54761">
        <ele>245</ele>
        <time>2022-05-02T18:39:48Z</time>
      </trkpt>
      <trkpt lat="43.00976" lon="2.548">
        <ele>245</ele>
        <time>2022-05-02T18:39:53Z</time>
      </trkpt>
      <trkpt lat="43.00976" lon="2.54822">
        <ele>246</ele>
        <time>2022-05-02T18:39:56Z</time>
      </trkpt>
      <trkpt lat="43.00972" lon="2.54832">
        <ele>248</ele>
        <time>2022-05-02T18:39:57Z</time>
      </trkpt>
      <trkpt lat="43.00947" lon="2.54853">
        <ele>252</ele>
        <time>2022-05-02T18:40:03Z</time>
      </trkpt>
      <trkpt lat="43.00937" lon="2.54864">
        <ele>253</ele>
        <time>2022-05-02T18:40:05Z</time>
      </trkpt>
      <trkpt lat="43.00845" lon="2.55007">
        <ele>258</ele>
        <time>2022-05-02T18:40:30Z</time>
      </trkpt>
      <trkpt lat="43.00838" lon="2.55022">
        <ele>256</ele>
        <time>2022-05-02T18:40:32Z</time>
      </trkpt>
      <trkpt lat="43.00821" lon="2.55064">
        <ele>253</ele>
        <time>2022-05-02T18:40:38Z</time>
      </trkpt>
      <trkpt lat="43.00812" lon="2.55112">
        <ele>253</ele>
        <time>2022-05-02T18:40:45Z</time>
      </trkpt>
      <trkpt lat="43.0081" lon="2.55117">
        <ele>253</ele>
        <time>2022-05-02T18:40:45Z</time>
      </trkpt>
      <trkpt lat="43.00806" lon="2.55119">
        <ele>253</ele>
        <time>2022-05-02T18:40:46Z</time>
      </trkpt>
      <trkpt lat="43.00771" lon="2.55124">
        <ele>255</ele>
        <time>2022-05-02T18:40:52Z</time>
      </trkpt>
      <trkpt lat="43.00755" lon="2.55123">
        <ele>256</ele>
        <time>2022-05-02T18:40:55Z</time>
      </trkpt>
      <trkpt lat="43.00729" lon="2.55103">
        <ele>259</ele>
        <time>2022-05-02T18:41:00Z</time>
      </trkpt>
      <trkpt lat="43.00703" lon="2.55095">
        <ele>261</ele>
        <time>2022-05-02T18:41:05Z</time>
      </trkpt>
      <trkpt lat="43.00627" lon="2.55097">
        <ele>265</ele>
        <time>2022-05-02T18:41:19Z</time>
      </trkpt>
      <trkpt lat="43.00614" lon="2.55103">
        <ele>265</ele>
        <time>2022-05-02T18:41:21Z</time>
      </trkpt>
      <trkpt lat="43.00599" lon="2.55117">
        <ele>264</ele>
        <time>2022-05-02T18:41:24Z</time>
      </trkpt>
      <trkpt lat="43.00587" lon="2.5512">
        <ele>264</ele>
        <time>2022-05-02T18:41:27Z</time>
      </trkpt>
      <trkpt lat="43.00575" lon="2.55121">
        <ele>265</ele>
        <time>2022-05-02T18:41:29Z</time>
      </trkpt>
      <trkpt lat="43.00554" lon="2.55107">
        <ele>268</ele>
        <time>2022-05-02T18:41:33Z</time>
      </trkpt>
      <trkpt lat="43.00539" lon="2.55088">
        <ele>271</ele>
        <time>2022-05-02T18:41:37Z</time>
      </trkpt>
      <trkpt lat="43.00529" lon="2.5508">
        <ele>272</ele>
        <time>2022-05-02T18:41:39Z</time>
      </trkpt>
      <trkpt lat="43.00526" lon="2.55078">
        <ele>272</ele>
        <time>2022-05-02T18:41:39Z</time>
      </trkpt>
      <trkpt lat="43.00517" lon="2.5508">
        <ele>272</ele>
        <time>2022-05-02T18:41:41Z</time>
      </trkpt>
      <trkpt lat="43.00511" lon="2.55086">
        <ele>272</ele>
        <time>2022-05-02T18:41:42Z</time>
      </trkpt>
      <trkpt lat="43.00503" lon="2.55112">
        <ele>270</ele>
        <time>2022-05-02T18:41:46Z</time>
      </trkpt>
      <trkpt lat="43.005" lon="2.55118">
        <ele>270</ele>
        <time>2022-05-02T18:41:47Z</time>
      </trkpt>
      <trkpt lat="43.00495" lon="2.55122">
        <ele>270</ele>
        <time>2022-05-02T18:41:48Z</time>
      </trkpt>
      <trkpt lat="43.00468" lon="2.55132">
        <ele>273</ele>
        <time>2022-05-02T18:41:53Z</time>
      </trkpt>
      <trkpt lat="43.0045" lon="2.55143">
        <ele>274</ele>
        <time>2022-05-02T18:41:56Z</time>
      </trkpt>
      <trkpt lat="43.00437" lon="2.55162">
        <ele>274</ele>
        <time>2022-05-02T18:42:00Z</time>
      </trkpt>
      <trkpt lat="43.00418" lon="2.55195">
        <ele>276</ele>
        <time>2022-05-02T18:42:05Z</time>
      </trkpt>
      <trkpt lat="43.00396" lon="2.55242">
        <ele>278</ele>
        <time>2022-05-02T18:42:12Z</time>
      </trkpt>
      <trkpt lat="43.0039" lon="2.55248">
        <ele>279</ele>
        <time>2022-05-02T18:42:14Z</time>
      </trkpt>
      <trkpt lat="43.00383" lon="2.55251">
        <ele>279</ele>
        <time>2022-05-02T18:42:15Z</time>
      </trkpt>
      <trkpt lat="43.00348" lon="2.55248">
        <ele>281</ele>
        <time>2022-05-02T18:42:21Z</time>
      </trkpt>
      <trkpt lat="43.00347" lon="2.55249">
        <ele>281</ele>
        <time>2022-05-02T18:42:21Z</time>
      </trkpt>
      <trkpt lat="43.00329" lon="2.55284">
        <ele>287</ele>
        <time>2022-05-02T18:42:27Z</time>
      </trkpt>
      <trkpt lat="43.00327" lon="2.55292">
        <ele>289</ele>
        <time>2022-05-02T18:42:28Z</time>
      </trkpt>
      <trkpt lat="43.00329" lon="2.553">
        <ele>290</ele>
        <time>2022-05-02T18:42:29Z</time>
      </trkpt>
      <trkpt lat="43.0034" lon="2.5532">
        <ele>292</ele>
        <time>2022-05-02T18:42:32Z</time>
      </trkpt>
      <trkpt lat="43.00346" lon="2.55326">
        <ele>293</ele>
        <time>2022-05-02T18:42:34Z</time>
      </trkpt>
      <trkpt lat="43.00356" lon="2.5533">
        <ele>293</ele>
        <time>2022-05-02T18:42:36Z</time>
      </trkpt>
      <trkpt lat="43.00408" lon="2.55329">
        <ele>292</ele>
        <time>2022-05-02T18:42:45Z</time>
      </trkpt>
      <trkpt lat="43.0042" lon="2.55323">
        <ele>291</ele>
        <time>2022-05-02T18:42:47Z</time>
      </trkpt>
      <trkpt lat="43.00462" lon="2.5528">
        <ele>279</ele>
        <time>2022-05-02T18:42:57Z</time>
      </trkpt>
      <trkpt lat="43.0047" lon="2.55279">
        <ele>278</ele>
        <time>2022-05-02T18:42:58Z</time>
      </trkpt>
      <trkpt lat="43.00478" lon="2.55282">
        <ele>278</ele>
        <time>2022-05-02T18:42:59Z</time>
      </trkpt>
      <trkpt lat="43.00482" lon="2.55289">
        <ele>279</ele>
        <time>2022-05-02T18:43:01Z</time>
      </trkpt>
      <trkpt lat="43.00483" lon="2.55299">
        <ele>280</ele>
        <time>2022-05-02T18:43:02Z</time>
      </trkpt>
      <trkpt lat="43.00482" lon="2.55308">
        <ele>282</ele>
        <time>2022-05-02T18:43:03Z</time>
      </trkpt>
      <trkpt lat="43.00478" lon="2.55317">
        <ele>284</ele>
        <time>2022-05-02T18:43:04Z</time>
      </trkpt>
      <trkpt lat="43.00458" lon="2.55343">
        <ele>290</ele>
        <time>2022-05-02T18:43:09Z</time>
      </trkpt>
      <trkpt lat="43.0045" lon="2.55365">
        <ele>295</ele>
        <time>2022-05-02T18:43:13Z</time>
      </trkpt>
      <trkpt lat="43.00451" lon="2.55376">
        <ele>297</ele>
        <time>2022-05-02T18:43:14Z</time>
      </trkpt>
      <trkpt lat="43.00455" lon="2.55396">
        <ele>300</ele>
        <time>2022-05-02T18:43:17Z</time>
      </trkpt>
      <trkpt lat="43.00462" lon="2.55411">
        <ele>301</ele>
        <time>2022-05-02T18:43:19Z</time>
      </trkpt>
      <trkpt lat="43.00473" lon="2.55429">
        <ele>303</ele>
        <time>2022-05-02T18:43:22Z</time>
      </trkpt>
      <trkpt lat="43.00504" lon="2.55465">
        <ele>306</ele>
        <time>2022-05-02T18:43:29Z</time>
      </trkpt>
      <trkpt lat="43.00517" lon="2.55494">
        <ele>310</ele>
        <time>2022-05-02T18:43:34Z</time>
      </trkpt>
      <trkpt lat="43.00519" lon="2.55509">
        <ele>311</ele>
        <time>2022-05-02T18:43:36Z</time>
      </trkpt>
      <trkpt lat="43.00519" lon="2.55529">
        <ele>314</ele>
        <time>2022-05-02T18:43:38Z</time>
      </trkpt>
      <trkpt lat="43.00518" lon="2.55542">
        <ele>316</ele>
        <time>2022-05-02T18:43:40Z</time>
      </trkpt>
      <trkpt lat="43.00494" lon="2.55608">
        <ele>329</ele>
        <time>2022-05-02T18:43:50Z</time>
      </trkpt>
      <trkpt lat="43.00484" lon="2.5562">
        <ele>333</ele>
        <time>2022-05-02T18:43:52Z</time>
      </trkpt>
      <trkpt lat="43.00477" lon="2.55625">
        <ele>335</ele>
        <time>2022-05-02T18:43:53Z</time>
      </trkpt>
      <trkpt lat="43.00461" lon="2.55635">
        <ele>340</ele>
        <time>2022-05-02T18:43:57Z</time>
      </trkpt>
      <trkpt lat="43.00456" lon="2.55639">
        <ele>340</ele>
        <time>2022-05-02T18:43:58Z</time>
      </trkpt>
      <trkpt lat="43.00451" lon="2.55647">
        <ele>341</ele>
        <time>2022-05-02T18:43:59Z</time>
      </trkpt>
      <trkpt lat="43.00448" lon="2.55657">
        <ele>340</ele>
        <time>2022-05-02T18:44:00Z</time>
      </trkpt>
      <trkpt lat="43.00424" lon="2.55751">
        <ele>330</ele>
        <time>2022-05-02T18:44:13Z</time>
      </trkpt>
      <trkpt lat="43.00417" lon="2.55781">
        <ele>330</ele>
        <time>2022-05-02T18:44:17Z</time>
      </trkpt>
      <trkpt lat="43.00416" lon="2.55801">
        <ele>331</ele>
        <time>2022-05-02T18:44:20Z</time>
      </trkpt>
      <trkpt lat="43.00419" lon="2.55823">
        <ele>331</ele>
        <time>2022-05-02T18:44:23Z</time>
      </trkpt>
      <trkpt lat="43.00426" lon="2.55839">
        <ele>332</ele>
        <time>2022-05-02T18:44:25Z</time>
      </trkpt>
      <trkpt lat="43.00434" lon="2.55854">
        <ele>335</ele>
        <time>2022-05-02T18:44:28Z</time>
      </trkpt>
      <trkpt lat="43.00444" lon="2.5586">
        <ele>335</ele>
        <time>2022-05-02T18:44:30Z</time>
      </trkpt>
      <trkpt lat="43.00459" lon="2.55865">
        <ele>335</ele>
        <time>2022-05-02T18:44:32Z</time>
      </trkpt>
      <trkpt lat="43.005" lon="2.55864">
        <ele>332</ele>
        <time>2022-05-02T18:44:40Z</time>
      </trkpt>
      <trkpt lat="43.00507" lon="2.55867">
        <ele>335</ele>
        <time>2022-05-02T18:44:41Z</time>
      </trkpt>
      <trkpt lat="43.00511" lon="2.55872">
        <ele>337</ele>
        <time>2022-05-02T18:44:42Z</time>
      </trkpt>
      <trkpt lat="43.00516" lon="2.55886">
        <ele>338</ele>
        <time>2022-05-02T18:44:44Z</time>
      </trkpt>
      <trkpt lat="43.00517" lon="2.55904">
        <ele>339</ele>
        <time>2022-05-02T18:44:46Z</time>
      </trkpt>
      <trkpt lat="43.00514" lon="2.5593">
        <ele>337</ele>
        <time>2022-05-02T18:44:50Z</time>
      </trkpt>
      <trkpt lat="43.00489" lon="2.55991">
        <ele>334</ele>
        <time>2022-05-02T18:44:59Z</time>
      </trkpt>
      <trkpt lat="43.00475" lon="2.56043">
        <ele>337</ele>
        <time>2022-05-02T18:45:06Z</time>
      </trkpt>
      <trkpt lat="43.00471" lon="2.56071">
        <ele>337</ele>
        <time>2022-05-02T18:45:10Z</time>
      </trkpt>
      <trkpt lat="43.00472" lon="2.56114">
        <ele>335</ele>
        <time>2022-05-02T18:45:15Z</time>
      </trkpt>
      <trkpt lat="43.0047" lon="2.56148">
        <ele>333</ele>
        <time>2022-05-02T18:45:20Z</time>
      </trkpt>
      <trkpt lat="43.00469" lon="2.56187">
        <ele>334</ele>
        <time>2022-05-02T18:45:25Z</time>
      </trkpt>
      <trkpt lat="43.00465" lon="2.56198">
        <ele>335</ele>
        <time>2022-05-02T18:45:27Z</time>
      </trkpt>
      <trkpt lat="43.00457" lon="2.56202">
        <ele>336</ele>
        <time>2022-05-02T18:45:28Z</time>
      </trkpt>
      <trkpt lat="43.00445" lon="2.56203">
        <ele>336</ele>
        <time>2022-05-02T18:45:30Z</time>
      </trkpt>
      <trkpt lat="43.00412" lon="2.562">
        <ele>337</ele>
        <time>2022-05-02T18:45:36Z</time>
      </trkpt>
      <trkpt lat="43.00397" lon="2.56195">
        <ele>338</ele>
        <time>2022-05-02T18:45:39Z</time>
      </trkpt>
      <trkpt lat="43.00382" lon="2.56185">
        <ele>338</ele>
        <time>2022-05-02T18:45:42Z</time>
      </trkpt>
      <trkpt lat="43.00366" lon="2.5617">
        <ele>337</ele>
        <time>2022-05-02T18:45:45Z</time>
      </trkpt>
      <trkpt lat="43.00357" lon="2.56157">
        <ele>337</ele>
        <time>2022-05-02T18:45:48Z</time>
      </trkpt>
      <trkpt lat="43.00353" lon="2.5614">
        <ele>337</ele>
        <time>2022-05-02T18:45:50Z</time>
      </trkpt>
      <trkpt lat="43.00354" lon="2.56123">
        <ele>338</ele>
        <time>2022-05-02T18:45:52Z</time>
      </trkpt>
      <trkpt lat="43.00365" lon="2.56071">
        <ele>342</ele>
        <time>2022-05-02T18:45:59Z</time>
      </trkpt>
      <trkpt lat="43.00368" lon="2.56049">
        <ele>344</ele>
        <time>2022-05-02T18:46:02Z</time>
      </trkpt>
      <trkpt lat="43.00364" lon="2.56013">
        <ele>346</ele>
        <time>2022-05-02T18:46:07Z</time>
      </trkpt>
      <trkpt lat="43.00356" lon="2.55977">
        <ele>345</ele>
        <time>2022-05-02T18:46:12Z</time>
      </trkpt>
      <trkpt lat="43.00346" lon="2.55952">
        <ele>345</ele>
        <time>2022-05-02T18:46:15Z</time>
      </trkpt>
      <trkpt lat="43.00333" lon="2.5593">
        <ele>344</ele>
        <time>2022-05-02T18:46:19Z</time>
      </trkpt>
      <trkpt lat="43.00312" lon="2.55903">
        <ele>348</ele>
        <time>2022-05-02T18:46:24Z</time>
      </trkpt>
      <trkpt lat="43.00302" lon="2.55895">
        <ele>350</ele>
        <time>2022-05-02T18:46:26Z</time>
      </trkpt>
      <trkpt lat="43.00239" lon="2.55881">
        <ele>354</ele>
        <time>2022-05-02T18:46:38Z</time>
      </trkpt>
      <trkpt lat="43.00224" lon="2.55883">
        <ele>354</ele>
        <time>2022-05-02T18:46:40Z</time>
      </trkpt>
      <trkpt lat="43.00195" lon="2.55896">
        <ele>351</ele>
        <time>2022-05-02T18:46:46Z</time>
      </trkpt>
      <trkpt lat="43.00175" lon="2.55902">
        <ele>350</ele>
        <time>2022-05-02T18:46:49Z</time>
      </trkpt>
      <trkpt lat="43.0013" lon="2.55889">
        <ele>353</ele>
        <time>2022-05-02T18:46:58Z</time>
      </trkpt>
      <trkpt lat="43.00122" lon="2.55889">
        <ele>352</ele>
        <time>2022-05-02T18:46:59Z</time>
      </trkpt>
      <trkpt lat="43.00119" lon="2.55892">
        <ele>352</ele>
        <time>2022-05-02T18:47:00Z</time>
      </trkpt>
      <trkpt lat="43.00106" lon="2.55922">
        <ele>346</ele>
        <time>2022-05-02T18:47:04Z</time>
      </trkpt>
      <trkpt lat="43.00103" lon="2.55933">
        <ele>347</ele>
        <time>2022-05-02T18:47:06Z</time>
      </trkpt>
      <trkpt lat="43.00099" lon="2.5595">
        <ele>348</ele>
        <time>2022-05-02T18:47:08Z</time>
      </trkpt>
      <trkpt lat="43.00097" lon="2.55995">
        <ele>352</ele>
        <time>2022-05-02T18:47:14Z</time>
      </trkpt>
      <trkpt lat="43.00103" lon="2.56035">
        <ele>357</ele>
        <time>2022-05-02T18:47:19Z</time>
      </trkpt>
      <trkpt lat="43.00103" lon="2.56055">
        <ele>358</ele>
        <time>2022-05-02T18:47:22Z</time>
      </trkpt>
      <trkpt lat="43.00099" lon="2.56074">
        <ele>358</ele>
        <time>2022-05-02T18:47:24Z</time>
      </trkpt>
      <trkpt lat="43.00091" lon="2.56092">
        <ele>354</ele>
        <time>2022-05-02T18:47:27Z</time>
      </trkpt>
      <trkpt lat="43.00083" lon="2.56105">
        <ele>351</ele>
        <time>2022-05-02T18:47:29Z</time>
      </trkpt>
      <trkpt lat="43.00074" lon="2.56118">
        <ele>352</ele>
        <time>2022-05-02T18:47:32Z</time>
      </trkpt>
      <trkpt lat="43.0006" lon="2.56134">
        <ele>353</ele>
        <time>2022-05-02T18:47:35Z</time>
      </trkpt>
      <trkpt lat="43.00049" lon="2.56145">
        <ele>353</ele>
        <time>2022-05-02T18:47:37Z</time>
      </trkpt>
      <trkpt lat="43.00029" lon="2.56159">
        <ele>353</ele>
        <time>2022-05-02T18:47:41Z</time>
      </trkpt>
      <trkpt lat="43.00024" lon="2.56174">
        <ele>353</ele>
        <time>2022-05-02T18:47:44Z</time>
      </trkpt>
      <trkpt lat="43.00018" lon="2.56204">
        <ele>352</ele>
        <time>2022-05-02T18:47:48Z</time>
      </trkpt>
      <trkpt lat="43.00017" lon="2.56209">
        <ele>352</ele>
        <time>2022-05-02T18:47:48Z</time>
      </trkpt>
      <trkpt lat="43.00018" lon="2.56243">
        <ele>351</ele>
        <time>2022-05-02T18:47:53Z</time>
      </trkpt>
      <trkpt lat="43.00023" lon="2.56277">
        <ele>351</ele>
        <time>2022-05-02T18:47:57Z</time>
      </trkpt>
      <trkpt lat="43.00032" lon="2.56299">
        <ele>353</ele>
        <time>2022-05-02T18:48:00Z</time>
      </trkpt>
      <trkpt lat="43.00047" lon="2.56339">
        <ele>355</ele>
        <time>2022-05-02T18:48:06Z</time>
      </trkpt>
      <trkpt lat="43.00054" lon="2.56358">
        <ele>355</ele>
        <time>2022-05-02T18:48:09Z</time>
      </trkpt>
      <trkpt lat="43.00059" lon="2.56379">
        <ele>354</ele>
        <time>2022-05-02T18:48:12Z</time>
      </trkpt>
      <trkpt lat="43.00077" lon="2.56459">
        <ele>353</ele>
        <time>2022-05-02T18:48:23Z</time>
      </trkpt>
      <trkpt lat="43.00086" lon="2.56509">
        <ele>356</ele>
        <time>2022-05-02T18:48:30Z</time>
      </trkpt>
      <trkpt lat="43.00095" lon="2.5652">
        <ele>360</ele>
        <time>2022-05-02T18:48:32Z</time>
      </trkpt>
      <trkpt lat="43.00119" lon="2.56539">
        <ele>367</ele>
        <time>2022-05-02T18:48:37Z</time>
      </trkpt>
      <trkpt lat="43.00195" lon="2.5658">
        <ele>380</ele>
        <time>2022-05-02T18:48:51Z</time>
      </trkpt>
      <trkpt lat="43.00203" lon="2.56587">
        <ele>382</ele>
        <time>2022-05-02T18:48:53Z</time>
      </trkpt>
      <trkpt lat="43.0021" lon="2.56597">
        <ele>384</ele>
        <time>2022-05-02T18:48:55Z</time>
      </trkpt>
      <trkpt lat="43.00215" lon="2.56618">
        <ele>386</ele>
        <time>2022-05-02T18:48:58Z</time>
      </trkpt>
      <trkpt lat="43.00219" lon="2.56654">
        <ele>386</ele>
        <time>2022-05-02T18:49:02Z</time>
      </trkpt>
      <trkpt lat="43.00219" lon="2.56691">
        <ele>388</ele>
        <time>2022-05-02T18:49:07Z</time>
      </trkpt>
      <trkpt lat="43.00217" lon="2.56715">
        <ele>390</ele>
        <time>2022-05-02T18:49:10Z</time>
      </trkpt>
      <trkpt lat="43.00214" lon="2.5673">
        <ele>391</ele>
        <time>2022-05-02T18:49:12Z</time>
      </trkpt>
      <trkpt lat="43.00208" lon="2.56739">
        <ele>391</ele>
        <time>2022-05-02T18:49:14Z</time>
      </trkpt>
      <trkpt lat="43.00195" lon="2.56754">
        <ele>392</ele>
        <time>2022-05-02T18:49:17Z</time>
      </trkpt>
      <trkpt lat="43.00191" lon="2.56766">
        <ele>392</ele>
        <time>2022-05-02T18:49:19Z</time>
      </trkpt>
      <trkpt lat="43.00189" lon="2.5678">
        <ele>393</ele>
        <time>2022-05-02T18:49:20Z</time>
      </trkpt>
      <trkpt lat="43.00192" lon="2.56878">
        <ele>397</ele>
        <time>2022-05-02T18:49:33Z</time>
      </trkpt>
      <trkpt lat="43.0019" lon="2.56907">
        <ele>398</ele>
        <time>2022-05-02T18:49:37Z</time>
      </trkpt>
      <trkpt lat="43.00184" lon="2.56928">
        <ele>398</ele>
        <time>2022-05-02T18:49:40Z</time>
      </trkpt>
      <trkpt lat="43.00153" lon="2.57011">
        <ele>401</ele>
        <time>2022-05-02T18:49:52Z</time>
      </trkpt>
      <trkpt lat="43.0014" lon="2.57049">
        <ele>406</ele>
        <time>2022-05-02T18:49:57Z</time>
      </trkpt>
      <trkpt lat="43.00123" lon="2.57093">
        <ele>411</ele>
        <time>2022-05-02T18:50:04Z</time>
      </trkpt>
      <trkpt lat="43.0011" lon="2.57159">
        <ele>413</ele>
        <time>2022-05-02T18:50:13Z</time>
      </trkpt>
      <trkpt lat="43.00102" lon="2.57175">
        <ele>413</ele>
        <time>2022-05-02T18:50:15Z</time>
      </trkpt>
      <trkpt lat="43.00086" lon="2.57201">
        <ele>412</ele>
        <time>2022-05-02T18:50:20Z</time>
      </trkpt>
      <trkpt lat="43.00072" lon="2.57241">
        <ele>414</ele>
        <time>2022-05-02T18:50:26Z</time>
      </trkpt>
      <trkpt lat="43.00058" lon="2.57305">
        <ele>418</ele>
        <time>2022-05-02T18:50:34Z</time>
      </trkpt>
      <trkpt lat="43.00045" lon="2.5733">
        <ele>419</ele>
        <time>2022-05-02T18:50:38Z</time>
      </trkpt>
      <trkpt lat="43.00021" lon="2.5737">
        <ele>423</ele>
        <time>2022-05-02T18:50:45Z</time>
      </trkpt>
      <trkpt lat="43.00008" lon="2.57425">
        <ele>424</ele>
        <time>2022-05-02T18:50:53Z</time>
      </trkpt>
      <trkpt lat="42.99997" lon="2.57464">
        <ele>427</ele>
        <time>2022-05-02T18:50:58Z</time>
      </trkpt>
      <trkpt lat="42.99987" lon="2.57484">
        <ele>431</ele>
        <time>2022-05-02T18:51:01Z</time>
      </trkpt>
      <trkpt lat="42.9998" lon="2.57517">
        <ele>435</ele>
        <time>2022-05-02T18:51:06Z</time>
      </trkpt>
      <trkpt lat="42.99971" lon="2.57547">
        <ele>437</ele>
        <time>2022-05-02T18:51:10Z</time>
      </trkpt>
      <trkpt lat="42.99924" lon="2.57638">
        <ele>445</ele>
        <time>2022-05-02T18:51:24Z</time>
      </trkpt>
      <trkpt lat="42.9991" lon="2.57657">
        <ele>447</ele>
        <time>2022-05-02T18:51:28Z</time>
      </trkpt>
      <trkpt lat="42.99903" lon="2.57671">
        <ele>449</ele>
        <time>2022-05-02T18:51:30Z</time>
      </trkpt>
      <trkpt lat="42.99902" lon="2.57678">
        <ele>450</ele>
        <time>2022-05-02T18:51:31Z</time>
      </trkpt>
      <trkpt lat="42.99903" lon="2.57684">
        <ele>450</ele>
        <time>2022-05-02T18:51:32Z</time>
      </trkpt>
      <trkpt lat="42.99906" lon="2.5769">
        <ele>450</ele>
        <time>2022-05-02T18:51:33Z</time>
      </trkpt>
      <trkpt lat="42.99916" lon="2.5769">
        <ele>448</ele>
        <time>2022-05-02T18:51:34Z</time>
      </trkpt>
      <trkpt lat="42.99926" lon="2.57686">
        <ele>448</ele>
        <time>2022-05-02T18:51:36Z</time>
      </trkpt>
      <trkpt lat="42.99936" lon="2.5768">
        <ele>447</ele>
        <time>2022-05-02T18:51:38Z</time>
      </trkpt>
      <trkpt lat="42.99971" lon="2.57645">
        <ele>442</ele>
        <time>2022-05-02T18:51:46Z</time>
      </trkpt>
      <trkpt lat="42.99987" lon="2.57635">
        <ele>440</ele>
        <time>2022-05-02T18:51:49Z</time>
      </trkpt>
      <trkpt lat="42.99994" lon="2.57633">
        <ele>439</ele>
        <time>2022-05-02T18:51:50Z</time>
      </trkpt>
      <trkpt lat="43.00001" lon="2.57634">
        <ele>439</ele>
        <time>2022-05-02T18:51:52Z</time>
      </trkpt>
      <trkpt lat="43.0001" lon="2.57639">
        <ele>442</ele>
        <time>2022-05-02T18:51:53Z</time>
      </trkpt>
      <trkpt lat="43.00021" lon="2.57649">
        <ele>446</ele>
        <time>2022-05-02T18:51:56Z</time>
      </trkpt>
      <trkpt lat="43.00033" lon="2.57665">
        <ele>451</ele>
        <time>2022-05-02T18:51:59Z</time>
      </trkpt>
      <trkpt lat="43.0004" lon="2.57667">
        <ele>453</ele>
        <time>2022-05-02T18:52:00Z</time>
      </trkpt>
      <trkpt lat="43.00047" lon="2.57665">
        <ele>455</ele>
        <time>2022-05-02T18:52:01Z</time>
      </trkpt>
      <trkpt lat="43.00052" lon="2.57661">
        <ele>455</ele>
        <time>2022-05-02T18:52:02Z</time>
      </trkpt>
      <trkpt lat="43.00056" lon="2.57653">
        <ele>456</ele>
        <time>2022-05-02T18:52:04Z</time>
      </trkpt>
      <trkpt lat="43.0006" lon="2.5763">
        <ele>455</ele>
        <time>2022-05-02T18:52:07Z</time>
      </trkpt>
      <trkpt lat="43.00059" lon="2.57613">
        <ele>453</ele>
        <time>2022-05-02T18:52:09Z</time>
      </trkpt>
      <trkpt lat="43.00052" lon="2.57572">
        <ele>448</ele>
        <time>2022-05-02T18:52:14Z</time>
      </trkpt>
      <trkpt lat="43.00052" lon="2.57558">
        <ele>447</ele>
        <time>2022-05-02T18:52:16Z</time>
      </trkpt>
      <trkpt lat="43.00059" lon="2.57535">
        <ele>447</ele>
        <time>2022-05-02T18:52:19Z</time>
      </trkpt>
      <trkpt lat="43.00072" lon="2.57507">
        <ele>449</ele>
        <time>2022-05-02T18:52:24Z</time>
      </trkpt>
      <trkpt lat="43.0011" lon="2.57441">
        <ele>449</ele>
        <time>2022-05-02T18:52:35Z</time>
      </trkpt>
      <trkpt lat="43.00166" lon="2.57371">
        <ele>456</ele>
        <time>2022-05-02T18:52:48Z</time>
      </trkpt>
      <trkpt lat="43.00172" lon="2.57366">
        <ele>455</ele>
        <time>2022-05-02T18:52:49Z</time>
      </trkpt>
      <trkpt lat="43.00186" lon="2.57366">
        <ele>456</ele>
        <time>2022-05-02T18:52:52Z</time>
      </trkpt>
      <trkpt lat="43.00224" lon="2.57393">
        <ele>465</ele>
        <time>2022-05-02T18:52:59Z</time>
      </trkpt>
      <trkpt lat="43.00239" lon="2.57401">
        <ele>468</ele>
        <time>2022-05-02T18:53:02Z</time>
      </trkpt>
      <trkpt lat="43.00285" lon="2.57421">
        <ele>471</ele>
        <time>2022-05-02T18:53:11Z</time>
      </trkpt>
      <trkpt lat="43.00292" lon="2.57428">
        <ele>471</ele>
        <time>2022-05-02T18:53:12Z</time>
      </trkpt>
      <trkpt lat="43.00296" lon="2.57437">
        <ele>471</ele>
        <time>2022-05-02T18:53:14Z</time>
      </trkpt>
      <trkpt lat="43.00295" lon="2.57448">
        <ele>470</ele>
        <time>2022-05-02T18:53:15Z</time>
      </trkpt>
      <trkpt lat="43.00291" lon="2.57459">
        <ele>471</ele>
        <time>2022-05-02T18:53:17Z</time>
      </trkpt>
      <trkpt lat="43.00267" lon="2.57497">
        <ele>475</ele>
        <time>2022-05-02T18:53:23Z</time>
      </trkpt>
      <trkpt lat="43.00255" lon="2.57507">
        <ele>475</ele>
        <time>2022-05-02T18:53:26Z</time>
      </trkpt>
      <trkpt lat="43.00243" lon="2.5751">
        <ele>476</ele>
        <time>2022-05-02T18:53:28Z</time>
      </trkpt>
      <trkpt lat="43.00217" lon="2.57511">
        <ele>477</ele>
        <time>2022-05-02T18:53:33Z</time>
      </trkpt>
      <trkpt lat="43.00203" lon="2.57513">
        <ele>477</ele>
        <time>2022-05-02T18:53:35Z</time>
      </trkpt>
      <trkpt lat="43.00194" lon="2.57519">
        <ele>477</ele>
        <time>2022-05-02T18:53:37Z</time>
      </trkpt>
      <trkpt lat="43.00183" lon="2.57533">
        <ele>477</ele>
        <time>2022-05-02T18:53:40Z</time>
      </trkpt>
      <trkpt lat="43.00174" lon="2.57546">
        <ele>477</ele>
        <time>2022-05-02T18:53:42Z</time>
      </trkpt>
      <trkpt lat="43.00169" lon="2.57562">
        <ele>478</ele>
        <time>2022-05-02T18:53:44Z</time>
      </trkpt>
      <trkpt lat="43.00157" lon="2.57617">
        <ele>475</ele>
        <time>2022-05-02T18:53:52Z</time>
      </trkpt>
      <trkpt lat="43.00135" lon="2.57683">
        <ele>470</ele>
        <time>2022-05-02T18:54:01Z</time>
      </trkpt>
      <trkpt lat="43.00122" lon="2.57729">
        <ele>470</ele>
        <time>2022-05-02T18:54:08Z</time>
      </trkpt>
      <trkpt lat="43.00111" lon="2.57762">
        <ele>473</ele>
        <time>2022-05-02T18:54:12Z</time>
      </trkpt>
      <trkpt lat="43.00096" lon="2.57794">
        <ele>481</ele>
        <time>2022-05-02T18:54:17Z</time>
      </trkpt>
      <trkpt lat="43.00045" lon="2.57867">
        <ele>498</ele>
        <time>2022-05-02T18:54:30Z</time>
      </trkpt>
      <trkpt lat="43.00039" lon="2.57872">
        <ele>499</ele>
        <time>2022-05-02T18:54:32Z</time>
      </trkpt>
      <trkpt lat="43.00027" lon="2.57873">
        <ele>498</ele>
        <time>2022-05-02T18:54:34Z</time>
      </trkpt>
      <trkpt lat="43.00021" lon="2.57868">
        <ele>497</ele>
        <time>2022-05-02T18:54:35Z</time>
      </trkpt>
      <trkpt lat="42.99999" lon="2.57823">
        <ele>486</ele>
        <time>2022-05-02T18:54:42Z</time>
      </trkpt>
      <trkpt lat="42.99991" lon="2.57817">
        <ele>484</ele>
        <time>2022-05-02T18:54:44Z</time>
      </trkpt>
      <trkpt lat="42.99982" lon="2.57815">
        <ele>483</ele>
        <time>2022-05-02T18:54:45Z</time>
      </trkpt>
      <trkpt lat="42.99974" lon="2.57815">
        <ele>482</ele>
        <time>2022-05-02T18:54:47Z</time>
      </trkpt>
      <trkpt lat="42.99963" lon="2.5782">
        <ele>483</ele>
        <time>2022-05-02T18:54:49Z</time>
      </trkpt>
      <trkpt lat="42.9995" lon="2.5783">
        <ele>485</ele>
        <time>2022-05-02T18:54:51Z</time>
      </trkpt>
      <trkpt lat="42.99938" lon="2.57845">
        <ele>488</ele>
        <time>2022-05-02T18:54:54Z</time>
      </trkpt>
      <trkpt lat="42.99914" lon="2.57887">
        <ele>495</ele>
        <time>2022-05-02T18:55:01Z</time>
      </trkpt>
      <trkpt lat="42.99906" lon="2.57897">
        <ele>495</ele>
        <time>2022-05-02T18:55:03Z</time>
      </trkpt>
      <trkpt lat="42.99881" lon="2.57919">
        <ele>493</ele>
        <time>2022-05-02T18:55:09Z</time>
      </trkpt>
      <trkpt lat="42.99875" lon="2.57927">
        <ele>493</ele>
        <time>2022-05-02T18:55:10Z</time>
      </trkpt>
      <trkpt lat="42.99869" lon="2.57937">
        <ele>494</ele>
        <time>2022-05-02T18:55:12Z</time>
      </trkpt>
      <trkpt lat="42.99856" lon="2.57978">
        <ele>500</ele>
        <time>2022-05-02T18:55:18Z</time>
      </trkpt>
      <trkpt lat="42.99851" lon="2.57986">
        <ele>501</ele>
        <time>2022-05-02T18:55:19Z</time>
      </trkpt>
      <trkpt lat="42.99844" lon="2.57993">
        <ele>501</ele>
        <time>2022-05-02T18:55:20Z</time>
      </trkpt>
      <trkpt lat="42.99822" lon="2.58006">
        <ele>499</ele>
        <time>2022-05-02T18:55:25Z</time>
      </trkpt>
      <trkpt lat="42.99811" lon="2.58016">
        <ele>498</ele>
        <time>2022-05-02T18:55:27Z</time>
      </trkpt>
      <trkpt lat="42.99789" lon="2.58043">
        <ele>499</ele>
        <time>2022-05-02T18:55:32Z</time>
      </trkpt>
      <trkpt lat="42.99781" lon="2.58059">
        <ele>500</ele>
        <time>2022-05-02T18:55:35Z</time>
      </trkpt>
      <trkpt lat="42.99778" lon="2.5807">
        <ele>501</ele>
        <time>2022-05-02T18:55:36Z</time>
      </trkpt>
      <trkpt lat="42.99776" lon="2.58126">
        <ele>512</ele>
        <time>2022-05-02T18:55:44Z</time>
      </trkpt>
      <trkpt lat="42.99769" lon="2.58139">
        <ele>513</ele>
        <time>2022-05-02T18:55:46Z</time>
      </trkpt>
      <trkpt lat="42.99763" lon="2.58142">
        <ele>513</ele>
        <time>2022-05-02T18:55:47Z</time>
      </trkpt>
      <trkpt lat="42.99753" lon="2.58143">
        <ele>512</ele>
        <time>2022-05-02T18:55:49Z</time>
      </trkpt>
      <trkpt lat="42.99734" lon="2.58136">
        <ele>510</ele>
        <time>2022-05-02T18:55:52Z</time>
      </trkpt>
      <trkpt lat="42.99714" lon="2.58123">
        <ele>506</ele>
        <time>2022-05-02T18:55:56Z</time>
      </trkpt>
      <trkpt lat="42.99693" lon="2.58114">
        <ele>504</ele>
        <time>2022-05-02T18:56:00Z</time>
      </trkpt>
      <trkpt lat="42.99684" lon="2.58113">
        <ele>504</ele>
        <time>2022-05-02T18:56:02Z</time>
      </trkpt>
      <trkpt lat="42.99673" lon="2.58116">
        <ele>504</ele>
        <time>2022-05-02T18:56:04Z</time>
      </trkpt>
      <trkpt lat="42.99663" lon="2.58122">
        <ele>506</ele>
        <time>2022-05-02T18:56:06Z</time>
      </trkpt>
      <trkpt lat="42.9965" lon="2.58135">
        <ele>508</ele>
        <time>2022-05-02T18:56:08Z</time>
      </trkpt>
      <trkpt lat="42.99626" lon="2.58163">
        <ele>513</ele>
        <time>2022-05-02T18:56:14Z</time>
      </trkpt>
      <trkpt lat="42.99611" lon="2.58176">
        <ele>513</ele>
        <time>2022-05-02T18:56:17Z</time>
      </trkpt>
      <trkpt lat="42.99609" lon="2.58178">
        <ele>513</ele>
        <time>2022-05-02T18:56:18Z</time>
      </trkpt>
      <trkpt lat="42.9959" lon="2.58189">
        <ele>512</ele>
        <time>2022-05-02T18:56:21Z</time>
      </trkpt>
      <trkpt lat="42.99572" lon="2.58197">
        <ele>512</ele>
        <time>2022-05-02T18:56:25Z</time>
      </trkpt>
      <trkpt lat="42.99554" lon="2.58199">
        <ele>513</ele>
        <time>2022-05-02T18:56:28Z</time>
      </trkpt>
      <trkpt lat="42.99539" lon="2.58196">
        <ele>513</ele>
        <time>2022-05-02T18:56:31Z</time>
      </trkpt>
      <trkpt lat="42.99524" lon="2.58188">
        <ele>514</ele>
        <time>2022-05-02T18:56:33Z</time>
      </trkpt>
      <trkpt lat="42.99511" lon="2.58174">
        <ele>515</ele>
        <time>2022-05-02T18:56:36Z</time>
      </trkpt>
      <trkpt lat="42.99487" lon="2.58136">
        <ele>516</ele>
        <time>2022-05-02T18:56:43Z</time>
      </trkpt>
      <trkpt lat="42.9945" lon="2.58079">
        <ele>514</ele>
        <time>2022-05-02T18:56:53Z</time>
      </trkpt>
      <trkpt lat="42.99439" lon="2.58063">
        <ele>515</ele>
        <time>2022-05-02T18:56:56Z</time>
      </trkpt>
      <trkpt lat="42.99425" lon="2.58046">
        <ele>516</ele>
        <time>2022-05-02T18:56:59Z</time>
      </trkpt>
      <trkpt lat="42.99389" lon="2.58011">
        <ele>515</ele>
        <time>2022-05-02T18:57:07Z</time>
      </trkpt>
      <trkpt lat="42.99325" lon="2.57975">
        <ele>511</ele>
        <time>2022-05-02T18:57:19Z</time>
      </trkpt>
      <trkpt lat="42.99298" lon="2.57956">
        <ele>510</ele>
        <time>2022-05-02T18:57:25Z</time>
      </trkpt>
      <trkpt lat="42.99272" lon="2.57946">
        <ele>507</ele>
        <time>2022-05-02T18:57:29Z</time>
      </trkpt>
      <trkpt lat="42.99258" lon="2.57939">
        <ele>505</ele>
        <time>2022-05-02T18:57:32Z</time>
      </trkpt>
      <trkpt lat="42.99248" lon="2.5793">
        <ele>505</ele>
        <time>2022-05-02T18:57:34Z</time>
      </trkpt>
      <trkpt lat="42.99224" lon="2.57893">
        <ele>504</ele>
        <time>2022-05-02T18:57:41Z</time>
      </trkpt>
      <trkpt lat="42.99217" lon="2.57872">
        <ele>506</ele>
        <time>2022-05-02T18:57:44Z</time>
      </trkpt>
      <trkpt lat="42.99211" lon="2.57848">
        <ele>508</ele>
        <time>2022-05-02T18:57:47Z</time>
      </trkpt>
      <trkpt lat="42.99206" lon="2.57839">
        <ele>509</ele>
        <time>2022-05-02T18:57:48Z</time>
      </trkpt>
      <trkpt lat="42.99201" lon="2.57836">
        <ele>508</ele>
        <time>2022-05-02T18:57:49Z</time>
      </trkpt>
      <trkpt lat="42.99194" lon="2.57837">
        <ele>507</ele>
        <time>2022-05-02T18:57:51Z</time>
      </trkpt>
      <trkpt lat="42.99177" lon="2.57852">
        <ele>501</ele>
        <time>2022-05-02T18:57:54Z</time>
      </trkpt>
      <trkpt lat="42.99164" lon="2.5786">
        <ele>497</ele>
        <time>2022-05-02T18:57:57Z</time>
      </trkpt>
      <trkpt lat="42.99155" lon="2.57861">
        <ele>495</ele>
        <time>2022-05-02T18:57:58Z</time>
      </trkpt>
      <trkpt lat="42.99148" lon="2.5786">
        <ele>494</ele>
        <time>2022-05-02T18:58:00Z</time>
      </trkpt>
      <trkpt lat="42.99137" lon="2.57856">
        <ele>492</ele>
        <time>2022-05-02T18:58:02Z</time>
      </trkpt>
      <trkpt lat="42.99125" lon="2.57847">
        <ele>491</ele>
        <time>2022-05-02T18:58:04Z</time>
      </trkpt>
      <trkpt lat="42.9909" lon="2.57811">
        <ele>490</ele>
        <time>2022-05-02T18:58:12Z</time>
      </trkpt>
      <trkpt lat="42.99081" lon="2.57796">
        <ele>491</ele>
        <time>2022-05-02T18:58:14Z</time>
      </trkpt>
      <trkpt lat="42.99075" lon="2.57782">
        <ele>491</ele>
        <time>2022-05-02T18:58:17Z</time>
      </trkpt>
      <trkpt lat="42.99043" lon="2.57689">
        <ele>494</ele>
        <time>2022-05-02T18:58:30Z</time>
      </trkpt>
      <trkpt lat="42.99036" lon="2.57677">
        <ele>494</ele>
        <time>2022-05-02T18:58:32Z</time>
      </trkpt>
      <trkpt lat="42.99028" lon="2.57668">
        <ele>493</ele>
        <time>2022-05-02T18:58:34Z</time>
      </trkpt>
      <trkpt lat="42.99017" lon="2.57661">
        <ele>492</ele>
        <time>2022-05-02T18:58:36Z</time>
      </trkpt>
      <trkpt lat="42.98999" lon="2.57656">
        <ele>488</ele>
        <time>2022-05-02T18:58:39Z</time>
      </trkpt>
      <trkpt lat="42.98962" lon="2.5765">
        <ele>481</ele>
        <time>2022-05-02T18:58:46Z</time>
      </trkpt>
      <trkpt lat="42.98944" lon="2.57642">
        <ele>479</ele>
        <time>2022-05-02T18:58:49Z</time>
      </trkpt>
      <trkpt lat="42.9893" lon="2.57631">
        <ele>479</ele>
        <time>2022-05-02T18:58:52Z</time>
      </trkpt>
      <trkpt lat="42.9891" lon="2.57611">
        <ele>481</ele>
        <time>2022-05-02T18:58:56Z</time>
      </trkpt>
      <trkpt lat="42.98899" lon="2.57602">
        <ele>481</ele>
        <time>2022-05-02T18:58:59Z</time>
      </trkpt>
      <trkpt lat="42.98821" lon="2.57582">
        <ele>470</ele>
        <time>2022-05-02T18:59:13Z</time>
      </trkpt>
      <trkpt lat="42.98801" lon="2.57574">
        <ele>469</ele>
        <time>2022-05-02T18:59:17Z</time>
      </trkpt>
      <trkpt lat="42.98778" lon="2.57562">
        <ele>467</ele>
        <time>2022-05-02T18:59:21Z</time>
      </trkpt>
      <trkpt lat="42.98753" lon="2.57535">
        <ele>466</ele>
        <time>2022-05-02T18:59:27Z</time>
      </trkpt>
      <trkpt lat="42.98714" lon="2.57478">
        <ele>466</ele>
        <time>2022-05-02T18:59:37Z</time>
      </trkpt>
      <trkpt lat="42.98679" lon="2.57439">
        <ele>463</ele>
        <time>2022-05-02T18:59:45Z</time>
      </trkpt>
      <trkpt lat="42.98659" lon="2.57424">
        <ele>461</ele>
        <time>2022-05-02T18:59:49Z</time>
      </trkpt>
      <trkpt lat="42.98645" lon="2.57419">
        <ele>460</ele>
        <time>2022-05-02T18:59:51Z</time>
      </trkpt>
      <trkpt lat="42.98633" lon="2.5742">
        <ele>460</ele>
        <time>2022-05-02T18:59:54Z</time>
      </trkpt>
      <trkpt lat="42.98622" lon="2.57428">
        <ele>458</ele>
        <time>2022-05-02T18:59:56Z</time>
      </trkpt>
      <trkpt lat="42.98613" lon="2.57444">
        <ele>456</ele>
        <time>2022-05-02T18:59:58Z</time>
      </trkpt>
      <trkpt lat="42.98608" lon="2.57459">
        <ele>455</ele>
        <time>2022-05-02T19:00:01Z</time>
      </trkpt>
      <trkpt lat="42.98602" lon="2.57474">
        <ele>454</ele>
        <time>2022-05-02T19:00:03Z</time>
      </trkpt>
      <trkpt lat="42.98579" lon="2.57503">
        <ele>451</ele>
        <time>2022-05-02T19:00:08Z</time>
      </trkpt>
      <trkpt lat="42.98562" lon="2.5752">
        <ele>448</ele>
        <time>2022-05-02T19:00:12Z</time>
      </trkpt>
      <trkpt lat="42.98555" lon="2.57522">
        <ele>447</ele>
        <time>2022-05-02T19:00:13Z</time>
      </trkpt>
      <trkpt lat="42.98542" lon="2.57521">
        <ele>447</ele>
        <time>2022-05-02T19:00:16Z</time>
      </trkpt>
      <trkpt lat="42.98513" lon="2.57512">
        <ele>447</ele>
        <time>2022-05-02T19:00:21Z</time>
      </trkpt>
      <trkpt lat="42.98504" lon="2.57507">
        <ele>447</ele>
        <time>2022-05-02T19:00:23Z</time>
      </trkpt>
      <trkpt lat="42.98492" lon="2.57494">
        <ele>447</ele>
        <time>2022-05-02T19:00:25Z</time>
      </trkpt>
      <trkpt lat="42.98459" lon="2.5744">
        <ele>447</ele>
        <time>2022-05-02T19:00:35Z</time>
      </trkpt>
      <trkpt lat="42.98447" lon="2.57426">
        <ele>448</ele>
        <time>2022-05-02T19:00:37Z</time>
      </trkpt>
      <trkpt lat="42.98429" lon="2.57411">
        <ele>447</ele>
        <time>2022-05-02T19:00:41Z</time>
      </trkpt>
      <trkpt lat="42.98397" lon="2.57395">
        <ele>446</ele>
        <time>2022-05-02T19:00:47Z</time>
      </trkpt>
      <trkpt lat="42.98379" lon="2.57393">
        <ele>446</ele>
        <time>2022-05-02T19:00:50Z</time>
      </trkpt>
      <trkpt lat="42.98361" lon="2.57395">
        <ele>446</ele>
        <time>2022-05-02T19:00:54Z</time>
      </trkpt>
      <trkpt lat="42.98349" lon="2.574">
        <ele>445</ele>
        <time>2022-05-02T19:00:56Z</time>
      </trkpt>
      <trkpt lat="42.98336" lon="2.57411">
        <ele>444</ele>
        <time>2022-05-02T19:00:59Z</time>
      </trkpt>
      <trkpt lat="42.9831" lon="2.57446">
        <ele>440</ele>
        <time>2022-05-02T19:01:05Z</time>
      </trkpt>
      <trkpt lat="42.98303" lon="2.57453">
        <ele>440</ele>
        <time>2022-05-02T19:01:07Z</time>
      </trkpt>
      <trkpt lat="42.983" lon="2.57455">
        <ele>440</ele>
        <time>2022-05-02T19:01:07Z</time>
      </trkpt>
      <trkpt lat="42.98276" lon="2.57469">
        <ele>441</ele>
        <time>2022-05-02T19:01:12Z</time>
      </trkpt>
      <trkpt lat="42.98268" lon="2.57479">
        <ele>441</ele>
        <time>2022-05-02T19:01:14Z</time>
      </trkpt>
      <trkpt lat="42.98243" lon="2.57526">
        <ele>439</ele>
        <time>2022-05-02T19:01:21Z</time>
      </trkpt>
      <trkpt lat="42.98204" lon="2.57593">
        <ele>432</ele>
        <time>2022-05-02T19:01:33Z</time>
      </trkpt>
      <trkpt lat="42.98192" lon="2.57601">
        <ele>431</ele>
        <time>2022-05-02T19:01:35Z</time>
      </trkpt>
      <trkpt lat="42.98151" lon="2.57607">
        <ele>430</ele>
        <time>2022-05-02T19:01:42Z</time>
      </trkpt>
      <trkpt lat="42.98134" lon="2.57613">
        <ele>428</ele>
        <time>2022-05-02T19:01:45Z</time>
      </trkpt>
      <trkpt lat="42.9813" lon="2.57615">
        <ele>427</ele>
        <time>2022-05-02T19:01:46Z</time>
      </trkpt>
      <trkpt lat="42.98124" lon="2.57618">
        <ele>426</ele>
        <time>2022-05-02T19:01:47Z</time>
      </trkpt>
      <trkpt lat="42.98108" lon="2.57629">
        <ele>425</ele>
        <time>2022-05-02T19:01:50Z</time>
      </trkpt>
      <trkpt lat="42.98084" lon="2.57652">
        <ele>424</ele>
        <time>2022-05-02T19:01:56Z</time>
      </trkpt>
      <trkpt lat="42.98078" lon="2.57657">
        <ele>425</ele>
        <time>2022-05-02T19:01:57Z</time>
      </trkpt>
      <trkpt lat="42.98059" lon="2.57668">
        <ele>425</ele>
        <time>2022-05-02T19:02:01Z</time>
      </trkpt>
      <trkpt lat="42.97977" lon="2.57704">
        <ele>438</ele>
        <time>2022-05-02T19:02:16Z</time>
      </trkpt>
      <trkpt lat="42.97963" lon="2.57706">
        <ele>440</ele>
        <time>2022-05-02T19:02:18Z</time>
      </trkpt>
      <trkpt lat="42.97941" lon="2.57704">
        <ele>443</ele>
        <time>2022-05-02T19:02:22Z</time>
      </trkpt>
      <trkpt lat="42.9793" lon="2.577">
        <ele>444</ele>
        <time>2022-05-02T19:02:24Z</time>
      </trkpt>
      <trkpt lat="42.97872" lon="2.57666">
        <ele>442</ele>
        <time>2022-05-02T19:02:36Z</time>
      </trkpt>
      <trkpt lat="42.97853" lon="2.57658">
        <ele>443</ele>
        <time>2022-05-02T19:02:39Z</time>
      </trkpt>
      <trkpt lat="42.9782" lon="2.57649">
        <ele>446</ele>
        <time>2022-05-02T19:02:45Z</time>
      </trkpt>
      <trkpt lat="42.97806" lon="2.57651">
        <ele>449</ele>
        <time>2022-05-02T19:02:48Z</time>
      </trkpt>
      <trkpt lat="42.97755" lon="2.57674">
        <ele>460</ele>
        <time>2022-05-02T19:02:57Z</time>
      </trkpt>
      <trkpt lat="42.97748" lon="2.57673">
        <ele>461</ele>
        <time>2022-05-02T19:02:58Z</time>
      </trkpt>
      <trkpt lat="42.97742" lon="2.57668">
        <ele>462</ele>
        <time>2022-05-02T19:03:00Z</time>
      </trkpt>
      <trkpt lat="42.97739" lon="2.57661">
        <ele>462</ele>
        <time>2022-05-02T19:03:01Z</time>
      </trkpt>
      <trkpt lat="42.97738" lon="2.57651">
        <ele>462</ele>
        <time>2022-05-02T19:03:02Z</time>
      </trkpt>
      <trkpt lat="42.97742" lon="2.57639">
        <ele>461</ele>
        <time>2022-05-02T19:03:04Z</time>
      </trkpt>
      <trkpt lat="42.97768" lon="2.57582">
        <ele>452</ele>
        <time>2022-05-02T19:03:12Z</time>
      </trkpt>
      <trkpt lat="42.97772" lon="2.57567">
        <ele>449</ele>
        <time>2022-05-02T19:03:15Z</time>
      </trkpt>
      <trkpt lat="42.97772" lon="2.57558">
        <ele>449</ele>
        <time>2022-05-02T19:03:16Z</time>
      </trkpt>
      <trkpt lat="42.97766" lon="2.57533">
        <ele>449</ele>
        <time>2022-05-02T19:03:19Z</time>
      </trkpt>
      <trkpt lat="42.97746" lon="2.57484">
        <ele>451</ele>
        <time>2022-05-02T19:03:26Z</time>
      </trkpt>
      <trkpt lat="42.97735" lon="2.57467">
        <ele>448</ele>
        <time>2022-05-02T19:03:29Z</time>
      </trkpt>
      <trkpt lat="42.97718" lon="2.57453">
        <ele>446</ele>
        <time>2022-05-02T19:03:33Z</time>
      </trkpt>
      <trkpt lat="42.97706" lon="2.57453">
        <ele>447</ele>
        <time>2022-05-02T19:03:35Z</time>
      </trkpt>
      <trkpt lat="42.97695" lon="2.57458">
        <ele>448</ele>
        <time>2022-05-02T19:03:37Z</time>
      </trkpt>
      <trkpt lat="42.97668" lon="2.57484">
        <ele>457</ele>
        <time>2022-05-02T19:03:43Z</time>
      </trkpt>
      <trkpt lat="42.97662" lon="2.57488">
        <ele>458</ele>
        <time>2022-05-02T19:03:44Z</time>
      </trkpt>
      <trkpt lat="42.97654" lon="2.57491">
        <ele>458</ele>
        <time>2022-05-02T19:03:46Z</time>
      </trkpt>
      <trkpt lat="42.97622" lon="2.57486">
        <ele>452</ele>
        <time>2022-05-02T19:03:51Z</time>
      </trkpt>
      <trkpt lat="42.9761" lon="2.57489">
        <ele>451</ele>
        <time>2022-05-02T19:03:54Z</time>
      </trkpt>
      <trkpt lat="42.97602" lon="2.57497">
        <ele>452</ele>
        <time>2022-05-02T19:03:55Z</time>
      </trkpt>
      <trkpt lat="42.97597" lon="2.57514">
        <ele>456</ele>
        <time>2022-05-02T19:03:58Z</time>
      </trkpt>
      <trkpt lat="42.97592" lon="2.57522">
        <ele>458</ele>
        <time>2022-05-02T19:03:59Z</time>
      </trkpt>
      <trkpt lat="42.97575" lon="2.57537">
        <ele>460</ele>
        <time>2022-05-02T19:04:03Z</time>
      </trkpt>
      <trkpt lat="42.97561" lon="2.57559">
        <ele>464</ele>
        <time>2022-05-02T19:04:07Z</time>
      </trkpt>
      <trkpt lat="42.97542" lon="2.5757">
        <ele>463</ele>
        <time>2022-05-02T19:04:10Z</time>
      </trkpt>
      <trkpt lat="42.97528" lon="2.5758">
        <ele>463</ele>
        <time>2022-05-02T19:04:13Z</time>
      </trkpt>
      <trkpt lat="42.97493" lon="2.57612">
        <ele>468</ele>
        <time>2022-05-02T19:04:20Z</time>
      </trkpt>
      <trkpt lat="42.97486" lon="2.57614">
        <ele>468</ele>
        <time>2022-05-02T19:04:22Z</time>
      </trkpt>
      <trkpt lat="42.97456" lon="2.57615">
        <ele>464</ele>
        <time>2022-05-02T19:04:27Z</time>
      </trkpt>
      <trkpt lat="42.97441" lon="2.5762">
        <ele>464</ele>
        <time>2022-05-02T19:04:30Z</time>
      </trkpt>
      <trkpt lat="42.97418" lon="2.57646">
        <ele>470</ele>
        <time>2022-05-02T19:04:35Z</time>
      </trkpt>
      <trkpt lat="42.97392" lon="2.5767">
        <ele>469</ele>
        <time>2022-05-02T19:04:41Z</time>
      </trkpt>
      <trkpt lat="42.9739" lon="2.57676">
        <ele>469</ele>
        <time>2022-05-02T19:04:42Z</time>
      </trkpt>
      <trkpt lat="42.97385" lon="2.57718">
        <ele>476</ele>
        <time>2022-05-02T19:04:47Z</time>
      </trkpt>
      <trkpt lat="42.97346" lon="2.57873">
        <ele>481</ele>
        <time>2022-05-02T19:05:08Z</time>
      </trkpt>
      <trkpt lat="42.97338" lon="2.57914">
        <ele>481</ele>
        <time>2022-05-02T19:05:14Z</time>
      </trkpt>
      <trkpt lat="42.97338" lon="2.57925">
        <ele>481</ele>
        <time>2022-05-02T19:05:15Z</time>
      </trkpt>
      <trkpt lat="42.97342" lon="2.57947">
        <ele>482</ele>
        <time>2022-05-02T19:05:18Z</time>
      </trkpt>
      <trkpt lat="42.97376" lon="2.58006">
        <ele>489</ele>
        <time>2022-05-02T19:05:28Z</time>
      </trkpt>
      <trkpt lat="42.97379" lon="2.58015">
        <ele>490</ele>
        <time>2022-05-02T19:05:29Z</time>
      </trkpt>
      <trkpt lat="42.9738" lon="2.58027">
        <ele>490</ele>
        <time>2022-05-02T19:05:31Z</time>
      </trkpt>
      <trkpt lat="42.97377" lon="2.58047">
        <ele>489</ele>
        <time>2022-05-02T19:05:34Z</time>
      </trkpt>
      <trkpt lat="42.97362" lon="2.58076">
        <ele>488</ele>
        <time>2022-05-02T19:05:38Z</time>
      </trkpt>
      <trkpt lat="42.97367" lon="2.58082">
        <ele>488</ele>
        <time>2022-05-02T19:05:39Z</time>
      </trkpt>
      <trkpt lat="42.9737" lon="2.58086">
        <ele>489</ele>
        <time>2022-05-02T19:05:40Z</time>
      </trkpt>
      <trkpt lat="42.97367" lon="2.58082">
        <ele>488</ele>
        <time>2022-05-02T19:05:41Z</time>
      </trkpt>
      <trkpt lat="42.97362" lon="2.58076">
        <ele>488</ele>
        <time>2022-05-02T19:05:42Z</time>
      </trkpt>
      <trkpt lat="42.97351" lon="2.58066">
        <ele>486</ele>
        <time>2022-05-02T19:05:44Z</time>
      </trkpt>
      <trkpt lat="42.97338" lon="2.58059">
        <ele>484</ele>
        <time>2022-05-02T19:05:47Z</time>
      </trkpt>
      <trkpt lat="42.9732" lon="2.58055">
        <ele>482</ele>
        <time>2022-05-02T19:05:50Z</time>
      </trkpt>
      <trkpt lat="42.97294" lon="2.58057">
        <ele>481</ele>
        <time>2022-05-02T19:05:55Z</time>
      </trkpt>
      <trkpt lat="42.97153" lon="2.58108">
        <ele>479</ele>
        <time>2022-05-02T19:06:21Z</time>
      </trkpt>
      <trkpt lat="42.97129" lon="2.58112">
        <ele>481</ele>
        <time>2022-05-02T19:06:25Z</time>
      </trkpt>
      <trkpt lat="42.97112" lon="2.58108">
        <ele>480</ele>
        <time>2022-05-02T19:06:28Z</time>
      </trkpt>
      <trkpt lat="42.97075" lon="2.58087">
        <ele>475</ele>
        <time>2022-05-02T19:06:35Z</time>
      </trkpt>
      <trkpt lat="42.97061" lon="2.58084">
        <ele>474</ele>
        <time>2022-05-02T19:06:38Z</time>
      </trkpt>
      <trkpt lat="42.97043" lon="2.58086">
        <ele>474</ele>
        <time>2022-05-02T19:06:41Z</time>
      </trkpt>
      <trkpt lat="42.97001" lon="2.5811">
        <ele>478</ele>
        <time>2022-05-02T19:06:49Z</time>
      </trkpt>
      <trkpt lat="42.96993" lon="2.58113">
        <ele>478</ele>
        <time>2022-05-02T19:06:51Z</time>
      </trkpt>
      <trkpt lat="42.96978" lon="2.58114">
        <ele>477</ele>
        <time>2022-05-02T19:06:53Z</time>
      </trkpt>
      <trkpt lat="42.96969" lon="2.58112">
        <ele>476</ele>
        <time>2022-05-02T19:06:55Z</time>
      </trkpt>
      <trkpt lat="42.96935" lon="2.58083">
        <ele>468</ele>
        <time>2022-05-02T19:07:02Z</time>
      </trkpt>
      <trkpt lat="42.9692" lon="2.58076">
        <ele>465</ele>
        <time>2022-05-02T19:07:05Z</time>
      </trkpt>
      <trkpt lat="42.96912" lon="2.58076">
        <ele>464</ele>
        <time>2022-05-02T19:07:06Z</time>
      </trkpt>
      <trkpt lat="42.96894" lon="2.58084">
        <ele>464</ele>
        <time>2022-05-02T19:07:10Z</time>
      </trkpt>
      <trkpt lat="42.96876" lon="2.58102">
        <ele>465</ele>
        <time>2022-05-02T19:07:14Z</time>
      </trkpt>
      <trkpt lat="42.9686" lon="2.58128">
        <ele>467</ele>
        <time>2022-05-02T19:07:18Z</time>
      </trkpt>
      <trkpt lat="42.96847" lon="2.58141">
        <ele>467</ele>
        <time>2022-05-02T19:07:21Z</time>
      </trkpt>
      <trkpt lat="42.96839" lon="2.58146">
        <ele>467</ele>
        <time>2022-05-02T19:07:22Z</time>
      </trkpt>
      <trkpt lat="42.96824" lon="2.58151">
        <ele>467</ele>
        <time>2022-05-02T19:07:25Z</time>
      </trkpt>
      <trkpt lat="42.96812" lon="2.5815">
        <ele>467</ele>
        <time>2022-05-02T19:07:27Z</time>
      </trkpt>
      <trkpt lat="42.96802" lon="2.58148">
        <ele>468</ele>
        <time>2022-05-02T19:07:29Z</time>
      </trkpt>
      <trkpt lat="42.96731" lon="2.58102">
        <ele>461</ele>
        <time>2022-05-02T19:07:43Z</time>
      </trkpt>
      <trkpt lat="42.96669" lon="2.58068">
        <ele>460</ele>
        <time>2022-05-02T19:07:55Z</time>
      </trkpt>
      <trkpt lat="42.9666" lon="2.58058">
        <ele>459</ele>
        <time>2022-05-02T19:07:57Z</time>
      </trkpt>
      <trkpt lat="42.96627" lon="2.57989">
        <ele>453</ele>
        <time>2022-05-02T19:08:08Z</time>
      </trkpt>
      <trkpt lat="42.96607" lon="2.57957">
        <ele>450</ele>
        <time>2022-05-02T19:08:13Z</time>
      </trkpt>
      <trkpt lat="42.96595" lon="2.57946">
        <ele>450</ele>
        <time>2022-05-02T19:08:16Z</time>
      </trkpt>
      <trkpt lat="42.96577" lon="2.57934">
        <ele>450</ele>
        <time>2022-05-02T19:08:19Z</time>
      </trkpt>
      <trkpt lat="42.96553" lon="2.57926">
        <ele>450</ele>
        <time>2022-05-02T19:08:24Z</time>
      </trkpt>
      <trkpt lat="42.96539" lon="2.57922">
        <ele>450</ele>
        <time>2022-05-02T19:08:26Z</time>
      </trkpt>
      <trkpt lat="42.96517" lon="2.57917">
        <ele>451</ele>
        <time>2022-05-02T19:08:30Z</time>
      </trkpt>
      <trkpt lat="42.96503" lon="2.57909">
        <ele>452</ele>
        <time>2022-05-02T19:08:33Z</time>
      </trkpt>
      <trkpt lat="42.96493" lon="2.57897">
        <ele>453</ele>
        <time>2022-05-02T19:08:35Z</time>
      </trkpt>
      <trkpt lat="42.96486" lon="2.57881">
        <ele>453</ele>
        <time>2022-05-02T19:08:38Z</time>
      </trkpt>
      <trkpt lat="42.96475" lon="2.57821">
        <ele>450</ele>
        <time>2022-05-02T19:08:46Z</time>
      </trkpt>
      <trkpt lat="42.96467" lon="2.57798">
        <ele>449</ele>
        <time>2022-05-02T19:08:49Z</time>
      </trkpt>
      <trkpt lat="42.96443" lon="2.57744">
        <ele>445</ele>
        <time>2022-05-02T19:08:57Z</time>
      </trkpt>
      <trkpt lat="42.96429" lon="2.57726">
        <ele>445</ele>
        <time>2022-05-02T19:09:01Z</time>
      </trkpt>
      <trkpt lat="42.96413" lon="2.57711">
        <ele>445</ele>
        <time>2022-05-02T19:09:04Z</time>
      </trkpt>
      <trkpt lat="42.96405" lon="2.57699">
        <ele>443</ele>
        <time>2022-05-02T19:09:06Z</time>
      </trkpt>
      <trkpt lat="42.96399" lon="2.57686">
        <ele>442</ele>
        <time>2022-05-02T19:09:08Z</time>
      </trkpt>
      <trkpt lat="42.96395" lon="2.57667">
        <ele>440</ele>
        <time>2022-05-02T19:09:11Z</time>
      </trkpt>
      <trkpt lat="42.96376" lon="2.57586">
        <ele>444</ele>
        <time>2022-05-02T19:09:22Z</time>
      </trkpt>
      <trkpt lat="42.96353" lon="2.5751">
        <ele>443</ele>
        <time>2022-05-02T19:09:33Z</time>
      </trkpt>
      <trkpt lat="42.96346" lon="2.5749">
        <ele>443</ele>
        <time>2022-05-02T19:09:36Z</time>
      </trkpt>
      <trkpt lat="42.96311" lon="2.5742">
        <ele>444</ele>
        <time>2022-05-02T19:09:47Z</time>
      </trkpt>
      <trkpt lat="42.96302" lon="2.57392">
        <ele>445</ele>
        <time>2022-05-02T19:09:51Z</time>
      </trkpt>
      <trkpt lat="42.96277" lon="2.57316">
        <ele>448</ele>
        <time>2022-05-02T19:10:02Z</time>
      </trkpt>
      <trkpt lat="42.96271" lon="2.57297">
        <ele>449</ele>
        <time>2022-05-02T19:10:04Z</time>
      </trkpt>
      <trkpt lat="42.96204" lon="2.57087">
        <ele>445</ele>
        <time>2022-05-02T19:10:34Z</time>
      </trkpt>
      <trkpt lat="42.96197" lon="2.57072">
        <ele>446</ele>
        <time>2022-05-02T19:10:36Z</time>
      </trkpt>
      <trkpt lat="42.9619" lon="2.57063">
        <ele>446</ele>
        <time>2022-05-02T19:10:38Z</time>
      </trkpt>
      <trkpt lat="42.96181" lon="2.57058">
        <ele>446</ele>
        <time>2022-05-02T19:10:40Z</time>
      </trkpt>
      <trkpt lat="42.96171" lon="2.57054">
        <ele>447</ele>
        <time>2022-05-02T19:10:42Z</time>
      </trkpt>
      <trkpt lat="42.96162" lon="2.57054">
        <ele>447</ele>
        <time>2022-05-02T19:10:43Z</time>
      </trkpt>
      <trkpt lat="42.96135" lon="2.57062">
        <ele>448</ele>
        <time>2022-05-02T19:10:48Z</time>
      </trkpt>
      <trkpt lat="42.96106" lon="2.57081">
        <ele>450</ele>
        <time>2022-05-02T19:10:54Z</time>
      </trkpt>
      <trkpt lat="42.96062" lon="2.57134">
        <ele>456</ele>
        <time>2022-05-02T19:11:04Z</time>
      </trkpt>
      <trkpt lat="42.96046" lon="2.57145">
        <ele>456</ele>
        <time>2022-05-02T19:11:08Z</time>
      </trkpt>
      <trkpt lat="42.9603" lon="2.57147">
        <ele>455</ele>
        <time>2022-05-02T19:11:10Z</time>
      </trkpt>
      <trkpt lat="42.96019" lon="2.57145">
        <ele>454</ele>
        <time>2022-05-02T19:11:12Z</time>
      </trkpt>
      <trkpt lat="42.95999" lon="2.57136">
        <ele>451</ele>
        <time>2022-05-02T19:11:16Z</time>
      </trkpt>
      <trkpt lat="42.95991" lon="2.5713">
        <ele>452</ele>
        <time>2022-05-02T19:11:18Z</time>
      </trkpt>
      <trkpt lat="42.95975" lon="2.57114">
        <ele>453</ele>
        <time>2022-05-02T19:11:21Z</time>
      </trkpt>
      <trkpt lat="42.95961" lon="2.57094">
        <ele>453</ele>
        <time>2022-05-02T19:11:25Z</time>
      </trkpt>
      <trkpt lat="42.95886" lon="2.56976">
        <ele>455</ele>
        <time>2022-05-02T19:11:45Z</time>
      </trkpt>
      <trkpt lat="42.95858" lon="2.56948">
        <ele>455</ele>
        <time>2022-05-02T19:11:51Z</time>
      </trkpt>
      <trkpt lat="42.95832" lon="2.56915">
        <ele>450</ele>
        <time>2022-05-02T19:11:58Z</time>
      </trkpt>
      <trkpt lat="42.95824" lon="2.56899">
        <ele>451</ele>
        <time>2022-05-02T19:12:00Z</time>
      </trkpt>
      <trkpt lat="42.95798" lon="2.56829">
        <ele>454</ele>
        <time>2022-05-02T19:12:10Z</time>
      </trkpt>
      <trkpt lat="42.95783" lon="2.56754">
        <ele>456</ele>
        <time>2022-05-02T19:12:21Z</time>
      </trkpt>
      <trkpt lat="42.95776" lon="2.56739">
        <ele>457</ele>
        <time>2022-05-02T19:12:23Z</time>
      </trkpt>
      <trkpt lat="42.95768" lon="2.56726">
        <ele>458</ele>
        <time>2022-05-02T19:12:25Z</time>
      </trkpt>
      <trkpt lat="42.95757" lon="2.56718">
        <ele>458</ele>
        <time>2022-05-02T19:12:27Z</time>
      </trkpt>
      <trkpt lat="42.95729" lon="2.56708">
        <ele>463</ele>
        <time>2022-05-02T19:12:32Z</time>
      </trkpt>
      <trkpt lat="42.95728" lon="2.56708">
        <ele>463</ele>
        <time>2022-05-02T19:12:33Z</time>
      </trkpt>
      <trkpt lat="42.95663" lon="2.56674">
        <ele>469</ele>
        <time>2022-05-02T19:12:45Z</time>
      </trkpt>
      <trkpt lat="42.95642" lon="2.56661">
        <ele>476</ele>
        <time>2022-05-02T19:12:49Z</time>
      </trkpt>
      <trkpt lat="42.95635" lon="2.5665">
        <ele>477</ele>
        <time>2022-05-02T19:12:51Z</time>
      </trkpt>
      <trkpt lat="42.9563" lon="2.56638">
        <ele>477</ele>
        <time>2022-05-02T19:12:53Z</time>
      </trkpt>
      <trkpt lat="42.95626" lon="2.56619">
        <ele>475</ele>
        <time>2022-05-02T19:12:55Z</time>
      </trkpt>
      <trkpt lat="42.95622" lon="2.56587">
        <ele>470</ele>
        <time>2022-05-02T19:13:00Z</time>
      </trkpt>
      <trkpt lat="42.95617" lon="2.56571">
        <ele>469</ele>
        <time>2022-05-02T19:13:02Z</time>
      </trkpt>
      <trkpt lat="42.95598" lon="2.56543">
        <ele>466</ele>
        <time>2022-05-02T19:13:07Z</time>
      </trkpt>
      <trkpt lat="42.95568" lon="2.56477">
        <ele>461</ele>
        <time>2022-05-02T19:13:17Z</time>
      </trkpt>
      <trkpt lat="42.95564" lon="2.56457">
        <ele>461</ele>
        <time>2022-05-02T19:13:20Z</time>
      </trkpt>
      <trkpt lat="42.95563" lon="2.56446">
        <ele>461</ele>
        <time>2022-05-02T19:13:21Z</time>
      </trkpt>
      <trkpt lat="42.95566" lon="2.5643">
        <ele>460</ele>
        <time>2022-05-02T19:13:23Z</time>
      </trkpt>
      <trkpt lat="42.95567" lon="2.56425">
        <ele>460</ele>
        <time>2022-05-02T19:13:24Z</time>
      </trkpt>
      <trkpt lat="42.95572" lon="2.5641">
        <ele>460</ele>
        <time>2022-05-02T19:13:26Z</time>
      </trkpt>
      <trkpt lat="42.95582" lon="2.5639">
        <ele>460</ele>
        <time>2022-05-02T19:13:29Z</time>
      </trkpt>
      <trkpt lat="42.95594" lon="2.56371">
        <ele>460</ele>
        <time>2022-05-02T19:13:33Z</time>
      </trkpt>
      <trkpt lat="42.95609" lon="2.56355">
        <ele>460</ele>
        <time>2022-05-02T19:13:36Z</time>
      </trkpt>
      <trkpt lat="42.95641" lon="2.56337">
        <ele>461</ele>
        <time>2022-05-02T19:13:42Z</time>
      </trkpt>
      <trkpt lat="42.95795" lon="2.5628">
        <ele>465</ele>
        <time>2022-05-02T19:14:10Z</time>
      </trkpt>
      <trkpt lat="42.9583" lon="2.56271">
        <ele>466</ele>
        <time>2022-05-02T19:14:17Z</time>
      </trkpt>
      <trkpt lat="42.9585" lon="2.56267">
        <ele>467</ele>
        <time>2022-05-02T19:14:20Z</time>
      </trkpt>
      <trkpt lat="42.95959" lon="2.56259">
        <ele>469</ele>
        <time>2022-05-02T19:14:40Z</time>
      </trkpt>
      <trkpt lat="42.95991" lon="2.56251">
        <ele>470</ele>
        <time>2022-05-02T19:14:46Z</time>
      </trkpt>
      <trkpt lat="42.96014" lon="2.56241">
        <ele>471</ele>
        <time>2022-05-02T19:14:50Z</time>
      </trkpt>
      <trkpt lat="42.96063" lon="2.56203">
        <ele>476</ele>
        <time>2022-05-02T19:15:00Z</time>
      </trkpt>
      <trkpt lat="42.96083" lon="2.56182">
        <ele>479</ele>
        <time>2022-05-02T19:15:04Z</time>
      </trkpt>
      <trkpt lat="42.96098" lon="2.56155">
        <ele>482</ele>
        <time>2022-05-02T19:15:09Z</time>
      </trkpt>
      <trkpt lat="42.96101" lon="2.56137">
        <ele>483</ele>
        <time>2022-05-02T19:15:11Z</time>
      </trkpt>
      <trkpt lat="42.96102" lon="2.56121">
        <ele>484</ele>
        <time>2022-05-02T19:15:13Z</time>
      </trkpt>
      <trkpt lat="42.96099" lon="2.56084">
        <ele>485</ele>
        <time>2022-05-02T19:15:18Z</time>
      </trkpt>
      <trkpt lat="42.96099" lon="2.56057">
        <ele>486</ele>
        <time>2022-05-02T19:15:22Z</time>
      </trkpt>
      <trkpt lat="42.96106" lon="2.55989">
        <ele>493</ele>
        <time>2022-05-02T19:15:31Z</time>
      </trkpt>
      <trkpt lat="42.96099" lon="2.55925">
        <ele>496</ele>
        <time>2022-05-02T19:15:39Z</time>
      </trkpt>
      <trkpt lat="42.96101" lon="2.55903">
        <ele>497</ele>
        <time>2022-05-02T19:15:42Z</time>
      </trkpt>
      <trkpt lat="42.96104" lon="2.55891">
        <ele>499</ele>
        <time>2022-05-02T19:15:44Z</time>
      </trkpt>
      <trkpt lat="42.96112" lon="2.55871">
        <ele>501</ele>
        <time>2022-05-02T19:15:47Z</time>
      </trkpt>
      <trkpt lat="42.96134" lon="2.55836">
        <ele>506</ele>
        <time>2022-05-02T19:15:53Z</time>
      </trkpt>
      <trkpt lat="42.96152" lon="2.558">
        <ele>511</ele>
        <time>2022-05-02T19:15:58Z</time>
      </trkpt>
      <trkpt lat="42.96228" lon="2.55577">
        <ele>523</ele>
        <time>2022-05-02T19:16:30Z</time>
      </trkpt>
      <trkpt lat="42.96234" lon="2.55557">
        <ele>523</ele>
        <time>2022-05-02T19:16:33Z</time>
      </trkpt>
      <trkpt lat="42.96236" lon="2.55532">
        <ele>523</ele>
        <time>2022-05-02T19:16:36Z</time>
      </trkpt>
      <trkpt lat="42.96235" lon="2.55514">
        <ele>523</ele>
        <time>2022-05-02T19:16:39Z</time>
      </trkpt>
      <trkpt lat="42.96225" lon="2.5545">
        <ele>527</ele>
        <time>2022-05-02T19:16:47Z</time>
      </trkpt>
      <trkpt lat="42.96224" lon="2.5541">
        <ele>529</ele>
        <time>2022-05-02T19:16:52Z</time>
      </trkpt>
      <trkpt lat="42.96228" lon="2.55373">
        <ele>529</ele>
        <time>2022-05-02T19:16:57Z</time>
      </trkpt>
      <trkpt lat="42.96241" lon="2.55307">
        <ele>529</ele>
        <time>2022-05-02T19:17:06Z</time>
      </trkpt>
      <trkpt lat="42.96242" lon="2.55292">
        <ele>529</ele>
        <time>2022-05-02T19:17:08Z</time>
      </trkpt>
      <trkpt lat="42.9624" lon="2.55258">
        <ele>530</ele>
        <time>2022-05-02T19:17:13Z</time>
      </trkpt>
      <trkpt lat="42.96235" lon="2.55233">
        <ele>532</ele>
        <time>2022-05-02T19:17:16Z</time>
      </trkpt>
      <trkpt lat="42.96215" lon="2.55157">
        <ele>538</ele>
        <time>2022-05-02T19:17:27Z</time>
      </trkpt>
      <trkpt lat="42.962" lon="2.5509">
        <ele>541</ele>
        <time>2022-05-02T19:17:36Z</time>
      </trkpt>
      <trkpt lat="42.96194" lon="2.55072">
        <ele>541</ele>
        <time>2022-05-02T19:17:38Z</time>
      </trkpt>
      <trkpt lat="42.96183" lon="2.55054">
        <ele>540</ele>
        <time>2022-05-02T19:17:41Z</time>
      </trkpt>
      <trkpt lat="42.96172" lon="2.55019">
        <ele>539</ele>
        <time>2022-05-02T19:17:46Z</time>
      </trkpt>
      <trkpt lat="42.96168" lon="2.54973">
        <ele>539</ele>
        <time>2022-05-02T19:17:52Z</time>
      </trkpt>
      <trkpt lat="42.96158" lon="2.54908">
        <ele>540</ele>
        <time>2022-05-02T19:18:01Z</time>
      </trkpt>
      <trkpt lat="42.9615" lon="2.54868">
        <ele>542</ele>
        <time>2022-05-02T19:18:06Z</time>
      </trkpt>
      <trkpt lat="42.96134" lon="2.5481">
        <ele>544</ele>
        <time>2022-05-02T19:18:14Z</time>
      </trkpt>
      <trkpt lat="42.96127" lon="2.54793">
        <ele>545</ele>
        <time>2022-05-02T19:18:17Z</time>
      </trkpt>
      <trkpt lat="42.96096" lon="2.54739">
        <ele>546</ele>
        <time>2022-05-02T19:18:26Z</time>
      </trkpt>
      <trkpt lat="42.96086" lon="2.54716">
        <ele>547</ele>
        <time>2022-05-02T19:18:29Z</time>
      </trkpt>
      <trkpt lat="42.96077" lon="2.54688">
        <ele>548</ele>
        <time>2022-05-02T19:18:33Z</time>
      </trkpt>
      <trkpt lat="42.96061" lon="2.54624">
        <ele>552</ele>
        <time>2022-05-02T19:18:42Z</time>
      </trkpt>
      <trkpt lat="42.96048" lon="2.54562">
        <ele>557</ele>
        <time>2022-05-02T19:18:51Z</time>
      </trkpt>
      <trkpt lat="42.96045" lon="2.54528">
        <ele>559</ele>
        <time>2022-05-02T19:18:55Z</time>
      </trkpt>
      <trkpt lat="42.96043" lon="2.54474">
        <ele>562</ele>
        <time>2022-05-02T19:19:02Z</time>
      </trkpt>
      <trkpt lat="42.96048" lon="2.54196">
        <ele>568</ele>
        <time>2022-05-02T19:19:38Z</time>
      </trkpt>
      <trkpt lat="42.96047" lon="2.54126">
        <ele>565</ele>
        <time>2022-05-02T19:19:47Z</time>
      </trkpt>
      <trkpt lat="42.96038" lon="2.53833">
        <ele>557</ele>
        <time>2022-05-02T19:20:26Z</time>
      </trkpt>
      <trkpt lat="42.9603" lon="2.53658">
        <ele>554</ele>
        <time>2022-05-02T19:20:48Z</time>
      </trkpt>
      <trkpt lat="42.96009" lon="2.53038">
        <ele>537</ele>
        <time>2022-05-02T19:22:09Z</time>
      </trkpt>
      <trkpt lat="42.96001" lon="2.52898">
        <ele>542</ele>
        <time>2022-05-02T19:22:27Z</time>
      </trkpt>
      <trkpt lat="42.95995" lon="2.52865">
        <ele>542</ele>
        <time>2022-05-02T19:22:32Z</time>
      </trkpt>
      <trkpt lat="42.95978" lon="2.52824">
        <ele>542</ele>
        <time>2022-05-02T19:22:38Z</time>
      </trkpt>
      <trkpt lat="42.95935" lon="2.52745">
        <ele>538</ele>
        <time>2022-05-02T19:22:51Z</time>
      </trkpt>
      <trkpt lat="42.95925" lon="2.52732">
        <ele>537</ele>
        <time>2022-05-02T19:22:53Z</time>
      </trkpt>
      <trkpt lat="42.95914" lon="2.5272">
        <ele>536</ele>
        <time>2022-05-02T19:22:56Z</time>
      </trkpt>
      <trkpt lat="42.95891" lon="2.52705">
        <ele>533</ele>
        <time>2022-05-02T19:23:00Z</time>
      </trkpt>
      <trkpt lat="42.95859" lon="2.52698">
        <ele>528</ele>
        <time>2022-05-02T19:23:06Z</time>
      </trkpt>
      <trkpt lat="42.95851" lon="2.52694">
        <ele>527</ele>
        <time>2022-05-02T19:23:08Z</time>
      </trkpt>
      <trkpt lat="42.95837" lon="2.52674">
        <ele>526</ele>
        <time>2022-05-02T19:23:11Z</time>
      </trkpt>
      <trkpt lat="42.95832" lon="2.52658">
        <ele>526</ele>
        <time>2022-05-02T19:23:14Z</time>
      </trkpt>
      <trkpt lat="42.95832" lon="2.52613">
        <ele>527</ele>
        <time>2022-05-02T19:23:19Z</time>
      </trkpt>
      <trkpt lat="42.9583" lon="2.526">
        <ele>527</ele>
        <time>2022-05-02T19:23:21Z</time>
      </trkpt>
      <trkpt lat="42.95825" lon="2.52588">
        <ele>526</ele>
        <time>2022-05-02T19:23:23Z</time>
      </trkpt>
      <trkpt lat="42.95792" lon="2.52557">
        <ele>522</ele>
        <time>2022-05-02T19:23:30Z</time>
      </trkpt>
      <trkpt lat="42.95783" lon="2.52544">
        <ele>521</ele>
        <time>2022-05-02T19:23:32Z</time>
      </trkpt>
      <trkpt lat="42.95763" lon="2.52495">
        <ele>519</ele>
        <time>2022-05-02T19:23:40Z</time>
      </trkpt>
      <trkpt lat="42.95735" lon="2.52448">
        <ele>515</ele>
        <time>2022-05-02T19:23:48Z</time>
      </trkpt>
      <trkpt lat="42.95729" lon="2.52431">
        <ele>514</ele>
        <time>2022-05-02T19:23:50Z</time>
      </trkpt>
      <trkpt lat="42.95727" lon="2.52405">
        <ele>514</ele>
        <time>2022-05-02T19:23:53Z</time>
      </trkpt>
      <trkpt lat="42.95729" lon="2.52374">
        <ele>513</ele>
        <time>2022-05-02T19:23:57Z</time>
      </trkpt>
      <trkpt lat="42.95728" lon="2.5235">
        <ele>512</ele>
        <time>2022-05-02T19:24:01Z</time>
      </trkpt>
      <trkpt lat="42.95712" lon="2.5224">
        <ele>509</ele>
        <time>2022-05-02T19:24:15Z</time>
      </trkpt>
      <trkpt lat="42.95707" lon="2.52223">
        <ele>508</ele>
        <time>2022-05-02T19:24:18Z</time>
      </trkpt>
      <trkpt lat="42.95683" lon="2.5219">
        <ele>504</ele>
        <time>2022-05-02T19:24:24Z</time>
      </trkpt>
      <trkpt lat="42.95676" lon="2.52173">
        <ele>503</ele>
        <time>2022-05-02T19:24:26Z</time>
      </trkpt>
      <trkpt lat="42.95653" lon="2.52042">
        <ele>499</ele>
        <time>2022-05-02T19:24:44Z</time>
      </trkpt>
      <trkpt lat="42.95648" lon="2.52005">
        <ele>499</ele>
        <time>2022-05-02T19:24:49Z</time>
      </trkpt>
      <trkpt lat="42.95648" lon="2.51993">
        <ele>498</ele>
        <time>2022-05-02T19:24:50Z</time>
      </trkpt>
      <trkpt lat="42.95649" lon="2.51964">
        <ele>498</ele>
        <time>2022-05-02T19:24:54Z</time>
      </trkpt>
      <trkpt lat="42.95651" lon="2.51926">
        <ele>497</ele>
        <time>2022-05-02T19:24:59Z</time>
      </trkpt>
      <trkpt lat="42.95649" lon="2.51908">
        <ele>497</ele>
        <time>2022-05-02T19:25:01Z</time>
      </trkpt>
      <trkpt lat="42.95641" lon="2.51892">
        <ele>496</ele>
        <time>2022-05-02T19:25:04Z</time>
      </trkpt>
      <trkpt lat="42.95629" lon="2.51876">
        <ele>495</ele>
        <time>2022-05-02T19:25:07Z</time>
      </trkpt>
      <trkpt lat="42.95618" lon="2.51847">
        <ele>493</ele>
        <time>2022-05-02T19:25:11Z</time>
      </trkpt>
      <trkpt lat="42.95615" lon="2.51826">
        <ele>491</ele>
        <time>2022-05-02T19:25:14Z</time>
      </trkpt>
      <trkpt lat="42.95618" lon="2.51794">
        <ele>489</ele>
        <time>2022-05-02T19:25:18Z</time>
      </trkpt>
      <trkpt lat="42.9564" lon="2.5174">
        <ele>491</ele>
        <time>2022-05-02T19:25:26Z</time>
      </trkpt>
      <trkpt lat="42.95642" lon="2.51712">
        <ele>491</ele>
        <time>2022-05-02T19:25:30Z</time>
      </trkpt>
      <trkpt lat="42.9564" lon="2.51675">
        <ele>489</ele>
        <time>2022-05-02T19:25:35Z</time>
      </trkpt>
      <trkpt lat="42.95643" lon="2.51648">
        <ele>491</ele>
        <time>2022-05-02T19:25:38Z</time>
      </trkpt>
      <trkpt lat="42.95641" lon="2.51634">
        <ele>491</ele>
        <time>2022-05-02T19:25:40Z</time>
      </trkpt>
      <trkpt lat="42.95635" lon="2.51619">
        <ele>490</ele>
        <time>2022-05-02T19:25:42Z</time>
      </trkpt>
      <trkpt lat="42.95593" lon="2.5158">
        <ele>477</ele>
        <time>2022-05-02T19:25:51Z</time>
      </trkpt>
      <trkpt lat="42.95586" lon="2.5157">
        <ele>475</ele>
        <time>2022-05-02T19:25:53Z</time>
      </trkpt>
      <trkpt lat="42.95582" lon="2.51559">
        <ele>473</ele>
        <time>2022-05-02T19:25:55Z</time>
      </trkpt>
      <trkpt lat="42.95581" lon="2.51546">
        <ele>473</ele>
        <time>2022-05-02T19:25:56Z</time>
      </trkpt>
      <trkpt lat="42.95594" lon="2.51467">
        <ele>475</ele>
        <time>2022-05-02T19:26:07Z</time>
      </trkpt>
      <trkpt lat="42.95602" lon="2.51406">
        <ele>476</ele>
        <time>2022-05-02T19:26:15Z</time>
      </trkpt>
      <trkpt lat="42.95624" lon="2.51338">
        <ele>479</ele>
        <time>2022-05-02T19:26:25Z</time>
      </trkpt>
      <trkpt lat="42.95628" lon="2.51313">
        <ele>478</ele>
        <time>2022-05-02T19:26:28Z</time>
      </trkpt>
      <trkpt lat="42.95635" lon="2.51244">
        <ele>473</ele>
        <time>2022-05-02T19:26:37Z</time>
      </trkpt>
      <trkpt lat="42.95634" lon="2.51222">
        <ele>469</ele>
        <time>2022-05-02T19:26:40Z</time>
      </trkpt>
      <trkpt lat="42.95626" lon="2.51191">
        <ele>464</ele>
        <time>2022-05-02T19:26:44Z</time>
      </trkpt>
      <trkpt lat="42.95616" lon="2.51148">
        <ele>460</ele>
        <time>2022-05-02T19:26:50Z</time>
      </trkpt>
      <trkpt lat="42.95616" lon="2.51133">
        <ele>459</ele>
        <time>2022-05-02T19:26:52Z</time>
      </trkpt>
      <trkpt lat="42.95617" lon="2.51122">
        <ele>458</ele>
        <time>2022-05-02T19:26:53Z</time>
      </trkpt>
      <trkpt lat="42.95622" lon="2.51111">
        <ele>457</ele>
        <time>2022-05-02T19:26:55Z</time>
      </trkpt>
      <trkpt lat="42.95628" lon="2.51106">
        <ele>457</ele>
        <time>2022-05-02T19:26:56Z</time>
      </trkpt>
      <trkpt lat="42.95637" lon="2.51103">
        <ele>456</ele>
        <time>2022-05-02T19:26:58Z</time>
      </trkpt>
      <trkpt lat="42.95645" lon="2.51104">
        <ele>456</ele>
        <time>2022-05-02T19:27:00Z</time>
      </trkpt>
      <trkpt lat="42.95653" lon="2.51108">
        <ele>457</ele>
        <time>2022-05-02T19:27:01Z</time>
      </trkpt>
      <trkpt lat="42.95674" lon="2.51129">
        <ele>461</ele>
        <time>2022-05-02T19:27:06Z</time>
      </trkpt>
      <trkpt lat="42.95689" lon="2.51131">
        <ele>465</ele>
        <time>2022-05-02T19:27:08Z</time>
      </trkpt>
      <trkpt lat="42.95699" lon="2.51127">
        <ele>467</ele>
        <time>2022-05-02T19:27:10Z</time>
      </trkpt>
      <trkpt lat="42.95707" lon="2.51118">
        <ele>468</ele>
        <time>2022-05-02T19:27:12Z</time>
      </trkpt>
      <trkpt lat="42.95712" lon="2.51109">
        <ele>468</ele>
        <time>2022-05-02T19:27:14Z</time>
      </trkpt>
      <trkpt lat="42.95714" lon="2.51099">
        <ele>467</ele>
        <time>2022-05-02T19:27:15Z</time>
      </trkpt>
      <trkpt lat="42.95714" lon="2.51088">
        <ele>466</ele>
        <time>2022-05-02T19:27:16Z</time>
      </trkpt>
      <trkpt lat="42.95712" lon="2.51075">
        <ele>465</ele>
        <time>2022-05-02T19:27:18Z</time>
      </trkpt>
      <trkpt lat="42.95703" lon="2.51055">
        <ele>465</ele>
        <time>2022-05-02T19:27:21Z</time>
      </trkpt>
      <trkpt lat="42.95641" lon="2.50952">
        <ele>456</ele>
        <time>2022-05-02T19:27:38Z</time>
      </trkpt>
      <trkpt lat="42.95632" lon="2.50925">
        <ele>454</ele>
        <time>2022-05-02T19:27:42Z</time>
      </trkpt>
      <trkpt lat="42.95634" lon="2.50908">
        <ele>454</ele>
        <time>2022-05-02T19:27:45Z</time>
      </trkpt>
      <trkpt lat="42.95662" lon="2.50857">
        <ele>456</ele>
        <time>2022-05-02T19:27:53Z</time>
      </trkpt>
      <trkpt lat="42.9567" lon="2.50839">
        <ele>457</ele>
        <time>2022-05-02T19:27:56Z</time>
      </trkpt>
      <trkpt lat="42.95673" lon="2.50822">
        <ele>457</ele>
        <time>2022-05-02T19:27:58Z</time>
      </trkpt>
      <trkpt lat="42.95679" lon="2.50738">
        <ele>452</ele>
        <time>2022-05-02T19:28:09Z</time>
      </trkpt>
      <trkpt lat="42.95684" lon="2.50713">
        <ele>451</ele>
        <time>2022-05-02T19:28:12Z</time>
      </trkpt>
      <trkpt lat="42.95719" lon="2.50628">
        <ele>451</ele>
        <time>2022-05-02T19:28:25Z</time>
      </trkpt>
      <trkpt lat="42.95724" lon="2.50607">
        <ele>448</ele>
        <time>2022-05-02T19:28:28Z</time>
      </trkpt>
      <trkpt lat="42.95728" lon="2.50583">
        <ele>444</ele>
        <time>2022-05-02T19:28:31Z</time>
      </trkpt>
      <trkpt lat="42.95735" lon="2.50557">
        <ele>441</ele>
        <time>2022-05-02T19:28:35Z</time>
      </trkpt>
      <trkpt lat="42.9574" lon="2.50546">
        <ele>439</ele>
        <time>2022-05-02T19:28:36Z</time>
      </trkpt>
      <trkpt lat="42.95765" lon="2.50513">
        <ele>434</ele>
        <time>2022-05-02T19:28:42Z</time>
      </trkpt>
      <trkpt lat="42.95779" lon="2.50479">
        <ele>433</ele>
        <time>2022-05-02T19:28:48Z</time>
      </trkpt>
      <trkpt lat="42.95784" lon="2.50451">
        <ele>433</ele>
        <time>2022-05-02T19:28:51Z</time>
      </trkpt>
      <trkpt lat="42.95786" lon="2.50421">
        <ele>432</ele>
        <time>2022-05-02T19:28:55Z</time>
      </trkpt>
      <trkpt lat="42.95775" lon="2.50378">
        <ele>432</ele>
        <time>2022-05-02T19:29:01Z</time>
      </trkpt>
      <trkpt lat="42.95775" lon="2.50365">
        <ele>433</ele>
        <time>2022-05-02T19:29:03Z</time>
      </trkpt>
      <trkpt lat="42.95778" lon="2.50351">
        <ele>433</ele>
        <time>2022-05-02T19:29:05Z</time>
      </trkpt>
      <trkpt lat="42.95788" lon="2.50329">
        <ele>432</ele>
        <time>2022-05-02T19:29:08Z</time>
      </trkpt>
      <trkpt lat="42.95802" lon="2.5031">
        <ele>432</ele>
        <time>2022-05-02T19:29:12Z</time>
      </trkpt>
      <trkpt lat="42.95814" lon="2.50297">
        <ele>431</ele>
        <time>2022-05-02T19:29:14Z</time>
      </trkpt>
      <trkpt lat="42.95826" lon="2.5029">
        <ele>429</ele>
        <time>2022-05-02T19:29:17Z</time>
      </trkpt>
      <trkpt lat="42.95881" lon="2.50286">
        <ele>424</ele>
        <time>2022-05-02T19:29:26Z</time>
      </trkpt>
      <trkpt lat="42.95901" lon="2.50282">
        <ele>423</ele>
        <time>2022-05-02T19:29:30Z</time>
      </trkpt>
      <trkpt lat="42.95972" lon="2.50259">
        <ele>424</ele>
        <time>2022-05-02T19:29:43Z</time>
      </trkpt>
      <trkpt lat="42.95981" lon="2.50251">
        <ele>423</ele>
        <time>2022-05-02T19:29:45Z</time>
      </trkpt>
      <trkpt lat="42.95989" lon="2.5024">
        <ele>424</ele>
        <time>2022-05-02T19:29:47Z</time>
      </trkpt>
      <trkpt lat="42.95995" lon="2.50228">
        <ele>425</ele>
        <time>2022-05-02T19:29:49Z</time>
      </trkpt>
      <trkpt lat="42.95998" lon="2.50215">
        <ele>425</ele>
        <time>2022-05-02T19:29:51Z</time>
      </trkpt>
      <trkpt lat="42.95995" lon="2.50194">
        <ele>425</ele>
        <time>2022-05-02T19:29:53Z</time>
      </trkpt>
      <trkpt lat="42.95988" lon="2.50181">
        <ele>425</ele>
        <time>2022-05-02T19:29:56Z</time>
      </trkpt>
      <trkpt lat="42.95963" lon="2.5015">
        <ele>425</ele>
        <time>2022-05-02T19:30:02Z</time>
      </trkpt>
      <trkpt lat="42.9596" lon="2.50137">
        <ele>425</ele>
        <time>2022-05-02T19:30:03Z</time>
      </trkpt>
      <trkpt lat="42.9596" lon="2.50129">
        <ele>424</ele>
        <time>2022-05-02T19:30:04Z</time>
      </trkpt>
      <trkpt lat="42.95961" lon="2.50122">
        <ele>424</ele>
        <time>2022-05-02T19:30:05Z</time>
      </trkpt>
      <trkpt lat="42.95965" lon="2.50113">
        <ele>424</ele>
        <time>2022-05-02T19:30:07Z</time>
      </trkpt>
      <trkpt lat="42.95972" lon="2.50105">
        <ele>423</ele>
        <time>2022-05-02T19:30:08Z</time>
      </trkpt>
      <trkpt lat="42.95988" lon="2.5009">
        <ele>419</ele>
        <time>2022-05-02T19:30:12Z</time>
      </trkpt>
      <trkpt lat="42.95997" lon="2.50077">
        <ele>417</ele>
        <time>2022-05-02T19:30:14Z</time>
      </trkpt>
      <trkpt lat="42.96002" lon="2.50066">
        <ele>417</ele>
        <time>2022-05-02T19:30:16Z</time>
      </trkpt>
      <trkpt lat="42.96003" lon="2.50054">
        <ele>417</ele>
        <time>2022-05-02T19:30:17Z</time>
      </trkpt>
      <trkpt lat="42.96002" lon="2.5004">
        <ele>415</ele>
        <time>2022-05-02T19:30:19Z</time>
      </trkpt>
      <trkpt lat="42.95991" lon="2.49989">
        <ele>414</ele>
        <time>2022-05-02T19:30:26Z</time>
      </trkpt>
      <trkpt lat="42.95988" lon="2.49961">
        <ele>414</ele>
        <time>2022-05-02T19:30:30Z</time>
      </trkpt>
      <trkpt lat="42.95993" lon="2.49939">
        <ele>413</ele>
        <time>2022-05-02T19:30:33Z</time>
      </trkpt>
      <trkpt lat="42.96" lon="2.49917">
        <ele>411</ele>
        <time>2022-05-02T19:30:36Z</time>
      </trkpt>
      <trkpt lat="42.96002" lon="2.49901">
        <ele>412</ele>
        <time>2022-05-02T19:30:38Z</time>
      </trkpt>
      <trkpt lat="42.96002" lon="2.49891">
        <ele>413</ele>
        <time>2022-05-02T19:30:39Z</time>
      </trkpt>
      <trkpt lat="42.96" lon="2.49877">
        <ele>412</ele>
        <time>2022-05-02T19:30:41Z</time>
      </trkpt>
      <trkpt lat="42.95988" lon="2.49859">
        <ele>413</ele>
        <time>2022-05-02T19:30:44Z</time>
      </trkpt>
      <trkpt lat="42.95955" lon="2.4985">
        <ele>414</ele>
        <time>2022-05-02T19:30:50Z</time>
      </trkpt>
      <trkpt lat="42.95948" lon="2.4984">
        <ele>413</ele>
        <time>2022-05-02T19:30:52Z</time>
      </trkpt>
      <trkpt lat="42.95937" lon="2.4982">
        <ele>411</ele>
        <time>2022-05-02T19:30:55Z</time>
      </trkpt>
      <trkpt lat="42.95933" lon="2.49812">
        <ele>410</ele>
        <time>2022-05-02T19:30:57Z</time>
      </trkpt>
      <trkpt lat="42.95917" lon="2.49734">
        <ele>399</ele>
        <time>2022-05-02T19:31:07Z</time>
      </trkpt>
      <trkpt lat="42.9591" lon="2.49717">
        <ele>400</ele>
        <time>2022-05-02T19:31:10Z</time>
      </trkpt>
      <trkpt lat="42.95877" lon="2.49663">
        <ele>402</ele>
        <time>2022-05-02T19:31:19Z</time>
      </trkpt>
      <trkpt lat="42.95869" lon="2.49647">
        <ele>400</ele>
        <time>2022-05-02T19:31:21Z</time>
      </trkpt>
      <trkpt lat="42.95862" lon="2.49619">
        <ele>393</ele>
        <time>2022-05-02T19:31:25Z</time>
      </trkpt>
      <trkpt lat="42.95858" lon="2.49615">
        <ele>392</ele>
        <time>2022-05-02T19:31:26Z</time>
      </trkpt>
      <trkpt lat="42.95844" lon="2.49609">
        <ele>390</ele>
        <time>2022-05-02T19:31:29Z</time>
      </trkpt>
      <trkpt lat="42.95818" lon="2.49591">
        <ele>383</ele>
        <time>2022-05-02T19:31:34Z</time>
      </trkpt>
      <trkpt lat="42.95782" lon="2.49531">
        <ele>373</ele>
        <time>2022-05-02T19:31:44Z</time>
      </trkpt>
      <trkpt lat="42.95775" lon="2.49526">
        <ele>372</ele>
        <time>2022-05-02T19:31:45Z</time>
      </trkpt>
      <trkpt lat="42.95766" lon="2.49528">
        <ele>372</ele>
        <time>2022-05-02T19:31:47Z</time>
      </trkpt>
      <trkpt lat="42.95688" lon="2.49569">
        <ele>374</ele>
        <time>2022-05-02T19:32:02Z</time>
      </trkpt>
      <trkpt lat="42.9567" lon="2.49575">
        <ele>372</ele>
        <time>2022-05-02T19:32:05Z</time>
      </trkpt>
      <trkpt lat="42.95657" lon="2.49575">
        <ele>372</ele>
        <time>2022-05-02T19:32:08Z</time>
      </trkpt>
      <trkpt lat="42.95643" lon="2.49572">
        <ele>371</ele>
        <time>2022-05-02T19:32:10Z</time>
      </trkpt>
      <trkpt lat="42.95554" lon="2.49539">
        <ele>368</ele>
        <time>2022-05-02T19:32:27Z</time>
      </trkpt>
      <trkpt lat="42.95544" lon="2.49525">
        <ele>367</ele>
        <time>2022-05-02T19:32:29Z</time>
      </trkpt>
      <trkpt lat="42.95541" lon="2.49517">
        <ele>367</ele>
        <time>2022-05-02T19:32:30Z</time>
      </trkpt>
      <trkpt lat="42.95531" lon="2.49471">
        <ele>374</ele>
        <time>2022-05-02T19:32:36Z</time>
      </trkpt>
      <trkpt lat="42.95529" lon="2.49458">
        <ele>378</ele>
        <time>2022-05-02T19:32:38Z</time>
      </trkpt>
      <trkpt lat="42.95533" lon="2.49452">
        <ele>378</ele>
        <time>2022-05-02T19:32:39Z</time>
      </trkpt>
      <trkpt lat="42.9554" lon="2.49445">
        <ele>377</ele>
        <time>2022-05-02T19:32:41Z</time>
      </trkpt>
      <trkpt lat="42.95585" lon="2.49414">
        <ele>364</ele>
        <time>2022-05-02T19:32:50Z</time>
      </trkpt>
      <trkpt lat="42.95593" lon="2.49403">
        <ele>365</ele>
        <time>2022-05-02T19:32:52Z</time>
      </trkpt>
      <trkpt lat="42.95595" lon="2.49394">
        <ele>365</ele>
        <time>2022-05-02T19:32:53Z</time>
      </trkpt>
      <trkpt lat="42.95595" lon="2.49381">
        <ele>366</ele>
        <time>2022-05-02T19:32:55Z</time>
      </trkpt>
      <trkpt lat="42.95591" lon="2.49365">
        <ele>367</ele>
        <time>2022-05-02T19:32:57Z</time>
      </trkpt>
      <trkpt lat="42.95577" lon="2.49325">
        <ele>372</ele>
        <time>2022-05-02T19:33:03Z</time>
      </trkpt>
      <trkpt lat="42.95562" lon="2.49292">
        <ele>379</ele>
        <time>2022-05-02T19:33:08Z</time>
      </trkpt>
      <trkpt lat="42.95547" lon="2.49267">
        <ele>384</ele>
        <time>2022-05-02T19:33:12Z</time>
      </trkpt>
      <trkpt lat="42.95517" lon="2.49225">
        <ele>392</ele>
        <time>2022-05-02T19:33:20Z</time>
      </trkpt>
      <trkpt lat="42.9551" lon="2.49206">
        <ele>391</ele>
        <time>2022-05-02T19:33:22Z</time>
      </trkpt>
      <trkpt lat="42.95505" lon="2.49186">
        <ele>390</ele>
        <time>2022-05-02T19:33:25Z</time>
      </trkpt>
      <trkpt lat="42.955" lon="2.49124">
        <ele>386</ele>
        <time>2022-05-02T19:33:33Z</time>
      </trkpt>
      <trkpt lat="42.955" lon="2.4907">
        <ele>385</ele>
        <time>2022-05-02T19:33:40Z</time>
      </trkpt>
      <trkpt lat="42.95498" lon="2.49057">
        <ele>387</ele>
        <time>2022-05-02T19:33:42Z</time>
      </trkpt>
      <trkpt lat="42.95488" lon="2.49">
        <ele>392</ele>
        <time>2022-05-02T19:33:50Z</time>
      </trkpt>
      <trkpt lat="42.95485" lon="2.48973">
        <ele>393</ele>
        <time>2022-05-02T19:33:53Z</time>
      </trkpt>
      <trkpt lat="42.95492" lon="2.48915">
        <ele>391</ele>
        <time>2022-05-02T19:34:01Z</time>
      </trkpt>
      <trkpt lat="42.95495" lon="2.48862">
        <ele>392</ele>
        <time>2022-05-02T19:34:08Z</time>
      </trkpt>
      <trkpt lat="42.95497" lon="2.48851">
        <ele>392</ele>
        <time>2022-05-02T19:34:09Z</time>
      </trkpt>
      <trkpt lat="42.95519" lon="2.48781">
        <ele>395</ele>
        <time>2022-05-02T19:34:19Z</time>
      </trkpt>
      <trkpt lat="42.95526" lon="2.4874">
        <ele>396</ele>
        <time>2022-05-02T19:34:25Z</time>
      </trkpt>
      <trkpt lat="42.9553" lon="2.48707">
        <ele>395</ele>
        <time>2022-05-02T19:34:29Z</time>
      </trkpt>
      <trkpt lat="42.95532" lon="2.48655">
        <ele>395</ele>
        <time>2022-05-02T19:34:36Z</time>
      </trkpt>
      <trkpt lat="42.95528" lon="2.48631">
        <ele>396</ele>
        <time>2022-05-02T19:34:39Z</time>
      </trkpt>
      <trkpt lat="42.95527" lon="2.48605">
        <ele>397</ele>
        <time>2022-05-02T19:34:42Z</time>
      </trkpt>
      <trkpt lat="42.95542" lon="2.4848">
        <ele>398</ele>
        <time>2022-05-02T19:34:59Z</time>
      </trkpt>
      <trkpt lat="42.95548" lon="2.48479">
        <ele>397</ele>
        <time>2022-05-02T19:35:00Z</time>
      </trkpt>
      <trkpt lat="42.95561" lon="2.4845">
        <ele>394</ele>
        <time>2022-05-02T19:35:04Z</time>
      </trkpt>
      <trkpt lat="42.95575" lon="2.4843">
        <ele>393</ele>
        <time>2022-05-02T19:35:08Z</time>
      </trkpt>
      <trkpt lat="42.95591" lon="2.48412">
        <ele>395</ele>
        <time>2022-05-02T19:35:12Z</time>
      </trkpt>
      <trkpt lat="42.95603" lon="2.48403">
        <ele>399</ele>
        <time>2022-05-02T19:35:14Z</time>
      </trkpt>
      <trkpt lat="42.95609" lon="2.48395">
        <ele>402</ele>
        <time>2022-05-02T19:35:16Z</time>
      </trkpt>
      <trkpt lat="42.95613" lon="2.48377">
        <ele>405</ele>
        <time>2022-05-02T19:35:18Z</time>
      </trkpt>
      <trkpt lat="42.95609" lon="2.48359">
        <ele>405</ele>
        <time>2022-05-02T19:35:21Z</time>
      </trkpt>
      <trkpt lat="42.9561" lon="2.48343">
        <ele>407</ele>
        <time>2022-05-02T19:35:23Z</time>
      </trkpt>
      <trkpt lat="42.9563" lon="2.48294">
        <ele>416</ele>
        <time>2022-05-02T19:35:30Z</time>
      </trkpt>
      <trkpt lat="42.95632" lon="2.48281">
        <ele>418</ele>
        <time>2022-05-02T19:35:32Z</time>
      </trkpt>
      <trkpt lat="42.95632" lon="2.48271">
        <ele>418</ele>
        <time>2022-05-02T19:35:33Z</time>
      </trkpt>
      <trkpt lat="42.95623" lon="2.48223">
        <ele>421</ele>
        <time>2022-05-02T19:35:39Z</time>
      </trkpt>
      <trkpt lat="42.95627" lon="2.48211">
        <ele>421</ele>
        <time>2022-05-02T19:35:41Z</time>
      </trkpt>
      <trkpt lat="42.95639" lon="2.48183">
        <ele>422</ele>
        <time>2022-05-02T19:35:45Z</time>
      </trkpt>
      <trkpt lat="42.95676" lon="2.48103">
        <ele>419</ele>
        <time>2022-05-02T19:35:58Z</time>
      </trkpt>
      <trkpt lat="42.95684" lon="2.48079">
        <ele>421</ele>
        <time>2022-05-02T19:36:01Z</time>
      </trkpt>
      <trkpt lat="42.95692" lon="2.48024">
        <ele>425</ele>
        <time>2022-05-02T19:36:08Z</time>
      </trkpt>
      <trkpt lat="42.95699" lon="2.47941">
        <ele>432</ele>
        <time>2022-05-02T19:36:19Z</time>
      </trkpt>
      <trkpt lat="42.9571" lon="2.47864">
        <ele>434</ele>
        <time>2022-05-02T19:36:29Z</time>
      </trkpt>
      <trkpt lat="42.95729" lon="2.47778">
        <ele>431</ele>
        <time>2022-05-02T19:36:41Z</time>
      </trkpt>
      <trkpt lat="42.95739" lon="2.4775">
        <ele>428</ele>
        <time>2022-05-02T19:36:45Z</time>
      </trkpt>
      <trkpt lat="42.95751" lon="2.47729">
        <ele>426</ele>
        <time>2022-05-02T19:36:49Z</time>
      </trkpt>
      <trkpt lat="42.95778" lon="2.477">
        <ele>433</ele>
        <time>2022-05-02T19:36:55Z</time>
      </trkpt>
      <trkpt lat="42.95787" lon="2.47685">
        <ele>435</ele>
        <time>2022-05-02T19:36:57Z</time>
      </trkpt>
      <trkpt lat="42.95792" lon="2.47673">
        <ele>435</ele>
        <time>2022-05-02T19:36:59Z</time>
      </trkpt>
      <trkpt lat="42.95838" lon="2.47536">
        <ele>434</ele>
        <time>2022-05-02T19:37:19Z</time>
      </trkpt>
      <trkpt lat="42.95858" lon="2.47497">
        <ele>436</ele>
        <time>2022-05-02T19:37:25Z</time>
      </trkpt>
      <trkpt lat="42.95882" lon="2.47431">
        <ele>440</ele>
        <time>2022-05-02T19:37:35Z</time>
      </trkpt>
      <trkpt lat="42.95897" lon="2.47403">
        <ele>439</ele>
        <time>2022-05-02T19:37:39Z</time>
      </trkpt>
      <trkpt lat="42.9598" lon="2.47314">
        <ele>440</ele>
        <time>2022-05-02T19:37:58Z</time>
      </trkpt>
      <trkpt lat="42.95986" lon="2.473">
        <ele>441</ele>
        <time>2022-05-02T19:38:00Z</time>
      </trkpt>
      <trkpt lat="42.95987" lon="2.47289">
        <ele>441</ele>
        <time>2022-05-02T19:38:01Z</time>
      </trkpt>
      <trkpt lat="42.9598" lon="2.47221">
        <ele>442</ele>
        <time>2022-05-02T19:38:10Z</time>
      </trkpt>
      <trkpt lat="42.95981" lon="2.47207">
        <ele>443</ele>
        <time>2022-05-02T19:38:12Z</time>
      </trkpt>
      <trkpt lat="42.95987" lon="2.472">
        <ele>443</ele>
        <time>2022-05-02T19:38:14Z</time>
      </trkpt>
      <trkpt lat="42.95996" lon="2.47199">
        <ele>442</ele>
        <time>2022-05-02T19:38:15Z</time>
      </trkpt>
      <trkpt lat="42.96009" lon="2.47207">
        <ele>442</ele>
        <time>2022-05-02T19:38:18Z</time>
      </trkpt>
      <trkpt lat="42.96028" lon="2.47212">
        <ele>446</ele>
        <time>2022-05-02T19:38:21Z</time>
      </trkpt>
      <trkpt lat="42.96042" lon="2.47212">
        <ele>448</ele>
        <time>2022-05-02T19:38:24Z</time>
      </trkpt>
      <trkpt lat="42.96058" lon="2.47209">
        <ele>450</ele>
        <time>2022-05-02T19:38:27Z</time>
      </trkpt>
      <trkpt lat="42.9608" lon="2.47194">
        <ele>451</ele>
        <time>2022-05-02T19:38:31Z</time>
      </trkpt>
      <trkpt lat="42.96101" lon="2.47171">
        <ele>454</ele>
        <time>2022-05-02T19:38:36Z</time>
      </trkpt>
      <trkpt lat="42.96122" lon="2.47133">
        <ele>459</ele>
        <time>2022-05-02T19:38:42Z</time>
      </trkpt>
      <trkpt lat="42.96139" lon="2.4709">
        <ele>460</ele>
        <time>2022-05-02T19:38:48Z</time>
      </trkpt>
      <trkpt lat="42.96148" lon="2.47046">
        <ele>460</ele>
        <time>2022-05-02T19:38:54Z</time>
      </trkpt>
      <trkpt lat="42.96161" lon="2.47007">
        <ele>457</ele>
        <time>2022-05-02T19:39:00Z</time>
      </trkpt>
      <trkpt lat="42.96176" lon="2.46941">
        <ele>459</ele>
        <time>2022-05-02T19:39:09Z</time>
      </trkpt>
      <trkpt lat="42.96184" lon="2.46886">
        <ele>462</ele>
        <time>2022-05-02T19:39:16Z</time>
      </trkpt>
      <trkpt lat="42.96191" lon="2.46859">
        <ele>465</ele>
        <time>2022-05-02T19:39:20Z</time>
      </trkpt>
      <trkpt lat="42.96212" lon="2.46767">
        <ele>466</ele>
        <time>2022-05-02T19:39:32Z</time>
      </trkpt>
      <trkpt lat="42.96221" lon="2.46742">
        <ele>466</ele>
        <time>2022-05-02T19:39:36Z</time>
      </trkpt>
      <trkpt lat="42.96224" lon="2.46736">
        <ele>466</ele>
        <time>2022-05-02T19:39:37Z</time>
      </trkpt>
      <trkpt lat="42.96247" lon="2.46698">
        <ele>463</ele>
        <time>2022-05-02T19:39:43Z</time>
      </trkpt>
      <trkpt lat="42.96268" lon="2.46671">
        <ele>467</ele>
        <time>2022-05-02T19:39:49Z</time>
      </trkpt>
      <trkpt lat="42.96276" lon="2.46658">
        <ele>469</ele>
        <time>2022-05-02T19:39:51Z</time>
      </trkpt>
      <trkpt lat="42.96301" lon="2.4656">
        <ele>468</ele>
        <time>2022-05-02T19:40:04Z</time>
      </trkpt>
      <trkpt lat="42.96309" lon="2.46539">
        <ele>468</ele>
        <time>2022-05-02T19:40:07Z</time>
      </trkpt>
      <trkpt lat="42.96328" lon="2.46515">
        <ele>468</ele>
        <time>2022-05-02T19:40:12Z</time>
      </trkpt>
      <trkpt lat="42.96331" lon="2.46503">
        <ele>466</ele>
        <time>2022-05-02T19:40:14Z</time>
      </trkpt>
      <trkpt lat="42.96323" lon="2.46468">
        <ele>465</ele>
        <time>2022-05-02T19:40:18Z</time>
      </trkpt>
      <trkpt lat="42.96324" lon="2.46455">
        <ele>465</ele>
        <time>2022-05-02T19:40:20Z</time>
      </trkpt>
      <trkpt lat="42.96327" lon="2.46439">
        <ele>466</ele>
        <time>2022-05-02T19:40:22Z</time>
      </trkpt>
      <trkpt lat="42.96344" lon="2.46397">
        <ele>472</ele>
        <time>2022-05-02T19:40:28Z</time>
      </trkpt>
      <trkpt lat="42.96351" lon="2.46373">
        <ele>476</ele>
        <time>2022-05-02T19:40:32Z</time>
      </trkpt>
      <trkpt lat="42.96355" lon="2.46348">
        <ele>478</ele>
        <time>2022-05-02T19:40:35Z</time>
      </trkpt>
      <trkpt lat="42.96359" lon="2.46217">
        <ele>481</ele>
        <time>2022-05-02T19:40:52Z</time>
      </trkpt>
      <trkpt lat="42.96365" lon="2.46173">
        <ele>483</ele>
        <time>2022-05-02T19:40:58Z</time>
      </trkpt>
      <trkpt lat="42.96376" lon="2.46146">
        <ele>486</ele>
        <time>2022-05-02T19:41:02Z</time>
      </trkpt>
      <trkpt lat="42.96389" lon="2.46131">
        <ele>487</ele>
        <time>2022-05-02T19:41:05Z</time>
      </trkpt>
      <trkpt lat="42.96406" lon="2.46124">
        <ele>487</ele>
        <time>2022-05-02T19:41:08Z</time>
      </trkpt>
      <trkpt lat="42.96446" lon="2.46091">
        <ele>496</ele>
        <time>2022-05-02T19:41:17Z</time>
      </trkpt>
      <trkpt lat="42.96452" lon="2.46079">
        <ele>497</ele>
        <time>2022-05-02T19:41:18Z</time>
      </trkpt>
      <trkpt lat="42.96458" lon="2.46056">
        <ele>500</ele>
        <time>2022-05-02T19:41:22Z</time>
      </trkpt>
      <trkpt lat="42.96461" lon="2.46021">
        <ele>501</ele>
        <time>2022-05-02T19:41:26Z</time>
      </trkpt>
      <trkpt lat="42.96455" lon="2.46001">
        <ele>498</ele>
        <time>2022-05-02T19:41:29Z</time>
      </trkpt>
      <trkpt lat="42.96432" lon="2.45946">
        <ele>495</ele>
        <time>2022-05-02T19:41:37Z</time>
      </trkpt>
      <trkpt lat="42.9642" lon="2.45897">
        <ele>493</ele>
        <time>2022-05-02T19:41:44Z</time>
      </trkpt>
      <trkpt lat="42.96422" lon="2.45864">
        <ele>493</ele>
        <time>2022-05-02T19:41:48Z</time>
      </trkpt>
      <trkpt lat="42.96435" lon="2.45806">
        <ele>499</ele>
        <time>2022-05-02T19:41:56Z</time>
      </trkpt>
      <trkpt lat="42.96436" lon="2.45775">
        <ele>499</ele>
        <time>2022-05-02T19:42:00Z</time>
      </trkpt>
      <trkpt lat="42.96432" lon="2.45754">
        <ele>498</ele>
        <time>2022-05-02T19:42:03Z</time>
      </trkpt>
      <trkpt lat="42.96422" lon="2.45744">
        <ele>497</ele>
        <time>2022-05-02T19:42:05Z</time>
      </trkpt>
      <trkpt lat="42.96403" lon="2.4573">
        <ele>498</ele>
        <time>2022-05-02T19:42:09Z</time>
      </trkpt>
      <trkpt lat="42.96366" lon="2.4571">
        <ele>498</ele>
        <time>2022-05-02T19:42:16Z</time>
      </trkpt>
      <trkpt lat="42.96308" lon="2.45682">
        <ele>498</ele>
        <time>2022-05-02T19:42:27Z</time>
      </trkpt>
      <trkpt lat="42.96298" lon="2.45667">
        <ele>499</ele>
        <time>2022-05-02T19:42:30Z</time>
      </trkpt>
      <trkpt lat="42.96288" lon="2.45638">
        <ele>502</ele>
        <time>2022-05-02T19:42:34Z</time>
      </trkpt>
      <trkpt lat="42.96279" lon="2.45563">
        <ele>507</ele>
        <time>2022-05-02T19:42:44Z</time>
      </trkpt>
      <trkpt lat="42.96277" lon="2.4552">
        <ele>507</ele>
        <time>2022-05-02T19:42:49Z</time>
      </trkpt>
      <trkpt lat="42.96289" lon="2.45448">
        <ele>509</ele>
        <time>2022-05-02T19:42:59Z</time>
      </trkpt>
      <trkpt lat="42.96295" lon="2.4536">
        <ele>508</ele>
        <time>2022-05-02T19:43:11Z</time>
      </trkpt>
      <trkpt lat="42.96297" lon="2.45272">
        <ele>507</ele>
        <time>2022-05-02T19:43:22Z</time>
      </trkpt>
      <trkpt lat="42.96304" lon="2.45227">
        <ele>507</ele>
        <time>2022-05-02T19:43:28Z</time>
      </trkpt>
      <trkpt lat="42.96323" lon="2.45159">
        <ele>505</ele>
        <time>2022-05-02T19:43:38Z</time>
      </trkpt>
      <trkpt lat="42.96331" lon="2.45145">
        <ele>504</ele>
        <time>2022-05-02T19:43:40Z</time>
      </trkpt>
      <trkpt lat="42.96345" lon="2.4513">
        <ele>507</ele>
        <time>2022-05-02T19:43:43Z</time>
      </trkpt>
      <trkpt lat="42.96359" lon="2.45112">
        <ele>510</ele>
        <time>2022-05-02T19:43:46Z</time>
      </trkpt>
      <trkpt lat="42.96371" lon="2.45085">
        <ele>510</ele>
        <time>2022-05-02T19:43:51Z</time>
      </trkpt>
      <trkpt lat="42.96374" lon="2.45068">
        <ele>509</ele>
        <time>2022-05-02T19:43:53Z</time>
      </trkpt>
      <trkpt lat="42.96371" lon="2.45017">
        <ele>506</ele>
        <time>2022-05-02T19:43:59Z</time>
      </trkpt>
      <trkpt lat="42.96373" lon="2.45003">
        <ele>506</ele>
        <time>2022-05-02T19:44:01Z</time>
      </trkpt>
      <trkpt lat="42.96396" lon="2.44905">
        <ele>512</ele>
        <time>2022-05-02T19:44:15Z</time>
      </trkpt>
      <trkpt lat="42.96399" lon="2.44877">
        <ele>514</ele>
        <time>2022-05-02T19:44:18Z</time>
      </trkpt>
      <trkpt lat="42.96396" lon="2.44793">
        <ele>519</ele>
        <time>2022-05-02T19:44:29Z</time>
      </trkpt>
      <trkpt lat="42.964" lon="2.44754">
        <ele>521</ele>
        <time>2022-05-02T19:44:35Z</time>
      </trkpt>
      <trkpt lat="42.96407" lon="2.4471">
        <ele>521</ele>
        <time>2022-05-02T19:44:40Z</time>
      </trkpt>
      <trkpt lat="42.96418" lon="2.44656">
        <ele>520</ele>
        <time>2022-05-02T19:44:48Z</time>
      </trkpt>
      <trkpt lat="42.96439" lon="2.44589">
        <ele>527</ele>
        <time>2022-05-02T19:44:57Z</time>
      </trkpt>
      <trkpt lat="42.96456" lon="2.44545">
        <ele>532</ele>
        <time>2022-05-02T19:45:04Z</time>
      </trkpt>
      <trkpt lat="42.96474" lon="2.44515">
        <ele>533</ele>
        <time>2022-05-02T19:45:09Z</time>
      </trkpt>
      <trkpt lat="42.96504" lon="2.44479">
        <ele>532</ele>
        <time>2022-05-02T19:45:16Z</time>
      </trkpt>
      <trkpt lat="42.96542" lon="2.44415">
        <ele>535</ele>
        <time>2022-05-02T19:45:27Z</time>
      </trkpt>
      <trkpt lat="42.9664" lon="2.44286">
        <ele>537</ele>
        <time>2022-05-02T19:45:51Z</time>
      </trkpt>
      <trkpt lat="42.96657" lon="2.44271">
        <ele>537</ele>
        <time>2022-05-02T19:45:54Z</time>
      </trkpt>
      <trkpt lat="42.96671" lon="2.44268">
        <ele>539</ele>
        <time>2022-05-02T19:45:57Z</time>
      </trkpt>
      <trkpt lat="42.9668" lon="2.44262">
        <ele>540</ele>
        <time>2022-05-02T19:45:59Z</time>
      </trkpt>
      <trkpt lat="42.96683" lon="2.44253">
        <ele>540</ele>
        <time>2022-05-02T19:46:00Z</time>
      </trkpt>
      <trkpt lat="42.96684" lon="2.4424">
        <ele>540</ele>
        <time>2022-05-02T19:46:02Z</time>
      </trkpt>
      <trkpt lat="42.96677" lon="2.44205">
        <ele>537</ele>
        <time>2022-05-02T19:46:06Z</time>
      </trkpt>
      <trkpt lat="42.96678" lon="2.44185">
        <ele>538</ele>
        <time>2022-05-02T19:46:09Z</time>
      </trkpt>
      <trkpt lat="42.96686" lon="2.44148">
        <ele>540</ele>
        <time>2022-05-02T19:46:14Z</time>
      </trkpt>
      <trkpt lat="42.96705" lon="2.4411">
        <ele>543</ele>
        <time>2022-05-02T19:46:20Z</time>
      </trkpt>
      <trkpt lat="42.96725" lon="2.44077">
        <ele>544</ele>
        <time>2022-05-02T19:46:26Z</time>
      </trkpt>
      <trkpt lat="42.96772" lon="2.44029">
        <ele>547</ele>
        <time>2022-05-02T19:46:36Z</time>
      </trkpt>
      <trkpt lat="42.96818" lon="2.43968">
        <ele>548</ele>
        <time>2022-05-02T19:46:47Z</time>
      </trkpt>
      <trkpt lat="42.96855" lon="2.43937">
        <ele>549</ele>
        <time>2022-05-02T19:46:55Z</time>
      </trkpt>
      <trkpt lat="42.96923" lon="2.43897">
        <ele>556</ele>
        <time>2022-05-02T19:47:08Z</time>
      </trkpt>
      <trkpt lat="42.96958" lon="2.4389">
        <ele>557</ele>
        <time>2022-05-02T19:47:15Z</time>
      </trkpt>
      <trkpt lat="42.96985" lon="2.4389">
        <ele>558</ele>
        <time>2022-05-02T19:47:19Z</time>
      </trkpt>
      <trkpt lat="42.97048" lon="2.43929">
        <ele>564</ele>
        <time>2022-05-02T19:47:32Z</time>
      </trkpt>
      <trkpt lat="42.97085" lon="2.43956">
        <ele>565</ele>
        <time>2022-05-02T19:47:39Z</time>
      </trkpt>
      <trkpt lat="42.97092" lon="2.43968">
        <ele>568</ele>
        <time>2022-05-02T19:47:41Z</time>
      </trkpt>
      <trkpt lat="42.97108" lon="2.44022">
        <ele>578</ele>
        <time>2022-05-02T19:47:49Z</time>
      </trkpt>
      <trkpt lat="42.97116" lon="2.4407">
        <ele>586</ele>
        <time>2022-05-02T19:47:55Z</time>
      </trkpt>
      <trkpt lat="42.97118" lon="2.44109">
        <ele>592</ele>
        <time>2022-05-02T19:48:00Z</time>
      </trkpt>
      <trkpt lat="42.97125" lon="2.44117">
        <ele>592</ele>
        <time>2022-05-02T19:48:02Z</time>
      </trkpt>
      <trkpt lat="42.97132" lon="2.44116">
        <ele>591</ele>
        <time>2022-05-02T19:48:03Z</time>
      </trkpt>
      <trkpt lat="42.9714" lon="2.44105">
        <ele>588</ele>
        <time>2022-05-02T19:48:05Z</time>
      </trkpt>
      <trkpt lat="42.97157" lon="2.44072">
        <ele>580</ele>
        <time>2022-05-02T19:48:10Z</time>
      </trkpt>
      <trkpt lat="42.97169" lon="2.44062">
        <ele>578</ele>
        <time>2022-05-02T19:48:13Z</time>
      </trkpt>
      <trkpt lat="42.97177" lon="2.44053">
        <ele>580</ele>
        <time>2022-05-02T19:48:15Z</time>
      </trkpt>
      <trkpt lat="42.9718" lon="2.44035">
        <ele>579</ele>
        <time>2022-05-02T19:48:17Z</time>
      </trkpt>
      <trkpt lat="42.97177" lon="2.44001">
        <ele>574</ele>
        <time>2022-05-02T19:48:22Z</time>
      </trkpt>
      <trkpt lat="42.9718" lon="2.43988">
        <ele>574</ele>
        <time>2022-05-02T19:48:23Z</time>
      </trkpt>
      <trkpt lat="42.97197" lon="2.43958">
        <ele>578</ele>
        <time>2022-05-02T19:48:28Z</time>
      </trkpt>
      <trkpt lat="42.97239" lon="2.43873">
        <ele>580</ele>
        <time>2022-05-02T19:48:42Z</time>
      </trkpt>
      <trkpt lat="42.97263" lon="2.43841">
        <ele>582</ele>
        <time>2022-05-02T19:48:48Z</time>
      </trkpt>
      <trkpt lat="42.97301" lon="2.43799">
        <ele>587</ele>
        <time>2022-05-02T19:48:56Z</time>
      </trkpt>
      <trkpt lat="42.97407" lon="2.43704">
        <ele>594</ele>
        <time>2022-05-02T19:49:19Z</time>
      </trkpt>
      <trkpt lat="42.97453" lon="2.43669">
        <ele>594</ele>
        <time>2022-05-02T19:49:28Z</time>
      </trkpt>
      <trkpt lat="42.97474" lon="2.43658">
        <ele>596</ele>
        <time>2022-05-02T19:49:32Z</time>
      </trkpt>
      <trkpt lat="42.97491" lon="2.43653">
        <ele>598</ele>
        <time>2022-05-02T19:49:35Z</time>
      </trkpt>
      <trkpt lat="42.97507" lon="2.43652">
        <ele>600</ele>
        <time>2022-05-02T19:49:38Z</time>
      </trkpt>
      <trkpt lat="42.9752" lon="2.43654">
        <ele>601</ele>
        <time>2022-05-02T19:49:41Z</time>
      </trkpt>
      <trkpt lat="42.97538" lon="2.43661">
        <ele>603</ele>
        <time>2022-05-02T19:49:44Z</time>
      </trkpt>
      <trkpt lat="42.97555" lon="2.43673">
        <ele>606</ele>
        <time>2022-05-02T19:49:47Z</time>
      </trkpt>
      <trkpt lat="42.97581" lon="2.43697">
        <ele>614</ele>
        <time>2022-05-02T19:49:53Z</time>
      </trkpt>
      <trkpt lat="42.97633" lon="2.43756">
        <ele>629</ele>
        <time>2022-05-02T19:50:05Z</time>
      </trkpt>
      <trkpt lat="42.97642" lon="2.43762">
        <ele>630</ele>
        <time>2022-05-02T19:50:07Z</time>
      </trkpt>
      <trkpt lat="42.97649" lon="2.4376">
        <ele>629</ele>
        <time>2022-05-02T19:50:08Z</time>
      </trkpt>
      <trkpt lat="42.97654" lon="2.43754">
        <ele>627</ele>
        <time>2022-05-02T19:50:09Z</time>
      </trkpt>
      <trkpt lat="42.97655" lon="2.43728">
        <ele>626</ele>
        <time>2022-05-02T19:50:12Z</time>
      </trkpt>
      <trkpt lat="42.97642" lon="2.43601">
        <ele>617</ele>
        <time>2022-05-02T19:50:29Z</time>
      </trkpt>
      <trkpt lat="42.97644" lon="2.4358">
        <ele>616</ele>
        <time>2022-05-02T19:50:32Z</time>
      </trkpt>
      <trkpt lat="42.97654" lon="2.43561">
        <ele>616</ele>
        <time>2022-05-02T19:50:35Z</time>
      </trkpt>
      <trkpt lat="42.97672" lon="2.43547">
        <ele>619</ele>
        <time>2022-05-02T19:50:39Z</time>
      </trkpt>
      <trkpt lat="42.97734" lon="2.43515">
        <ele>623</ele>
        <time>2022-05-02T19:50:50Z</time>
      </trkpt>
      <trkpt lat="42.97784" lon="2.43505">
        <ele>625</ele>
        <time>2022-05-02T19:50:59Z</time>
      </trkpt>
      <trkpt lat="42.97817" lon="2.43506">
        <ele>627</ele>
        <time>2022-05-02T19:51:05Z</time>
      </trkpt>
      <trkpt lat="42.97854" lon="2.43521">
        <ele>632</ele>
        <time>2022-05-02T19:51:12Z</time>
      </trkpt>
      <trkpt lat="42.97875" lon="2.43538">
        <ele>635</ele>
        <time>2022-05-02T19:51:17Z</time>
      </trkpt>
      <trkpt lat="42.97893" lon="2.43577">
        <ele>643</ele>
        <time>2022-05-02T19:51:23Z</time>
      </trkpt>
      <trkpt lat="42.97916" lon="2.43619">
        <ele>649</ele>
        <time>2022-05-02T19:51:29Z</time>
      </trkpt>
      <trkpt lat="42.97936" lon="2.4365">
        <ele>659</ele>
        <time>2022-05-02T19:51:35Z</time>
      </trkpt>
      <trkpt lat="42.97945" lon="2.43653">
        <ele>661</ele>
        <time>2022-05-02T19:51:36Z</time>
      </trkpt>
      <trkpt lat="42.97954" lon="2.43648">
        <ele>661</ele>
        <time>2022-05-02T19:51:38Z</time>
      </trkpt>
      <trkpt lat="42.97958" lon="2.43633">
        <ele>658</ele>
        <time>2022-05-02T19:51:40Z</time>
      </trkpt>
      <trkpt lat="42.97964" lon="2.43591">
        <ele>649</ele>
        <time>2022-05-02T19:51:46Z</time>
      </trkpt>
      <trkpt lat="42.97972" lon="2.43577">
        <ele>647</ele>
        <time>2022-05-02T19:51:48Z</time>
      </trkpt>
      <trkpt lat="42.98" lon="2.43557">
        <ele>645</ele>
        <time>2022-05-02T19:51:54Z</time>
      </trkpt>
      <trkpt lat="42.98044" lon="2.43535">
        <ele>647</ele>
        <time>2022-05-02T19:52:02Z</time>
      </trkpt>
      <trkpt lat="42.9808" lon="2.43532">
        <ele>653</ele>
        <time>2022-05-02T19:52:08Z</time>
      </trkpt>
      <trkpt lat="42.98105" lon="2.43544">
        <ele>660</ele>
        <time>2022-05-02T19:52:13Z</time>
      </trkpt>
      <trkpt lat="42.98122" lon="2.43564">
        <ele>667</ele>
        <time>2022-05-02T19:52:17Z</time>
      </trkpt>
      <trkpt lat="42.98131" lon="2.43568">
        <ele>668</ele>
        <time>2022-05-02T19:52:19Z</time>
      </trkpt>
      <trkpt lat="42.98139" lon="2.43563">
        <ele>668</ele>
        <time>2022-05-02T19:52:20Z</time>
      </trkpt>
      <trkpt lat="42.98148" lon="2.4355">
        <ele>667</ele>
        <time>2022-05-02T19:52:23Z</time>
      </trkpt>
      <trkpt lat="42.98159" lon="2.43476">
        <ele>657</ele>
        <time>2022-05-02T19:52:33Z</time>
      </trkpt>
      <trkpt lat="42.98165" lon="2.43462">
        <ele>656</ele>
        <time>2022-05-02T19:52:35Z</time>
      </trkpt>
      <trkpt lat="42.98215" lon="2.4343">
        <ele>662</ele>
        <time>2022-05-02T19:52:45Z</time>
      </trkpt>
      <trkpt lat="42.98243" lon="2.43407">
        <ele>663</ele>
        <time>2022-05-02T19:52:50Z</time>
      </trkpt>
      <trkpt lat="42.98273" lon="2.43398">
        <ele>666</ele>
        <time>2022-05-02T19:52:56Z</time>
      </trkpt>
      <trkpt lat="42.98315" lon="2.43395">
        <ele>672</ele>
        <time>2022-05-02T19:53:03Z</time>
      </trkpt>
      <trkpt lat="42.98381" lon="2.43405">
        <ele>678</ele>
        <time>2022-05-02T19:53:15Z</time>
      </trkpt>
      <trkpt lat="42.98411" lon="2.43416">
        <ele>681</ele>
        <time>2022-05-02T19:53:21Z</time>
      </trkpt>
      <trkpt lat="42.98421" lon="2.43413">
        <ele>682</ele>
        <time>2022-05-02T19:53:22Z</time>
      </trkpt>
      <trkpt lat="42.98427" lon="2.43403">
        <ele>681</ele>
        <time>2022-05-02T19:53:24Z</time>
      </trkpt>
      <trkpt lat="42.98431" lon="2.43389">
        <ele>680</ele>
        <time>2022-05-02T19:53:26Z</time>
      </trkpt>
      <trkpt lat="42.98437" lon="2.43353">
        <ele>675</ele>
        <time>2022-05-02T19:53:31Z</time>
      </trkpt>
      <trkpt lat="42.98447" lon="2.43328">
        <ele>675</ele>
        <time>2022-05-02T19:53:35Z</time>
      </trkpt>
      <trkpt lat="42.98467" lon="2.43296">
        <ele>676</ele>
        <time>2022-05-02T19:53:40Z</time>
      </trkpt>
      <trkpt lat="42.98488" lon="2.4327">
        <ele>677</ele>
        <time>2022-05-02T19:53:45Z</time>
      </trkpt>
      <trkpt lat="42.98503" lon="2.43256">
        <ele>678</ele>
        <time>2022-05-02T19:53:48Z</time>
      </trkpt>
      <trkpt lat="42.98564" lon="2.43224">
        <ele>689</ele>
        <time>2022-05-02T19:54:00Z</time>
      </trkpt>
      <trkpt lat="42.98577" lon="2.43209">
        <ele>690</ele>
        <time>2022-05-02T19:54:03Z</time>
      </trkpt>
      <trkpt lat="42.9859" lon="2.43205">
        <ele>692</ele>
        <time>2022-05-02T19:54:05Z</time>
      </trkpt>
      <trkpt lat="42.98603" lon="2.43216">
        <ele>695</ele>
        <time>2022-05-02T19:54:08Z</time>
      </trkpt>
      <trkpt lat="42.9861" lon="2.43218">
        <ele>697</ele>
        <time>2022-05-02T19:54:09Z</time>
      </trkpt>
      <trkpt lat="42.98615" lon="2.43223">
        <ele>697</ele>
        <time>2022-05-02T19:54:10Z</time>
      </trkpt>
      <trkpt lat="42.98618" lon="2.4323">
        <ele>698</ele>
        <time>2022-05-02T19:54:12Z</time>
      </trkpt>
      <trkpt lat="42.98631" lon="2.43282">
        <ele>703</ele>
        <time>2022-05-02T19:54:19Z</time>
      </trkpt>
      <trkpt lat="42.98638" lon="2.43294">
        <ele>704</ele>
        <time>2022-05-02T19:54:21Z</time>
      </trkpt>
      <trkpt lat="42.98643" lon="2.43299">
        <ele>705</ele>
        <time>2022-05-02T19:54:22Z</time>
      </trkpt>
      <trkpt lat="42.98654" lon="2.43297">
        <ele>704</ele>
        <time>2022-05-02T19:54:24Z</time>
      </trkpt>
      <trkpt lat="42.98657" lon="2.43293">
        <ele>704</ele>
        <time>2022-05-02T19:54:24Z</time>
      </trkpt>
      <trkpt lat="42.9866" lon="2.43275">
        <ele>703</ele>
        <time>2022-05-02T19:54:27Z</time>
      </trkpt>
      <trkpt lat="42.98656" lon="2.43251">
        <ele>701</ele>
        <time>2022-05-02T19:54:30Z</time>
      </trkpt>
      <trkpt lat="42.98655" lon="2.43222">
        <ele>703</ele>
        <time>2022-05-02T19:54:34Z</time>
      </trkpt>
      <trkpt lat="42.98656" lon="2.43207">
        <ele>704</ele>
        <time>2022-05-02T19:54:36Z</time>
      </trkpt>
      <trkpt lat="42.9866" lon="2.43185">
        <ele>707</ele>
        <time>2022-05-02T19:54:39Z</time>
      </trkpt>
      <trkpt lat="42.98661" lon="2.43159">
        <ele>709</ele>
        <time>2022-05-02T19:54:42Z</time>
      </trkpt>
      <trkpt lat="42.98659" lon="2.43149">
        <ele>709</ele>
        <time>2022-05-02T19:54:44Z</time>
      </trkpt>
      <trkpt lat="42.98654" lon="2.43136">
        <ele>709</ele>
        <time>2022-05-02T19:54:45Z</time>
      </trkpt>
      <trkpt lat="42.98636" lon="2.4312">
        <ele>705</ele>
        <time>2022-05-02T19:54:49Z</time>
      </trkpt>
      <trkpt lat="42.98627" lon="2.4311">
        <ele>703</ele>
        <time>2022-05-02T19:54:51Z</time>
      </trkpt>
      <trkpt lat="42.98621" lon="2.43096">
        <ele>701</ele>
        <time>2022-05-02T19:54:53Z</time>
      </trkpt>
      <trkpt lat="42.98619" lon="2.43081">
        <ele>702</ele>
        <time>2022-05-02T19:54:55Z</time>
      </trkpt>
      <trkpt lat="42.9862" lon="2.43069">
        <ele>703</ele>
        <time>2022-05-02T19:54:57Z</time>
      </trkpt>
      <trkpt lat="42.98625" lon="2.43049">
        <ele>706</ele>
        <time>2022-05-02T19:55:00Z</time>
      </trkpt>
      <trkpt lat="42.98636" lon="2.43016">
        <ele>712</ele>
        <time>2022-05-02T19:55:04Z</time>
      </trkpt>
      <trkpt lat="42.98639" lon="2.43">
        <ele>714</ele>
        <time>2022-05-02T19:55:07Z</time>
      </trkpt>
      <trkpt lat="42.98638" lon="2.42982">
        <ele>716</ele>
        <time>2022-05-02T19:55:09Z</time>
      </trkpt>
      <trkpt lat="42.98633" lon="2.4296">
        <ele>717</ele>
        <time>2022-05-02T19:55:12Z</time>
      </trkpt>
      <trkpt lat="42.98626" lon="2.42945">
        <ele>717</ele>
        <time>2022-05-02T19:55:14Z</time>
      </trkpt>
      <trkpt lat="42.98617" lon="2.42933">
        <ele>717</ele>
        <time>2022-05-02T19:55:17Z</time>
      </trkpt>
      <trkpt lat="42.98607" lon="2.42924">
        <ele>716</ele>
        <time>2022-05-02T19:55:19Z</time>
      </trkpt>
      <trkpt lat="42.98595" lon="2.42917">
        <ele>714</ele>
        <time>2022-05-02T19:55:21Z</time>
      </trkpt>
      <trkpt lat="42.98582" lon="2.42908">
        <ele>713</ele>
        <time>2022-05-02T19:55:24Z</time>
      </trkpt>
      <trkpt lat="42.98573" lon="2.42895">
        <ele>713</ele>
        <time>2022-05-02T19:55:26Z</time>
      </trkpt>
      <trkpt lat="42.98566" lon="2.4288">
        <ele>713</ele>
        <time>2022-05-02T19:55:28Z</time>
      </trkpt>
      <trkpt lat="42.98562" lon="2.42853">
        <ele>714</ele>
        <time>2022-05-02T19:55:32Z</time>
      </trkpt>
      <trkpt lat="42.9856" lon="2.42796">
        <ele>713</ele>
        <time>2022-05-02T19:55:39Z</time>
      </trkpt>
      <trkpt lat="42.98565" lon="2.42747">
        <ele>713</ele>
        <time>2022-05-02T19:55:46Z</time>
      </trkpt>
      <trkpt lat="42.98575" lon="2.42711">
        <ele>714</ele>
        <time>2022-05-02T19:55:51Z</time>
      </trkpt>
      <trkpt lat="42.98614" lon="2.4262">
        <ele>718</ele>
        <time>2022-05-02T19:56:04Z</time>
      </trkpt>
      <trkpt lat="42.98629" lon="2.4256">
        <ele>717</ele>
        <time>2022-05-02T19:56:13Z</time>
      </trkpt>
      <trkpt lat="42.98639" lon="2.42543">
        <ele>718</ele>
        <time>2022-05-02T19:56:15Z</time>
      </trkpt>
      <trkpt lat="42.98649" lon="2.42531">
        <ele>719</ele>
        <time>2022-05-02T19:56:18Z</time>
      </trkpt>
      <trkpt lat="42.98686" lon="2.42498">
        <ele>720</ele>
        <time>2022-05-02T19:56:26Z</time>
      </trkpt>
      <trkpt lat="42.98707" lon="2.42486">
        <ele>719</ele>
        <time>2022-05-02T19:56:30Z</time>
      </trkpt>
      <trkpt lat="42.98724" lon="2.4248">
        <ele>718</ele>
        <time>2022-05-02T19:56:33Z</time>
      </trkpt>
      <trkpt lat="42.98746" lon="2.42477">
        <ele>718</ele>
        <time>2022-05-02T19:56:37Z</time>
      </trkpt>
      <trkpt lat="42.98764" lon="2.42479">
        <ele>717</ele>
        <time>2022-05-02T19:56:40Z</time>
      </trkpt>
      <trkpt lat="42.98773" lon="2.42484">
        <ele>718</ele>
        <time>2022-05-02T19:56:42Z</time>
      </trkpt>
      <trkpt lat="42.98868" lon="2.42565">
        <ele>720</ele>
        <time>2022-05-02T19:57:02Z</time>
      </trkpt>
      <trkpt lat="42.98905" lon="2.42613">
        <ele>719</ele>
        <time>2022-05-02T19:57:11Z</time>
      </trkpt>
      <trkpt lat="42.98937" lon="2.42645">
        <ele>720</ele>
        <time>2022-05-02T19:57:18Z</time>
      </trkpt>
      <trkpt lat="42.98954" lon="2.42674">
        <ele>720</ele>
        <time>2022-05-02T19:57:23Z</time>
      </trkpt>
      <trkpt lat="42.98969" lon="2.42709">
        <ele>721</ele>
        <time>2022-05-02T19:57:28Z</time>
      </trkpt>
      <trkpt lat="42.98981" lon="2.4273">
        <ele>721</ele>
        <time>2022-05-02T19:57:31Z</time>
      </trkpt>
      <trkpt lat="42.99001" lon="2.42754">
        <ele>721</ele>
        <time>2022-05-02T19:57:36Z</time>
      </trkpt>
      <trkpt lat="42.99031" lon="2.42777">
        <ele>724</ele>
        <time>2022-05-02T19:57:42Z</time>
      </trkpt>
      <trkpt lat="42.99048" lon="2.42787">
        <ele>725</ele>
        <time>2022-05-02T19:57:46Z</time>
      </trkpt>
      <trkpt lat="42.99058" lon="2.42789">
        <ele>725</ele>
        <time>2022-05-02T19:57:47Z</time>
      </trkpt>
      <trkpt lat="42.99066" lon="2.42788">
        <ele>725</ele>
        <time>2022-05-02T19:57:49Z</time>
      </trkpt>
      <trkpt lat="42.99074" lon="2.42785">
        <ele>725</ele>
        <time>2022-05-02T19:57:50Z</time>
      </trkpt>
      <trkpt lat="42.99126" lon="2.42744">
        <ele>728</ele>
        <time>2022-05-02T19:58:01Z</time>
      </trkpt>
      <trkpt lat="42.99142" lon="2.42735">
        <ele>730</ele>
        <time>2022-05-02T19:58:04Z</time>
      </trkpt>
      <trkpt lat="42.99163" lon="2.42728">
        <ele>733</ele>
        <time>2022-05-02T19:58:08Z</time>
      </trkpt>
      <trkpt lat="42.99188" lon="2.42725">
        <ele>734</ele>
        <time>2022-05-02T19:58:12Z</time>
      </trkpt>
      <trkpt lat="42.99237" lon="2.42734">
        <ele>736</ele>
        <time>2022-05-02T19:58:21Z</time>
      </trkpt>
      <trkpt lat="42.99258" lon="2.4274">
        <ele>738</ele>
        <time>2022-05-02T19:58:25Z</time>
      </trkpt>
      <trkpt lat="42.99276" lon="2.42741">
        <ele>739</ele>
        <time>2022-05-02T19:58:28Z</time>
      </trkpt>
      <trkpt lat="42.99302" lon="2.42736">
        <ele>739</ele>
        <time>2022-05-02T19:58:33Z</time>
      </trkpt>
      <trkpt lat="42.99365" lon="2.42718">
        <ele>738</ele>
        <time>2022-05-02T19:58:44Z</time>
      </trkpt>
      <trkpt lat="42.99389" lon="2.42714">
        <ele>738</ele>
        <time>2022-05-02T19:58:49Z</time>
      </trkpt>
      <trkpt lat="42.99405" lon="2.42719">
        <ele>739</ele>
        <time>2022-05-02T19:58:51Z</time>
      </trkpt>
      <trkpt lat="42.99447" lon="2.42739">
        <ele>739</ele>
        <time>2022-05-02T19:58:59Z</time>
      </trkpt>
      <trkpt lat="42.99482" lon="2.42767">
        <ele>738</ele>
        <time>2022-05-02T19:59:07Z</time>
      </trkpt>
      <trkpt lat="42.99491" lon="2.42788">
        <ele>739</ele>
        <time>2022-05-02T19:59:10Z</time>
      </trkpt>
      <trkpt lat="42.99504" lon="2.42828">
        <ele>742</ele>
        <time>2022-05-02T19:59:15Z</time>
      </trkpt>
      <trkpt lat="42.99512" lon="2.42842">
        <ele>744</ele>
        <time>2022-05-02T19:59:18Z</time>
      </trkpt>
      <trkpt lat="42.9952" lon="2.42848">
        <ele>745</ele>
        <time>2022-05-02T19:59:19Z</time>
      </trkpt>
      <trkpt lat="42.99533" lon="2.42847">
        <ele>745</ele>
        <time>2022-05-02T19:59:22Z</time>
      </trkpt>
      <trkpt lat="42.99547" lon="2.42839">
        <ele>744</ele>
        <time>2022-05-02T19:59:24Z</time>
      </trkpt>
      <trkpt lat="42.9956" lon="2.4282">
        <ele>743</ele>
        <time>2022-05-02T19:59:28Z</time>
      </trkpt>
      <trkpt lat="42.99572" lon="2.42805">
        <ele>742</ele>
        <time>2022-05-02T19:59:31Z</time>
      </trkpt>
      <trkpt lat="42.99594" lon="2.42795">
        <ele>742</ele>
        <time>2022-05-02T19:59:35Z</time>
      </trkpt>
      <trkpt lat="42.99609" lon="2.42797">
        <ele>744</ele>
        <time>2022-05-02T19:59:38Z</time>
      </trkpt>
      <trkpt lat="42.99646" lon="2.42809">
        <ele>748</ele>
        <time>2022-05-02T19:59:44Z</time>
      </trkpt>
      <trkpt lat="42.99657" lon="2.42806">
        <ele>749</ele>
        <time>2022-05-02T19:59:46Z</time>
      </trkpt>
      <trkpt lat="42.99664" lon="2.42798">
        <ele>750</ele>
        <time>2022-05-02T19:59:48Z</time>
      </trkpt>
      <trkpt lat="42.9967" lon="2.42785">
        <ele>751</ele>
        <time>2022-05-02T19:59:50Z</time>
      </trkpt>
      <trkpt lat="42.99676" lon="2.42683">
        <ele>754</ele>
        <time>2022-05-02T20:00:03Z</time>
      </trkpt>
      <trkpt lat="42.99667" lon="2.42621">
        <ele>755</ele>
        <time>2022-05-02T20:00:11Z</time>
      </trkpt>
      <trkpt lat="42.99659" lon="2.42593">
        <ele>757</ele>
        <time>2022-05-02T20:00:15Z</time>
      </trkpt>
      <trkpt lat="42.99649" lon="2.42571">
        <ele>757</ele>
        <time>2022-05-02T20:00:19Z</time>
      </trkpt>
      <trkpt lat="42.9964" lon="2.42557">
        <ele>757</ele>
        <time>2022-05-02T20:00:21Z</time>
      </trkpt>
      <trkpt lat="42.9963" lon="2.4255">
        <ele>757</ele>
        <time>2022-05-02T20:00:23Z</time>
      </trkpt>
      <trkpt lat="42.99591" lon="2.42537">
        <ele>753</ele>
        <time>2022-05-02T20:00:30Z</time>
      </trkpt>
      <trkpt lat="42.9958" lon="2.4253">
        <ele>752</ele>
        <time>2022-05-02T20:00:32Z</time>
      </trkpt>
      <trkpt lat="42.99572" lon="2.42518">
        <ele>752</ele>
        <time>2022-05-02T20:00:35Z</time>
      </trkpt>
      <trkpt lat="42.99569" lon="2.42502">
        <ele>752</ele>
        <time>2022-05-02T20:00:37Z</time>
      </trkpt>
      <trkpt lat="42.99568" lon="2.42485">
        <ele>751</ele>
        <time>2022-05-02T20:00:39Z</time>
      </trkpt>
      <trkpt lat="42.99571" lon="2.42466">
        <ele>751</ele>
        <time>2022-05-02T20:00:41Z</time>
      </trkpt>
      <trkpt lat="42.9958" lon="2.42439">
        <ele>752</ele>
        <time>2022-05-02T20:00:45Z</time>
      </trkpt>
      <trkpt lat="42.99604" lon="2.42394">
        <ele>755</ele>
        <time>2022-05-02T20:00:53Z</time>
      </trkpt>
      <trkpt lat="42.9967" lon="2.42261">
        <ele>758</ele>
        <time>2022-05-02T20:01:13Z</time>
      </trkpt>
      <trkpt lat="42.99681" lon="2.42244">
        <ele>758</ele>
        <time>2022-05-02T20:01:16Z</time>
      </trkpt>
      <trkpt lat="42.99696" lon="2.42231">
        <ele>757</ele>
        <time>2022-05-02T20:01:20Z</time>
      </trkpt>
      <trkpt lat="42.99709" lon="2.42229">
        <ele>756</ele>
        <time>2022-05-02T20:01:22Z</time>
      </trkpt>
      <trkpt lat="42.99722" lon="2.42234">
        <ele>756</ele>
        <time>2022-05-02T20:01:24Z</time>
      </trkpt>
      <trkpt lat="42.99738" lon="2.42253">
        <ele>756</ele>
        <time>2022-05-02T20:01:28Z</time>
      </trkpt>
      <trkpt lat="42.9975" lon="2.42272">
        <ele>757</ele>
        <time>2022-05-02T20:01:31Z</time>
      </trkpt>
      <trkpt lat="42.99762" lon="2.42302">
        <ele>755</ele>
        <time>2022-05-02T20:01:36Z</time>
      </trkpt>
      <trkpt lat="42.9978" lon="2.42355">
        <ele>757</ele>
        <time>2022-05-02T20:01:43Z</time>
      </trkpt>
      <trkpt lat="42.99791" lon="2.42378">
        <ele>758</ele>
        <time>2022-05-02T20:01:47Z</time>
      </trkpt>
      <trkpt lat="42.99805" lon="2.42399">
        <ele>758</ele>
        <time>2022-05-02T20:01:51Z</time>
      </trkpt>
      <trkpt lat="42.9982" lon="2.42414">
        <ele>758</ele>
        <time>2022-05-02T20:01:54Z</time>
      </trkpt>
      <trkpt lat="42.99835" lon="2.42422">
        <ele>758</ele>
        <time>2022-05-02T20:01:57Z</time>
      </trkpt>
      <trkpt lat="42.9985" lon="2.42428">
        <ele>758</ele>
        <time>2022-05-02T20:02:00Z</time>
      </trkpt>
      <trkpt lat="42.99884" lon="2.42428">
        <ele>755</ele>
        <time>2022-05-02T20:02:06Z</time>
      </trkpt>
      <trkpt lat="42.99951" lon="2.42414">
        <ele>745</ele>
        <time>2022-05-02T20:02:18Z</time>
      </trkpt>
      <trkpt lat="42.99966" lon="2.42415">
        <ele>745</ele>
        <time>2022-05-02T20:02:20Z</time>
      </trkpt>
      <trkpt lat="42.99999" lon="2.4243">
        <ele>749</ele>
        <time>2022-05-02T20:02:27Z</time>
      </trkpt>
      <trkpt lat="43.00042" lon="2.42444">
        <ele>746</ele>
        <time>2022-05-02T20:02:34Z</time>
      </trkpt>
      <trkpt lat="43.00058" lon="2.42453">
        <ele>746</ele>
        <time>2022-05-02T20:02:38Z</time>
      </trkpt>
      <trkpt lat="43.0008" lon="2.42459">
        <ele>744</ele>
        <time>2022-05-02T20:02:42Z</time>
      </trkpt>
      <trkpt lat="43.00122" lon="2.42469">
        <ele>741</ele>
        <time>2022-05-02T20:02:49Z</time>
      </trkpt>
      <trkpt lat="43.00157" lon="2.42471">
        <ele>737</ele>
        <time>2022-05-02T20:02:55Z</time>
      </trkpt>
      <trkpt lat="43.00163" lon="2.42473">
        <ele>736</ele>
        <time>2022-05-02T20:02:56Z</time>
      </trkpt>
      <trkpt lat="43.00185" lon="2.42494">
        <ele>742</ele>
        <time>2022-05-02T20:03:01Z</time>
      </trkpt>
      <trkpt lat="43.00193" lon="2.42497">
        <ele>742</ele>
        <time>2022-05-02T20:03:03Z</time>
      </trkpt>
      <trkpt lat="43.00199" lon="2.42496">
        <ele>742</ele>
        <time>2022-05-02T20:03:04Z</time>
      </trkpt>
      <trkpt lat="43.00249" lon="2.42462">
        <ele>732</ele>
        <time>2022-05-02T20:03:14Z</time>
      </trkpt>
      <trkpt lat="43.0027" lon="2.4245">
        <ele>726</ele>
        <time>2022-05-02T20:03:18Z</time>
      </trkpt>
      <trkpt lat="43.00277" lon="2.42449">
        <ele>726</ele>
        <time>2022-05-02T20:03:19Z</time>
      </trkpt>
      <trkpt lat="43.00284" lon="2.4245">
        <ele>725</ele>
        <time>2022-05-02T20:03:20Z</time>
      </trkpt>
      <trkpt lat="43.00285" lon="2.4245">
        <ele>725</ele>
        <time>2022-05-02T20:03:20Z</time>
      </trkpt>
      <trkpt lat="43.00289" lon="2.42454">
        <ele>726</ele>
        <time>2022-05-02T20:03:21Z</time>
      </trkpt>
      <trkpt lat="43.00303" lon="2.42475">
        <ele>730</ele>
        <time>2022-05-02T20:03:25Z</time>
      </trkpt>
      <trkpt lat="43.0031" lon="2.4248">
        <ele>731</ele>
        <time>2022-05-02T20:03:26Z</time>
      </trkpt>
      <trkpt lat="43.00319" lon="2.42484">
        <ele>731</ele>
        <time>2022-05-02T20:03:28Z</time>
      </trkpt>
      <trkpt lat="43.00427" lon="2.42491">
        <ele>722</ele>
        <time>2022-05-02T20:03:47Z</time>
      </trkpt>
      <trkpt lat="43.00453" lon="2.42486">
        <ele>719</ele>
        <time>2022-05-02T20:03:52Z</time>
      </trkpt>
      <trkpt lat="43.00465" lon="2.4248">
        <ele>718</ele>
        <time>2022-05-02T20:03:54Z</time>
      </trkpt>
      <trkpt lat="43.00475" lon="2.4247">
        <ele>718</ele>
        <time>2022-05-02T20:03:57Z</time>
      </trkpt>
      <trkpt lat="43.00483" lon="2.42456">
        <ele>717</ele>
        <time>2022-05-02T20:03:59Z</time>
      </trkpt>
      <trkpt lat="43.00486" lon="2.42449">
        <ele>718</ele>
        <time>2022-05-02T20:04:00Z</time>
      </trkpt>
      <trkpt lat="43.00486" lon="2.42443">
        <ele>718</ele>
        <time>2022-05-02T20:04:01Z</time>
      </trkpt>
      <trkpt lat="43.00486" lon="2.42439">
        <ele>718</ele>
        <time>2022-05-02T20:04:01Z</time>
      </trkpt>
      <trkpt lat="43.00459" lon="2.42339">
        <ele>710</ele>
        <time>2022-05-02T20:04:15Z</time>
      </trkpt>
      <trkpt lat="43.00454" lon="2.42312">
        <ele>706</ele>
        <time>2022-05-02T20:04:19Z</time>
      </trkpt>
      <trkpt lat="43.00453" lon="2.423">
        <ele>705</ele>
        <time>2022-05-02T20:04:20Z</time>
      </trkpt>
      <trkpt lat="43.00455" lon="2.42279">
        <ele>704</ele>
        <time>2022-05-02T20:04:23Z</time>
      </trkpt>
      <trkpt lat="43.00482" lon="2.42165">
        <ele>702</ele>
        <time>2022-05-02T20:04:39Z</time>
      </trkpt>
      <trkpt lat="43.00483" lon="2.42115">
        <ele>699</ele>
        <time>2022-05-02T20:04:45Z</time>
      </trkpt>
      <trkpt lat="43.00485" lon="2.42102">
        <ele>699</ele>
        <time>2022-05-02T20:04:47Z</time>
      </trkpt>
      <trkpt lat="43.00488" lon="2.4209">
        <ele>699</ele>
        <time>2022-05-02T20:04:48Z</time>
      </trkpt>
      <trkpt lat="43.00502" lon="2.42058">
        <ele>702</ele>
        <time>2022-05-02T20:04:53Z</time>
      </trkpt>
      <trkpt lat="43.00504" lon="2.42047">
        <ele>702</ele>
        <time>2022-05-02T20:04:55Z</time>
      </trkpt>
      <trkpt lat="43.00501" lon="2.42019">
        <ele>700</ele>
        <time>2022-05-02T20:04:58Z</time>
      </trkpt>
      <trkpt lat="43.00494" lon="2.41994">
        <ele>697</ele>
        <time>2022-05-02T20:05:02Z</time>
      </trkpt>
      <trkpt lat="43.00481" lon="2.41954">
        <ele>693</ele>
        <time>2022-05-02T20:05:08Z</time>
      </trkpt>
      <trkpt lat="43.00477" lon="2.41937">
        <ele>692</ele>
        <time>2022-05-02T20:05:10Z</time>
      </trkpt>
      <trkpt lat="43.00474" lon="2.41915">
        <ele>690</ele>
        <time>2022-05-02T20:05:13Z</time>
      </trkpt>
      <trkpt lat="43.00477" lon="2.41865">
        <ele>686</ele>
        <time>2022-05-02T20:05:19Z</time>
      </trkpt>
      <trkpt lat="43.00484" lon="2.41834">
        <ele>684</ele>
        <time>2022-05-02T20:05:24Z</time>
      </trkpt>
      <trkpt lat="43.00493" lon="2.41803">
        <ele>682</ele>
        <time>2022-05-02T20:05:28Z</time>
      </trkpt>
      <trkpt lat="43.0051" lon="2.41734">
        <ele>675</ele>
        <time>2022-05-02T20:05:37Z</time>
      </trkpt>
      <trkpt lat="43.00514" lon="2.41724">
        <ele>674</ele>
        <time>2022-05-02T20:05:39Z</time>
      </trkpt>
      <trkpt lat="43.00531" lon="2.41702">
        <ele>673</ele>
        <time>2022-05-02T20:05:43Z</time>
      </trkpt>
      <trkpt lat="43.00559" lon="2.41679">
        <ele>673</ele>
        <time>2022-05-02T20:05:49Z</time>
      </trkpt>
      <trkpt lat="43.00573" lon="2.41672">
        <ele>673</ele>
        <time>2022-05-02T20:05:52Z</time>
      </trkpt>
      <trkpt lat="43.00593" lon="2.4167">
        <ele>675</ele>
        <time>2022-05-02T20:05:55Z</time>
      </trkpt>
      <trkpt lat="43.00629" lon="2.41684">
        <ele>682</ele>
        <time>2022-05-02T20:06:02Z</time>
      </trkpt>
      <trkpt lat="43.00641" lon="2.41684">
        <ele>684</ele>
        <time>2022-05-02T20:06:04Z</time>
      </trkpt>
      <trkpt lat="43.00649" lon="2.4168">
        <ele>684</ele>
        <time>2022-05-02T20:06:05Z</time>
      </trkpt>
      <trkpt lat="43.00656" lon="2.41672">
        <ele>683</ele>
        <time>2022-05-02T20:06:07Z</time>
      </trkpt>
      <trkpt lat="43.00663" lon="2.41654">
        <ele>681</ele>
        <time>2022-05-02T20:06:10Z</time>
      </trkpt>
      <trkpt lat="43.00669" lon="2.41632">
        <ele>679</ele>
        <time>2022-05-02T20:06:13Z</time>
      </trkpt>
      <trkpt lat="43.00672" lon="2.41609">
        <ele>677</ele>
        <time>2022-05-02T20:06:16Z</time>
      </trkpt>
      <trkpt lat="43.00671" lon="2.41594">
        <ele>674</ele>
        <time>2022-05-02T20:06:18Z</time>
      </trkpt>
      <trkpt lat="43.00668" lon="2.41568">
        <ele>669</ele>
        <time>2022-05-02T20:06:21Z</time>
      </trkpt>
      <trkpt lat="43.00668" lon="2.41559">
        <ele>668</ele>
        <time>2022-05-02T20:06:22Z</time>
      </trkpt>
      <trkpt lat="43.0067" lon="2.4155">
        <ele>668</ele>
        <time>2022-05-02T20:06:24Z</time>
      </trkpt>
      <trkpt lat="43.00685" lon="2.41524">
        <ele>670</ele>
        <time>2022-05-02T20:06:28Z</time>
      </trkpt>
      <trkpt lat="43.0069" lon="2.41514">
        <ele>670</ele>
        <time>2022-05-02T20:06:29Z</time>
      </trkpt>
      <trkpt lat="43.00693" lon="2.41462">
        <ele>665</ele>
        <time>2022-05-02T20:06:36Z</time>
      </trkpt>
      <trkpt lat="43.00698" lon="2.41444">
        <ele>665</ele>
        <time>2022-05-02T20:06:39Z</time>
      </trkpt>
      <trkpt lat="43.0071" lon="2.41415">
        <ele>665</ele>
        <time>2022-05-02T20:06:43Z</time>
      </trkpt>
      <trkpt lat="43.00736" lon="2.41362">
        <ele>662</ele>
        <time>2022-05-02T20:06:51Z</time>
      </trkpt>
      <trkpt lat="43.00761" lon="2.41321">
        <ele>659</ele>
        <time>2022-05-02T20:06:58Z</time>
      </trkpt>
      <trkpt lat="43.00768" lon="2.41311">
        <ele>658</ele>
        <time>2022-05-02T20:07:00Z</time>
      </trkpt>
      <trkpt lat="43.0078" lon="2.41296">
        <ele>657</ele>
        <time>2022-05-02T20:07:03Z</time>
      </trkpt>
      <trkpt lat="43.00792" lon="2.41284">
        <ele>657</ele>
        <time>2022-05-02T20:07:06Z</time>
      </trkpt>
      <trkpt lat="43.00889" lon="2.41215">
        <ele>653</ele>
        <time>2022-05-02T20:07:25Z</time>
      </trkpt>
      <trkpt lat="43.00907" lon="2.41197">
        <ele>652</ele>
        <time>2022-05-02T20:07:29Z</time>
      </trkpt>
      <trkpt lat="43.00932" lon="2.41158">
        <ele>648</ele>
        <time>2022-05-02T20:07:36Z</time>
      </trkpt>
      <trkpt lat="43.00947" lon="2.41138">
        <ele>648</ele>
        <time>2022-05-02T20:07:40Z</time>
      </trkpt>
      <trkpt lat="43.0096" lon="2.41128">
        <ele>648</ele>
        <time>2022-05-02T20:07:42Z</time>
      </trkpt>
      <trkpt lat="43.00978" lon="2.4112">
        <ele>650</ele>
        <time>2022-05-02T20:07:46Z</time>
      </trkpt>
      <trkpt lat="43.00986" lon="2.41114">
        <ele>650</ele>
        <time>2022-05-02T20:07:47Z</time>
      </trkpt>
      <trkpt lat="43.00991" lon="2.41104">
        <ele>651</ele>
        <time>2022-05-02T20:07:49Z</time>
      </trkpt>
      <trkpt lat="43.00993" lon="2.41095">
        <ele>650</ele>
        <time>2022-05-02T20:07:50Z</time>
      </trkpt>
      <trkpt lat="43.00992" lon="2.41075">
        <ele>649</ele>
        <time>2022-05-02T20:07:53Z</time>
      </trkpt>
      <trkpt lat="43.00984" lon="2.41011">
        <ele>644</ele>
        <time>2022-05-02T20:08:01Z</time>
      </trkpt>
      <trkpt lat="43.00984" lon="2.40993">
        <ele>643</ele>
        <time>2022-05-02T20:08:03Z</time>
      </trkpt>
      <trkpt lat="43.00988" lon="2.40975">
        <ele>642</ele>
        <time>2022-05-02T20:08:06Z</time>
      </trkpt>
      <trkpt lat="43.01" lon="2.40946">
        <ele>639</ele>
        <time>2022-05-02T20:08:10Z</time>
      </trkpt>
      <trkpt lat="43.01011" lon="2.40918">
        <ele>638</ele>
        <time>2022-05-02T20:08:14Z</time>
      </trkpt>
      <trkpt lat="43.01016" lon="2.40907">
        <ele>639</ele>
        <time>2022-05-02T20:08:16Z</time>
      </trkpt>
      <trkpt lat="43.01046" lon="2.40847">
        <ele>638</ele>
        <time>2022-05-02T20:08:26Z</time>
      </trkpt>
      <trkpt lat="43.01091" lon="2.40771">
        <ele>635</ele>
        <time>2022-05-02T20:08:38Z</time>
      </trkpt>
      <trkpt lat="43.01103" lon="2.40743">
        <ele>634</ele>
        <time>2022-05-02T20:08:42Z</time>
      </trkpt>
      <trkpt lat="43.0111" lon="2.40712">
        <ele>632</ele>
        <time>2022-05-02T20:08:47Z</time>
      </trkpt>
      <trkpt lat="43.0111" lon="2.40689">
        <ele>630</ele>
        <time>2022-05-02T20:08:50Z</time>
      </trkpt>
      <trkpt lat="43.01106" lon="2.40647">
        <ele>625</ele>
        <time>2022-05-02T20:08:55Z</time>
      </trkpt>
      <trkpt lat="43.01107" lon="2.40637">
        <ele>624</ele>
        <time>2022-05-02T20:08:57Z</time>
      </trkpt>
      <trkpt lat="43.01114" lon="2.40617">
        <ele>622</ele>
        <time>2022-05-02T20:08:59Z</time>
      </trkpt>
      <trkpt lat="43.01124" lon="2.40602">
        <ele>621</ele>
        <time>2022-05-02T20:09:02Z</time>
      </trkpt>
      <trkpt lat="43.01142" lon="2.40589">
        <ele>620</ele>
        <time>2022-05-02T20:09:06Z</time>
      </trkpt>
      <trkpt lat="43.01155" lon="2.40586">
        <ele>619</ele>
        <time>2022-05-02T20:09:08Z</time>
      </trkpt>
      <trkpt lat="43.01198" lon="2.40581">
        <ele>619</ele>
        <time>2022-05-02T20:09:16Z</time>
      </trkpt>
      <trkpt lat="43.01228" lon="2.4057">
        <ele>618</ele>
        <time>2022-05-02T20:09:21Z</time>
      </trkpt>
      <trkpt lat="43.01262" lon="2.40545">
        <ele>614</ele>
        <time>2022-05-02T20:09:28Z</time>
      </trkpt>
      <trkpt lat="43.0129" lon="2.40519">
        <ele>611</ele>
        <time>2022-05-02T20:09:34Z</time>
      </trkpt>
      <trkpt lat="43.01304" lon="2.40509">
        <ele>609</ele>
        <time>2022-05-02T20:09:37Z</time>
      </trkpt>
      <trkpt lat="43.01319" lon="2.40505">
        <ele>608</ele>
        <time>2022-05-02T20:09:40Z</time>
      </trkpt>
      <trkpt lat="43.0134" lon="2.40505">
        <ele>608</ele>
        <time>2022-05-02T20:09:43Z</time>
      </trkpt>
      <trkpt lat="43.01368" lon="2.40508">
        <ele>608</ele>
        <time>2022-05-02T20:09:48Z</time>
      </trkpt>
      <trkpt lat="43.01388" lon="2.40506">
        <ele>607</ele>
        <time>2022-05-02T20:09:52Z</time>
      </trkpt>
      <trkpt lat="43.01402" lon="2.40503">
        <ele>606</ele>
        <time>2022-05-02T20:09:54Z</time>
      </trkpt>
      <trkpt lat="43.01418" lon="2.40494">
        <ele>604</ele>
        <time>2022-05-02T20:09:58Z</time>
      </trkpt>
      <trkpt lat="43.01482" lon="2.40447">
        <ele>602</ele>
        <time>2022-05-02T20:10:10Z</time>
      </trkpt>
      <trkpt lat="43.01507" lon="2.40437">
        <ele>602</ele>
        <time>2022-05-02T20:10:15Z</time>
      </trkpt>
      <trkpt lat="43.0152" lon="2.40429">
        <ele>603</ele>
        <time>2022-05-02T20:10:18Z</time>
      </trkpt>
      <trkpt lat="43.01531" lon="2.40417">
        <ele>602</ele>
        <time>2022-05-02T20:10:20Z</time>
      </trkpt>
      <trkpt lat="43.01558" lon="2.40377">
        <ele>600</ele>
        <time>2022-05-02T20:10:27Z</time>
      </trkpt>
      <trkpt lat="43.01591" lon="2.40334">
        <ele>599</ele>
        <time>2022-05-02T20:10:35Z</time>
      </trkpt>
      <trkpt lat="43.01596" lon="2.40323">
        <ele>599</ele>
        <time>2022-05-02T20:10:37Z</time>
      </trkpt>
      <trkpt lat="43.01599" lon="2.40308">
        <ele>599</ele>
        <time>2022-05-02T20:10:39Z</time>
      </trkpt>
      <trkpt lat="43.01595" lon="2.40243">
        <ele>593</ele>
        <time>2022-05-02T20:10:48Z</time>
      </trkpt>
      <trkpt lat="43.01595" lon="2.40205">
        <ele>591</ele>
        <time>2022-05-02T20:10:52Z</time>
      </trkpt>
      <trkpt lat="43.01597" lon="2.40179">
        <ele>590</ele>
        <time>2022-05-02T20:10:56Z</time>
      </trkpt>
      <trkpt lat="43.01618" lon="2.40087">
        <ele>588</ele>
        <time>2022-05-02T20:11:08Z</time>
      </trkpt>
      <trkpt lat="43.01633" lon="2.40051">
        <ele>587</ele>
        <time>2022-05-02T20:11:14Z</time>
      </trkpt>
      <trkpt lat="43.01652" lon="2.40016">
        <ele>586</ele>
        <time>2022-05-02T20:11:19Z</time>
      </trkpt>
      <trkpt lat="43.01665" lon="2.39995">
        <ele>585</ele>
        <time>2022-05-02T20:11:23Z</time>
      </trkpt>
      <trkpt lat="43.01706" lon="2.39921">
        <ele>584</ele>
        <time>2022-05-02T20:11:35Z</time>
      </trkpt>
      <trkpt lat="43.01754" lon="2.39841">
        <ele>580</ele>
        <time>2022-05-02T20:11:49Z</time>
      </trkpt>
      <trkpt lat="43.01784" lon="2.39783">
        <ele>581</ele>
        <time>2022-05-02T20:11:58Z</time>
      </trkpt>
      <trkpt lat="43.01849" lon="2.39672">
        <ele>570</ele>
        <time>2022-05-02T20:12:16Z</time>
      </trkpt>
      <trkpt lat="43.01859" lon="2.39648">
        <ele>570</ele>
        <time>2022-05-02T20:12:20Z</time>
      </trkpt>
      <trkpt lat="43.01862" lon="2.39637">
        <ele>570</ele>
        <time>2022-05-02T20:12:21Z</time>
      </trkpt>
      <trkpt lat="43.01862" lon="2.39618">
        <ele>569</ele>
        <time>2022-05-02T20:12:24Z</time>
      </trkpt>
      <trkpt lat="43.01854" lon="2.39573">
        <ele>567</ele>
        <time>2022-05-02T20:12:30Z</time>
      </trkpt>
      <trkpt lat="43.01852" lon="2.39548">
        <ele>565</ele>
        <time>2022-05-02T20:12:33Z</time>
      </trkpt>
      <trkpt lat="43.01854" lon="2.3951">
        <ele>563</ele>
        <time>2022-05-02T20:12:38Z</time>
      </trkpt>
      <trkpt lat="43.01857" lon="2.3949">
        <ele>562</ele>
        <time>2022-05-02T20:12:41Z</time>
      </trkpt>
      <trkpt lat="43.01865" lon="2.39457">
        <ele>561</ele>
        <time>2022-05-02T20:12:45Z</time>
      </trkpt>
      <trkpt lat="43.01879" lon="2.3942">
        <ele>559</ele>
        <time>2022-05-02T20:12:51Z</time>
      </trkpt>
      <trkpt lat="43.0189" lon="2.39395">
        <ele>558</ele>
        <time>2022-05-02T20:12:55Z</time>
      </trkpt>
      <trkpt lat="43.01909" lon="2.39364">
        <ele>556</ele>
        <time>2022-05-02T20:13:00Z</time>
      </trkpt>
      <trkpt lat="43.01916" lon="2.39359">
        <ele>555</ele>
        <time>2022-05-02T20:13:01Z</time>
      </trkpt>
      <trkpt lat="43.0195" lon="2.3931">
        <ele>555</ele>
        <time>2022-05-02T20:13:10Z</time>
      </trkpt>
      <trkpt lat="43.01961" lon="2.39287">
        <ele>554</ele>
        <time>2022-05-02T20:13:14Z</time>
      </trkpt>
      <trkpt lat="43.01965" lon="2.39276">
        <ele>553</ele>
        <time>2022-05-02T20:13:15Z</time>
      </trkpt>
      <trkpt lat="43.0197" lon="2.39262">
        <ele>552</ele>
        <time>2022-05-02T20:13:17Z</time>
      </trkpt>
      <trkpt lat="43.01973" lon="2.39255">
        <ele>551</ele>
        <time>2022-05-02T20:13:18Z</time>
      </trkpt>
      <trkpt lat="43.01975" lon="2.39249">
        <ele>550</ele>
        <time>2022-05-02T20:13:19Z</time>
      </trkpt>
      <trkpt lat="43.01995" lon="2.39187">
        <ele>547</ele>
        <time>2022-05-02T20:13:28Z</time>
      </trkpt>
      <trkpt lat="43.01999" lon="2.3918">
        <ele>547</ele>
        <time>2022-05-02T20:13:29Z</time>
      </trkpt>
      <trkpt lat="43.02007" lon="2.39182">
        <ele>546</ele>
        <time>2022-05-02T20:13:31Z</time>
      </trkpt>
      <trkpt lat="43.02009" lon="2.39189">
        <ele>546</ele>
        <time>2022-05-02T20:13:32Z</time>
      </trkpt>
      <trkpt lat="43.02023" lon="2.3921">
        <ele>546</ele>
        <time>2022-05-02T20:13:35Z</time>
      </trkpt>
      <trkpt lat="43.02009" lon="2.39189">
        <ele>546</ele>
        <time>2022-05-02T20:13:39Z</time>
      </trkpt>
      <trkpt lat="43.02007" lon="2.39182">
        <ele>546</ele>
        <time>2022-05-02T20:13:40Z</time>
      </trkpt>
      <trkpt lat="43.02024" lon="2.39182">
        <ele>545</ele>
        <time>2022-05-02T20:13:43Z</time>
      </trkpt>
      <trkpt lat="43.02039" lon="2.39188">
        <ele>544</ele>
        <time>2022-05-02T20:13:46Z</time>
      </trkpt>
      <trkpt lat="43.02046" lon="2.39196">
        <ele>545</ele>
        <time>2022-05-02T20:13:47Z</time>
      </trkpt>
      <trkpt lat="43.02051" lon="2.39207">
        <ele>545</ele>
        <time>2022-05-02T20:13:49Z</time>
      </trkpt>
      <trkpt lat="43.02053" lon="2.3921">
        <ele>545</ele>
        <time>2022-05-02T20:13:50Z</time>
      </trkpt>
      <trkpt lat="43.02065" lon="2.39304">
        <ele>554</ele>
        <time>2022-05-02T20:14:02Z</time>
      </trkpt>
      <trkpt lat="43.02069" lon="2.39316">
        <ele>556</ele>
        <time>2022-05-02T20:14:04Z</time>
      </trkpt>
      <trkpt lat="43.02075" lon="2.39325">
        <ele>556</ele>
        <time>2022-05-02T20:14:05Z</time>
      </trkpt>
      <trkpt lat="43.02092" lon="2.39332">
        <ele>556</ele>
        <time>2022-05-02T20:14:08Z</time>
      </trkpt>
      <trkpt lat="43.02112" lon="2.39334">
        <ele>556</ele>
        <time>2022-05-02T20:14:12Z</time>
      </trkpt>
      <trkpt lat="43.02118" lon="2.39338">
        <ele>556</ele>
        <time>2022-05-02T20:14:13Z</time>
      </trkpt>
      <trkpt lat="43.02156" lon="2.39396">
        <ele>561</ele>
        <time>2022-05-02T20:14:23Z</time>
      </trkpt>
      <trkpt lat="43.02162" lon="2.39417">
        <ele>563</ele>
        <time>2022-05-02T20:14:26Z</time>
      </trkpt>
      <trkpt lat="43.02171" lon="2.39537">
        <ele>578</ele>
        <time>2022-05-02T20:14:42Z</time>
      </trkpt>
      <trkpt lat="43.02176" lon="2.39559">
        <ele>581</ele>
        <time>2022-05-02T20:14:45Z</time>
      </trkpt>
      <trkpt lat="43.02209" lon="2.39666">
        <ele>594</ele>
        <time>2022-05-02T20:15:00Z</time>
      </trkpt>
      <trkpt lat="43.02236" lon="2.39736">
        <ele>598</ele>
        <time>2022-05-02T20:15:10Z</time>
      </trkpt>
      <trkpt lat="43.0225" lon="2.39767">
        <ele>599</ele>
        <time>2022-05-02T20:15:15Z</time>
      </trkpt>
      <trkpt lat="43.02253" lon="2.39771">
        <ele>601</ele>
        <time>2022-05-02T20:15:16Z</time>
      </trkpt>
      <trkpt lat="43.0226" lon="2.39775">
        <ele>603</ele>
        <time>2022-05-02T20:15:17Z</time>
      </trkpt>
      <trkpt lat="43.02267" lon="2.39774">
        <ele>604</ele>
        <time>2022-05-02T20:15:18Z</time>
      </trkpt>
      <trkpt lat="43.02274" lon="2.3977">
        <ele>605</ele>
        <time>2022-05-02T20:15:20Z</time>
      </trkpt>
      <trkpt lat="43.02279" lon="2.39761">
        <ele>605</ele>
        <time>2022-05-02T20:15:21Z</time>
      </trkpt>
      <trkpt lat="43.02286" lon="2.39726">
        <ele>605</ele>
        <time>2022-05-02T20:15:26Z</time>
      </trkpt>
      <trkpt lat="43.02291" lon="2.39717">
        <ele>606</ele>
        <time>2022-05-02T20:15:27Z</time>
      </trkpt>
      <trkpt lat="43.023" lon="2.39716">
        <ele>608</ele>
        <time>2022-05-02T20:15:29Z</time>
      </trkpt>
      <trkpt lat="43.02309" lon="2.39725">
        <ele>610</ele>
        <time>2022-05-02T20:15:31Z</time>
      </trkpt>
      <trkpt lat="43.02311" lon="2.39736">
        <ele>611</ele>
        <time>2022-05-02T20:15:32Z</time>
      </trkpt>
      <trkpt lat="43.0231" lon="2.39754">
        <ele>611</ele>
        <time>2022-05-02T20:15:35Z</time>
      </trkpt>
      <trkpt lat="43.02289" lon="2.39882">
        <ele>616</ele>
        <time>2022-05-02T20:15:52Z</time>
      </trkpt>
      <trkpt lat="43.0229" lon="2.39932">
        <ele>615</ele>
        <time>2022-05-02T20:15:58Z</time>
      </trkpt>
      <trkpt lat="43.02295" lon="2.39948">
        <ele>613</ele>
        <time>2022-05-02T20:16:01Z</time>
      </trkpt>
      <trkpt lat="43.023" lon="2.39958">
        <ele>612</ele>
        <time>2022-05-02T20:16:02Z</time>
      </trkpt>
      <trkpt lat="43.02329" lon="2.39977">
        <ele>609</ele>
        <time>2022-05-02T20:16:08Z</time>
      </trkpt>
      <trkpt lat="43.0234" lon="2.39989">
        <ele>608</ele>
        <time>2022-05-02T20:16:10Z</time>
      </trkpt>
      <trkpt lat="43.02352" lon="2.40008">
        <ele>605</ele>
        <time>2022-05-02T20:16:14Z</time>
      </trkpt>
      <trkpt lat="43.02378" lon="2.40064">
        <ele>596</ele>
        <time>2022-05-02T20:16:22Z</time>
      </trkpt>
      <trkpt lat="43.02395" lon="2.40094">
        <ele>594</ele>
        <time>2022-05-02T20:16:27Z</time>
      </trkpt>
      <trkpt lat="43.02399" lon="2.40109">
        <ele>594</ele>
        <time>2022-05-02T20:16:29Z</time>
      </trkpt>
      <trkpt lat="43.02399" lon="2.40124">
        <ele>592</ele>
        <time>2022-05-02T20:16:31Z</time>
      </trkpt>
      <trkpt lat="43.02393" lon="2.40159">
        <ele>587</ele>
        <time>2022-05-02T20:16:36Z</time>
      </trkpt>
      <trkpt lat="43.02395" lon="2.40208">
        <ele>583</ele>
        <time>2022-05-02T20:16:42Z</time>
      </trkpt>
      <trkpt lat="43.02398" lon="2.4022">
        <ele>583</ele>
        <time>2022-05-02T20:16:44Z</time>
      </trkpt>
      <trkpt lat="43.02418" lon="2.40268">
        <ele>582</ele>
        <time>2022-05-02T20:16:51Z</time>
      </trkpt>
      <trkpt lat="43.02429" lon="2.40329">
        <ele>576</ele>
        <time>2022-05-02T20:16:59Z</time>
      </trkpt>
      <trkpt lat="43.02432" lon="2.40337">
        <ele>575</ele>
        <time>2022-05-02T20:17:01Z</time>
      </trkpt>
      <trkpt lat="43.02436" lon="2.40342">
        <ele>576</ele>
        <time>2022-05-02T20:17:02Z</time>
      </trkpt>
      <trkpt lat="43.02453" lon="2.40351">
        <ele>580</ele>
        <time>2022-05-02T20:17:05Z</time>
      </trkpt>
      <trkpt lat="43.0246" lon="2.4036">
        <ele>581</ele>
        <time>2022-05-02T20:17:06Z</time>
      </trkpt>
      <trkpt lat="43.02474" lon="2.40386">
        <ele>581</ele>
        <time>2022-05-02T20:17:11Z</time>
      </trkpt>
      <trkpt lat="43.02483" lon="2.40419">
        <ele>580</ele>
        <time>2022-05-02T20:17:15Z</time>
      </trkpt>
      <trkpt lat="43.02486" lon="2.40457">
        <ele>578</ele>
        <time>2022-05-02T20:17:20Z</time>
      </trkpt>
      <trkpt lat="43.02484" lon="2.40514">
        <ele>573</ele>
        <time>2022-05-02T20:17:28Z</time>
      </trkpt>
      <trkpt lat="43.02492" lon="2.40561">
        <ele>572</ele>
        <time>2022-05-02T20:17:34Z</time>
      </trkpt>
      <trkpt lat="43.02506" lon="2.40604">
        <ele>572</ele>
        <time>2022-05-02T20:17:40Z</time>
      </trkpt>
      <trkpt lat="43.02534" lon="2.40678">
        <ele>573</ele>
        <time>2022-05-02T20:17:51Z</time>
      </trkpt>
      <trkpt lat="43.02549" lon="2.40703">
        <ele>575</ele>
        <time>2022-05-02T20:17:55Z</time>
      </trkpt>
      <trkpt lat="43.02554" lon="2.40719">
        <ele>575</ele>
        <time>2022-05-02T20:17:57Z</time>
      </trkpt>
      <trkpt lat="43.02559" lon="2.40761">
        <ele>569</ele>
        <time>2022-05-02T20:18:03Z</time>
      </trkpt>
      <trkpt lat="43.02583" lon="2.40855">
        <ele>560</ele>
        <time>2022-05-02T20:18:16Z</time>
      </trkpt>
      <trkpt lat="43.02596" lon="2.40864">
        <ele>556</ele>
        <time>2022-05-02T20:18:18Z</time>
      </trkpt>
      <trkpt lat="43.02603" lon="2.40863">
        <ele>554</ele>
        <time>2022-05-02T20:18:20Z</time>
      </trkpt>
      <trkpt lat="43.02611" lon="2.40857">
        <ele>555</ele>
        <time>2022-05-02T20:18:21Z</time>
      </trkpt>
      <trkpt lat="43.02638" lon="2.40814">
        <ele>563</ele>
        <time>2022-05-02T20:18:29Z</time>
      </trkpt>
      <trkpt lat="43.02652" lon="2.40798">
        <ele>567</ele>
        <time>2022-05-02T20:18:32Z</time>
      </trkpt>
      <trkpt lat="43.02664" lon="2.40793">
        <ele>568</ele>
        <time>2022-05-02T20:18:34Z</time>
      </trkpt>
      <trkpt lat="43.02675" lon="2.40798">
        <ele>565</ele>
        <time>2022-05-02T20:18:36Z</time>
      </trkpt>
      <trkpt lat="43.02702" lon="2.40833">
        <ele>551</ele>
        <time>2022-05-02T20:18:43Z</time>
      </trkpt>
      <trkpt lat="43.02716" lon="2.40838">
        <ele>547</ele>
        <time>2022-05-02T20:18:45Z</time>
      </trkpt>
      <trkpt lat="43.02734" lon="2.40838">
        <ele>546</ele>
        <time>2022-05-02T20:18:49Z</time>
      </trkpt>
      <trkpt lat="43.02767" lon="2.4083">
        <ele>548</ele>
        <time>2022-05-02T20:18:55Z</time>
      </trkpt>
      <trkpt lat="43.02784" lon="2.40819">
        <ele>552</ele>
        <time>2022-05-02T20:18:58Z</time>
      </trkpt>
      <trkpt lat="43.02801" lon="2.408">
        <ele>559</ele>
        <time>2022-05-02T20:19:02Z</time>
      </trkpt>
      <trkpt lat="43.02817" lon="2.40797">
        <ele>560</ele>
        <time>2022-05-02T20:19:05Z</time>
      </trkpt>
      <trkpt lat="43.0283" lon="2.40803">
        <ele>557</ele>
        <time>2022-05-02T20:19:07Z</time>
      </trkpt>
      <trkpt lat="43.02841" lon="2.40816">
        <ele>550</ele>
        <time>2022-05-02T20:19:10Z</time>
      </trkpt>
      <trkpt lat="43.02858" lon="2.40847">
        <ele>535</ele>
        <time>2022-05-02T20:19:15Z</time>
      </trkpt>
      <trkpt lat="43.02866" lon="2.40856">
        <ele>531</ele>
        <time>2022-05-02T20:19:17Z</time>
      </trkpt>
      <trkpt lat="43.02876" lon="2.40863">
        <ele>527</ele>
        <time>2022-05-02T20:19:19Z</time>
      </trkpt>
      <trkpt lat="43.02888" lon="2.40861">
        <ele>528</ele>
        <time>2022-05-02T20:19:21Z</time>
      </trkpt>
      <trkpt lat="43.02912" lon="2.40822">
        <ele>538</ele>
        <time>2022-05-02T20:19:27Z</time>
      </trkpt>
      <trkpt lat="43.02934" lon="2.40759">
        <ele>548</ele>
        <time>2022-05-02T20:19:36Z</time>
      </trkpt>
      <trkpt lat="43.02938" lon="2.4073">
        <ele>555</ele>
        <time>2022-05-02T20:19:40Z</time>
      </trkpt>
      <trkpt lat="43.02943" lon="2.40713">
        <ele>559</ele>
        <time>2022-05-02T20:19:43Z</time>
      </trkpt>
      <trkpt lat="43.02951" lon="2.40704">
        <ele>559</ele>
        <time>2022-05-02T20:19:45Z</time>
      </trkpt>
      <trkpt lat="43.02961" lon="2.40706">
        <ele>556</ele>
        <time>2022-05-02T20:19:46Z</time>
      </trkpt>
      <trkpt lat="43.02973" lon="2.4072">
        <ele>549</ele>
        <time>2022-05-02T20:19:49Z</time>
      </trkpt>
      <trkpt lat="43.03031" lon="2.40801">
        <ele>523</ele>
        <time>2022-05-02T20:20:04Z</time>
      </trkpt>
      <trkpt lat="43.03045" lon="2.40809">
        <ele>522</ele>
        <time>2022-05-02T20:20:07Z</time>
      </trkpt>
      <trkpt lat="43.03056" lon="2.40822">
        <ele>521</ele>
        <time>2022-05-02T20:20:09Z</time>
      </trkpt>
      <trkpt lat="43.03059" lon="2.40836">
        <ele>519</ele>
        <time>2022-05-02T20:20:11Z</time>
      </trkpt>
      <trkpt lat="43.03051" lon="2.40841">
        <ele>518</ele>
        <time>2022-05-02T20:20:13Z</time>
      </trkpt>
      <trkpt lat="43.03038" lon="2.4084">
        <ele>518</ele>
        <time>2022-05-02T20:20:15Z</time>
      </trkpt>
      <trkpt lat="43.03033" lon="2.40836">
        <ele>518</ele>
        <time>2022-05-02T20:20:16Z</time>
      </trkpt>
      <trkpt lat="43.03014" lon="2.40795">
        <ele>524</ele>
        <time>2022-05-02T20:20:22Z</time>
      </trkpt>
      <trkpt lat="43.03002" lon="2.40781">
        <ele>527</ele>
        <time>2022-05-02T20:20:25Z</time>
      </trkpt>
      <trkpt lat="43.0297" lon="2.40737">
        <ele>545</ele>
        <time>2022-05-02T20:20:33Z</time>
      </trkpt>
      <trkpt lat="43.0296" lon="2.40731">
        <ele>549</ele>
        <time>2022-05-02T20:20:35Z</time>
      </trkpt>
      <trkpt lat="43.02955" lon="2.40734">
        <ele>550</ele>
        <time>2022-05-02T20:20:36Z</time>
      </trkpt>
      <trkpt lat="43.0295" lon="2.40741">
        <ele>549</ele>
        <time>2022-05-02T20:20:37Z</time>
      </trkpt>
      <trkpt lat="43.02943" lon="2.40792">
        <ele>538</ele>
        <time>2022-05-02T20:20:44Z</time>
      </trkpt>
      <trkpt lat="43.02916" lon="2.40879">
        <ele>521</ele>
        <time>2022-05-02T20:20:56Z</time>
      </trkpt>
      <trkpt lat="43.02908" lon="2.409">
        <ele>515</ele>
        <time>2022-05-02T20:21:00Z</time>
      </trkpt>
      <trkpt lat="43.02898" lon="2.40919">
        <ele>508</ele>
        <time>2022-05-02T20:21:03Z</time>
      </trkpt>
      <trkpt lat="43.0289" lon="2.40925">
        <ele>506</ele>
        <time>2022-05-02T20:21:04Z</time>
      </trkpt>
      <trkpt lat="43.02883" lon="2.40925">
        <ele>505</ele>
        <time>2022-05-02T20:21:05Z</time>
      </trkpt>
      <trkpt lat="43.02874" lon="2.40922">
        <ele>505</ele>
        <time>2022-05-02T20:21:07Z</time>
      </trkpt>
      <trkpt lat="43.02855" lon="2.40906">
        <ele>509</ele>
        <time>2022-05-02T20:21:11Z</time>
      </trkpt>
      <trkpt lat="43.02828" lon="2.40874">
        <ele>524</ele>
        <time>2022-05-02T20:21:17Z</time>
      </trkpt>
      <trkpt lat="43.02821" lon="2.4087">
        <ele>526</ele>
        <time>2022-05-02T20:21:19Z</time>
      </trkpt>
      <trkpt lat="43.02815" lon="2.4087">
        <ele>526</ele>
        <time>2022-05-02T20:21:20Z</time>
      </trkpt>
      <trkpt lat="43.02805" lon="2.40881">
        <ele>521</ele>
        <time>2022-05-02T20:21:22Z</time>
      </trkpt>
      <trkpt lat="43.02793" lon="2.40889">
        <ele>518</ele>
        <time>2022-05-02T20:21:24Z</time>
      </trkpt>
      <trkpt lat="43.02744" lon="2.40907">
        <ele>512</ele>
        <time>2022-05-02T20:21:33Z</time>
      </trkpt>
      <trkpt lat="43.0271" lon="2.40931">
        <ele>509</ele>
        <time>2022-05-02T20:21:40Z</time>
      </trkpt>
      <trkpt lat="43.02698" lon="2.40933">
        <ele>510</ele>
        <time>2022-05-02T20:21:42Z</time>
      </trkpt>
      <trkpt lat="43.0268" lon="2.40928">
        <ele>514</ele>
        <time>2022-05-02T20:21:46Z</time>
      </trkpt>
      <trkpt lat="43.02669" lon="2.40928">
        <ele>516</ele>
        <time>2022-05-02T20:21:48Z</time>
      </trkpt>
      <trkpt lat="43.0265" lon="2.40935">
        <ele>519</ele>
        <time>2022-05-02T20:21:51Z</time>
      </trkpt>
      <trkpt lat="43.02639" lon="2.40944">
        <ele>520</ele>
        <time>2022-05-02T20:21:53Z</time>
      </trkpt>
      <trkpt lat="43.02627" lon="2.40958">
        <ele>519</ele>
        <time>2022-05-02T20:21:56Z</time>
      </trkpt>
      <trkpt lat="43.02616" lon="2.40981">
        <ele>515</ele>
        <time>2022-05-02T20:22:00Z</time>
      </trkpt>
      <trkpt lat="43.02607" lon="2.41007">
        <ele>512</ele>
        <time>2022-05-02T20:22:04Z</time>
      </trkpt>
      <trkpt lat="43.02602" lon="2.41046">
        <ele>510</ele>
        <time>2022-05-02T20:22:09Z</time>
      </trkpt>
      <trkpt lat="43.02601" lon="2.41057">
        <ele>510</ele>
        <time>2022-05-02T20:22:10Z</time>
      </trkpt>
      <trkpt lat="43.02608" lon="2.4107">
        <ele>508</ele>
        <time>2022-05-02T20:22:12Z</time>
      </trkpt>
      <trkpt lat="43.02629" lon="2.41078">
        <ele>504</ele>
        <time>2022-05-02T20:22:16Z</time>
      </trkpt>
      <trkpt lat="43.02642" lon="2.41076">
        <ele>502</ele>
        <time>2022-05-02T20:22:18Z</time>
      </trkpt>
      <trkpt lat="43.02662" lon="2.41067">
        <ele>499</ele>
        <time>2022-05-02T20:22:22Z</time>
      </trkpt>
      <trkpt lat="43.02702" lon="2.41029">
        <ele>494</ele>
        <time>2022-05-02T20:22:31Z</time>
      </trkpt>
      <trkpt lat="43.02735" lon="2.41015">
        <ele>490</ele>
        <time>2022-05-02T20:22:37Z</time>
      </trkpt>
      <trkpt lat="43.02754" lon="2.41009">
        <ele>487</ele>
        <time>2022-05-02T20:22:41Z</time>
      </trkpt>
      <trkpt lat="43.02771" lon="2.41008">
        <ele>485</ele>
        <time>2022-05-02T20:22:44Z</time>
      </trkpt>
      <trkpt lat="43.02784" lon="2.4101">
        <ele>484</ele>
        <time>2022-05-02T20:22:46Z</time>
      </trkpt>
      <trkpt lat="43.02795" lon="2.41016">
        <ele>484</ele>
        <time>2022-05-02T20:22:48Z</time>
      </trkpt>
      <trkpt lat="43.02806" lon="2.41024">
        <ele>483</ele>
        <time>2022-05-02T20:22:50Z</time>
      </trkpt>
      <trkpt lat="43.02849" lon="2.41075">
        <ele>479</ele>
        <time>2022-05-02T20:23:00Z</time>
      </trkpt>
      <trkpt lat="43.02883" lon="2.41123">
        <ele>476</ele>
        <time>2022-05-02T20:23:09Z</time>
      </trkpt>
      <trkpt lat="43.0291" lon="2.41169">
        <ele>466</ele>
        <time>2022-05-02T20:23:17Z</time>
      </trkpt>
      <trkpt lat="43.02927" lon="2.41224">
        <ele>467</ele>
        <time>2022-05-02T20:23:24Z</time>
      </trkpt>
      <trkpt lat="43.02945" lon="2.41293">
        <ele>467</ele>
        <time>2022-05-02T20:23:34Z</time>
      </trkpt>
      <trkpt lat="43.02958" lon="2.41335">
        <ele>464</ele>
        <time>2022-05-02T20:23:40Z</time>
      </trkpt>
      <trkpt lat="43.02986" lon="2.41406">
        <ele>454</ele>
        <time>2022-05-02T20:23:50Z</time>
      </trkpt>
      <trkpt lat="43.03023" lon="2.41536">
        <ele>439</ele>
        <time>2022-05-02T20:24:09Z</time>
      </trkpt>
      <trkpt lat="43.03031" lon="2.41558">
        <ele>435</ele>
        <time>2022-05-02T20:24:12Z</time>
      </trkpt>
      <trkpt lat="43.03049" lon="2.41559">
        <ele>433</ele>
        <time>2022-05-02T20:24:15Z</time>
      </trkpt>
      <trkpt lat="43.03075" lon="2.4156">
        <ele>431</ele>
        <time>2022-05-02T20:24:20Z</time>
      </trkpt>
      <trkpt lat="43.03089" lon="2.41552">
        <ele>431</ele>
        <time>2022-05-02T20:24:22Z</time>
      </trkpt>
      <trkpt lat="43.03108" lon="2.41536">
        <ele>433</ele>
        <time>2022-05-02T20:24:26Z</time>
      </trkpt>
      <trkpt lat="43.03216" lon="2.41487">
        <ele>438</ele>
        <time>2022-05-02T20:24:46Z</time>
      </trkpt>
      <trkpt lat="43.03321" lon="2.41462">
        <ele>439</ele>
        <time>2022-05-02T20:25:05Z</time>
      </trkpt>
      <trkpt lat="43.03341" lon="2.41459">
        <ele>438</ele>
        <time>2022-05-02T20:25:09Z</time>
      </trkpt>
      <trkpt lat="43.03358" lon="2.41461">
        <ele>437</ele>
        <time>2022-05-02T20:25:12Z</time>
      </trkpt>
      <trkpt lat="43.03371" lon="2.41465">
        <ele>436</ele>
        <time>2022-05-02T20:25:14Z</time>
      </trkpt>
      <trkpt lat="43.0343" lon="2.41497">
        <ele>423</ele>
        <time>2022-05-02T20:25:26Z</time>
      </trkpt>
      <trkpt lat="43.0344" lon="2.415">
        <ele>422</ele>
        <time>2022-05-02T20:25:28Z</time>
      </trkpt>
      <trkpt lat="43.03492" lon="2.41502">
        <ele>422</ele>
        <time>2022-05-02T20:25:37Z</time>
      </trkpt>
      <trkpt lat="43.0351" lon="2.41507">
        <ele>422</ele>
        <time>2022-05-02T20:25:40Z</time>
      </trkpt>
      <trkpt lat="43.03552" lon="2.41523">
        <ele>422</ele>
        <time>2022-05-02T20:25:48Z</time>
      </trkpt>
      <trkpt lat="43.03564" lon="2.41529">
        <ele>421</ele>
        <time>2022-05-02T20:25:50Z</time>
      </trkpt>
      <trkpt lat="43.0357" lon="2.41534">
        <ele>420</ele>
        <time>2022-05-02T20:25:51Z</time>
      </trkpt>
      <trkpt lat="43.03589" lon="2.41561">
        <ele>416</ele>
        <time>2022-05-02T20:25:56Z</time>
      </trkpt>
      <trkpt lat="43.03595" lon="2.41567">
        <ele>415</ele>
        <time>2022-05-02T20:25:58Z</time>
      </trkpt>
      <trkpt lat="43.03607" lon="2.41569">
        <ele>414</ele>
        <time>2022-05-02T20:26:00Z</time>
      </trkpt>
      <trkpt lat="43.03641" lon="2.41566">
        <ele>414</ele>
        <time>2022-05-02T20:26:06Z</time>
      </trkpt>
      <trkpt lat="43.03669" lon="2.41567">
        <ele>414</ele>
        <time>2022-05-02T20:26:11Z</time>
      </trkpt>
      <trkpt lat="43.03685" lon="2.41574">
        <ele>416</ele>
        <time>2022-05-02T20:26:14Z</time>
      </trkpt>
      <trkpt lat="43.03702" lon="2.41588">
        <ele>417</ele>
        <time>2022-05-02T20:26:17Z</time>
      </trkpt>
      <trkpt lat="43.03713" lon="2.41602">
        <ele>418</ele>
        <time>2022-05-02T20:26:20Z</time>
      </trkpt>
      <trkpt lat="43.03723" lon="2.41641">
        <ele>415</ele>
        <time>2022-05-02T20:26:25Z</time>
      </trkpt>
      <trkpt lat="43.03725" lon="2.41659">
        <ele>414</ele>
        <time>2022-05-02T20:26:28Z</time>
      </trkpt>
      <trkpt lat="43.03725" lon="2.41669">
        <ele>412</ele>
        <time>2022-05-02T20:26:29Z</time>
      </trkpt>
      <trkpt lat="43.03724" lon="2.41683">
        <ele>412</ele>
        <time>2022-05-02T20:26:31Z</time>
      </trkpt>
      <trkpt lat="43.03713" lon="2.41736">
        <ele>409</ele>
        <time>2022-05-02T20:26:38Z</time>
      </trkpt>
      <trkpt lat="43.037" lon="2.41775">
        <ele>408</ele>
        <time>2022-05-02T20:26:44Z</time>
      </trkpt>
      <trkpt lat="43.03698" lon="2.41785">
        <ele>407</ele>
        <time>2022-05-02T20:26:45Z</time>
      </trkpt>
      <trkpt lat="43.03699" lon="2.41798">
        <ele>407</ele>
        <time>2022-05-02T20:26:47Z</time>
      </trkpt>
      <trkpt lat="43.03711" lon="2.41859">
        <ele>403</ele>
        <time>2022-05-02T20:26:55Z</time>
      </trkpt>
      <trkpt lat="43.03715" lon="2.41872">
        <ele>402</ele>
        <time>2022-05-02T20:26:57Z</time>
      </trkpt>
      <trkpt lat="43.0372" lon="2.41879">
        <ele>401</ele>
        <time>2022-05-02T20:26:58Z</time>
      </trkpt>
      <trkpt lat="43.03726" lon="2.41884">
        <ele>400</ele>
        <time>2022-05-02T20:26:59Z</time>
      </trkpt>
      <trkpt lat="43.03732" lon="2.41888">
        <ele>399</ele>
        <time>2022-05-02T20:27:00Z</time>
      </trkpt>
      <trkpt lat="43.038" lon="2.41883">
        <ele>394</ele>
        <time>2022-05-02T20:27:12Z</time>
      </trkpt>
      <trkpt lat="43.03807" lon="2.41879">
        <ele>394</ele>
        <time>2022-05-02T20:27:14Z</time>
      </trkpt>
      <trkpt lat="43.03814" lon="2.41866">
        <ele>394</ele>
        <time>2022-05-02T20:27:16Z</time>
      </trkpt>
      <trkpt lat="43.03817" lon="2.41857">
        <ele>394</ele>
        <time>2022-05-02T20:27:17Z</time>
      </trkpt>
      <trkpt lat="43.03819" lon="2.41827">
        <ele>395</ele>
        <time>2022-05-02T20:27:21Z</time>
      </trkpt>
      <trkpt lat="43.03825" lon="2.41804">
        <ele>398</ele>
        <time>2022-05-02T20:27:24Z</time>
      </trkpt>
      <trkpt lat="43.03833" lon="2.41793">
        <ele>399</ele>
        <time>2022-05-02T20:27:26Z</time>
      </trkpt>
      <trkpt lat="43.0384" lon="2.41786">
        <ele>400</ele>
        <time>2022-05-02T20:27:28Z</time>
      </trkpt>
      <trkpt lat="43.03851" lon="2.41781">
        <ele>402</ele>
        <time>2022-05-02T20:27:30Z</time>
      </trkpt>
      <trkpt lat="43.03862" lon="2.41781">
        <ele>402</ele>
        <time>2022-05-02T20:27:32Z</time>
      </trkpt>
      <trkpt lat="43.03875" lon="2.41792">
        <ele>401</ele>
        <time>2022-05-02T20:27:35Z</time>
      </trkpt>
      <trkpt lat="43.03895" lon="2.41809">
        <ele>401</ele>
        <time>2022-05-02T20:27:39Z</time>
      </trkpt>
      <trkpt lat="43.03918" lon="2.41834">
        <ele>400</ele>
        <time>2022-05-02T20:27:44Z</time>
      </trkpt>
      <trkpt lat="43.03928" lon="2.41857">
        <ele>402</ele>
        <time>2022-05-02T20:27:48Z</time>
      </trkpt>
      <trkpt lat="43.03932" lon="2.41876">
        <ele>402</ele>
        <time>2022-05-02T20:27:50Z</time>
      </trkpt>
      <trkpt lat="43.03933" lon="2.4189">
        <ele>401</ele>
        <time>2022-05-02T20:27:52Z</time>
      </trkpt>
      <trkpt lat="43.0392" lon="2.4196">
        <ele>394</ele>
        <time>2022-05-02T20:28:01Z</time>
      </trkpt>
      <trkpt lat="43.03918" lon="2.41973">
        <ele>393</ele>
        <time>2022-05-02T20:28:03Z</time>
      </trkpt>
      <trkpt lat="43.03918" lon="2.41983">
        <ele>393</ele>
        <time>2022-05-02T20:28:04Z</time>
      </trkpt>
      <trkpt lat="43.03923" lon="2.41996">
        <ele>393</ele>
        <time>2022-05-02T20:28:06Z</time>
      </trkpt>
      <trkpt lat="43.0393" lon="2.42005">
        <ele>394</ele>
        <time>2022-05-02T20:28:08Z</time>
      </trkpt>
      <trkpt lat="43.03947" lon="2.42017">
        <ele>395</ele>
        <time>2022-05-02T20:28:11Z</time>
      </trkpt>
      <trkpt lat="43.0398" lon="2.42034">
        <ele>395</ele>
        <time>2022-05-02T20:28:18Z</time>
      </trkpt>
      <trkpt lat="43.03998" lon="2.42038">
        <ele>393</ele>
        <time>2022-05-02T20:28:21Z</time>
      </trkpt>
      <trkpt lat="43.04075" lon="2.42044">
        <ele>388</ele>
        <time>2022-05-02T20:28:35Z</time>
      </trkpt>
      <trkpt lat="43.04089" lon="2.42041">
        <ele>388</ele>
        <time>2022-05-02T20:28:37Z</time>
      </trkpt>
      <trkpt lat="43.04111" lon="2.42027">
        <ele>387</ele>
        <time>2022-05-02T20:28:41Z</time>
      </trkpt>
      <trkpt lat="43.0418" lon="2.41997">
        <ele>382</ele>
        <time>2022-05-02T20:28:54Z</time>
      </trkpt>
      <trkpt lat="43.04215" lon="2.41989">
        <ele>383</ele>
        <time>2022-05-02T20:29:01Z</time>
      </trkpt>
      <trkpt lat="43.04225" lon="2.4199">
        <ele>383</ele>
        <time>2022-05-02T20:29:02Z</time>
      </trkpt>
      <trkpt lat="43.04241" lon="2.41995">
        <ele>381</ele>
        <time>2022-05-02T20:29:05Z</time>
      </trkpt>
      <trkpt lat="43.04265" lon="2.42008">
        <ele>381</ele>
        <time>2022-05-02T20:29:10Z</time>
      </trkpt>
      <trkpt lat="43.04285" lon="2.42012">
        <ele>381</ele>
        <time>2022-05-02T20:29:14Z</time>
      </trkpt>
      <trkpt lat="43.04317" lon="2.42014">
        <ele>382</ele>
        <time>2022-05-02T20:29:19Z</time>
      </trkpt>
      <trkpt lat="43.04347" lon="2.42008">
        <ele>382</ele>
        <time>2022-05-02T20:29:25Z</time>
      </trkpt>
      <trkpt lat="43.04386" lon="2.42011">
        <ele>381</ele>
        <time>2022-05-02T20:29:32Z</time>
      </trkpt>
      <trkpt lat="43.04406" lon="2.42019">
        <ele>380</ele>
        <time>2022-05-02T20:29:35Z</time>
      </trkpt>
      <trkpt lat="43.04448" lon="2.42039">
        <ele>381</ele>
        <time>2022-05-02T20:29:43Z</time>
      </trkpt>
      <trkpt lat="43.04461" lon="2.42047">
        <ele>381</ele>
        <time>2022-05-02T20:29:46Z</time>
      </trkpt>
      <trkpt lat="43.04471" lon="2.42056">
        <ele>380</ele>
        <time>2022-05-02T20:29:48Z</time>
      </trkpt>
      <trkpt lat="43.04476" lon="2.42066">
        <ele>378</ele>
        <time>2022-05-02T20:29:49Z</time>
      </trkpt>
      <trkpt lat="43.04481" lon="2.42079">
        <ele>376</ele>
        <time>2022-05-02T20:29:51Z</time>
      </trkpt>
      <trkpt lat="43.04484" lon="2.42096">
        <ele>375</ele>
        <time>2022-05-02T20:29:54Z</time>
      </trkpt>
      <trkpt lat="43.04485" lon="2.421">
        <ele>375</ele>
        <time>2022-05-02T20:29:54Z</time>
      </trkpt>
      <trkpt lat="43.04493" lon="2.42115">
        <ele>375</ele>
        <time>2022-05-02T20:29:57Z</time>
      </trkpt>
      <trkpt lat="43.04502" lon="2.42125">
        <ele>374</ele>
        <time>2022-05-02T20:29:59Z</time>
      </trkpt>
      <trkpt lat="43.04514" lon="2.42135">
        <ele>373</ele>
        <time>2022-05-02T20:30:01Z</time>
      </trkpt>
      <trkpt lat="43.04531" lon="2.42137">
        <ele>373</ele>
        <time>2022-05-02T20:30:04Z</time>
      </trkpt>
      <trkpt lat="43.04537" lon="2.42135">
        <ele>373</ele>
        <time>2022-05-02T20:30:05Z</time>
      </trkpt>
      <trkpt lat="43.04546" lon="2.42126">
        <ele>373</ele>
        <time>2022-05-02T20:30:07Z</time>
      </trkpt>
      <trkpt lat="43.04574" lon="2.42089">
        <ele>370</ele>
        <time>2022-05-02T20:30:14Z</time>
      </trkpt>
      <trkpt lat="43.04583" lon="2.42084">
        <ele>369</ele>
        <time>2022-05-02T20:30:16Z</time>
      </trkpt>
      <trkpt lat="43.04593" lon="2.42085">
        <ele>369</ele>
        <time>2022-05-02T20:30:18Z</time>
      </trkpt>
      <trkpt lat="43.04598" lon="2.42085">
        <ele>370</ele>
        <time>2022-05-02T20:30:19Z</time>
      </trkpt>
      <trkpt lat="43.04611" lon="2.42085">
        <ele>370</ele>
        <time>2022-05-02T20:30:21Z</time>
      </trkpt>
      <trkpt lat="43.04621" lon="2.42088">
        <ele>371</ele>
        <time>2022-05-02T20:30:23Z</time>
      </trkpt>
      <trkpt lat="43.04629" lon="2.42084">
        <ele>371</ele>
        <time>2022-05-02T20:30:24Z</time>
      </trkpt>
      <trkpt lat="43.04634" lon="2.42078">
        <ele>371</ele>
        <time>2022-05-02T20:30:25Z</time>
      </trkpt>
      <trkpt lat="43.0466" lon="2.42036">
        <ele>372</ele>
        <time>2022-05-02T20:30:33Z</time>
      </trkpt>
      <trkpt lat="43.0467" lon="2.42021">
        <ele>372</ele>
        <time>2022-05-02T20:30:35Z</time>
      </trkpt>
      <trkpt lat="43.04699" lon="2.41992">
        <ele>378</ele>
        <time>2022-05-02T20:30:42Z</time>
      </trkpt>
      <trkpt lat="43.04712" lon="2.41982">
        <ele>380</ele>
        <time>2022-05-02T20:30:44Z</time>
      </trkpt>
      <trkpt lat="43.04708" lon="2.41993">
        <ele>380</ele>
        <time>2022-05-02T20:30:46Z</time>
      </trkpt>
      <trkpt lat="43.04685" lon="2.42017">
        <ele>376</ele>
        <time>2022-05-02T20:30:51Z</time>
      </trkpt>
      <trkpt lat="43.04679" lon="2.42029">
        <ele>375</ele>
        <time>2022-05-02T20:30:53Z</time>
      </trkpt>
      <trkpt lat="43.04675" lon="2.42057">
        <ele>374</ele>
        <time>2022-05-02T20:30:57Z</time>
      </trkpt>
      <trkpt lat="43.04675" lon="2.4208">
        <ele>374</ele>
        <time>2022-05-02T20:31:00Z</time>
      </trkpt>
      <trkpt lat="43.04677" lon="2.42093">
        <ele>375</ele>
        <time>2022-05-02T20:31:01Z</time>
      </trkpt>
      <trkpt lat="43.04681" lon="2.42104">
        <ele>376</ele>
        <time>2022-05-02T20:31:03Z</time>
      </trkpt>
      <trkpt lat="43.04687" lon="2.42115">
        <ele>378</ele>
        <time>2022-05-02T20:31:05Z</time>
      </trkpt>
      <trkpt lat="43.04695" lon="2.42125">
        <ele>379</ele>
        <time>2022-05-02T20:31:07Z</time>
      </trkpt>
      <trkpt lat="43.04805" lon="2.42231">
        <ele>393</ele>
        <time>2022-05-02T20:31:31Z</time>
      </trkpt>
      <trkpt lat="43.04816" lon="2.42245">
        <ele>394</ele>
        <time>2022-05-02T20:31:33Z</time>
      </trkpt>
      <trkpt lat="43.0484" lon="2.42277">
        <ele>395</ele>
        <time>2022-05-02T20:31:39Z</time>
      </trkpt>
      <trkpt lat="43.04846" lon="2.42291">
        <ele>395</ele>
        <time>2022-05-02T20:31:41Z</time>
      </trkpt>
      <trkpt lat="43.0486" lon="2.42333">
        <ele>391</ele>
        <time>2022-05-02T20:31:47Z</time>
      </trkpt>
      <trkpt lat="43.04865" lon="2.42341">
        <ele>391</ele>
        <time>2022-05-02T20:31:49Z</time>
      </trkpt>
      <trkpt lat="43.04886" lon="2.42359">
        <ele>395</ele>
        <time>2022-05-02T20:31:53Z</time>
      </trkpt>
      <trkpt lat="43.04893" lon="2.42367">
        <ele>396</ele>
        <time>2022-05-02T20:31:55Z</time>
      </trkpt>
      <trkpt lat="43.04899" lon="2.42378">
        <ele>395</ele>
        <time>2022-05-02T20:31:57Z</time>
      </trkpt>
      <trkpt lat="43.04909" lon="2.42407">
        <ele>392</ele>
        <time>2022-05-02T20:32:01Z</time>
      </trkpt>
      <trkpt lat="43.04918" lon="2.42422">
        <ele>392</ele>
        <time>2022-05-02T20:32:03Z</time>
      </trkpt>
      <trkpt lat="43.04945" lon="2.42455">
        <ele>397</ele>
        <time>2022-05-02T20:32:10Z</time>
      </trkpt>
      <trkpt lat="43.04968" lon="2.42493">
        <ele>396</ele>
        <time>2022-05-02T20:32:16Z</time>
      </trkpt>
      <trkpt lat="43.04978" lon="2.42502">
        <ele>397</ele>
        <time>2022-05-02T20:32:18Z</time>
      </trkpt>
      <trkpt lat="43.04988" lon="2.42505">
        <ele>399</ele>
        <time>2022-05-02T20:32:20Z</time>
      </trkpt>
      <trkpt lat="43.05" lon="2.42506">
        <ele>401</ele>
        <time>2022-05-02T20:32:22Z</time>
      </trkpt>
      <trkpt lat="43.05014" lon="2.42504">
        <ele>404</ele>
        <time>2022-05-02T20:32:25Z</time>
      </trkpt>
      <trkpt lat="43.05069" lon="2.4248">
        <ele>418</ele>
        <time>2022-05-02T20:32:35Z</time>
      </trkpt>
      <trkpt lat="43.05077" lon="2.42482">
        <ele>419</ele>
        <time>2022-05-02T20:32:36Z</time>
      </trkpt>
      <trkpt lat="43.05082" lon="2.42487">
        <ele>418</ele>
        <time>2022-05-02T20:32:37Z</time>
      </trkpt>
      <trkpt lat="43.05085" lon="2.42498">
        <ele>415</ele>
        <time>2022-05-02T20:32:39Z</time>
      </trkpt>
      <trkpt lat="43.05083" lon="2.4251">
        <ele>414</ele>
        <time>2022-05-02T20:32:41Z</time>
      </trkpt>
      <trkpt lat="43.05064" lon="2.42537">
        <ele>411</ele>
        <time>2022-05-02T20:32:45Z</time>
      </trkpt>
      <trkpt lat="43.0506" lon="2.42545">
        <ele>410</ele>
        <time>2022-05-02T20:32:47Z</time>
      </trkpt>
      <trkpt lat="43.05048" lon="2.42595">
        <ele>406</ele>
        <time>2022-05-02T20:32:54Z</time>
      </trkpt>
      <trkpt lat="43.05048" lon="2.42608">
        <ele>406</ele>
        <time>2022-05-02T20:32:55Z</time>
      </trkpt>
      <trkpt lat="43.05052" lon="2.4262">
        <ele>408</ele>
        <time>2022-05-02T20:32:57Z</time>
      </trkpt>
      <trkpt lat="43.05066" lon="2.42639">
        <ele>413</ele>
        <time>2022-05-02T20:33:00Z</time>
      </trkpt>
      <trkpt lat="43.0507" lon="2.42651">
        <ele>415</ele>
        <time>2022-05-02T20:33:02Z</time>
      </trkpt>
      <trkpt lat="43.05076" lon="2.42689">
        <ele>420</ele>
        <time>2022-05-02T20:33:07Z</time>
      </trkpt>
      <trkpt lat="43.05076" lon="2.42702">
        <ele>421</ele>
        <time>2022-05-02T20:33:09Z</time>
      </trkpt>
      <trkpt lat="43.05074" lon="2.42712">
        <ele>422</ele>
        <time>2022-05-02T20:33:10Z</time>
      </trkpt>
      <trkpt lat="43.05053" lon="2.42742">
        <ele>416</ele>
        <time>2022-05-02T20:33:16Z</time>
      </trkpt>
      <trkpt lat="43.05047" lon="2.42759">
        <ele>415</ele>
        <time>2022-05-02T20:33:18Z</time>
      </trkpt>
      <trkpt lat="43.05043" lon="2.42777">
        <ele>414</ele>
        <time>2022-05-02T20:33:21Z</time>
      </trkpt>
      <trkpt lat="43.05043" lon="2.42794">
        <ele>414</ele>
        <time>2022-05-02T20:33:23Z</time>
      </trkpt>
      <trkpt lat="43.05051" lon="2.42842">
        <ele>419</ele>
        <time>2022-05-02T20:33:29Z</time>
      </trkpt>
      <trkpt lat="43.05058" lon="2.42868">
        <ele>419</ele>
        <time>2022-05-02T20:33:33Z</time>
      </trkpt>
      <trkpt lat="43.05068" lon="2.42891">
        <ele>420</ele>
        <time>2022-05-02T20:33:36Z</time>
      </trkpt>
      <trkpt lat="43.05093" lon="2.42935">
        <ele>425</ele>
        <time>2022-05-02T20:33:44Z</time>
      </trkpt>
      <trkpt lat="43.05125" lon="2.42987">
        <ele>433</ele>
        <time>2022-05-02T20:33:52Z</time>
      </trkpt>
      <trkpt lat="43.0513" lon="2.42997">
        <ele>434</ele>
        <time>2022-05-02T20:33:54Z</time>
      </trkpt>
      <trkpt lat="43.05134" lon="2.43033">
        <ele>428</ele>
        <time>2022-05-02T20:33:59Z</time>
      </trkpt>
      <trkpt lat="43.05145" lon="2.43046">
        <ele>429</ele>
        <time>2022-05-02T20:34:01Z</time>
      </trkpt>
      <trkpt lat="43.05187" lon="2.43062">
        <ele>435</ele>
        <time>2022-05-02T20:34:09Z</time>
      </trkpt>
      <trkpt lat="43.05216" lon="2.43096">
        <ele>432</ele>
        <time>2022-05-02T20:34:16Z</time>
      </trkpt>
      <trkpt lat="43.05227" lon="2.43103">
        <ele>433</ele>
        <time>2022-05-02T20:34:18Z</time>
      </trkpt>
      <trkpt lat="43.05255" lon="2.43101">
        <ele>438</ele>
        <time>2022-05-02T20:34:23Z</time>
      </trkpt>
      <trkpt lat="43.05265" lon="2.43096">
        <ele>438</ele>
        <time>2022-05-02T20:34:25Z</time>
      </trkpt>
      <trkpt lat="43.05274" lon="2.43083">
        <ele>440</ele>
        <time>2022-05-02T20:34:27Z</time>
      </trkpt>
      <trkpt lat="43.05338" lon="2.4292">
        <ele>462</ele>
        <time>2022-05-02T20:34:51Z</time>
      </trkpt>
      <trkpt lat="43.05345" lon="2.4291">
        <ele>464</ele>
        <time>2022-05-02T20:34:53Z</time>
      </trkpt>
      <trkpt lat="43.05356" lon="2.42907">
        <ele>466</ele>
        <time>2022-05-02T20:34:55Z</time>
      </trkpt>
      <trkpt lat="43.05364" lon="2.42909">
        <ele>466</ele>
        <time>2022-05-02T20:34:56Z</time>
      </trkpt>
      <trkpt lat="43.05376" lon="2.42925">
        <ele>464</ele>
        <time>2022-05-02T20:34:59Z</time>
      </trkpt>
      <trkpt lat="43.05388" lon="2.42967">
        <ele>460</ele>
        <time>2022-05-02T20:35:05Z</time>
      </trkpt>
      <trkpt lat="43.05393" lon="2.43022">
        <ele>457</ele>
        <time>2022-05-02T20:35:13Z</time>
      </trkpt>
      <trkpt lat="43.05398" lon="2.43034">
        <ele>458</ele>
        <time>2022-05-02T20:35:14Z</time>
      </trkpt>
      <trkpt lat="43.0541" lon="2.43054">
        <ele>461</ele>
        <time>2022-05-02T20:35:18Z</time>
      </trkpt>
      <trkpt lat="43.05413" lon="2.43064">
        <ele>462</ele>
        <time>2022-05-02T20:35:19Z</time>
      </trkpt>
      <trkpt lat="43.05412" lon="2.43077">
        <ele>462</ele>
        <time>2022-05-02T20:35:21Z</time>
      </trkpt>
      <trkpt lat="43.05403" lon="2.43102">
        <ele>458</ele>
        <time>2022-05-02T20:35:24Z</time>
      </trkpt>
      <trkpt lat="43.05402" lon="2.43118">
        <ele>457</ele>
        <time>2022-05-02T20:35:27Z</time>
      </trkpt>
      <trkpt lat="43.05404" lon="2.43133">
        <ele>457</ele>
        <time>2022-05-02T20:35:29Z</time>
      </trkpt>
      <trkpt lat="43.05414" lon="2.43165">
        <ele>459</ele>
        <time>2022-05-02T20:35:33Z</time>
      </trkpt>
      <trkpt lat="43.05425" lon="2.43189">
        <ele>459</ele>
        <time>2022-05-02T20:35:37Z</time>
      </trkpt>
      <trkpt lat="43.05451" lon="2.4323">
        <ele>460</ele>
        <time>2022-05-02T20:35:44Z</time>
      </trkpt>
      <trkpt lat="43.05466" lon="2.43259">
        <ele>459</ele>
        <time>2022-05-02T20:35:48Z</time>
      </trkpt>
      <trkpt lat="43.05472" lon="2.43267">
        <ele>459</ele>
        <time>2022-05-02T20:35:50Z</time>
      </trkpt>
      <trkpt lat="43.05479" lon="2.43271">
        <ele>461</ele>
        <time>2022-05-02T20:35:51Z</time>
      </trkpt>
      <trkpt lat="43.05501" lon="2.43273">
        <ele>468</ele>
        <time>2022-05-02T20:35:55Z</time>
      </trkpt>
      <trkpt lat="43.05529" lon="2.43285">
        <ele>468</ele>
        <time>2022-05-02T20:36:00Z</time>
      </trkpt>
      <trkpt lat="43.05537" lon="2.43285">
        <ele>469</ele>
        <time>2022-05-02T20:36:02Z</time>
      </trkpt>
      <trkpt lat="43.05545" lon="2.43279">
        <ele>471</ele>
        <time>2022-05-02T20:36:03Z</time>
      </trkpt>
      <trkpt lat="43.05568" lon="2.43244">
        <ele>474</ele>
        <time>2022-05-02T20:36:10Z</time>
      </trkpt>
      <trkpt lat="43.05591" lon="2.43193">
        <ele>481</ele>
        <time>2022-05-02T20:36:17Z</time>
      </trkpt>
      <trkpt lat="43.05619" lon="2.43139">
        <ele>488</ele>
        <time>2022-05-02T20:36:26Z</time>
      </trkpt>
      <trkpt lat="43.05667" lon="2.4308">
        <ele>486</ele>
        <time>2022-05-02T20:36:37Z</time>
      </trkpt>
      <trkpt lat="43.0567" lon="2.43071">
        <ele>487</ele>
        <time>2022-05-02T20:36:39Z</time>
      </trkpt>
      <trkpt lat="43.0567" lon="2.43062">
        <ele>488</ele>
        <time>2022-05-02T20:36:40Z</time>
      </trkpt>
      <trkpt lat="43.05668" lon="2.43051">
        <ele>489</ele>
        <time>2022-05-02T20:36:41Z</time>
      </trkpt>
      <trkpt lat="43.05664" lon="2.43044">
        <ele>489</ele>
        <time>2022-05-02T20:36:43Z</time>
      </trkpt>
      <trkpt lat="43.05658" lon="2.4304">
        <ele>491</ele>
        <time>2022-05-02T20:36:44Z</time>
      </trkpt>
      <trkpt lat="43.05652" lon="2.4304">
        <ele>492</ele>
        <time>2022-05-02T20:36:45Z</time>
      </trkpt>
      <trkpt lat="43.05645" lon="2.43042">
        <ele>492</ele>
        <time>2022-05-02T20:36:46Z</time>
      </trkpt>
      <trkpt lat="43.05641" lon="2.43047">
        <ele>493</ele>
        <time>2022-05-02T20:36:47Z</time>
      </trkpt>
      <trkpt lat="43.05639" lon="2.43055">
        <ele>492</ele>
        <time>2022-05-02T20:36:48Z</time>
      </trkpt>
      <trkpt lat="43.05637" lon="2.43085">
        <ele>490</ele>
        <time>2022-05-02T20:36:52Z</time>
      </trkpt>
      <trkpt lat="43.05635" lon="2.43093">
        <ele>490</ele>
        <time>2022-05-02T20:36:53Z</time>
      </trkpt>
      <trkpt lat="43.05631" lon="2.43098">
        <ele>490</ele>
        <time>2022-05-02T20:36:54Z</time>
      </trkpt>
      <trkpt lat="43.05626" lon="2.431">
        <ele>491</ele>
        <time>2022-05-02T20:36:55Z</time>
      </trkpt>
      <trkpt lat="43.05605" lon="2.43101">
        <ele>493</ele>
        <time>2022-05-02T20:36:59Z</time>
      </trkpt>
      <trkpt lat="43.056" lon="2.43104">
        <ele>493</ele>
        <time>2022-05-02T20:37:00Z</time>
      </trkpt>
      <trkpt lat="43.05583" lon="2.43134">
        <ele>489</ele>
        <time>2022-05-02T20:37:05Z</time>
      </trkpt>
      <trkpt lat="43.05522" lon="2.43208">
        <ele>480</ele>
        <time>2022-05-02T20:37:19Z</time>
      </trkpt>
      <trkpt lat="43.05515" lon="2.43212">
        <ele>480</ele>
        <time>2022-05-02T20:37:21Z</time>
      </trkpt>
      <trkpt lat="43.05508" lon="2.43212">
        <ele>480</ele>
        <time>2022-05-02T20:37:22Z</time>
      </trkpt>
      <trkpt lat="43.05502" lon="2.43207">
        <ele>481</ele>
        <time>2022-05-02T20:37:23Z</time>
      </trkpt>
      <trkpt lat="43.05497" lon="2.43197">
        <ele>482</ele>
        <time>2022-05-02T20:37:25Z</time>
      </trkpt>
      <trkpt lat="43.05496" lon="2.43185">
        <ele>484</ele>
        <time>2022-05-02T20:37:26Z</time>
      </trkpt>
      <trkpt lat="43.05497" lon="2.43177">
        <ele>486</ele>
        <time>2022-05-02T20:37:27Z</time>
      </trkpt>
      <trkpt lat="43.055" lon="2.43171">
        <ele>488</ele>
        <time>2022-05-02T20:37:28Z</time>
      </trkpt>
      <trkpt lat="43.05506" lon="2.43166">
        <ele>489</ele>
        <time>2022-05-02T20:37:29Z</time>
      </trkpt>
      <trkpt lat="43.05526" lon="2.43154">
        <ele>489</ele>
        <time>2022-05-02T20:37:33Z</time>
      </trkpt>
      <trkpt lat="43.05537" lon="2.4314">
        <ele>490</ele>
        <time>2022-05-02T20:37:36Z</time>
      </trkpt>
      <trkpt lat="43.05543" lon="2.4313">
        <ele>491</ele>
        <time>2022-05-02T20:37:38Z</time>
      </trkpt>
      <trkpt lat="43.05562" lon="2.43078">
        <ele>497</ele>
        <time>2022-05-02T20:37:45Z</time>
      </trkpt>
      <trkpt lat="43.05586" lon="2.43032">
        <ele>503</ele>
        <time>2022-05-02T20:37:53Z</time>
      </trkpt>
      <trkpt lat="43.0559" lon="2.43022">
        <ele>503</ele>
        <time>2022-05-02T20:37:54Z</time>
      </trkpt>
      <trkpt lat="43.05591" lon="2.43011">
        <ele>504</ele>
        <time>2022-05-02T20:37:55Z</time>
      </trkpt>
      <trkpt lat="43.0559" lon="2.43">
        <ele>506</ele>
        <time>2022-05-02T20:37:57Z</time>
      </trkpt>
      <trkpt lat="43.05567" lon="2.42911">
        <ele>509</ele>
        <time>2022-05-02T20:38:09Z</time>
      </trkpt>
      <trkpt lat="43.05568" lon="2.42901">
        <ele>510</ele>
        <time>2022-05-02T20:38:10Z</time>
      </trkpt>
      <trkpt lat="43.0557" lon="2.42891">
        <ele>512</ele>
        <time>2022-05-02T20:38:12Z</time>
      </trkpt>
      <trkpt lat="43.05576" lon="2.4288">
        <ele>515</ele>
        <time>2022-05-02T20:38:14Z</time>
      </trkpt>
      <trkpt lat="43.05593" lon="2.42855">
        <ele>520</ele>
        <time>2022-05-02T20:38:18Z</time>
      </trkpt>
      <trkpt lat="43.05599" lon="2.4285">
        <ele>521</ele>
        <time>2022-05-02T20:38:19Z</time>
      </trkpt>
      <trkpt lat="43.05607" lon="2.4285">
        <ele>521</ele>
        <time>2022-05-02T20:38:21Z</time>
      </trkpt>
      <trkpt lat="43.05639" lon="2.42854">
        <ele>520</ele>
        <time>2022-05-02T20:38:26Z</time>
      </trkpt>
      <trkpt lat="43.05755" lon="2.42848">
        <ele>521</ele>
        <time>2022-05-02T20:38:47Z</time>
      </trkpt>
      <trkpt lat="43.05767" lon="2.42849">
        <ele>522</ele>
        <time>2022-05-02T20:38:49Z</time>
      </trkpt>
      <trkpt lat="43.05777" lon="2.42854">
        <ele>522</ele>
        <time>2022-05-02T20:38:51Z</time>
      </trkpt>
      <trkpt lat="43.05815" lon="2.42877">
        <ele>523</ele>
        <time>2022-05-02T20:38:59Z</time>
      </trkpt>
      <trkpt lat="43.05819" lon="2.42883">
        <ele>523</ele>
        <time>2022-05-02T20:39:00Z</time>
      </trkpt>
      <trkpt lat="43.05823" lon="2.42891">
        <ele>523</ele>
        <time>2022-05-02T20:39:01Z</time>
      </trkpt>
      <trkpt lat="43.05825" lon="2.42911">
        <ele>523</ele>
        <time>2022-05-02T20:39:03Z</time>
      </trkpt>
      <trkpt lat="43.05824" lon="2.42966">
        <ele>522</ele>
        <time>2022-05-02T20:39:11Z</time>
      </trkpt>
      <trkpt lat="43.05821" lon="2.43017">
        <ele>520</ele>
        <time>2022-05-02T20:39:17Z</time>
      </trkpt>
      <trkpt lat="43.05823" lon="2.43032">
        <ele>520</ele>
        <time>2022-05-02T20:39:19Z</time>
      </trkpt>
      <trkpt lat="43.05842" lon="2.43067">
        <ele>523</ele>
        <time>2022-05-02T20:39:25Z</time>
      </trkpt>
      <trkpt lat="43.05868" lon="2.43099">
        <ele>526</ele>
        <time>2022-05-02T20:39:31Z</time>
      </trkpt>
      <trkpt lat="43.05875" lon="2.43112">
        <ele>527</ele>
        <time>2022-05-02T20:39:33Z</time>
      </trkpt>
      <trkpt lat="43.05877" lon="2.43122">
        <ele>528</ele>
        <time>2022-05-02T20:39:35Z</time>
      </trkpt>
      <trkpt lat="43.05886" lon="2.43177">
        <ele>528</ele>
        <time>2022-05-02T20:39:42Z</time>
      </trkpt>
      <trkpt lat="43.05892" lon="2.43194">
        <ele>528</ele>
        <time>2022-05-02T20:39:44Z</time>
      </trkpt>
      <trkpt lat="43.05897" lon="2.43203">
        <ele>528</ele>
        <time>2022-05-02T20:39:46Z</time>
      </trkpt>
      <trkpt lat="43.05904" lon="2.43209">
        <ele>528</ele>
        <time>2022-05-02T20:39:47Z</time>
      </trkpt>
      <trkpt lat="43.05912" lon="2.43214">
        <ele>528</ele>
        <time>2022-05-02T20:39:49Z</time>
      </trkpt>
      <trkpt lat="43.05932" lon="2.4322">
        <ele>529</ele>
        <time>2022-05-02T20:39:53Z</time>
      </trkpt>
      <trkpt lat="43.05942" lon="2.43229">
        <ele>530</ele>
        <time>2022-05-02T20:39:55Z</time>
      </trkpt>
      <trkpt lat="43.05948" lon="2.43243">
        <ele>531</ele>
        <time>2022-05-02T20:39:57Z</time>
      </trkpt>
      <trkpt lat="43.05949" lon="2.43253">
        <ele>531</ele>
        <time>2022-05-02T20:39:58Z</time>
      </trkpt>
      <trkpt lat="43.05948" lon="2.43276">
        <ele>530</ele>
        <time>2022-05-02T20:40:01Z</time>
      </trkpt>
      <trkpt lat="43.0595" lon="2.43286">
        <ele>530</ele>
        <time>2022-05-02T20:40:02Z</time>
      </trkpt>
      <trkpt lat="43.05957" lon="2.43297">
        <ele>531</ele>
        <time>2022-05-02T20:40:04Z</time>
      </trkpt>
      <trkpt lat="43.05967" lon="2.43299">
        <ele>533</ele>
        <time>2022-05-02T20:40:06Z</time>
      </trkpt>
      <trkpt lat="43.05983" lon="2.43293">
        <ele>535</ele>
        <time>2022-05-02T20:40:09Z</time>
      </trkpt>
      <trkpt lat="43.05991" lon="2.43294">
        <ele>537</ele>
        <time>2022-05-02T20:40:11Z</time>
      </trkpt>
      <trkpt lat="43.05995" lon="2.43296">
        <ele>537</ele>
        <time>2022-05-02T20:40:11Z</time>
      </trkpt>
      <trkpt lat="43.06" lon="2.43303">
        <ele>538</ele>
        <time>2022-05-02T20:40:13Z</time>
      </trkpt>
      <trkpt lat="43.06001" lon="2.4331">
        <ele>538</ele>
        <time>2022-05-02T20:40:13Z</time>
      </trkpt>
      <trkpt lat="43.06002" lon="2.43318">
        <ele>538</ele>
        <time>2022-05-02T20:40:15Z</time>
      </trkpt>
      <trkpt lat="43.05998" lon="2.43332">
        <ele>538</ele>
        <time>2022-05-02T20:40:16Z</time>
      </trkpt>
      <trkpt lat="43.05979" lon="2.43354">
        <ele>536</ele>
        <time>2022-05-02T20:40:21Z</time>
      </trkpt>
      <trkpt lat="43.05972" lon="2.43367">
        <ele>536</ele>
        <time>2022-05-02T20:40:23Z</time>
      </trkpt>
      <trkpt lat="43.05934" lon="2.43491">
        <ele>537</ele>
        <time>2022-05-02T20:40:40Z</time>
      </trkpt>
      <trkpt lat="43.05933" lon="2.43503">
        <ele>538</ele>
        <time>2022-05-02T20:40:42Z</time>
      </trkpt>
      <trkpt lat="43.05934" lon="2.43514">
        <ele>537</ele>
        <time>2022-05-02T20:40:43Z</time>
      </trkpt>
      <trkpt lat="43.05937" lon="2.43522">
        <ele>537</ele>
        <time>2022-05-02T20:40:45Z</time>
      </trkpt>
      <trkpt lat="43.0594" lon="2.43528">
        <ele>537</ele>
        <time>2022-05-02T20:40:46Z</time>
      </trkpt>
      <trkpt lat="43.05946" lon="2.4353">
        <ele>537</ele>
        <time>2022-05-02T20:40:47Z</time>
      </trkpt>
      <trkpt lat="43.06007" lon="2.43526">
        <ele>543</ele>
        <time>2022-05-02T20:40:58Z</time>
      </trkpt>
      <trkpt lat="43.06019" lon="2.43527">
        <ele>545</ele>
        <time>2022-05-02T20:41:00Z</time>
      </trkpt>
      <trkpt lat="43.06027" lon="2.43534">
        <ele>544</ele>
        <time>2022-05-02T20:41:01Z</time>
      </trkpt>
      <trkpt lat="43.06039" lon="2.43556">
        <ele>541</ele>
        <time>2022-05-02T20:41:05Z</time>
      </trkpt>
      <trkpt lat="43.06043" lon="2.43561">
        <ele>541</ele>
        <time>2022-05-02T20:41:06Z</time>
      </trkpt>
      <trkpt lat="43.06049" lon="2.43563">
        <ele>541</ele>
        <time>2022-05-02T20:41:07Z</time>
      </trkpt>
      <trkpt lat="43.06106" lon="2.43558">
        <ele>550</ele>
        <time>2022-05-02T20:41:17Z</time>
      </trkpt>
      <trkpt lat="43.06113" lon="2.43556">
        <ele>552</ele>
        <time>2022-05-02T20:41:18Z</time>
      </trkpt>
      <trkpt lat="43.06144" lon="2.43538">
        <ele>558</ele>
        <time>2022-05-02T20:41:24Z</time>
      </trkpt>
      <trkpt lat="43.06154" lon="2.4354">
        <ele>559</ele>
        <time>2022-05-02T20:41:26Z</time>
      </trkpt>
      <trkpt lat="43.06161" lon="2.43548">
        <ele>558</ele>
        <time>2022-05-02T20:41:28Z</time>
      </trkpt>
      <trkpt lat="43.06162" lon="2.43555">
        <ele>557</ele>
        <time>2022-05-02T20:41:29Z</time>
      </trkpt>
      <trkpt lat="43.06161" lon="2.43565">
        <ele>556</ele>
        <time>2022-05-02T20:41:30Z</time>
      </trkpt>
      <trkpt lat="43.06144" lon="2.43626">
        <ele>550</ele>
        <time>2022-05-02T20:41:39Z</time>
      </trkpt>
      <trkpt lat="43.06143" lon="2.43648">
        <ele>549</ele>
        <time>2022-05-02T20:41:41Z</time>
      </trkpt>
      <trkpt lat="43.06148" lon="2.43669">
        <ele>550</ele>
        <time>2022-05-02T20:41:44Z</time>
      </trkpt>
      <trkpt lat="43.06167" lon="2.43717">
        <ele>551</ele>
        <time>2022-05-02T20:41:51Z</time>
      </trkpt>
      <trkpt lat="43.06184" lon="2.4378">
        <ele>553</ele>
        <time>2022-05-02T20:42:00Z</time>
      </trkpt>
      <trkpt lat="43.06186" lon="2.4379">
        <ele>554</ele>
        <time>2022-05-02T20:42:02Z</time>
      </trkpt>
      <trkpt lat="43.06186" lon="2.4383">
        <ele>553</ele>
        <time>2022-05-02T20:42:07Z</time>
      </trkpt>
      <trkpt lat="43.06189" lon="2.43872">
        <ele>554</ele>
        <time>2022-05-02T20:42:12Z</time>
      </trkpt>
      <trkpt lat="43.06191" lon="2.43886">
        <ele>555</ele>
        <time>2022-05-02T20:42:14Z</time>
      </trkpt>
      <trkpt lat="43.06209" lon="2.4398">
        <ele>562</ele>
        <time>2022-05-02T20:42:27Z</time>
      </trkpt>
      <trkpt lat="43.06211" lon="2.43997">
        <ele>563</ele>
        <time>2022-05-02T20:42:29Z</time>
      </trkpt>
      <trkpt lat="43.06209" lon="2.44017">
        <ele>562</ele>
        <time>2022-05-02T20:42:32Z</time>
      </trkpt>
      <trkpt lat="43.062" lon="2.44067">
        <ele>562</ele>
        <time>2022-05-02T20:42:38Z</time>
      </trkpt>
      <trkpt lat="43.06177" lon="2.44218">
        <ele>556</ele>
        <time>2022-05-02T20:42:58Z</time>
      </trkpt>
      <trkpt lat="43.06172" lon="2.44238">
        <ele>555</ele>
        <time>2022-05-02T20:43:01Z</time>
      </trkpt>
      <trkpt lat="43.0614" lon="2.44317">
        <ele>552</ele>
        <time>2022-05-02T20:43:13Z</time>
      </trkpt>
      <trkpt lat="43.06109" lon="2.4437">
        <ele>552</ele>
        <time>2022-05-02T20:43:22Z</time>
      </trkpt>
      <trkpt lat="43.06098" lon="2.444">
        <ele>550</ele>
        <time>2022-05-02T20:43:26Z</time>
      </trkpt>
      <trkpt lat="43.06081" lon="2.44487">
        <ele>545</ele>
        <time>2022-05-02T20:43:38Z</time>
      </trkpt>
      <trkpt lat="43.06084" lon="2.44555">
        <ele>542</ele>
        <time>2022-05-02T20:43:47Z</time>
      </trkpt>
      <trkpt lat="43.06084" lon="2.44577">
        <ele>541</ele>
        <time>2022-05-02T20:43:49Z</time>
      </trkpt>
      <trkpt lat="43.0608" lon="2.446">
        <ele>540</ele>
        <time>2022-05-02T20:43:52Z</time>
      </trkpt>
      <trkpt lat="43.06071" lon="2.44613">
        <ele>539</ele>
        <time>2022-05-02T20:43:55Z</time>
      </trkpt>
      <trkpt lat="43.06048" lon="2.4466">
        <ele>535</ele>
        <time>2022-05-02T20:44:02Z</time>
      </trkpt>
      <trkpt lat="43.06032" lon="2.44795">
        <ele>531</ele>
        <time>2022-05-02T20:44:20Z</time>
      </trkpt>
      <trkpt lat="43.06033" lon="2.44811">
        <ele>530</ele>
        <time>2022-05-02T20:44:22Z</time>
      </trkpt>
      <trkpt lat="43.06042" lon="2.44837">
        <ele>529</ele>
        <time>2022-05-02T20:44:26Z</time>
      </trkpt>
      <trkpt lat="43.06044" lon="2.44853">
        <ele>529</ele>
        <time>2022-05-02T20:44:28Z</time>
      </trkpt>
      <trkpt lat="43.06055" lon="2.44967">
        <ele>527</ele>
        <time>2022-05-02T20:44:43Z</time>
      </trkpt>
      <trkpt lat="43.06055" lon="2.44986">
        <ele>527</ele>
        <time>2022-05-02T20:44:45Z</time>
      </trkpt>
      <trkpt lat="43.06052" lon="2.45003">
        <ele>527</ele>
        <time>2022-05-02T20:44:48Z</time>
      </trkpt>
      <trkpt lat="43.06039" lon="2.45042">
        <ele>524</ele>
        <time>2022-05-02T20:44:53Z</time>
      </trkpt>
      <trkpt lat="43.06039" lon="2.45054">
        <ele>523</ele>
        <time>2022-05-02T20:44:55Z</time>
      </trkpt>
      <trkpt lat="43.06043" lon="2.45096">
        <ele>520</ele>
        <time>2022-05-02T20:45:00Z</time>
      </trkpt>
      <trkpt lat="43.06046" lon="2.45104">
        <ele>519</ele>
        <time>2022-05-02T20:45:01Z</time>
      </trkpt>
      <trkpt lat="43.06062" lon="2.45122">
        <ele>519</ele>
        <time>2022-05-02T20:45:05Z</time>
      </trkpt>
      <trkpt lat="43.06071" lon="2.45137">
        <ele>518</ele>
        <time>2022-05-02T20:45:08Z</time>
      </trkpt>
      <trkpt lat="43.06115" lon="2.45236">
        <ele>514</ele>
        <time>2022-05-02T20:45:23Z</time>
      </trkpt>
      <trkpt lat="43.06118" lon="2.45254">
        <ele>513</ele>
        <time>2022-05-02T20:45:25Z</time>
      </trkpt>
      <trkpt lat="43.06117" lon="2.45262">
        <ele>512</ele>
        <time>2022-05-02T20:45:26Z</time>
      </trkpt>
      <trkpt lat="43.06114" lon="2.4527">
        <ele>512</ele>
        <time>2022-05-02T20:45:27Z</time>
      </trkpt>
      <trkpt lat="43.06107" lon="2.45276">
        <ele>511</ele>
        <time>2022-05-02T20:45:29Z</time>
      </trkpt>
      <trkpt lat="43.06101" lon="2.45278">
        <ele>510</ele>
        <time>2022-05-02T20:45:30Z</time>
      </trkpt>
      <trkpt lat="43.06095" lon="2.45276">
        <ele>509</ele>
        <time>2022-05-02T20:45:31Z</time>
      </trkpt>
      <trkpt lat="43.06089" lon="2.45271">
        <ele>508</ele>
        <time>2022-05-02T20:45:32Z</time>
      </trkpt>
      <trkpt lat="43.06084" lon="2.45262">
        <ele>507</ele>
        <time>2022-05-02T20:45:34Z</time>
      </trkpt>
      <trkpt lat="43.06073" lon="2.45223">
        <ele>508</ele>
        <time>2022-05-02T20:45:39Z</time>
      </trkpt>
      <trkpt lat="43.06044" lon="2.45151">
        <ele>511</ele>
        <time>2022-05-02T20:45:50Z</time>
      </trkpt>
      <trkpt lat="43.06013" lon="2.45111">
        <ele>513</ele>
        <time>2022-05-02T20:45:57Z</time>
      </trkpt>
      <trkpt lat="43.06002" lon="2.45105">
        <ele>512</ele>
        <time>2022-05-02T20:45:59Z</time>
      </trkpt>
      <trkpt lat="43.05976" lon="2.45108">
        <ele>514</ele>
        <time>2022-05-02T20:46:04Z</time>
      </trkpt>
      <trkpt lat="43.05962" lon="2.45111">
        <ele>515</ele>
        <time>2022-05-02T20:46:07Z</time>
      </trkpt>
      <trkpt lat="43.05955" lon="2.45115">
        <ele>516</ele>
        <time>2022-05-02T20:46:08Z</time>
      </trkpt>
      <trkpt lat="43.05951" lon="2.45122">
        <ele>516</ele>
        <time>2022-05-02T20:46:09Z</time>
      </trkpt>
      <trkpt lat="43.05948" lon="2.45129">
        <ele>515</ele>
        <time>2022-05-02T20:46:10Z</time>
      </trkpt>
      <trkpt lat="43.05953" lon="2.45171">
        <ele>511</ele>
        <time>2022-05-02T20:46:16Z</time>
      </trkpt>
      <trkpt lat="43.05954" lon="2.4522">
        <ele>509</ele>
        <time>2022-05-02T20:46:22Z</time>
      </trkpt>
      <trkpt lat="43.05956" lon="2.45236">
        <ele>507</ele>
        <time>2022-05-02T20:46:24Z</time>
      </trkpt>
      <trkpt lat="43.05966" lon="2.45272">
        <ele>502</ele>
        <time>2022-05-02T20:46:29Z</time>
      </trkpt>
      <trkpt lat="43.05968" lon="2.45288">
        <ele>500</ele>
        <time>2022-05-02T20:46:31Z</time>
      </trkpt>
      <trkpt lat="43.05975" lon="2.45408">
        <ele>489</ele>
        <time>2022-05-02T20:46:47Z</time>
      </trkpt>
      <trkpt lat="43.05959" lon="2.45522">
        <ele>488</ele>
        <time>2022-05-02T20:47:02Z</time>
      </trkpt>
      <trkpt lat="43.05956" lon="2.45599">
        <ele>477</ele>
        <time>2022-05-02T20:47:12Z</time>
      </trkpt>
      <trkpt lat="43.05951" lon="2.45611">
        <ele>475</ele>
        <time>2022-05-02T20:47:14Z</time>
      </trkpt>
      <trkpt lat="43.05942" lon="2.45616">
        <ele>476</ele>
        <time>2022-05-02T20:47:16Z</time>
      </trkpt>
      <trkpt lat="43.0592" lon="2.45611">
        <ele>485</ele>
        <time>2022-05-02T20:47:20Z</time>
      </trkpt>
      <trkpt lat="43.05909" lon="2.45612">
        <ele>487</ele>
        <time>2022-05-02T20:47:22Z</time>
      </trkpt>
      <trkpt lat="43.05905" lon="2.45621">
        <ele>485</ele>
        <time>2022-05-02T20:47:23Z</time>
      </trkpt>
      <trkpt lat="43.05904" lon="2.45631">
        <ele>481</ele>
        <time>2022-05-02T20:47:24Z</time>
      </trkpt>
      <trkpt lat="43.0591" lon="2.45636">
        <ele>478</ele>
        <time>2022-05-02T20:47:25Z</time>
      </trkpt>
      <trkpt lat="43.05922" lon="2.45637">
        <ele>476</ele>
        <time>2022-05-02T20:47:28Z</time>
      </trkpt>
      <trkpt lat="43.05962" lon="2.45627">
        <ele>468</ele>
        <time>2022-05-02T20:47:35Z</time>
      </trkpt>
      <trkpt lat="43.05969" lon="2.45619">
        <ele>468</ele>
        <time>2022-05-02T20:47:36Z</time>
      </trkpt>
      <trkpt lat="43.05973" lon="2.45608">
        <ele>469</ele>
        <time>2022-05-02T20:47:38Z</time>
      </trkpt>
      <trkpt lat="43.05985" lon="2.45516">
        <ele>478</ele>
        <time>2022-05-02T20:47:50Z</time>
      </trkpt>
      <trkpt lat="43.05991" lon="2.45501">
        <ele>477</ele>
        <time>2022-05-02T20:47:52Z</time>
      </trkpt>
      <trkpt lat="43.06001" lon="2.45495">
        <ele>474</ele>
        <time>2022-05-02T20:47:54Z</time>
      </trkpt>
      <trkpt lat="43.06009" lon="2.45502">
        <ele>474</ele>
        <time>2022-05-02T20:47:56Z</time>
      </trkpt>
      <trkpt lat="43.06017" lon="2.45593">
        <ele>464</ele>
        <time>2022-05-02T20:48:08Z</time>
      </trkpt>
      <trkpt lat="43.06022" lon="2.45614">
        <ele>461</ele>
        <time>2022-05-02T20:48:11Z</time>
      </trkpt>
      <trkpt lat="43.06032" lon="2.45634">
        <ele>458</ele>
        <time>2022-05-02T20:48:14Z</time>
      </trkpt>
      <trkpt lat="43.06049" lon="2.45644">
        <ele>457</ele>
        <time>2022-05-02T20:48:17Z</time>
      </trkpt>
      <trkpt lat="43.06061" lon="2.4565">
        <ele>457</ele>
        <time>2022-05-02T20:48:20Z</time>
      </trkpt>
      <trkpt lat="43.06069" lon="2.45659">
        <ele>456</ele>
        <time>2022-05-02T20:48:21Z</time>
      </trkpt>
      <trkpt lat="43.06078" lon="2.45678">
        <ele>451</ele>
        <time>2022-05-02T20:48:24Z</time>
      </trkpt>
      <trkpt lat="43.06091" lon="2.45712">
        <ele>442</ele>
        <time>2022-05-02T20:48:29Z</time>
      </trkpt>
      <trkpt lat="43.061" lon="2.45727">
        <ele>439</ele>
        <time>2022-05-02T20:48:32Z</time>
      </trkpt>
      <trkpt lat="43.06108" lon="2.45734">
        <ele>439</ele>
        <time>2022-05-02T20:48:34Z</time>
      </trkpt>
      <trkpt lat="43.06122" lon="2.45742">
        <ele>439</ele>
        <time>2022-05-02T20:48:36Z</time>
      </trkpt>
      <trkpt lat="43.06149" lon="2.45746">
        <ele>444</ele>
        <time>2022-05-02T20:48:41Z</time>
      </trkpt>
      <trkpt lat="43.06263" lon="2.45788">
        <ele>437</ele>
        <time>2022-05-02T20:49:02Z</time>
      </trkpt>
      <trkpt lat="43.06332" lon="2.45819">
        <ele>430</ele>
        <time>2022-05-02T20:49:15Z</time>
      </trkpt>
      <trkpt lat="43.0643" lon="2.45893">
        <ele>427</ele>
        <time>2022-05-02T20:49:35Z</time>
      </trkpt>
      <trkpt lat="43.06456" lon="2.4592">
        <ele>424</ele>
        <time>2022-05-02T20:49:41Z</time>
      </trkpt>
      <trkpt lat="43.06472" lon="2.45946">
        <ele>419</ele>
        <time>2022-05-02T20:49:45Z</time>
      </trkpt>
      <trkpt lat="43.06492" lon="2.45989">
        <ele>409</ele>
        <time>2022-05-02T20:49:52Z</time>
      </trkpt>
      <trkpt lat="43.06512" lon="2.46013">
        <ele>408</ele>
        <time>2022-05-02T20:49:57Z</time>
      </trkpt>
      <trkpt lat="43.06546" lon="2.46034">
        <ele>414</ele>
        <time>2022-05-02T20:50:03Z</time>
      </trkpt>
      <trkpt lat="43.06596" lon="2.46095">
        <ele>405</ele>
        <time>2022-05-02T20:50:15Z</time>
      </trkpt>
      <trkpt lat="43.067" lon="2.46205">
        <ele>394</ele>
        <time>2022-05-02T20:50:38Z</time>
      </trkpt>
      <trkpt lat="43.06763" lon="2.46282">
        <ele>387</ele>
        <time>2022-05-02T20:50:53Z</time>
      </trkpt>
      <trkpt lat="43.06816" lon="2.46336">
        <ele>377</ele>
        <time>2022-05-02T20:51:05Z</time>
      </trkpt>
      <trkpt lat="43.06894" lon="2.4645">
        <ele>366</ele>
        <time>2022-05-02T20:51:26Z</time>
      </trkpt>
      <trkpt lat="43.06905" lon="2.46464">
        <ele>365</ele>
        <time>2022-05-02T20:51:28Z</time>
      </trkpt>
      <trkpt lat="43.06983" lon="2.46543">
        <ele>362</ele>
        <time>2022-05-02T20:51:45Z</time>
      </trkpt>
      <trkpt lat="43.06984" lon="2.46553">
        <ele>359</ele>
        <time>2022-05-02T20:51:47Z</time>
      </trkpt>
      <trkpt lat="43.06981" lon="2.46562">
        <ele>356</ele>
        <time>2022-05-02T20:51:48Z</time>
      </trkpt>
      <trkpt lat="43.06973" lon="2.46563">
        <ele>354</ele>
        <time>2022-05-02T20:51:50Z</time>
      </trkpt>
      <trkpt lat="43.06968" lon="2.46561">
        <ele>353</ele>
        <time>2022-05-02T20:51:50Z</time>
      </trkpt>
      <trkpt lat="43.06944" lon="2.46538">
        <ele>353</ele>
        <time>2022-05-02T20:51:56Z</time>
      </trkpt>
      <trkpt lat="43.06884" lon="2.46494">
        <ele>348</ele>
        <time>2022-05-02T20:52:08Z</time>
      </trkpt>
      <trkpt lat="43.06857" lon="2.46468">
        <ele>347</ele>
        <time>2022-05-02T20:52:14Z</time>
      </trkpt>
      <trkpt lat="43.06816" lon="2.46435">
        <ele>344</ele>
        <time>2022-05-02T20:52:22Z</time>
      </trkpt>
      <trkpt lat="43.06795" lon="2.46423">
        <ele>343</ele>
        <time>2022-05-02T20:52:26Z</time>
      </trkpt>
      <trkpt lat="43.06725" lon="2.46391">
        <ele>335</ele>
        <time>2022-05-02T20:52:39Z</time>
      </trkpt>
      <trkpt lat="43.06675" lon="2.46346">
        <ele>333</ele>
        <time>2022-05-02T20:52:50Z</time>
      </trkpt>
      <trkpt lat="43.06647" lon="2.46331">
        <ele>329</ele>
        <time>2022-05-02T20:52:55Z</time>
      </trkpt>
      <trkpt lat="43.06631" lon="2.46304">
        <ele>333</ele>
        <time>2022-05-02T20:53:00Z</time>
      </trkpt>
      <trkpt lat="43.06596" lon="2.46274">
        <ele>332</ele>
        <time>2022-05-02T20:53:07Z</time>
      </trkpt>
      <trkpt lat="43.06505" lon="2.46222">
        <ele>327</ele>
        <time>2022-05-02T20:53:25Z</time>
      </trkpt>
      <trkpt lat="43.06496" lon="2.46228">
        <ele>323</ele>
        <time>2022-05-02T20:53:26Z</time>
      </trkpt>
      <trkpt lat="43.06497" lon="2.46244">
        <ele>318</ele>
        <time>2022-05-02T20:53:29Z</time>
      </trkpt>
      <trkpt lat="43.06538" lon="2.4627">
        <ele>320</ele>
        <time>2022-05-02T20:53:37Z</time>
      </trkpt>
      <trkpt lat="43.06561" lon="2.46297">
        <ele>317</ele>
        <time>2022-05-02T20:53:42Z</time>
      </trkpt>
      <trkpt lat="43.06615" lon="2.46374">
        <ele>308</ele>
        <time>2022-05-02T20:53:56Z</time>
      </trkpt>
      <trkpt lat="43.06645" lon="2.46407">
        <ele>307</ele>
        <time>2022-05-02T20:54:03Z</time>
      </trkpt>
      <trkpt lat="43.06695" lon="2.46475">
        <ele>300</ele>
        <time>2022-05-02T20:54:15Z</time>
      </trkpt>
      <trkpt lat="43.06767" lon="2.46596">
        <ele>290</ele>
        <time>2022-05-02T20:54:36Z</time>
      </trkpt>
      <trkpt lat="43.06847" lon="2.46687">
        <ele>287</ele>
        <time>2022-05-02T20:54:54Z</time>
      </trkpt>
      <trkpt lat="43.06872" lon="2.46712">
        <ele>285</ele>
        <time>2022-05-02T20:55:00Z</time>
      </trkpt>
      <trkpt lat="43.06893" lon="2.46727">
        <ele>283</ele>
        <time>2022-05-02T20:55:04Z</time>
      </trkpt>
      <trkpt lat="43.06908" lon="2.46734">
        <ele>282</ele>
        <time>2022-05-02T20:55:07Z</time>
      </trkpt>
      <trkpt lat="43.06925" lon="2.46738">
        <ele>282</ele>
        <time>2022-05-02T20:55:10Z</time>
      </trkpt>
      <trkpt lat="43.0697" lon="2.4674">
        <ele>283</ele>
        <time>2022-05-02T20:55:18Z</time>
      </trkpt>
      <trkpt lat="43.06982" lon="2.46748">
        <ele>280</ele>
        <time>2022-05-02T20:55:20Z</time>
      </trkpt>
      <trkpt lat="43.07064" lon="2.46816">
        <ele>275</ele>
        <time>2022-05-02T20:55:37Z</time>
      </trkpt>
      <trkpt lat="43.07096" lon="2.46847">
        <ele>271</ele>
        <time>2022-05-02T20:55:44Z</time>
      </trkpt>
      <trkpt lat="43.07139" lon="2.46894">
        <ele>267</ele>
        <time>2022-05-02T20:55:54Z</time>
      </trkpt>
      <trkpt lat="43.07158" lon="2.46902">
        <ele>266</ele>
        <time>2022-05-02T20:55:57Z</time>
      </trkpt>
      <trkpt lat="43.07219" lon="2.46899">
        <ele>264</ele>
        <time>2022-05-02T20:56:08Z</time>
      </trkpt>
      <trkpt lat="43.07287" lon="2.46907">
        <ele>262</ele>
        <time>2022-05-02T20:56:20Z</time>
      </trkpt>
      <trkpt lat="43.073" lon="2.46914">
        <ele>261</ele>
        <time>2022-05-02T20:56:23Z</time>
      </trkpt>
      <trkpt lat="43.07324" lon="2.46951">
        <ele>258</ele>
        <time>2022-05-02T20:56:29Z</time>
      </trkpt>
      <trkpt lat="43.07338" lon="2.46982">
        <ele>256</ele>
        <time>2022-05-02T20:56:34Z</time>
      </trkpt>
      <trkpt lat="43.07344" lon="2.47004">
        <ele>255</ele>
        <time>2022-05-02T20:56:37Z</time>
      </trkpt>
      <trkpt lat="43.07355" lon="2.47072">
        <ele>253</ele>
        <time>2022-05-02T20:56:46Z</time>
      </trkpt>
      <trkpt lat="43.07366" lon="2.47116">
        <ele>253</ele>
        <time>2022-05-02T20:56:52Z</time>
      </trkpt>
      <trkpt lat="43.07382" lon="2.47158">
        <ele>252</ele>
        <time>2022-05-02T20:56:58Z</time>
      </trkpt>
      <trkpt lat="43.0739" lon="2.47168">
        <ele>251</ele>
        <time>2022-05-02T20:57:00Z</time>
      </trkpt>
      <trkpt lat="43.07405" lon="2.47182">
        <ele>251</ele>
        <time>2022-05-02T20:57:04Z</time>
      </trkpt>
      <trkpt lat="43.07419" lon="2.472">
        <ele>251</ele>
        <time>2022-05-02T20:57:07Z</time>
      </trkpt>
      <trkpt lat="43.07429" lon="2.4721">
        <ele>251</ele>
        <time>2022-05-02T20:57:09Z</time>
      </trkpt>
      <trkpt lat="43.07448" lon="2.47216">
        <ele>251</ele>
        <time>2022-05-02T20:57:13Z</time>
      </trkpt>
      <trkpt lat="43.07473" lon="2.4722">
        <ele>250</ele>
        <time>2022-05-02T20:57:17Z</time>
      </trkpt>
      <trkpt lat="43.07487" lon="2.47225">
        <ele>250</ele>
        <time>2022-05-02T20:57:20Z</time>
      </trkpt>
      <trkpt lat="43.07516" lon="2.47256">
        <ele>247</ele>
        <time>2022-05-02T20:57:26Z</time>
      </trkpt>
      <trkpt lat="43.07551" lon="2.47281">
        <ele>248</ele>
        <time>2022-05-02T20:57:33Z</time>
      </trkpt>
      <trkpt lat="43.07561" lon="2.47293">
        <ele>247</ele>
        <time>2022-05-02T20:57:36Z</time>
      </trkpt>
      <trkpt lat="43.07571" lon="2.4731">
        <ele>246</ele>
        <time>2022-05-02T20:57:38Z</time>
      </trkpt>
      <trkpt lat="43.07586" lon="2.47324">
        <ele>245</ele>
        <time>2022-05-02T20:57:42Z</time>
      </trkpt>
      <trkpt lat="43.07621" lon="2.47338">
        <ele>244</ele>
        <time>2022-05-02T20:57:48Z</time>
      </trkpt>
      <trkpt lat="43.07709" lon="2.47337">
        <ele>243</ele>
        <time>2022-05-02T20:58:04Z</time>
      </trkpt>
      <trkpt lat="43.07735" lon="2.47339">
        <ele>242</ele>
        <time>2022-05-02T20:58:08Z</time>
      </trkpt>
      <trkpt lat="43.07747" lon="2.47353">
        <ele>241</ele>
        <time>2022-05-02T20:58:11Z</time>
      </trkpt>
      <trkpt lat="43.07759" lon="2.47381">
        <ele>239</ele>
        <time>2022-05-02T20:58:15Z</time>
      </trkpt>
      <trkpt lat="43.0777" lon="2.47432">
        <ele>237</ele>
        <time>2022-05-02T20:58:22Z</time>
      </trkpt>
      <trkpt lat="43.07778" lon="2.47453">
        <ele>237</ele>
        <time>2022-05-02T20:58:25Z</time>
      </trkpt>
      <trkpt lat="43.07785" lon="2.47467">
        <ele>236</ele>
        <time>2022-05-02T20:58:28Z</time>
      </trkpt>
      <trkpt lat="43.07821" lon="2.47511">
        <ele>234</ele>
        <time>2022-05-02T20:58:36Z</time>
      </trkpt>
      <trkpt lat="43.07846" lon="2.47539">
        <ele>233</ele>
        <time>2022-05-02T20:58:42Z</time>
      </trkpt>
      <trkpt lat="43.07861" lon="2.47547">
        <ele>232</ele>
        <time>2022-05-02T20:58:45Z</time>
      </trkpt>
      <trkpt lat="43.07908" lon="2.47547">
        <ele>231</ele>
        <time>2022-05-02T20:58:53Z</time>
      </trkpt>
      <trkpt lat="43.07925" lon="2.47547">
        <ele>231</ele>
        <time>2022-05-02T20:58:56Z</time>
      </trkpt>
      <trkpt lat="43.07934" lon="2.47552">
        <ele>231</ele>
        <time>2022-05-02T20:58:58Z</time>
      </trkpt>
      <trkpt lat="43.07945" lon="2.47563">
        <ele>231</ele>
        <time>2022-05-02T20:59:00Z</time>
      </trkpt>
      <trkpt lat="43.07991" lon="2.47629">
        <ele>232</ele>
        <time>2022-05-02T20:59:12Z</time>
      </trkpt>
      <trkpt lat="43.08044" lon="2.47691">
        <ele>231</ele>
        <time>2022-05-02T20:59:25Z</time>
      </trkpt>
      <trkpt lat="43.08109" lon="2.47754">
        <ele>229</ele>
        <time>2022-05-02T20:59:39Z</time>
      </trkpt>
      <trkpt lat="43.08123" lon="2.47761">
        <ele>229</ele>
        <time>2022-05-02T20:59:41Z</time>
      </trkpt>
      <trkpt lat="43.08145" lon="2.47762">
        <ele>230</ele>
        <time>2022-05-02T20:59:45Z</time>
      </trkpt>
      <trkpt lat="43.08159" lon="2.47767">
        <ele>230</ele>
        <time>2022-05-02T20:59:48Z</time>
      </trkpt>
      <trkpt lat="43.08208" lon="2.47797">
        <ele>228</ele>
        <time>2022-05-02T20:59:58Z</time>
      </trkpt>
      <trkpt lat="43.08226" lon="2.47806">
        <ele>228</ele>
        <time>2022-05-02T21:00:01Z</time>
      </trkpt>
      <trkpt lat="43.08274" lon="2.47842">
        <ele>228</ele>
        <time>2022-05-02T21:00:11Z</time>
      </trkpt>
      <trkpt lat="43.08295" lon="2.4786">
        <ele>228</ele>
        <time>2022-05-02T21:00:15Z</time>
      </trkpt>
      <trkpt lat="43.08299" lon="2.47872">
        <ele>228</ele>
        <time>2022-05-02T21:00:17Z</time>
      </trkpt>
      <trkpt lat="43.083" lon="2.4789">
        <ele>227</ele>
        <time>2022-05-02T21:00:19Z</time>
      </trkpt>
      <trkpt lat="43.08295" lon="2.4792">
        <ele>227</ele>
        <time>2022-05-02T21:00:23Z</time>
      </trkpt>
      <trkpt lat="43.08296" lon="2.47937">
        <ele>227</ele>
        <time>2022-05-02T21:00:25Z</time>
      </trkpt>
      <trkpt lat="43.08301" lon="2.47951">
        <ele>227</ele>
        <time>2022-05-02T21:00:27Z</time>
      </trkpt>
      <trkpt lat="43.08354" lon="2.48011">
        <ele>226</ele>
        <time>2022-05-02T21:00:40Z</time>
      </trkpt>
      <trkpt lat="43.0836" lon="2.48019">
        <ele>226</ele>
        <time>2022-05-02T21:00:41Z</time>
      </trkpt>
      <trkpt lat="43.08371" lon="2.48041">
        <ele>226</ele>
        <time>2022-05-02T21:00:45Z</time>
      </trkpt>
      <trkpt lat="43.08374" lon="2.48056">
        <ele>226</ele>
        <time>2022-05-02T21:00:47Z</time>
      </trkpt>
      <trkpt lat="43.0837" lon="2.48164">
        <ele>223</ele>
        <time>2022-05-02T21:01:01Z</time>
      </trkpt>
      <trkpt lat="43.08371" lon="2.48188">
        <ele>223</ele>
        <time>2022-05-02T21:01:04Z</time>
      </trkpt>
      <trkpt lat="43.08378" lon="2.48216">
        <ele>223</ele>
        <time>2022-05-02T21:01:08Z</time>
      </trkpt>
      <trkpt lat="43.08385" lon="2.48236">
        <ele>223</ele>
        <time>2022-05-02T21:01:11Z</time>
      </trkpt>
      <trkpt lat="43.08457" lon="2.48385">
        <ele>222</ele>
        <time>2022-05-02T21:01:34Z</time>
      </trkpt>
      <trkpt lat="43.08469" lon="2.48419">
        <ele>222</ele>
        <time>2022-05-02T21:01:39Z</time>
      </trkpt>
      <trkpt lat="43.08487" lon="2.48584">
        <ele>220</ele>
        <time>2022-05-02T21:02:00Z</time>
      </trkpt>
      <trkpt lat="43.08488" lon="2.48609">
        <ele>220</ele>
        <time>2022-05-02T21:02:04Z</time>
      </trkpt>
      <trkpt lat="43.08486" lon="2.48675">
        <ele>220</ele>
        <time>2022-05-02T21:02:12Z</time>
      </trkpt>
      <trkpt lat="43.08489" lon="2.48937">
        <ele>215</ele>
        <time>2022-05-02T21:02:46Z</time>
      </trkpt>
      <trkpt lat="43.08491" lon="2.48965">
        <ele>214</ele>
        <time>2022-05-02T21:02:50Z</time>
      </trkpt>
      <trkpt lat="43.08495" lon="2.48987">
        <ele>213</ele>
        <time>2022-05-02T21:02:53Z</time>
      </trkpt>
      <trkpt lat="43.08511" lon="2.49102">
        <ele>214</ele>
        <time>2022-05-02T21:03:08Z</time>
      </trkpt>
      <trkpt lat="43.08509" lon="2.49132">
        <ele>214</ele>
        <time>2022-05-02T21:03:12Z</time>
      </trkpt>
      <trkpt lat="43.08506" lon="2.49154">
        <ele>214</ele>
        <time>2022-05-02T21:03:15Z</time>
      </trkpt>
      <trkpt lat="43.08498" lon="2.49195">
        <ele>214</ele>
        <time>2022-05-02T21:03:20Z</time>
      </trkpt>
      <trkpt lat="43.0847" lon="2.4927">
        <ele>213</ele>
        <time>2022-05-02T21:03:31Z</time>
      </trkpt>
      <trkpt lat="43.08464" lon="2.493">
        <ele>213</ele>
        <time>2022-05-02T21:03:35Z</time>
      </trkpt>
      <trkpt lat="43.08448" lon="2.49468">
        <ele>211</ele>
        <time>2022-05-02T21:03:57Z</time>
      </trkpt>
      <trkpt lat="43.08419" lon="2.49611">
        <ele>210</ele>
        <time>2022-05-02T21:04:17Z</time>
      </trkpt>
      <trkpt lat="43.0839" lon="2.49788">
        <ele>211</ele>
        <time>2022-05-02T21:04:40Z</time>
      </trkpt>
      <trkpt lat="43.08362" lon="2.50002">
        <ele>207</ele>
        <time>2022-05-02T21:05:08Z</time>
      </trkpt>
      <trkpt lat="43.08359" lon="2.50047">
        <ele>207</ele>
        <time>2022-05-02T21:05:14Z</time>
      </trkpt>
      <trkpt lat="43.08358" lon="2.50112">
        <ele>207</ele>
        <time>2022-05-02T21:05:23Z</time>
      </trkpt>
      <trkpt lat="43.08362" lon="2.50152">
        <ele>207</ele>
        <time>2022-05-02T21:05:28Z</time>
      </trkpt>
      <trkpt lat="43.08398" lon="2.50338">
        <ele>205</ele>
        <time>2022-05-02T21:05:53Z</time>
      </trkpt>
      <trkpt lat="43.084" lon="2.50355">
        <ele>205</ele>
        <time>2022-05-02T21:05:55Z</time>
      </trkpt>
      <trkpt lat="43.084" lon="2.50374">
        <ele>205</ele>
        <time>2022-05-02T21:05:58Z</time>
      </trkpt>
      <trkpt lat="43.08398" lon="2.50393">
        <ele>205</ele>
        <time>2022-05-02T21:06:00Z</time>
      </trkpt>
      <trkpt lat="43.08386" lon="2.50441">
        <ele>205</ele>
        <time>2022-05-02T21:06:07Z</time>
      </trkpt>
      <trkpt lat="43.08384" lon="2.50487">
        <ele>203</ele>
        <time>2022-05-02T21:06:13Z</time>
      </trkpt>
      <trkpt lat="43.08397" lon="2.50755">
        <ele>202</ele>
        <time>2022-05-02T21:06:48Z</time>
      </trkpt>
      <trkpt lat="43.08401" lon="2.50777">
        <ele>202</ele>
        <time>2022-05-02T21:06:51Z</time>
      </trkpt>
      <trkpt lat="43.08516" lon="2.51045">
        <ele>199</ele>
        <time>2022-05-02T21:07:31Z</time>
      </trkpt>
      <trkpt lat="43.08529" lon="2.51079">
        <ele>198</ele>
        <time>2022-05-02T21:07:36Z</time>
      </trkpt>
      <trkpt lat="43.08533" lon="2.51103">
        <ele>198</ele>
        <time>2022-05-02T21:07:39Z</time>
      </trkpt>
      <trkpt lat="43.08533" lon="2.51162">
        <ele>198</ele>
        <time>2022-05-02T21:07:47Z</time>
      </trkpt>
      <trkpt lat="43.08536" lon="2.51189">
        <ele>198</ele>
        <time>2022-05-02T21:07:50Z</time>
      </trkpt>
      <trkpt lat="43.08549" lon="2.51224">
        <ele>197</ele>
        <time>2022-05-02T21:07:56Z</time>
      </trkpt>
      <trkpt lat="43.08618" lon="2.51387">
        <ele>197</ele>
        <time>2022-05-02T21:08:20Z</time>
      </trkpt>
      <trkpt lat="43.08633" lon="2.51413">
        <ele>198</ele>
        <time>2022-05-02T21:08:24Z</time>
      </trkpt>
      <trkpt lat="43.0873" lon="2.51535">
        <ele>197</ele>
        <time>2022-05-02T21:08:48Z</time>
      </trkpt>
      <trkpt lat="43.08755" lon="2.51556">
        <ele>197</ele>
        <time>2022-05-02T21:08:53Z</time>
      </trkpt>
      <trkpt lat="43.0877" lon="2.51566">
        <ele>197</ele>
        <time>2022-05-02T21:08:56Z</time>
      </trkpt>
      <trkpt lat="43.08823" lon="2.51607">
        <ele>199</ele>
        <time>2022-05-02T21:09:07Z</time>
      </trkpt>
      <trkpt lat="43.08834" lon="2.51622">
        <ele>200</ele>
        <time>2022-05-02T21:09:10Z</time>
      </trkpt>
      <trkpt lat="43.08844" lon="2.5164">
        <ele>200</ele>
        <time>2022-05-02T21:09:13Z</time>
      </trkpt>
      <trkpt lat="43.08858" lon="2.51683">
        <ele>202</ele>
        <time>2022-05-02T21:09:19Z</time>
      </trkpt>
      <trkpt lat="43.08864" lon="2.5171">
        <ele>203</ele>
        <time>2022-05-02T21:09:22Z</time>
      </trkpt>
      <trkpt lat="43.08868" lon="2.51758">
        <ele>205</ele>
        <time>2022-05-02T21:09:29Z</time>
      </trkpt>
      <trkpt lat="43.08871" lon="2.51815">
        <ele>207</ele>
        <time>2022-05-02T21:09:36Z</time>
      </trkpt>
      <trkpt lat="43.08853" lon="2.51865">
        <ele>207</ele>
        <time>2022-05-02T21:09:43Z</time>
      </trkpt>
      <trkpt lat="43.08835" lon="2.51923">
        <ele>208</ele>
        <time>2022-05-02T21:09:51Z</time>
      </trkpt>
      <trkpt lat="43.08822" lon="2.51965">
        <ele>208</ele>
        <time>2022-05-02T21:09:57Z</time>
      </trkpt>
      <trkpt lat="43.08803" lon="2.52038">
        <ele>207</ele>
        <time>2022-05-02T21:10:07Z</time>
      </trkpt>
      <trkpt lat="43.08801" lon="2.52085">
        <ele>206</ele>
        <time>2022-05-02T21:10:14Z</time>
      </trkpt>
      <trkpt lat="43.08797" lon="2.52125">
        <ele>205</ele>
        <time>2022-05-02T21:10:19Z</time>
      </trkpt>
      <trkpt lat="43.08791" lon="2.52146">
        <ele>204</ele>
        <time>2022-05-02T21:10:22Z</time>
      </trkpt>
      <trkpt lat="43.08765" lon="2.52161">
        <ele>203</ele>
        <time>2022-05-02T21:10:27Z</time>
      </trkpt>
      <trkpt lat="43.08697" lon="2.52186">
        <ele>201</ele>
        <time>2022-05-02T21:10:39Z</time>
      </trkpt>
      <trkpt lat="43.08658" lon="2.52208">
        <ele>201</ele>
        <time>2022-05-02T21:10:47Z</time>
      </trkpt>
      <trkpt lat="43.08629" lon="2.5223">
        <ele>201</ele>
        <time>2022-05-02T21:10:53Z</time>
      </trkpt>
      <trkpt lat="43.08609" lon="2.52244">
        <ele>202</ele>
        <time>2022-05-02T21:10:57Z</time>
      </trkpt>
      <trkpt lat="43.0858" lon="2.52254">
        <ele>202</ele>
        <time>2022-05-02T21:11:02Z</time>
      </trkpt>
      <trkpt lat="43.0856" lon="2.52254">
        <ele>203</ele>
        <time>2022-05-02T21:11:06Z</time>
      </trkpt>
      <trkpt lat="43.08487" lon="2.52246">
        <ele>202</ele>
        <time>2022-05-02T21:11:19Z</time>
      </trkpt>
      <trkpt lat="43.08467" lon="2.52249">
        <ele>200</ele>
        <time>2022-05-02T21:11:22Z</time>
      </trkpt>
      <trkpt lat="43.08458" lon="2.52256">
        <ele>200</ele>
        <time>2022-05-02T21:11:24Z</time>
      </trkpt>
      <trkpt lat="43.08441" lon="2.52278">
        <ele>199</ele>
        <time>2022-05-02T21:11:28Z</time>
      </trkpt>
      <trkpt lat="43.08428" lon="2.5232">
        <ele>200</ele>
        <time>2022-05-02T21:11:34Z</time>
      </trkpt>
      <trkpt lat="43.08418" lon="2.52341">
        <ele>199</ele>
        <time>2022-05-02T21:11:37Z</time>
      </trkpt>
      <trkpt lat="43.08412" lon="2.5235">
        <ele>199</ele>
        <time>2022-05-02T21:11:39Z</time>
      </trkpt>
      <trkpt lat="43.08395" lon="2.52362">
        <ele>198</ele>
        <time>2022-05-02T21:11:42Z</time>
      </trkpt>
      <trkpt lat="43.08379" lon="2.52365">
        <ele>197</ele>
        <time>2022-05-02T21:11:45Z</time>
      </trkpt>
      <trkpt lat="43.08326" lon="2.52369">
        <ele>194</ele>
        <time>2022-05-02T21:11:55Z</time>
      </trkpt>
      <trkpt lat="43.08309" lon="2.52378">
        <ele>194</ele>
        <time>2022-05-02T21:11:58Z</time>
      </trkpt>
      <trkpt lat="43.083" lon="2.52389">
        <ele>194</ele>
        <time>2022-05-02T21:12:00Z</time>
      </trkpt>
      <trkpt lat="43.08279" lon="2.52452">
        <ele>194</ele>
        <time>2022-05-02T21:12:09Z</time>
      </trkpt>
      <trkpt lat="43.0826" lon="2.52538">
        <ele>194</ele>
        <time>2022-05-02T21:12:21Z</time>
      </trkpt>
      <trkpt lat="43.08238" lon="2.52658">
        <ele>197</ele>
        <time>2022-05-02T21:12:37Z</time>
      </trkpt>
      <trkpt lat="43.08205" lon="2.52857">
        <ele>193</ele>
        <time>2022-05-02T21:13:03Z</time>
      </trkpt>
      <trkpt lat="43.08198" lon="2.52876">
        <ele>192</ele>
        <time>2022-05-02T21:13:06Z</time>
      </trkpt>
      <trkpt lat="43.08179" lon="2.52915">
        <ele>189</ele>
        <time>2022-05-02T21:13:12Z</time>
      </trkpt>
      <trkpt lat="43.0817" lon="2.52928">
        <ele>188</ele>
        <time>2022-05-02T21:13:15Z</time>
      </trkpt>
      <trkpt lat="43.08132" lon="2.52967">
        <ele>187</ele>
        <time>2022-05-02T21:13:23Z</time>
      </trkpt>
      <trkpt lat="43.08127" lon="2.52981">
        <ele>186</ele>
        <time>2022-05-02T21:13:25Z</time>
      </trkpt>
      <trkpt lat="43.08124" lon="2.53002">
        <ele>186</ele>
        <time>2022-05-02T21:13:28Z</time>
      </trkpt>
      <trkpt lat="43.08119" lon="2.53077">
        <ele>187</ele>
        <time>2022-05-02T21:13:38Z</time>
      </trkpt>
      <trkpt lat="43.08112" lon="2.53092">
        <ele>186</ele>
        <time>2022-05-02T21:13:40Z</time>
      </trkpt>
      <trkpt lat="43.08123" lon="2.53144">
        <ele>186</ele>
        <time>2022-05-02T21:13:47Z</time>
      </trkpt>
      <trkpt lat="43.08133" lon="2.53182">
        <ele>186</ele>
        <time>2022-05-02T21:13:52Z</time>
      </trkpt>
      <trkpt lat="43.0816" lon="2.53229">
        <ele>186</ele>
        <time>2022-05-02T21:14:00Z</time>
      </trkpt>
      <trkpt lat="43.08329" lon="2.53613">
        <ele>184</ele>
        <time>2022-05-02T21:14:58Z</time>
      </trkpt>
      <trkpt lat="43.08355" lon="2.53674">
        <ele>183</ele>
        <time>2022-05-02T21:15:07Z</time>
      </trkpt>
      <trkpt lat="43.0837" lon="2.537">
        <ele>183</ele>
        <time>2022-05-02T21:15:12Z</time>
      </trkpt>
      <trkpt lat="43.08406" lon="2.53745">
        <ele>183</ele>
        <time>2022-05-02T21:15:20Z</time>
      </trkpt>
      <trkpt lat="43.08469" lon="2.53809">
        <ele>183</ele>
        <time>2022-05-02T21:15:34Z</time>
      </trkpt>
      <trkpt lat="43.0848" lon="2.53813">
        <ele>183</ele>
        <time>2022-05-02T21:15:36Z</time>
      </trkpt>
      <trkpt lat="43.08531" lon="2.53806">
        <ele>187</ele>
        <time>2022-05-02T21:15:45Z</time>
      </trkpt>
      <trkpt lat="43.08548" lon="2.53812">
        <ele>188</ele>
        <time>2022-05-02T21:15:49Z</time>
      </trkpt>
      <trkpt lat="43.08563" lon="2.53822">
        <ele>188</ele>
        <time>2022-05-02T21:15:52Z</time>
      </trkpt>
      <trkpt lat="43.08588" lon="2.5385">
        <ele>186</ele>
        <time>2022-05-02T21:15:57Z</time>
      </trkpt>
      <trkpt lat="43.08598" lon="2.53866">
        <ele>185</ele>
        <time>2022-05-02T21:16:00Z</time>
      </trkpt>
      <trkpt lat="43.08614" lon="2.53908">
        <ele>182</ele>
        <time>2022-05-02T21:16:06Z</time>
      </trkpt>
      <trkpt lat="43.08663" lon="2.53988">
        <ele>183</ele>
        <time>2022-05-02T21:16:20Z</time>
      </trkpt>
      <trkpt lat="43.0868" lon="2.5402">
        <ele>182</ele>
        <time>2022-05-02T21:16:25Z</time>
      </trkpt>
      <trkpt lat="43.08688" lon="2.5404">
        <ele>180</ele>
        <time>2022-05-02T21:16:28Z</time>
      </trkpt>
      <trkpt lat="43.08735" lon="2.54221">
        <ele>178</ele>
        <time>2022-05-02T21:16:53Z</time>
      </trkpt>
      <trkpt lat="43.08749" lon="2.54312">
        <ele>177</ele>
        <time>2022-05-02T21:17:05Z</time>
      </trkpt>
      <trkpt lat="43.08761" lon="2.54376">
        <ele>176</ele>
        <time>2022-05-02T21:17:13Z</time>
      </trkpt>
      <trkpt lat="43.08773" lon="2.54423">
        <ele>176</ele>
        <time>2022-05-02T21:17:20Z</time>
      </trkpt>
      <trkpt lat="43.08787" lon="2.54457">
        <ele>175</ele>
        <time>2022-05-02T21:17:25Z</time>
      </trkpt>
      <trkpt lat="43.08813" lon="2.5453">
        <ele>175</ele>
        <time>2022-05-02T21:17:36Z</time>
      </trkpt>
      <trkpt lat="43.08851" lon="2.54615">
        <ele>174</ele>
        <time>2022-05-02T21:17:49Z</time>
      </trkpt>
      <trkpt lat="43.08869" lon="2.54652">
        <ele>174</ele>
        <time>2022-05-02T21:17:54Z</time>
      </trkpt>
      <trkpt lat="43.08932" lon="2.5481">
        <ele>171</ele>
        <time>2022-05-02T21:18:18Z</time>
      </trkpt>
      <trkpt lat="43.08948" lon="2.54839">
        <ele>171</ele>
        <time>2022-05-02T21:18:22Z</time>
      </trkpt>
      <trkpt lat="43.08964" lon="2.5486">
        <ele>171</ele>
        <time>2022-05-02T21:18:26Z</time>
      </trkpt>
      <trkpt lat="43.08991" lon="2.54882">
        <ele>170</ele>
        <time>2022-05-02T21:18:32Z</time>
      </trkpt>
      <trkpt lat="43.09046" lon="2.54911">
        <ele>170</ele>
        <time>2022-05-02T21:18:42Z</time>
      </trkpt>
      <trkpt lat="43.09065" lon="2.54921">
        <ele>170</ele>
        <time>2022-05-02T21:18:46Z</time>
      </trkpt>
      <trkpt lat="43.09198" lon="2.54987">
        <ele>172</ele>
        <time>2022-05-02T21:19:11Z</time>
      </trkpt>
      <trkpt lat="43.09242" lon="2.55009">
        <ele>173</ele>
        <time>2022-05-02T21:19:20Z</time>
      </trkpt>
      <trkpt lat="43.09235" lon="2.55044">
        <ele>172</ele>
        <time>2022-05-02T21:19:24Z</time>
      </trkpt>
      <trkpt lat="43.09225" lon="2.55078">
        <ele>171</ele>
        <time>2022-05-02T21:19:29Z</time>
      </trkpt>
      <trkpt lat="43.09172" lon="2.5524">
        <ele>170</ele>
        <time>2022-05-02T21:19:52Z</time>
      </trkpt>
      <trkpt lat="43.09141" lon="2.55339">
        <ele>168</ele>
        <time>2022-05-02T21:20:06Z</time>
      </trkpt>
      <trkpt lat="43.0911" lon="2.55435">
        <ele>170</ele>
        <time>2022-05-02T21:20:20Z</time>
      </trkpt>
      <trkpt lat="43.09105" lon="2.55449">
        <ele>171</ele>
        <time>2022-05-02T21:20:22Z</time>
      </trkpt>
      <trkpt lat="43.09098" lon="2.55469">
        <ele>172</ele>
        <time>2022-05-02T21:20:25Z</time>
      </trkpt>
      <trkpt lat="43.09064" lon="2.55528">
        <ele>177</ele>
        <time>2022-05-02T21:20:34Z</time>
      </trkpt>
      <trkpt lat="43.09055" lon="2.55552">
        <ele>178</ele>
        <time>2022-05-02T21:20:38Z</time>
      </trkpt>
      <trkpt lat="43.09038" lon="2.55613">
        <ele>179</ele>
        <time>2022-05-02T21:20:46Z</time>
      </trkpt>
      <trkpt lat="43.08999" lon="2.55774">
        <ele>172</ele>
        <time>2022-05-02T21:21:08Z</time>
      </trkpt>
      <trkpt lat="43.08993" lon="2.55801">
        <ele>173</ele>
        <time>2022-05-02T21:21:12Z</time>
      </trkpt>
      <trkpt lat="43.08993" lon="2.55822">
        <ele>172</ele>
        <time>2022-05-02T21:21:15Z</time>
      </trkpt>
      <trkpt lat="43.08996" lon="2.55839">
        <ele>171</ele>
        <time>2022-05-02T21:21:17Z</time>
      </trkpt>
      <trkpt lat="43.09006" lon="2.55854">
        <ele>171</ele>
        <time>2022-05-02T21:21:20Z</time>
      </trkpt>
      <trkpt lat="43.09018" lon="2.55863">
        <ele>171</ele>
        <time>2022-05-02T21:21:22Z</time>
      </trkpt>
      <trkpt lat="43.09037" lon="2.55865">
        <ele>171</ele>
        <time>2022-05-02T21:21:26Z</time>
      </trkpt>
      <trkpt lat="43.09091" lon="2.55855">
        <ele>171</ele>
        <time>2022-05-02T21:21:35Z</time>
      </trkpt>
      <trkpt lat="43.09099" lon="2.55856">
        <ele>171</ele>
        <time>2022-05-02T21:21:37Z</time>
      </trkpt>
      <trkpt lat="43.0911" lon="2.55861">
        <ele>171</ele>
        <time>2022-05-02T21:21:39Z</time>
      </trkpt>
      <trkpt lat="43.09118" lon="2.55872">
        <ele>171</ele>
        <time>2022-05-02T21:21:41Z</time>
      </trkpt>
      <trkpt lat="43.09121" lon="2.55881">
        <ele>171</ele>
        <time>2022-05-02T21:21:42Z</time>
      </trkpt>
      <trkpt lat="43.09122" lon="2.55893">
        <ele>170</ele>
        <time>2022-05-02T21:21:44Z</time>
      </trkpt>
      <trkpt lat="43.0912" lon="2.55946">
        <ele>171</ele>
        <time>2022-05-02T21:21:51Z</time>
      </trkpt>
      <trkpt lat="43.09122" lon="2.55991">
        <ele>173</ele>
        <time>2022-05-02T21:21:56Z</time>
      </trkpt>
      <trkpt lat="43.09138" lon="2.56109">
        <ele>175</ele>
        <time>2022-05-02T21:22:12Z</time>
      </trkpt>
      <trkpt lat="43.09137" lon="2.56139">
        <ele>175</ele>
        <time>2022-05-02T21:22:16Z</time>
      </trkpt>
      <trkpt lat="43.09122" lon="2.56235">
        <ele>178</ele>
        <time>2022-05-02T21:22:29Z</time>
      </trkpt>
      <trkpt lat="43.09113" lon="2.56311">
        <ele>178</ele>
        <time>2022-05-02T21:22:39Z</time>
      </trkpt>
      <trkpt lat="43.09101" lon="2.56371">
        <ele>176</ele>
        <time>2022-05-02T21:22:47Z</time>
      </trkpt>
      <trkpt lat="43.09078" lon="2.56472">
        <ele>169</ele>
        <time>2022-05-02T21:23:00Z</time>
      </trkpt>
      <trkpt lat="43.09063" lon="2.56551">
        <ele>169</ele>
        <time>2022-05-02T21:23:11Z</time>
      </trkpt>
      <trkpt lat="43.09033" lon="2.56659">
        <ele>172</ele>
        <time>2022-05-02T21:23:26Z</time>
      </trkpt>
      <trkpt lat="43.09001" lon="2.56758">
        <ele>168</ele>
        <time>2022-05-02T21:23:40Z</time>
      </trkpt>
      <trkpt lat="43.08988" lon="2.56815">
        <ele>169</ele>
        <time>2022-05-02T21:23:48Z</time>
      </trkpt>
      <trkpt lat="43.08977" lon="2.56869">
        <ele>170</ele>
        <time>2022-05-02T21:23:55Z</time>
      </trkpt>
      <trkpt lat="43.08956" lon="2.5702">
        <ele>170</ele>
        <time>2022-05-02T21:24:15Z</time>
      </trkpt>
      <trkpt lat="43.08953" lon="2.57032">
        <ele>170</ele>
        <time>2022-05-02T21:24:17Z</time>
      </trkpt>
      <trkpt lat="43.08941" lon="2.5707">
        <ele>172</ele>
        <time>2022-05-02T21:24:22Z</time>
      </trkpt>
      <trkpt lat="43.08934" lon="2.57102">
        <ele>173</ele>
        <time>2022-05-02T21:24:27Z</time>
      </trkpt>
      <trkpt lat="43.08929" lon="2.57143">
        <ele>173</ele>
        <time>2022-05-02T21:24:32Z</time>
      </trkpt>
      <trkpt lat="43.08928" lon="2.57156">
        <ele>174</ele>
        <time>2022-05-02T21:24:34Z</time>
      </trkpt>
      <trkpt lat="43.0893" lon="2.57175">
        <ele>174</ele>
        <time>2022-05-02T21:24:36Z</time>
      </trkpt>
      <trkpt lat="43.08936" lon="2.57195">
        <ele>176</ele>
        <time>2022-05-02T21:24:39Z</time>
      </trkpt>
      <trkpt lat="43.08941" lon="2.57204">
        <ele>176</ele>
        <time>2022-05-02T21:24:40Z</time>
      </trkpt>
      <trkpt lat="43.08954" lon="2.57219">
        <ele>176</ele>
        <time>2022-05-02T21:24:43Z</time>
      </trkpt>
      <trkpt lat="43.08969" lon="2.57232">
        <ele>175</ele>
        <time>2022-05-02T21:24:47Z</time>
      </trkpt>
      <trkpt lat="43.08976" lon="2.57237">
        <ele>175</ele>
        <time>2022-05-02T21:24:48Z</time>
      </trkpt>
      <trkpt lat="43.0899" lon="2.57242">
        <ele>173</ele>
        <time>2022-05-02T21:24:51Z</time>
      </trkpt>
      <trkpt lat="43.08997" lon="2.57242">
        <ele>172</ele>
        <time>2022-05-02T21:24:52Z</time>
      </trkpt>
      <trkpt lat="43.09011" lon="2.5724">
        <ele>173</ele>
        <time>2022-05-02T21:24:54Z</time>
      </trkpt>
      <trkpt lat="43.09022" lon="2.57234">
        <ele>173</ele>
        <time>2022-05-02T21:24:56Z</time>
      </trkpt>
      <trkpt lat="43.09104" lon="2.57177">
        <ele>166</ele>
        <time>2022-05-02T21:25:13Z</time>
      </trkpt>
      <trkpt lat="43.09125" lon="2.57169">
        <ele>163</ele>
        <time>2022-05-02T21:25:17Z</time>
      </trkpt>
      <trkpt lat="43.09324" lon="2.57186">
        <ele>162</ele>
        <time>2022-05-02T21:25:52Z</time>
      </trkpt>
      <trkpt lat="43.09368" lon="2.57199">
        <ele>163</ele>
        <time>2022-05-02T21:26:00Z</time>
      </trkpt>
      <trkpt lat="43.09376" lon="2.57205">
        <ele>163</ele>
        <time>2022-05-02T21:26:02Z</time>
      </trkpt>
      <trkpt lat="43.09387" lon="2.57223">
        <ele>163</ele>
        <time>2022-05-02T21:26:05Z</time>
      </trkpt>
      <trkpt lat="43.09392" lon="2.57247">
        <ele>162</ele>
        <time>2022-05-02T21:26:08Z</time>
      </trkpt>
      <trkpt lat="43.09393" lon="2.57259">
        <ele>162</ele>
        <time>2022-05-02T21:26:10Z</time>
      </trkpt>
      <trkpt lat="43.09392" lon="2.57271">
        <ele>163</ele>
        <time>2022-05-02T21:26:11Z</time>
      </trkpt>
      <trkpt lat="43.09386" lon="2.57293">
        <ele>164</ele>
        <time>2022-05-02T21:26:14Z</time>
      </trkpt>
      <trkpt lat="43.09352" lon="2.5736">
        <ele>170</ele>
        <time>2022-05-02T21:26:25Z</time>
      </trkpt>
      <trkpt lat="43.09329" lon="2.57413">
        <ele>167</ele>
        <time>2022-05-02T21:26:33Z</time>
      </trkpt>
      <trkpt lat="43.09307" lon="2.57476">
        <ele>172</ele>
        <time>2022-05-02T21:26:42Z</time>
      </trkpt>
      <trkpt lat="43.09275" lon="2.57586">
        <ele>173</ele>
        <time>2022-05-02T21:26:57Z</time>
      </trkpt>
      <trkpt lat="43.0927" lon="2.57646">
        <ele>166</ele>
        <time>2022-05-02T21:27:05Z</time>
      </trkpt>
      <trkpt lat="43.09264" lon="2.57682">
        <ele>162</ele>
        <time>2022-05-02T21:27:10Z</time>
      </trkpt>
      <trkpt lat="43.09257" lon="2.577">
        <ele>160</ele>
        <time>2022-05-02T21:27:13Z</time>
      </trkpt>
      <trkpt lat="43.09227" lon="2.57737">
        <ele>156</ele>
        <time>2022-05-02T21:27:20Z</time>
      </trkpt>
      <trkpt lat="43.09205" lon="2.57755">
        <ele>155</ele>
        <time>2022-05-02T21:27:24Z</time>
      </trkpt>
      <trkpt lat="43.09185" lon="2.57767">
        <ele>156</ele>
        <time>2022-05-02T21:27:28Z</time>
      </trkpt>
      <trkpt lat="43.09122" lon="2.5778">
        <ele>159</ele>
        <time>2022-05-02T21:27:40Z</time>
      </trkpt>
      <trkpt lat="43.09069" lon="2.57787">
        <ele>162</ele>
        <time>2022-05-02T21:27:49Z</time>
      </trkpt>
      <trkpt lat="43.09051" lon="2.57792">
        <ele>163</ele>
        <time>2022-05-02T21:27:52Z</time>
      </trkpt>
      <trkpt lat="43.09039" lon="2.57801">
        <ele>162</ele>
        <time>2022-05-02T21:27:55Z</time>
      </trkpt>
      <trkpt lat="43.09033" lon="2.57812">
        <ele>159</ele>
        <time>2022-05-02T21:27:57Z</time>
      </trkpt>
      <trkpt lat="43.09033" lon="2.57831">
        <ele>154</ele>
        <time>2022-05-02T21:27:59Z</time>
      </trkpt>
      <trkpt lat="43.09039" lon="2.57875">
        <ele>155</ele>
        <time>2022-05-02T21:28:05Z</time>
      </trkpt>
      <trkpt lat="43.09039" lon="2.57897">
        <ele>156</ele>
        <time>2022-05-02T21:28:08Z</time>
      </trkpt>
      <trkpt lat="43.09034" lon="2.57914">
        <ele>156</ele>
        <time>2022-05-02T21:28:10Z</time>
      </trkpt>
      <trkpt lat="43.09019" lon="2.57946">
        <ele>155</ele>
        <time>2022-05-02T21:28:15Z</time>
      </trkpt>
      <trkpt lat="43.09003" lon="2.5803">
        <ele>153</ele>
        <time>2022-05-02T21:28:26Z</time>
      </trkpt>
      <trkpt lat="43.09" lon="2.5806">
        <ele>152</ele>
        <time>2022-05-02T21:28:30Z</time>
      </trkpt>
      <trkpt lat="43.09001" lon="2.58085">
        <ele>152</ele>
        <time>2022-05-02T21:28:33Z</time>
      </trkpt>
      <trkpt lat="43.09009" lon="2.58135">
        <ele>155</ele>
        <time>2022-05-02T21:28:40Z</time>
      </trkpt>
      <trkpt lat="43.09007" lon="2.58166">
        <ele>154</ele>
        <time>2022-05-02T21:28:44Z</time>
      </trkpt>
      <trkpt lat="43.09003" lon="2.58192">
        <ele>153</ele>
        <time>2022-05-02T21:28:48Z</time>
      </trkpt>
      <trkpt lat="43.08992" lon="2.5823">
        <ele>154</ele>
        <time>2022-05-02T21:28:53Z</time>
      </trkpt>
      <trkpt lat="43.08989" lon="2.58248">
        <ele>155</ele>
        <time>2022-05-02T21:28:55Z</time>
      </trkpt>
      <trkpt lat="43.08983" lon="2.5836">
        <ele>153</ele>
        <time>2022-05-02T21:29:10Z</time>
      </trkpt>
      <trkpt lat="43.08979" lon="2.58379">
        <ele>152</ele>
        <time>2022-05-02T21:29:13Z</time>
      </trkpt>
      <trkpt lat="43.0897" lon="2.58411">
        <ele>150</ele>
        <time>2022-05-02T21:29:17Z</time>
      </trkpt>
      <trkpt lat="43.08969" lon="2.58432">
        <ele>150</ele>
        <time>2022-05-02T21:29:20Z</time>
      </trkpt>
      <trkpt lat="43.08972" lon="2.58456">
        <ele>149</ele>
        <time>2022-05-02T21:29:23Z</time>
      </trkpt>
      <trkpt lat="43.08981" lon="2.58478">
        <ele>148</ele>
        <time>2022-05-02T21:29:26Z</time>
      </trkpt>
      <trkpt lat="43.0899" lon="2.58496">
        <ele>146</ele>
        <time>2022-05-02T21:29:29Z</time>
      </trkpt>
      <trkpt lat="43.08998" lon="2.58507">
        <ele>146</ele>
        <time>2022-05-02T21:29:31Z</time>
      </trkpt>
      <trkpt lat="43.09009" lon="2.5851">
        <ele>146</ele>
        <time>2022-05-02T21:29:33Z</time>
      </trkpt>
      <trkpt lat="43.09019" lon="2.5851">
        <ele>146</ele>
        <time>2022-05-02T21:29:35Z</time>
      </trkpt>
      <trkpt lat="43.09033" lon="2.58502">
        <ele>146</ele>
        <time>2022-05-02T21:29:37Z</time>
      </trkpt>
      <trkpt lat="43.09042" lon="2.58487">
        <ele>146</ele>
        <time>2022-05-02T21:29:40Z</time>
      </trkpt>
      <trkpt lat="43.09062" lon="2.58434">
        <ele>148</ele>
        <time>2022-05-02T21:29:48Z</time>
      </trkpt>
      <trkpt lat="43.09079" lon="2.58402">
        <ele>148</ele>
        <time>2022-05-02T21:29:53Z</time>
      </trkpt>
      <trkpt lat="43.09093" lon="2.58363">
        <ele>150</ele>
        <time>2022-05-02T21:29:59Z</time>
      </trkpt>
      <trkpt lat="43.09113" lon="2.5833">
        <ele>150</ele>
        <time>2022-05-02T21:30:04Z</time>
      </trkpt>
      <trkpt lat="43.09152" lon="2.58296">
        <ele>158</ele>
        <time>2022-05-02T21:30:12Z</time>
      </trkpt>
      <trkpt lat="43.09173" lon="2.58285">
        <ele>161</ele>
        <time>2022-05-02T21:30:16Z</time>
      </trkpt>
      <trkpt lat="43.09188" lon="2.58282">
        <ele>163</ele>
        <time>2022-05-02T21:30:19Z</time>
      </trkpt>
      <trkpt lat="43.09206" lon="2.58284">
        <ele>164</ele>
        <time>2022-05-02T21:30:22Z</time>
      </trkpt>
      <trkpt lat="43.09227" lon="2.58291">
        <ele>162</ele>
        <time>2022-05-02T21:30:26Z</time>
      </trkpt>
      <trkpt lat="43.09246" lon="2.58304">
        <ele>158</ele>
        <time>2022-05-02T21:30:30Z</time>
      </trkpt>
      <trkpt lat="43.09275" lon="2.5833">
        <ele>156</ele>
        <time>2022-05-02T21:30:36Z</time>
      </trkpt>
      <trkpt lat="43.09301" lon="2.58365">
        <ele>158</ele>
        <time>2022-05-02T21:30:43Z</time>
      </trkpt>
      <trkpt lat="43.09316" lon="2.58391">
        <ele>157</ele>
        <time>2022-05-02T21:30:47Z</time>
      </trkpt>
      <trkpt lat="43.09322" lon="2.58405">
        <ele>155</ele>
        <time>2022-05-02T21:30:49Z</time>
      </trkpt>
      <trkpt lat="43.09326" lon="2.58421">
        <ele>153</ele>
        <time>2022-05-02T21:30:51Z</time>
      </trkpt>
      <trkpt lat="43.09327" lon="2.5844">
        <ele>152</ele>
        <time>2022-05-02T21:30:54Z</time>
      </trkpt>
      <trkpt lat="43.09287" lon="2.58629">
        <ele>150</ele>
        <time>2022-05-02T21:31:19Z</time>
      </trkpt>
      <trkpt lat="43.09271" lon="2.58757">
        <ele>150</ele>
        <time>2022-05-02T21:31:36Z</time>
      </trkpt>
      <trkpt lat="43.09263" lon="2.588">
        <ele>147</ele>
        <time>2022-05-02T21:31:42Z</time>
      </trkpt>
      <trkpt lat="43.09247" lon="2.58865">
        <ele>143</ele>
        <time>2022-05-02T21:31:51Z</time>
      </trkpt>
      <trkpt lat="43.09223" lon="2.58953">
        <ele>146</ele>
        <time>2022-05-02T21:32:03Z</time>
      </trkpt>
      <trkpt lat="43.09218" lon="2.58975">
        <ele>146</ele>
        <time>2022-05-02T21:32:06Z</time>
      </trkpt>
      <trkpt lat="43.09214" lon="2.59001">
        <ele>145</ele>
        <time>2022-05-02T21:32:09Z</time>
      </trkpt>
      <trkpt lat="43.09211" lon="2.59058">
        <ele>147</ele>
        <time>2022-05-02T21:32:17Z</time>
      </trkpt>
      <trkpt lat="43.09211" lon="2.59242">
        <ele>146</ele>
        <time>2022-05-02T21:32:41Z</time>
      </trkpt>
      <trkpt lat="43.09209" lon="2.5933">
        <ele>145</ele>
        <time>2022-05-02T21:32:52Z</time>
      </trkpt>
      <trkpt lat="43.09204" lon="2.59355">
        <ele>143</ele>
        <time>2022-05-02T21:32:56Z</time>
      </trkpt>
      <trkpt lat="43.09195" lon="2.59386">
        <ele>141</ele>
        <time>2022-05-02T21:33:00Z</time>
      </trkpt>
      <trkpt lat="43.09181" lon="2.59418">
        <ele>137</ele>
        <time>2022-05-02T21:33:05Z</time>
      </trkpt>
      <trkpt lat="43.09175" lon="2.59443">
        <ele>135</ele>
        <time>2022-05-02T21:33:08Z</time>
      </trkpt>
      <trkpt lat="43.09174" lon="2.59462">
        <ele>135</ele>
        <time>2022-05-02T21:33:11Z</time>
      </trkpt>
      <trkpt lat="43.09181" lon="2.595">
        <ele>135</ele>
        <time>2022-05-02T21:33:16Z</time>
      </trkpt>
      <trkpt lat="43.09186" lon="2.59513">
        <ele>136</ele>
        <time>2022-05-02T21:33:18Z</time>
      </trkpt>
      <trkpt lat="43.09193" lon="2.59524">
        <ele>138</ele>
        <time>2022-05-02T21:33:19Z</time>
      </trkpt>
      <trkpt lat="43.09207" lon="2.59536">
        <ele>138</ele>
        <time>2022-05-02T21:33:22Z</time>
      </trkpt>
      <trkpt lat="43.09217" lon="2.5954">
        <ele>137</ele>
        <time>2022-05-02T21:33:24Z</time>
      </trkpt>
      <trkpt lat="43.09259" lon="2.59549">
        <ele>136</ele>
        <time>2022-05-02T21:33:32Z</time>
      </trkpt>
      <trkpt lat="43.09271" lon="2.59553">
        <ele>139</ele>
        <time>2022-05-02T21:33:34Z</time>
      </trkpt>
      <trkpt lat="43.09278" lon="2.59558">
        <ele>141</ele>
        <time>2022-05-02T21:33:35Z</time>
      </trkpt>
      <trkpt lat="43.09291" lon="2.59573">
        <ele>143</ele>
        <time>2022-05-02T21:33:38Z</time>
      </trkpt>
      <trkpt lat="43.09304" lon="2.59603">
        <ele>146</ele>
        <time>2022-05-02T21:33:43Z</time>
      </trkpt>
      <trkpt lat="43.09307" lon="2.59619">
        <ele>147</ele>
        <time>2022-05-02T21:33:45Z</time>
      </trkpt>
      <trkpt lat="43.09309" lon="2.59632">
        <ele>148</ele>
        <time>2022-05-02T21:33:47Z</time>
      </trkpt>
      <trkpt lat="43.09306" lon="2.59659">
        <ele>147</ele>
        <time>2022-05-02T21:33:50Z</time>
      </trkpt>
      <trkpt lat="43.09291" lon="2.59691">
        <ele>145</ele>
        <time>2022-05-02T21:33:55Z</time>
      </trkpt>
      <trkpt lat="43.09279" lon="2.59711">
        <ele>144</ele>
        <time>2022-05-02T21:33:59Z</time>
      </trkpt>
      <trkpt lat="43.09206" lon="2.59804">
        <ele>142</ele>
        <time>2022-05-02T21:34:16Z</time>
      </trkpt>
      <trkpt lat="43.09161" lon="2.59851">
        <ele>138</ele>
        <time>2022-05-02T21:34:27Z</time>
      </trkpt>
      <trkpt lat="43.09138" lon="2.59881">
        <ele>139</ele>
        <time>2022-05-02T21:34:32Z</time>
      </trkpt>
      <trkpt lat="43.0912" lon="2.59912">
        <ele>137</ele>
        <time>2022-05-02T21:34:37Z</time>
      </trkpt>
      <trkpt lat="43.09106" lon="2.59947">
        <ele>134</ele>
        <time>2022-05-02T21:34:43Z</time>
      </trkpt>
      <trkpt lat="43.091" lon="2.59964">
        <ele>133</ele>
        <time>2022-05-02T21:34:45Z</time>
      </trkpt>
      <trkpt lat="43.09095" lon="2.59994">
        <ele>132</ele>
        <time>2022-05-02T21:34:49Z</time>
      </trkpt>
      <trkpt lat="43.09095" lon="2.60024">
        <ele>131</ele>
        <time>2022-05-02T21:34:53Z</time>
      </trkpt>
      <trkpt lat="43.09099" lon="2.60041">
        <ele>130</ele>
        <time>2022-05-02T21:34:55Z</time>
      </trkpt>
      <trkpt lat="43.09105" lon="2.60059">
        <ele>130</ele>
        <time>2022-05-02T21:34:58Z</time>
      </trkpt>
      <trkpt lat="43.09112" lon="2.60072">
        <ele>130</ele>
        <time>2022-05-02T21:35:00Z</time>
      </trkpt>
      <trkpt lat="43.09123" lon="2.60085">
        <ele>130</ele>
        <time>2022-05-02T21:35:02Z</time>
      </trkpt>
      <trkpt lat="43.09133" lon="2.60093">
        <ele>130</ele>
        <time>2022-05-02T21:35:05Z</time>
      </trkpt>
      <trkpt lat="43.09145" lon="2.601">
        <ele>130</ele>
        <time>2022-05-02T21:35:07Z</time>
      </trkpt>
      <trkpt lat="43.09161" lon="2.60105">
        <ele>131</ele>
        <time>2022-05-02T21:35:10Z</time>
      </trkpt>
      <trkpt lat="43.09233" lon="2.60122">
        <ele>129</ele>
        <time>2022-05-02T21:35:23Z</time>
      </trkpt>
      <trkpt lat="43.09251" lon="2.6012">
        <ele>130</ele>
        <time>2022-05-02T21:35:26Z</time>
      </trkpt>
      <trkpt lat="43.09263" lon="2.60116">
        <ele>130</ele>
        <time>2022-05-02T21:35:28Z</time>
      </trkpt>
      <trkpt lat="43.09276" lon="2.60105">
        <ele>130</ele>
        <time>2022-05-02T21:35:31Z</time>
      </trkpt>
      <trkpt lat="43.09287" lon="2.60091">
        <ele>130</ele>
        <time>2022-05-02T21:35:34Z</time>
      </trkpt>
      <trkpt lat="43.09296" lon="2.60072">
        <ele>130</ele>
        <time>2022-05-02T21:35:36Z</time>
      </trkpt>
      <trkpt lat="43.09329" lon="2.5996">
        <ele>132</ele>
        <time>2022-05-02T21:35:52Z</time>
      </trkpt>
      <trkpt lat="43.09346" lon="2.59916">
        <ele>134</ele>
        <time>2022-05-02T21:35:59Z</time>
      </trkpt>
      <trkpt lat="43.09361" lon="2.59903">
        <ele>135</ele>
        <time>2022-05-02T21:36:02Z</time>
      </trkpt>
      <trkpt lat="43.09379" lon="2.59903">
        <ele>131</ele>
        <time>2022-05-02T21:36:05Z</time>
      </trkpt>
      <trkpt lat="43.09392" lon="2.59912">
        <ele>127</ele>
        <time>2022-05-02T21:36:08Z</time>
      </trkpt>
      <trkpt lat="43.09428" lon="2.59944">
        <ele>122</ele>
        <time>2022-05-02T21:36:15Z</time>
      </trkpt>
      <trkpt lat="43.09442" lon="2.59958">
        <ele>123</ele>
        <time>2022-05-02T21:36:18Z</time>
      </trkpt>
      <trkpt lat="43.09451" lon="2.5997">
        <ele>124</ele>
        <time>2022-05-02T21:36:21Z</time>
      </trkpt>
      <trkpt lat="43.09458" lon="2.59989">
        <ele>123</ele>
        <time>2022-05-02T21:36:23Z</time>
      </trkpt>
      <trkpt lat="43.09461" lon="2.60018">
        <ele>124</ele>
        <time>2022-05-02T21:36:27Z</time>
      </trkpt>
      <trkpt lat="43.09469" lon="2.60344">
        <ele>136</ele>
        <time>2022-05-02T21:37:10Z</time>
      </trkpt>
      <trkpt lat="43.09475" lon="2.60379">
        <ele>137</ele>
        <time>2022-05-02T21:37:14Z</time>
      </trkpt>
      <trkpt lat="43.0949" lon="2.6043">
        <ele>132</ele>
        <time>2022-05-02T21:37:21Z</time>
      </trkpt>
      <trkpt lat="43.09541" lon="2.60555">
        <ele>126</ele>
        <time>2022-05-02T21:37:40Z</time>
      </trkpt>
      <trkpt lat="43.09544" lon="2.60566">
        <ele>126</ele>
        <time>2022-05-02T21:37:41Z</time>
      </trkpt>
      <trkpt lat="43.09544" lon="2.60588">
        <ele>126</ele>
        <time>2022-05-02T21:37:44Z</time>
      </trkpt>
      <trkpt lat="43.09537" lon="2.60605">
        <ele>125</ele>
        <time>2022-05-02T21:37:47Z</time>
      </trkpt>
      <trkpt lat="43.09521" lon="2.60625">
        <ele>124</ele>
        <time>2022-05-02T21:37:51Z</time>
      </trkpt>
      <trkpt lat="43.09323" lon="2.6083">
        <ele>121</ele>
        <time>2022-05-02T21:38:35Z</time>
      </trkpt>
      <trkpt lat="43.09282" lon="2.60875">
        <ele>128</ele>
        <time>2022-05-02T21:38:44Z</time>
      </trkpt>
      <trkpt lat="43.09241" lon="2.60934">
        <ele>129</ele>
        <time>2022-05-02T21:38:55Z</time>
      </trkpt>
      <trkpt lat="43.09179" lon="2.61006">
        <ele>132</ele>
        <time>2022-05-02T21:39:09Z</time>
      </trkpt>
      <trkpt lat="43.09149" lon="2.61045">
        <ele>131</ele>
        <time>2022-05-02T21:39:17Z</time>
      </trkpt>
      <trkpt lat="43.09136" lon="2.61067">
        <ele>130</ele>
        <time>2022-05-02T21:39:20Z</time>
      </trkpt>
      <trkpt lat="43.09129" lon="2.61085">
        <ele>129</ele>
        <time>2022-05-02T21:39:23Z</time>
      </trkpt>
      <trkpt lat="43.09127" lon="2.61103">
        <ele>128</ele>
        <time>2022-05-02T21:39:25Z</time>
      </trkpt>
      <trkpt lat="43.09133" lon="2.61194">
        <ele>126</ele>
        <time>2022-05-02T21:39:37Z</time>
      </trkpt>
      <trkpt lat="43.09134" lon="2.61284">
        <ele>131</ele>
        <time>2022-05-02T21:39:49Z</time>
      </trkpt>
      <trkpt lat="43.09137" lon="2.61304">
        <ele>131</ele>
        <time>2022-05-02T21:39:52Z</time>
      </trkpt>
      <trkpt lat="43.09182" lon="2.61436">
        <ele>130</ele>
        <time>2022-05-02T21:40:10Z</time>
      </trkpt>
      <trkpt lat="43.09259" lon="2.61673">
        <ele>127</ele>
        <time>2022-05-02T21:40:44Z</time>
      </trkpt>
      <trkpt lat="43.09297" lon="2.61772">
        <ele>124</ele>
        <time>2022-05-02T21:40:59Z</time>
      </trkpt>
      <trkpt lat="43.09309" lon="2.61814">
        <ele>122</ele>
        <time>2022-05-02T21:41:05Z</time>
      </trkpt>
      <trkpt lat="43.09312" lon="2.61848">
        <ele>122</ele>
        <time>2022-05-02T21:41:09Z</time>
      </trkpt>
      <trkpt lat="43.0931" lon="2.61863">
        <ele>122</ele>
        <time>2022-05-02T21:41:11Z</time>
      </trkpt>
      <trkpt lat="43.09269" lon="2.6198">
        <ele>126</ele>
        <time>2022-05-02T21:41:28Z</time>
      </trkpt>
      <trkpt lat="43.09258" lon="2.61999">
        <ele>127</ele>
        <time>2022-05-02T21:41:31Z</time>
      </trkpt>
      <trkpt lat="43.09236" lon="2.62026">
        <ele>128</ele>
        <time>2022-05-02T21:41:36Z</time>
      </trkpt>
      <trkpt lat="43.09214" lon="2.62048">
        <ele>128</ele>
        <time>2022-05-02T21:41:41Z</time>
      </trkpt>
      <trkpt lat="43.09179" lon="2.6208">
        <ele>129</ele>
        <time>2022-05-02T21:41:49Z</time>
      </trkpt>
      <trkpt lat="43.09171" lon="2.62085">
        <ele>129</ele>
        <time>2022-05-02T21:41:50Z</time>
      </trkpt>
      <trkpt lat="43.09153" lon="2.62091">
        <ele>129</ele>
        <time>2022-05-02T21:41:53Z</time>
      </trkpt>
      <trkpt lat="43.09125" lon="2.62088">
        <ele>129</ele>
        <time>2022-05-02T21:41:58Z</time>
      </trkpt>
      <trkpt lat="43.09102" lon="2.62082">
        <ele>130</ele>
        <time>2022-05-02T21:42:03Z</time>
      </trkpt>
      <trkpt lat="43.09094" lon="2.62136">
        <ele>130</ele>
        <time>2022-05-02T21:42:10Z</time>
      </trkpt>
      <trkpt lat="43.09091" lon="2.62194">
        <ele>130</ele>
        <time>2022-05-02T21:42:17Z</time>
      </trkpt>
      <trkpt lat="43.09058" lon="2.62219">
        <ele>131</ele>
        <time>2022-05-02T21:42:24Z</time>
      </trkpt>
      <trkpt lat="43.0901" lon="2.62223">
        <ele>132</ele>
        <time>2022-05-02T21:42:33Z</time>
      </trkpt>
      <trkpt lat="43.08993" lon="2.62233">
        <ele>133</ele>
        <time>2022-05-02T21:42:36Z</time>
      </trkpt>
      <trkpt lat="43.08992" lon="2.62228">
        <ele>133</ele>
        <time>2022-05-02T21:42:37Z</time>
      </trkpt>
    </trkseg>
  </trk>
</gpx>